GFSSGP_sfc_wetblb_000.txt.gz
Wetbulb
75.46 76.29 76.59 73.38 63.79 58.91 55.31 56.26 61.64 60.62 62.38 65.86 66.18 64.65 60.60 63.81 62.99 59.11 71.69 74.01 74.71 74.43 75.34 76.91 78.90 78.55 78.42 78.66 78.41 78.16 78.57 79.16 79.14 78.95 78.88 78.90 78.93 79.39 79.22 79.13 79.12 79.11 78.77 78.13 77.85 77.68 77.65 77.54 77.34
74.55 76.70 74.31 70.24 57.46 52.32 53.84 60.01 59.28 61.96 63.90 66.84 67.65 67.31 66.52 64.14 68.88 69.89 71.39 74.23 74.95 74.77 75.49 75.83 78.83 78.96 78.69 78.57 78.34 78.93 78.78 78.82 79.21 78.80 78.93 78.97 79.09 79.22 79.17 78.95 78.87 78.35 78.55 77.77 77.71 77.38 77.02 76.57 76.16
73.14 75.85 69.63 63.45 57.22 53.30 54.62 59.86 61.16 62.87 64.88 65.33 65.64 68.46 67.53 66.66 70.73 71.33 73.78 74.91 75.59 76.47 76.70 77.40 79.27 79.08 78.71 78.84 79.33 79.45 79.20 79.22 79.30 79.18 78.85 78.60 78.58 78.02 77.81 77.98 77.81 78.12 78.20 77.68 77.35 76.85 76.63 76.18 75.98
74.64 71.89 70.20 57.03 54.48 57.72 58.39 60.42 61.69 62.85 64.67 66.85 67.16 64.50 69.63 72.75 71.75 73.62 74.65 75.75 75.69 76.41 76.65 78.27 79.26 79.12 79.26 79.27 79.22 79.52 79.36 79.23 79.42 78.97 78.88 78.65 78.47 78.18 77.82 77.94 77.85 77.63 77.44 77.38 77.10 76.60 76.32 75.96 75.76
74.13 68.64 60.52 56.94 57.14 59.31 60.63 61.46 62.61 61.64 62.78 64.82 67.23 64.60 67.11 73.00 74.72 75.43 75.24 75.71 75.16 75.78 76.64 77.81 80.02 80.04 79.67 79.83 79.62 79.77 79.45 79.26 79.01 78.93 78.29 78.83 78.57 77.99 77.94 77.72 77.52 77.04 76.79 76.50 76.41 76.19 75.88 76.09 76.32
66.05 67.96 57.70 55.91 57.46 60.18 60.16 61.47 62.47 62.40 64.20 65.44 65.68 65.96 67.57 73.38 73.32 75.13 75.95 75.83 76.54 75.58 76.51 76.97 79.36 79.51 79.14 79.54 79.18 79.63 79.25 79.14 79.09 79.00 78.64 78.86 77.98 77.62 77.27 77.13 76.93 76.50 76.12 75.93 75.99 76.11 75.98 75.82 76.10
62.96 61.61 57.97 58.21 58.58 57.81 59.49 62.54 61.95 62.45 63.42 64.95 67.61 64.39 68.37 71.00 73.24 75.25 75.78 75.73 76.02 76.88 76.89 77.36 77.42 78.52 79.06 80.01 79.13 79.45 79.36 79.07 78.64 78.60 78.45 78.18 77.74 77.58 77.19 77.02 76.68 76.07 76.01 75.84 76.53 76.87 75.99 76.43 76.51
65.45 64.19 57.66 58.44 59.14 58.20 62.16 62.35 64.08 64.05 63.69 68.31 69.05 63.72 64.94 70.36 73.85 73.89 74.94 74.61 75.87 76.44 77.27 77.95 77.84 78.04 78.13 78.13 79.61 79.11 79.42 79.06 78.49 78.04 77.63 77.71 77.88 77.74 76.26 76.25 76.60 76.82 76.33 76.03 76.73 76.85 76.74 76.73 77.49
68.19 59.70 56.87 57.66 58.74 60.64 64.75 63.04 65.35 66.70 65.81 67.46 68.79 68.14 70.30 71.88 73.35 73.28 74.01 74.70 75.28 75.27 76.31 76.14 77.04 78.17 79.22 78.36 77.88 78.83 78.83 78.93 78.34 77.77 77.94 77.76 76.24 75.70 69.84 69.38 73.07 77.07 76.90 76.48 76.60 76.77 77.15 76.83 76.96
61.43 57.66 58.10 60.76 62.07 60.73 61.62 64.07 65.42 65.56 65.83 65.91 65.94 69.93 71.16 71.75 71.30 71.81 70.81 71.56 72.63 73.70 75.02 76.18 76.51 77.41 78.08 77.07 78.08 78.33 77.75 77.22 77.35 77.13 77.95 77.30 77.20 76.49 73.96 69.81 72.92 76.97 76.99 76.77 77.10 76.87 76.78 75.77 74.36
60.78 57.22 60.04 62.60 63.63 64.60 62.44 65.25 65.68 63.83 63.98 66.31 65.55 68.22 69.94 70.49 70.83 70.45 72.08 71.76 73.48 74.54 74.52 75.71 78.21 79.08 78.05 75.71 77.63 78.08 77.76 77.19 77.35 78.72 78.83 79.65 77.85 73.84 76.49 75.89 75.82 77.15 77.63 76.60 76.76 76.46 75.62 75.39 74.86
58.85 62.47 62.00 61.76 64.49 63.02 62.07 65.41 62.72 62.44 63.43 69.60 68.82 69.71 69.84 69.62 69.76 70.03 70.59 71.46 73.15 73.74 75.03 76.05 75.99 77.44 78.18 76.66 77.21 77.51 77.02 77.62 74.46 77.68 79.42 78.58 77.58 78.17 78.43 76.93 77.61 77.55 76.39 76.83 76.69 75.81 76.82 75.66 75.76
60.49 61.77 62.30 64.00 64.11 63.40 64.85 64.70 66.17 63.31 68.45 69.17 69.08 69.63 69.38 69.62 70.00 70.75 71.25 71.89 73.68 73.34 74.27 76.50 77.77 77.95 80.63 78.05 79.29 75.46 76.29 75.16 77.32 77.68 78.22 78.25 78.20 77.51 77.64 77.44 77.03 76.53 76.77 76.57 76.41 76.20 75.75 75.16 74.81
62.16 62.25 61.67 62.95 61.99 63.40 62.97 64.47 65.99 67.43 69.23 68.29 68.54 68.58 69.22 69.67 70.16 70.83 71.11 71.59 72.65 73.82 74.26 75.91 77.19 78.84 79.34 80.28 80.11 80.25 78.57 76.98 79.25 78.05 77.17 78.82 77.55 77.53 75.91 76.34 75.70 77.87 76.01 77.66 75.96 76.28 75.33 74.78 74.89
62.33 59.65 61.26 61.00 62.72 62.36 63.27 62.14 63.77 68.05 69.17 68.07 68.53 69.08 69.54 69.94 70.57 70.45 71.16 71.80 72.90 73.38 74.49 75.65 76.22 78.01 78.81 78.99 80.13 80.10 78.43 76.92 76.81 77.93 79.59 78.58 78.68 78.23 76.82 76.32 75.08 75.12 77.11 77.21 76.28 75.61 74.80 74.09 73.66
59.68 60.24 56.11 61.41 62.57 61.28 62.75 59.00 65.50 68.36 68.41 67.84 68.78 69.40 69.89 70.89 71.16 71.67 71.73 72.17 73.28 74.13 75.71 75.67 75.02 77.08 78.38 78.55 79.19 78.38 77.78 77.60 78.67 77.97 76.74 77.66 78.73 77.87 77.25 75.19 74.42 75.06 75.95 74.63 73.93 74.51 73.64 73.35 73.50
58.35 55.02 56.58 58.91 61.87 61.11 60.94 60.04 65.70 67.90 67.36 66.89 68.41 68.95 69.87 70.41 72.12 72.83 73.05 73.53 74.51 75.89 76.22 76.24 77.09 77.07 78.36 78.55 79.17 78.49 79.31 79.11 78.32 78.19 78.16 77.77 79.09 77.65 77.22 76.42 75.76 75.96 74.09 73.68 73.25 72.82 73.84 71.76 71.31
54.58 55.41 57.60 57.85 60.56 61.57 60.13 60.14 64.39 65.73 66.15 66.34 67.41 68.01 68.84 69.32 69.80 73.12 73.76 73.83 74.57 76.13 76.51 76.82 77.13 78.60 78.01 79.33 79.50 78.69 78.65 77.33 77.65 77.97 76.07 78.27 78.22 77.12 78.57 76.72 75.56 75.64 75.15 73.93 73.66 72.93 73.10 72.62 72.23
58.34 56.96 56.78 58.65 62.04 60.94 59.86 59.79 62.67 64.05 65.02 65.69 66.73 67.16 67.65 68.00 71.48 72.57 73.79 74.82 74.98 75.54 77.35 76.37 78.21 79.77 79.70 78.43 77.83 78.56 77.48 78.86 77.14 77.91 77.94 78.03 78.87 77.25 77.66 76.76 75.84 75.99 73.99 73.84 74.22 73.37 71.83 71.12 73.24
56.46 55.65 55.71 58.71 60.83 60.32 60.23 59.78 62.76 63.51 63.92 65.49 66.50 66.90 67.29 68.41 69.27 70.85 72.12 72.24 73.59 76.00 77.15 78.04 78.92 79.57 79.33 79.58 79.88 78.46 77.91 77.56 77.22 76.87 77.92 77.88 76.66 76.88 76.86 76.35 75.15 74.30 73.46 73.27 73.83 73.27 71.17 70.93 71.67
55.44 53.96 54.67 56.38 59.03 59.30 58.82 58.53 58.37 63.07 64.52 65.18 66.13 67.56 67.95 67.80 68.14 70.29 71.33 72.44 73.65 74.77 76.42 77.56 79.15 78.65 79.72 79.61 79.34 78.71 77.72 77.43 75.92 76.49 73.44 75.36 74.20 74.49 75.60 75.54 74.89 74.62 74.26 71.29 72.30 72.35 70.53 69.11 71.14
52.32 55.93 55.43 55.06 55.43 51.94 58.57 50.82 57.95 60.65 61.73 63.74 64.63 65.56 66.62 67.33 68.94 69.76 70.86 72.30 73.29 74.86 76.59 77.82 79.23 79.74 79.54 79.20 78.50 76.48 73.69 70.68 74.88 74.93 73.49 73.39 74.39 74.22 73.91 74.26 74.27 74.08 73.42 72.25 71.64 71.70 71.38 71.63 68.48
53.64 56.51 55.06 55.03 53.56 53.25 54.07 52.68 56.60 61.79 59.29 61.21 63.61 64.82 66.08 67.25 67.94 68.58 69.66 71.68 72.97 74.68 75.32 77.29 79.36 79.17 78.13 77.12 75.76 73.91 73.18 71.14 72.62 72.65 73.24 74.62 73.32 73.91 73.13 74.85 74.21 73.18 72.18 71.93 71.51 71.55 71.40 70.58 69.90
56.89 57.01 55.94 55.01 53.31 49.12 52.97 53.96 54.61 57.47 61.84 61.02 62.56 64.70 66.20 66.98 68.16 68.86 70.16 71.66 72.24 74.07 74.83 76.96 77.27 77.29 77.06 75.85 75.18 74.05 73.52 72.83 71.29 72.01 71.31 70.40 71.83 71.96 74.01 72.97 73.21 73.19 71.88 71.54 71.10 71.69 70.69 70.29 70.20
56.09 54.84 49.92 48.45 48.40 47.94 54.32 52.77 56.84 60.34 62.50 63.81 63.32 64.01 66.18 67.63 68.52 69.16 68.91 69.98 71.67 72.83 74.37 75.94 75.68 75.61 75.73 74.82 74.47 72.95 72.85 73.69 73.30 72.30 71.87 71.83 69.78 71.30 71.91 73.13 73.08 71.26 71.96 71.78 70.90 70.68 70.18 69.56 68.92
54.55 54.44 50.02 46.42 46.80 49.15 55.09 51.36 55.99 60.22 63.56 66.19 66.47 67.39 66.50 66.61 69.01 69.54 70.57 70.52 72.24 73.08 74.80 74.34 74.64 74.39 74.60 74.41 74.63 73.71 74.69 72.83 72.91 73.48 71.41 70.47 70.35 70.88 73.05 72.24 72.41 71.79 71.73 71.61 71.71 70.43 69.79 69.91 69.31
54.68 52.64 55.86 51.97 52.55 49.29 52.01 55.07 57.82 59.49 59.46 59.67 61.62 61.88 65.93 66.47 67.40 69.36 71.17 72.26 72.83 73.10 74.08 74.46 74.64 74.87 74.34 73.61 75.40 74.78 74.38 73.73 73.57 73.82 73.64 70.86 73.57 70.15 70.92 71.49 71.37 71.74 71.29 71.26 71.44 69.67 69.35 68.87 68.66
56.16 57.26 51.19 51.93 48.00 46.37 49.95 51.38 52.02 58.50 58.28 59.35 59.41 60.24 63.35 67.69 68.00 68.61 70.14 72.21 73.65 73.85 74.49 74.27 74.93 74.65 73.63 73.88 73.68 73.30 73.58 73.39 73.79 73.38 72.61 72.75 72.79 72.73 71.90 71.37 70.90 70.89 70.66 70.65 69.69 69.74 68.28 68.62 67.96
54.33 53.56 54.17 53.58 51.91 47.97 46.90 49.71 59.31 60.43 60.40 58.95 60.05 61.67 62.43 64.15 68.36 69.62 70.63 72.96 74.23 73.60 73.64 72.73 73.33 73.77 72.62 73.19 73.75 73.33 71.84 72.06 72.63 71.92 71.98 72.38 73.24 73.07 72.23 71.48 70.71 70.17 69.39 69.94 69.31 69.05 69.05 66.81 68.10
56.18 55.06 55.60 51.11 51.72 53.14 52.25 50.71 59.49 59.56 59.46 59.91 61.02 61.60 63.89 65.69 68.00 70.96 71.07 73.30 73.85 73.22 72.61 71.50 71.16 71.67 71.92 72.43 73.44 72.47 72.45 72.32 72.48 72.05 71.87 72.86 72.11 72.61 71.79 71.36 70.52 69.97 69.27 69.45 68.55 67.82 68.09 67.30 66.56

GFSSGP_sfc_wetblb_003.txt.gz
Wetbulb
75.81 75.35 73.29 70.89 62.22 56.96 52.17 55.36 61.02 59.39 60.82 64.31 65.86 63.03 63.15 64.67 62.00 56.25 68.78 72.88 73.76 74.28 76.01 76.37 78.14 78.64 78.65 78.87 78.64 78.20 78.41 79.21 79.26 79.29 79.62 79.79 79.63 79.53 79.57 79.54 79.55 79.17 79.06 78.05 77.77 77.96 77.77 77.66 77.41
73.18 72.85 71.83 66.58 57.01 49.59 50.14 57.14 56.17 61.95 64.49 65.15 65.29 66.19 64.63 62.20 67.11 68.23 70.17 72.65 74.14 74.51 75.42 76.86 78.45 78.78 78.61 78.73 78.44 79.18 79.11 79.48 79.34 79.36 79.49 79.56 79.67 79.48 79.62 78.95 78.75 78.94 78.79 77.72 77.67 77.66 77.34 77.06 76.64
72.34 72.57 66.14 63.08 51.84 49.97 50.41 56.42 58.41 63.24 65.61 65.19 65.43 67.69 66.12 64.11 69.22 69.67 72.45 74.03 74.66 74.26 75.96 77.04 79.36 79.12 79.00 79.01 79.32 79.67 79.41 79.61 79.20 79.24 79.52 79.36 79.40 78.89 78.48 78.20 78.42 78.76 78.95 78.28 77.56 77.17 77.12 76.87 76.31
69.32 67.77 66.77 54.59 50.57 54.87 55.83 58.10 61.76 63.43 65.37 66.84 67.18 64.41 68.57 70.97 69.95 72.06 74.68 75.22 74.64 74.75 76.56 78.78 79.53 79.33 79.53 79.86 79.42 79.73 80.00 79.69 79.48 79.19 78.94 78.87 79.07 78.79 78.22 78.11 77.86 77.67 78.16 78.30 77.69 77.47 77.23 76.84 76.39
69.83 64.94 57.57 51.17 52.94 56.65 58.22 60.17 61.11 62.05 64.10 66.23 67.67 64.43 66.16 70.52 72.68 73.93 74.14 74.98 73.93 75.01 76.67 78.13 79.65 79.60 79.51 79.39 80.05 80.03 79.84 79.56 79.48 79.26 78.98 78.71 79.51 78.60 78.59 78.08 77.40 76.95 76.84 77.26 77.59 77.09 76.84 76.25 76.05
61.85 61.27 55.32 50.43 53.47 54.94 56.91 60.68 62.93 64.21 65.14 66.46 66.90 66.13 66.78 71.98 71.77 73.10 74.51 74.33 74.99 74.86 76.70 77.68 79.81 79.85 79.85 79.72 79.70 80.12 79.73 79.19 79.12 79.07 79.39 79.03 79.15 78.98 78.41 77.45 76.84 76.42 76.12 75.99 76.67 77.89 77.24 76.22 76.33
60.95 57.93 55.70 55.68 54.47 55.83 57.45 61.70 61.48 62.83 64.23 64.50 68.66 64.53 67.61 70.11 72.78 73.93 74.27 74.71 75.19 75.18 75.88 77.43 77.85 78.63 79.54 79.94 80.01 79.63 79.41 79.65 79.52 79.48 79.10 78.71 78.37 77.76 77.60 77.83 77.43 76.76 76.36 76.16 76.42 77.28 77.83 77.57 76.94
62.86 59.24 56.45 56.18 56.09 53.59 59.55 60.73 62.95 62.79 63.11 68.92 68.99 63.04 63.63 69.79 73.51 74.24 74.62 74.14 74.71 75.02 75.50 75.43 76.42 77.37 78.01 78.29 79.97 79.14 79.43 79.27 79.43 79.36 78.54 78.46 77.98 77.31 77.04 74.96 75.58 77.20 77.29 76.68 76.62 76.72 76.89 77.58 77.04
66.49 56.05 53.76 55.42 56.40 56.98 61.30 60.24 63.58 65.72 64.95 67.01 67.70 67.64 68.94 71.29 73.30 72.59 72.46 73.27 73.52 75.04 75.12 75.32 75.26 76.05 76.31 77.04 78.67 79.97 79.52 79.64 79.42 78.86 78.97 77.91 75.19 73.88 72.88 73.70 73.37 75.85 77.29 76.84 76.45 76.11 76.69 76.43 76.37
61.68 57.18 56.01 60.37 61.44 60.46 63.08 63.81 64.02 63.51 64.15 64.39 66.33 68.89 69.74 70.60 70.68 70.28 71.55 70.79 70.95 72.36 74.45 75.11 75.33 75.45 76.27 76.87 76.54 77.13 77.34 77.04 76.28 75.91 75.73 75.66 74.29 73.82 74.64 71.86 71.87 76.13 77.23 76.62 76.44 76.10 76.29 75.60 72.64
62.53 58.05 60.77 60.71 63.00 63.38 61.99 64.20 65.50 64.68 61.02 64.52 64.43 66.25 68.03 69.44 69.80 70.65 70.07 69.59 71.59 72.88 73.37 73.52 74.01 75.09 75.16 76.14 75.89 75.47 74.68 75.60 75.81 75.30 75.42 75.03 73.69 71.99 73.14 72.97 72.52 72.93 75.55 74.25 75.76 74.34 74.18 72.90 72.00
57.95 60.33 62.31 63.02 64.66 62.86 61.96 62.63 60.88 64.78 63.30 67.90 67.98 68.27 68.25 67.50 67.85 68.53 69.37 68.95 71.15 71.37 72.68 74.62 75.94 74.88 74.28 74.96 75.42 75.36 75.35 75.19 74.79 75.54 74.88 74.21 73.41 72.59 73.77 73.60 73.61 73.64 72.98 72.89 73.14 72.48 73.16 72.13 72.37
57.90 58.71 61.31 61.74 62.18 63.32 64.70 62.23 61.42 61.61 64.60 68.78 68.84 68.71 67.95 67.54 67.77 68.66 69.73 70.85 70.46 70.44 73.77 74.15 74.19 74.96 74.61 73.86 74.60 73.83 74.80 74.71 74.11 74.44 74.92 74.44 73.18 72.52 73.73 73.23 73.35 73.11 73.20 72.44 72.48 72.28 72.18 72.47 72.38
60.09 58.85 60.67 60.27 61.16 63.46 62.80 60.94 62.20 62.58 66.28 67.23 67.37 67.22 67.74 67.70 67.76 67.82 68.66 69.99 70.10 70.43 73.11 74.53 73.98 75.09 74.53 74.59 74.71 74.52 74.71 73.84 74.86 74.26 73.96 75.40 74.32 73.52 72.98 72.46 72.04 73.60 72.21 73.21 72.36 72.04 71.50 71.25 71.85
60.34 56.45 58.66 59.47 60.72 62.24 64.11 60.99 62.31 65.64 66.15 65.44 66.41 66.88 67.60 67.91 68.69 68.07 68.97 69.25 70.01 70.45 71.39 73.26 74.08 75.43 74.43 74.34 74.96 75.16 74.98 75.21 73.19 73.84 73.71 73.95 74.01 72.93 72.95 71.49 72.05 72.00 72.35 72.27 72.27 72.14 72.21 71.20 71.51
55.72 55.06 50.67 57.31 58.91 61.99 61.82 56.32 63.80 66.05 65.22 64.53 66.01 66.86 67.37 67.33 68.31 68.92 69.78 69.35 70.30 69.68 71.49 71.29 74.95 75.07 74.84 74.88 75.04 74.85 73.78 74.40 74.61 73.77 73.89 74.50 75.05 73.66 72.66 71.14 71.66 71.72 71.85 70.97 69.98 69.53 69.30 69.82 69.98
52.55 48.94 52.52 55.20 57.56 57.96 58.75 58.31 63.71 66.31 65.73 65.03 65.97 66.59 67.52 67.83 68.21 68.66 69.79 69.40 69.92 71.30 71.62 70.81 71.54 73.49 74.64 74.88 75.34 74.89 75.11 74.94 74.42 74.60 74.33 74.09 74.29 74.24 73.14 72.80 72.64 70.43 70.23 69.62 69.77 69.19 69.53 68.79 68.45
49.08 50.38 54.14 54.19 56.44 56.82 57.37 58.70 63.29 65.13 65.37 65.07 66.05 66.94 67.58 67.85 68.42 69.32 70.84 71.59 71.75 71.71 72.23 72.50 72.31 73.14 74.46 74.47 74.48 74.98 73.83 72.93 74.37 74.60 73.64 73.11 72.80 74.24 72.52 71.59 71.35 71.16 70.99 70.55 70.19 68.90 69.26 69.22 68.88
54.75 53.59 54.37 57.53 58.55 56.38 56.39 59.45 61.74 63.53 63.86 63.17 63.73 65.00 66.14 66.82 69.77 70.66 71.52 71.87 72.12 72.65 72.53 72.58 71.65 73.48 74.00 73.32 72.86 72.40 71.55 72.61 73.32 74.07 74.32 72.94 73.14 73.44 72.32 71.75 71.37 71.29 70.43 69.95 69.97 69.10 67.97 66.99 68.31
52.89 55.19 54.18 57.16 59.22 57.08 55.94 57.81 60.82 61.37 62.67 63.92 64.43 64.52 65.78 65.97 69.07 70.21 70.87 70.94 71.45 71.97 72.80 73.47 73.64 74.24 74.57 74.33 74.20 73.52 73.15 73.80 73.23 74.37 73.15 72.68 71.76 72.62 72.47 71.59 70.28 68.99 69.35 68.44 67.41 67.73 66.79 67.06 68.38
51.48 49.97 54.10 54.98 58.55 58.85 57.25 53.83 56.14 61.12 61.29 63.91 65.63 65.79 66.05 66.14 66.92 69.15 70.31 70.51 71.67 72.50 73.34 74.06 74.53 74.85 74.60 73.53 74.38 73.29 72.39 71.62 69.85 71.13 71.14 68.79 68.16 68.48 69.62 68.59 68.07 68.55 68.45 67.56 67.12 67.13 66.14 65.21 66.85
46.51 53.48 53.62 55.66 55.00 48.99 56.64 46.54 52.22 56.14 57.21 61.64 63.89 64.63 64.77 66.07 66.75 67.46 67.25 67.82 70.94 73.11 74.00 74.81 74.64 73.96 74.86 73.99 72.85 69.59 66.28 61.57 67.48 67.80 67.86 67.33 68.39 68.28 68.15 68.24 68.75 67.91 67.79 67.44 67.55 68.75 66.77 66.16 64.71
50.02 53.96 51.98 51.31 50.98 48.18 51.54 46.37 52.49 55.36 54.07 58.23 61.39 64.20 65.12 66.05 66.78 67.29 67.95 69.15 71.01 73.38 73.33 73.32 74.34 74.55 71.71 66.95 67.69 64.02 61.61 63.93 66.08 66.47 65.45 63.48 65.50 67.84 69.14 69.40 67.98 67.46 67.36 67.16 67.68 67.05 66.54 66.18 65.37
55.14 51.44 49.94 48.74 45.36 40.45 46.48 47.38 49.19 52.99 55.93 59.14 61.38 63.41 64.63 65.80 66.91 67.84 68.85 69.97 71.22 72.47 73.71 74.74 73.45 70.18 69.06 66.54 65.16 63.36 62.71 63.16 63.20 64.59 63.58 64.38 64.67 65.35 68.50 68.05 66.59 66.81 66.71 66.49 66.16 66.98 66.45 66.12 65.12
51.01 47.48 41.82 40.00 39.97 40.09 46.58 45.85 50.71 57.82 59.87 59.35 59.85 60.23 62.72 65.42 66.25 66.72 67.38 68.62 70.64 70.93 72.85 74.26 71.19 69.10 68.34 66.97 67.02 65.51 64.57 64.26 63.50 63.88 65.16 63.24 62.86 65.38 65.45 65.66 66.22 64.41 65.45 66.35 66.31 65.44 64.94 64.92 64.12
48.43 46.74 43.13 38.71 39.46 43.60 49.61 44.46 50.05 60.61 61.81 61.36 62.31 61.34 62.11 64.50 65.47 66.12 66.82 67.83 69.81 70.79 72.45 72.54 70.65 69.70 68.41 67.76 65.96 65.48 64.93 64.33 65.83 67.17 64.93 62.87 62.82 64.76 65.30 64.82 65.74 65.70 66.55 66.62 66.30 64.93 64.71 64.83 63.73
49.49 46.35 50.26 44.58 45.81 42.37 45.69 50.09 55.89 60.04 59.75 60.97 62.41 61.58 60.21 61.99 65.03 65.24 66.30 67.67 69.67 69.86 72.01 71.59 71.10 70.33 68.99 68.47 67.08 66.22 66.25 65.61 66.20 65.55 64.83 63.93 66.10 65.15 65.31 65.34 65.27 66.07 66.56 66.48 65.73 65.56 64.32 63.60 63.07
51.23 52.69 45.94 44.03 38.96 38.40 44.41 48.22 47.65 52.05 54.76 59.10 59.97 60.04 61.00 61.91 64.98 65.83 66.12 67.25 69.70 70.37 71.64 71.83 71.65 70.65 70.23 69.21 68.64 68.37 67.79 66.83 66.01 65.40 64.48 65.07 64.37 65.84 65.23 65.65 65.80 65.78 65.47 65.73 65.13 63.52 63.62 63.11 62.92
49.06 47.27 48.16 46.59 44.49 39.45 39.23 44.12 54.23 55.12 55.50 54.76 55.21 57.16 59.51 63.11 63.41 66.08 66.79 68.06 69.68 70.62 71.66 71.66 71.73 70.95 69.84 69.63 68.51 67.71 67.03 66.47 66.46 65.47 65.04 65.53 66.26 66.64 66.08 65.81 65.52 65.22 65.29 65.36 64.68 63.87 63.91 63.77 62.83
51.38 48.74 49.58 43.37 43.12 44.79 44.37 46.68 56.84 56.89 56.62 57.13 58.17 59.11 58.86 61.24 64.07 65.52 67.67 68.96 69.67 70.31 70.99 71.15 71.62 70.75 69.11 69.11 68.58 64.96 64.23 65.57 65.68 65.05 65.02 65.27 64.42 65.07 64.97 64.63 64.80 65.54 65.34 65.35 64.47 63.26 63.98 63.20 62.04

GFSSGP_sfc_wetblb_006.txt.gz
Wetbulb
76.90 74.99 72.94 70.35 60.09 54.93 52.22 56.25 59.47 59.42 60.21 64.69 65.79 64.11 61.80 63.87 60.27 55.23 68.94 72.44 74.10 74.63 75.50 76.55 78.16 78.54 78.33 78.45 78.68 78.73 79.38 79.35 79.27 79.17 79.26 79.50 79.31 79.21 79.03 79.08 78.42 78.63 78.01 77.66 77.74 77.43 77.27 76.64 76.55
74.23 73.70 71.63 66.02 55.49 47.67 49.19 59.49 58.64 60.73 63.58 65.59 66.63 65.62 63.64 61.99 67.02 66.89 69.58 73.16 74.84 74.95 75.30 76.46 78.36 78.86 78.53 78.55 78.78 79.15 79.12 78.75 79.36 79.38 79.38 79.45 79.55 79.65 78.83 77.89 77.95 77.95 77.60 77.47 77.06 76.84 76.65 76.29 76.11
72.70 72.77 65.19 60.79 52.13 47.40 51.42 59.79 61.30 62.62 64.76 65.08 64.43 67.00 64.96 64.54 68.70 69.14 71.76 73.85 74.82 74.97 75.68 76.45 78.71 78.73 78.29 78.97 79.33 79.26 79.21 78.76 79.20 79.38 79.52 79.67 79.19 78.40 78.14 77.90 77.69 77.73 77.62 77.16 76.87 76.37 76.37 76.12 75.73
69.52 66.24 64.54 55.77 48.73 53.03 58.55 61.09 63.32 62.44 64.34 67.37 66.89 63.30 67.68 70.85 69.86 71.58 73.21 74.15 74.28 75.10 76.02 78.24 78.90 78.36 78.80 79.09 79.43 79.18 79.03 78.43 79.22 79.45 78.86 78.63 78.47 77.72 77.99 77.99 77.74 77.66 77.50 77.00 76.73 76.48 76.26 76.06 75.84
68.24 62.54 55.05 49.59 51.10 55.49 61.81 63.17 63.89 63.38 65.05 65.57 66.44 63.82 65.14 70.11 73.17 73.63 73.62 74.03 73.51 74.85 76.32 76.91 78.67 78.65 78.96 79.25 79.66 79.60 79.28 78.75 78.75 78.81 78.47 78.75 78.79 78.03 78.07 77.86 77.45 77.18 76.90 76.65 76.24 75.90 75.76 75.83 75.84
59.16 59.45 53.81 51.53 52.23 54.40 61.14 64.28 64.71 65.65 65.94 66.09 65.11 64.76 65.43 71.52 72.39 73.35 74.00 73.78 74.84 75.40 76.56 76.78 78.14 78.45 78.87 79.07 78.99 79.45 78.88 78.49 78.69 78.84 78.83 78.61 78.68 78.24 77.81 77.45 77.23 76.96 76.37 76.07 75.65 76.21 76.28 76.21 76.17
60.34 57.22 54.04 53.94 55.04 57.35 61.27 65.07 63.86 65.29 65.59 65.53 67.76 63.56 65.94 69.29 72.48 73.77 73.82 74.29 75.07 76.48 76.64 76.78 76.89 77.69 78.98 79.73 79.21 78.70 78.54 78.49 78.66 78.88 79.01 78.78 78.34 77.62 77.38 77.45 77.28 76.90 76.54 76.01 76.01 76.48 76.87 76.80 76.84
61.93 59.74 55.44 54.08 53.72 52.43 62.27 61.41 65.37 65.37 64.39 70.04 69.16 63.44 63.70 68.62 72.60 73.55 73.66 73.63 74.07 75.00 75.98 76.58 76.65 76.84 77.19 77.74 79.31 78.39 78.68 78.42 78.39 78.34 78.31 78.15 77.70 77.28 77.15 75.97 77.42 76.96 76.99 76.49 76.15 76.55 76.64 76.83 76.78
64.24 54.74 52.70 55.64 54.65 55.93 59.37 60.83 65.81 67.43 66.89 67.36 68.12 67.53 69.81 71.53 72.75 72.28 71.77 72.47 73.11 74.28 74.62 75.38 75.90 76.25 76.50 77.09 77.77 78.92 78.42 78.78 78.66 78.09 78.10 78.13 74.82 74.16 71.71 74.15 74.79 75.87 77.02 77.01 76.43 76.44 76.52 77.09 76.40
60.27 55.18 56.04 60.06 59.79 58.10 60.47 61.42 62.78 64.18 64.62 64.91 66.59 69.33 71.47 71.85 71.54 70.66 70.79 70.63 71.65 72.61 73.29 74.47 75.11 75.57 75.70 77.82 75.26 75.33 76.46 76.72 75.98 75.99 75.36 74.91 73.71 73.19 74.53 73.47 73.41 74.36 76.76 76.95 76.48 76.49 76.28 75.90 72.49
59.86 57.23 60.93 60.66 62.37 63.16 62.38 63.23 65.15 63.28 61.67 64.58 64.27 66.50 70.25 70.43 70.54 70.54 71.45 71.37 71.73 73.13 73.72 73.80 74.67 74.94 75.10 75.55 75.02 74.54 75.03 75.48 75.13 74.45 74.24 74.10 73.07 73.16 71.79 71.96 72.04 72.25 74.68 73.61 75.17 74.50 73.91 73.01 71.92
57.99 61.54 61.72 61.14 64.34 61.41 61.92 62.35 60.03 63.37 63.87 67.47 67.65 68.62 69.55 69.16 69.51 70.55 70.31 70.69 71.15 72.23 73.05 73.45 74.05 74.35 74.67 75.39 75.32 75.14 74.35 74.40 74.27 74.31 74.24 73.39 72.13 70.85 72.45 72.23 72.85 72.79 72.24 72.28 72.69 72.40 72.30 71.76 71.65
58.73 60.46 62.39 63.50 62.06 61.84 62.50 59.90 60.87 63.68 66.65 67.85 67.86 68.24 68.00 68.88 69.34 69.81 70.09 71.30 71.72 71.10 72.07 73.68 74.40 73.90 73.73 73.98 74.15 74.19 74.38 74.58 74.47 74.14 74.31 74.04 72.55 71.74 72.95 72.27 72.55 72.45 72.57 71.66 71.70 70.82 70.80 71.28 71.53
60.58 61.70 62.27 62.78 61.84 62.12 59.75 60.07 60.65 65.04 67.34 66.70 66.77 66.30 67.04 67.56 67.97 68.15 69.07 69.73 70.21 71.66 73.22 74.21 73.77 73.76 73.13 72.99 73.35 72.88 73.07 74.00 73.51 73.56 73.70 73.41 72.74 71.81 72.40 71.92 71.18 71.23 71.45 71.98 71.78 71.26 71.13 70.72 70.76
61.40 58.66 60.09 61.34 61.56 61.93 64.33 60.50 60.44 64.56 66.70 65.55 65.94 66.36 66.97 67.16 68.03 67.87 69.69 69.18 69.29 71.05 72.95 72.70 72.79 74.13 73.47 73.51 73.88 73.56 73.80 73.88 73.20 72.98 73.19 72.47 73.44 72.91 71.99 70.41 69.85 71.21 71.26 71.40 71.13 70.42 70.34 69.73 70.67
54.90 54.15 50.65 56.71 61.41 62.68 60.77 55.56 61.68 65.34 64.79 63.89 65.58 66.42 66.84 66.69 67.34 68.46 70.17 69.56 69.48 70.22 72.15 72.54 74.43 73.88 72.73 73.17 73.90 74.25 73.86 73.41 73.51 73.12 72.57 72.89 73.56 73.07 71.73 69.87 69.60 71.20 70.23 70.73 69.51 68.43 68.16 68.18 68.54
49.66 47.29 51.50 53.75 58.61 60.51 58.91 56.77 62.35 64.04 63.70 63.20 64.43 65.48 66.11 65.87 66.73 68.31 69.86 69.81 69.73 69.70 71.06 71.51 72.76 73.26 73.33 73.95 74.02 73.99 73.95 73.71 73.59 73.37 72.09 72.89 72.69 72.86 71.94 70.57 71.07 70.37 69.44 68.83 68.83 68.61 67.84 67.75 67.66
46.09 48.93 53.12 52.33 55.58 57.66 58.26 57.60 62.04 63.43 63.06 63.08 63.79 64.47 65.27 65.64 66.21 67.91 69.08 69.80 69.63 69.98 70.47 70.01 70.63 72.98 73.65 73.60 73.70 73.74 73.56 72.27 72.61 72.56 71.65 72.44 71.96 72.53 72.92 71.45 70.51 70.52 69.76 69.42 69.33 68.40 67.80 67.73 67.53
50.84 52.33 52.73 55.17 56.10 58.49 58.03 58.50 61.11 63.01 63.58 63.35 63.66 64.26 64.97 65.57 67.12 68.07 68.93 69.57 70.52 70.37 70.00 69.99 70.32 71.97 72.95 72.08 71.15 71.00 70.68 71.17 71.76 72.25 72.93 72.79 72.28 72.44 71.41 70.71 70.19 69.86 68.70 68.63 68.49 67.57 66.76 66.09 66.72
49.75 51.10 52.43 55.31 56.63 54.78 57.94 58.07 61.04 62.69 63.38 64.07 64.19 64.95 65.55 66.07 66.25 67.74 68.78 69.89 70.13 69.82 69.91 70.63 70.58 72.25 72.40 72.23 71.67 71.71 71.06 71.65 72.11 72.67 72.98 72.07 71.39 72.02 71.42 70.52 69.70 68.46 67.84 66.48 66.07 65.72 65.28 65.45 66.96
48.44 51.33 52.46 53.40 56.63 56.62 57.35 54.39 56.81 61.86 63.59 64.04 64.90 66.27 66.39 66.29 66.15 67.23 68.39 68.75 70.27 69.98 70.93 71.15 72.05 72.40 72.81 72.82 72.73 71.98 71.03 69.93 68.89 69.55 69.90 68.57 67.44 67.89 68.52 67.71 66.66 66.79 66.32 65.71 65.65 65.67 65.01 63.74 65.07
44.55 52.34 55.99 55.63 54.19 47.82 55.08 45.95 52.03 57.95 58.55 60.01 62.33 63.92 65.37 66.30 67.91 68.12 68.34 67.94 69.54 70.98 72.69 72.19 72.64 72.92 73.20 72.37 72.09 69.97 66.90 62.24 65.42 66.88 66.73 65.14 65.95 67.25 66.81 66.89 67.77 66.77 66.23 65.58 65.72 67.51 65.31 64.66 62.50
48.96 52.27 51.16 55.79 53.12 49.18 51.11 46.85 53.16 53.90 52.36 54.97 60.07 63.53 64.87 66.49 68.01 68.24 68.79 68.89 70.70 71.88 72.99 72.96 73.02 73.12 73.04 71.30 71.31 65.57 61.54 62.65 65.44 65.29 64.29 63.49 63.43 65.76 66.80 68.27 66.80 65.65 65.38 64.72 65.61 64.61 64.52 64.63 63.43
53.59 50.04 47.32 47.07 45.00 41.16 49.14 47.07 45.72 51.39 55.10 56.75 58.50 63.91 64.57 65.82 67.99 68.95 69.86 69.21 71.00 72.20 72.97 73.41 72.29 71.26 68.59 66.83 63.43 61.14 61.97 61.81 63.11 62.77 61.37 62.15 61.57 65.63 67.13 66.50 65.02 65.14 64.39 64.74 64.61 64.92 64.30 64.05 63.54
49.03 42.94 38.14 37.97 37.42 37.59 42.41 48.38 50.09 55.63 58.53 57.49 58.28 63.22 64.54 65.80 66.27 67.30 67.37 67.48 70.39 71.23 71.85 72.81 72.09 69.53 65.50 64.03 62.47 61.14 61.91 61.43 61.47 61.33 62.54 62.18 63.92 63.61 63.77 64.19 63.97 62.70 63.77 64.52 64.74 64.08 62.94 63.04 62.86
45.55 44.15 38.82 35.20 37.26 39.92 44.53 41.77 47.71 57.44 60.21 59.68 61.12 64.07 64.97 64.87 65.82 66.31 66.61 67.52 69.46 70.99 71.33 72.13 70.58 69.10 65.62 64.21 63.41 63.34 63.26 62.05 61.92 63.28 63.70 60.31 61.53 63.55 63.97 63.64 64.02 64.36 64.10 64.67 64.74 63.95 62.91 63.37 62.95
46.33 43.14 47.09 42.34 41.58 40.20 42.50 47.50 54.08 56.99 58.07 58.97 58.50 60.52 62.26 64.21 65.44 65.71 66.97 67.83 69.27 70.14 71.28 72.07 69.69 68.22 66.58 64.97 64.09 62.96 62.96 64.37 65.05 64.81 63.02 61.71 63.77 63.94 63.67 64.19 63.86 64.04 64.96 64.30 63.91 64.01 64.72 62.26 62.17
49.14 49.07 43.15 40.43 36.59 34.97 40.98 43.59 45.78 52.88 55.42 57.57 57.90 57.83 59.59 63.62 65.15 65.73 66.59 67.43 69.52 70.11 71.68 72.52 70.29 68.69 67.20 66.52 64.74 64.12 64.41 64.29 64.58 63.90 62.92 63.99 63.00 63.41 63.27 63.73 63.87 64.23 64.23 63.88 63.18 62.48 62.48 61.86 61.64
47.31 44.92 43.86 43.67 41.08 37.79 36.47 41.12 50.26 55.60 56.74 57.39 58.45 60.23 58.88 61.27 63.84 65.10 66.23 67.28 69.25 70.24 71.27 71.81 70.42 69.21 67.52 67.18 65.40 65.34 65.47 64.81 64.14 63.79 63.37 63.48 63.60 64.68 65.10 64.81 64.30 63.62 63.58 63.93 63.65 63.10 62.56 62.12 61.70
49.21 47.12 44.85 41.00 39.40 39.86 40.24 42.50 54.18 55.25 55.88 59.03 59.82 60.73 59.06 60.47 62.99 64.65 65.49 66.29 67.95 68.85 70.76 71.08 70.88 69.67 68.66 68.03 66.70 66.47 66.43 65.15 64.17 63.84 63.75 63.59 63.95 63.53 63.24 63.36 63.40 63.42 64.12 63.77 63.25 62.99 62.83 62.05 61.12

GFSSGP_sfc_wetblb_009.txt.gz
Wetbulb
75.99 74.58 72.58 69.50 57.71 53.77 51.73 54.94 59.79 58.42 60.25 64.22 65.43 63.39 61.63 62.47 59.18 54.52 68.20 71.46 73.14 72.99 74.11 75.47 77.17 77.28 77.33 77.65 78.16 77.90 77.89 78.10 78.33 78.64 78.94 78.75 78.26 78.05 77.97 77.76 77.89 77.62 77.39 77.29 77.14 76.62 76.44 76.38 76.13
74.67 72.87 70.80 64.70 50.51 46.99 48.91 57.73 57.64 59.57 63.19 65.44 65.97 64.72 63.14 61.53 65.86 66.99 68.95 73.48 74.36 74.68 74.78 75.73 77.49 77.95 78.14 78.13 78.52 78.66 78.45 78.45 78.84 78.83 79.10 78.75 78.26 78.28 77.86 77.89 77.66 77.37 77.15 76.97 76.59 76.31 75.92 75.64 75.74
72.90 72.68 64.64 59.67 49.97 48.20 50.27 57.49 59.29 62.30 65.70 65.51 63.81 66.12 64.78 63.02 67.45 68.60 71.19 73.80 74.68 74.35 75.30 76.13 78.08 78.35 78.06 78.06 78.72 78.58 78.58 78.53 78.60 78.60 78.53 78.54 78.26 77.73 77.60 77.35 76.96 77.07 76.91 76.56 76.34 75.82 75.46 75.35 75.34
69.39 65.84 62.89 51.35 48.70 53.74 57.93 59.12 60.82 61.94 64.00 66.70 65.74 62.82 67.40 70.44 68.99 70.61 73.00 74.49 74.06 74.44 75.51 77.50 78.02 77.94 78.38 78.21 78.64 78.51 78.54 78.74 78.80 78.83 78.67 78.10 77.65 77.80 77.52 77.27 77.19 76.94 76.77 76.31 75.95 75.57 75.37 75.34 75.33
67.28 60.81 52.04 48.72 50.09 58.52 60.76 61.84 62.15 60.81 64.21 64.79 65.74 62.85 64.77 70.04 71.43 72.25 72.92 73.70 73.33 74.25 75.71 76.39 78.70 78.24 78.62 78.25 77.96 78.16 78.09 78.36 78.72 78.53 77.70 77.63 77.33 77.53 77.41 77.25 76.98 76.76 76.42 76.15 76.12 76.01 75.73 75.66 75.27
57.92 57.48 50.56 48.69 51.75 59.11 61.26 63.21 62.87 64.48 65.27 64.88 64.09 63.84 65.19 71.35 70.76 72.25 73.15 73.02 74.61 74.86 75.51 76.11 78.03 78.43 78.51 78.18 77.68 78.04 77.53 77.41 77.64 77.72 77.90 77.96 77.89 77.56 77.48 77.08 76.65 76.51 76.02 75.96 75.80 76.12 76.10 75.90 75.86
58.24 54.56 52.21 51.40 52.65 57.35 60.43 65.12 64.29 63.85 63.72 63.73 66.62 62.36 66.96 69.48 71.82 72.90 72.65 73.36 74.33 75.62 75.41 75.32 75.57 76.84 78.45 78.92 78.06 77.69 77.82 77.58 77.54 78.01 77.52 78.06 77.76 77.61 77.31 77.08 76.92 76.51 76.18 76.18 76.27 76.69 76.51 76.29 76.45
61.14 57.05 52.24 51.57 53.24 55.05 61.91 62.64 66.18 64.74 64.18 68.82 68.03 61.83 62.92 69.27 72.75 73.06 73.24 73.61 74.70 75.44 75.77 75.48 75.28 75.43 76.02 76.71 78.37 78.05 77.80 77.39 77.39 77.89 77.80 77.68 77.45 76.95 77.02 76.69 76.91 76.90 77.07 77.02 76.84 76.39 76.16 76.37 76.24
63.56 52.66 50.73 53.64 52.96 54.87 62.73 61.47 67.09 68.36 65.87 66.53 67.53 66.70 68.25 71.67 72.56 71.53 71.51 72.21 73.19 74.68 74.90 75.58 75.41 75.28 75.69 76.07 76.57 77.81 77.67 77.90 77.69 77.60 77.80 77.79 74.89 74.06 72.46 73.49 75.44 75.35 76.28 76.57 76.25 76.10 75.62 75.97 75.63
58.43 51.76 54.42 58.68 58.09 56.70 60.65 62.93 63.77 64.50 64.02 64.56 65.67 68.43 69.92 71.13 70.98 69.87 70.17 70.39 71.52 72.37 73.45 74.52 75.08 74.99 75.17 77.27 75.73 75.21 75.38 75.25 74.79 74.96 75.13 74.28 73.23 72.92 73.14 74.17 75.27 73.82 75.57 76.95 76.03 76.13 76.18 75.32 72.11
58.52 55.47 59.09 59.90 60.80 59.49 60.24 61.51 63.60 63.44 61.18 63.86 64.39 66.49 68.55 69.38 69.94 69.82 70.33 70.71 70.78 72.53 73.41 73.92 74.45 75.01 74.76 75.40 74.58 74.56 74.88 74.26 74.48 74.32 73.80 73.90 73.00 72.86 71.92 71.16 71.47 71.59 73.73 73.25 73.91 73.98 73.15 72.36 71.54
53.69 60.04 60.34 60.03 63.50 60.67 60.36 62.02 62.51 63.11 63.01 66.91 68.02 68.73 69.02 68.85 69.30 69.62 70.11 70.64 70.96 72.03 72.64 73.32 74.32 74.51 74.49 74.51 74.44 74.04 74.18 73.61 73.77 73.56 73.60 72.65 71.84 70.68 69.80 71.25 71.71 72.09 71.82 71.72 71.84 71.75 71.23 71.69 72.02
53.83 57.77 60.72 61.68 61.71 61.57 60.90 60.27 61.65 62.43 66.02 67.80 68.94 69.45 68.65 69.15 69.68 70.48 71.31 71.40 71.95 71.86 72.64 72.80 73.99 73.96 74.25 73.57 73.94 73.53 73.60 73.81 73.26 73.80 73.87 73.37 72.13 70.48 71.25 72.10 72.15 71.87 71.67 71.15 70.88 70.62 70.68 70.31 70.76
57.89 59.69 60.52 60.58 59.93 60.56 59.97 61.69 62.56 64.10 66.76 66.27 68.22 68.11 68.80 69.13 69.43 70.25 70.24 70.20 71.01 72.03 71.95 72.92 73.55 73.49 73.16 72.29 73.01 72.98 73.24 73.26 73.55 73.23 73.48 73.59 72.76 71.30 71.45 71.48 70.46 70.41 71.20 70.84 71.23 70.46 70.17 70.06 70.01
60.91 57.31 59.81 59.93 59.43 58.23 61.92 57.86 60.11 64.63 65.94 65.01 66.82 67.36 68.29 68.71 69.62 68.82 69.44 70.07 71.20 71.17 71.87 72.99 73.29 73.14 72.51 72.18 72.60 71.31 72.76 72.42 72.61 72.89 72.79 72.68 72.72 71.71 71.28 70.03 69.45 70.30 70.77 70.36 70.19 69.30 68.56 68.30 68.82
56.44 54.20 53.60 57.40 60.19 61.54 59.94 53.91 61.74 64.69 63.99 63.30 64.76 66.04 66.69 67.70 67.81 68.29 69.51 70.28 70.63 71.06 71.55 72.79 73.95 73.09 72.33 72.28 72.81 72.86 73.16 72.72 72.52 72.52 72.11 72.11 72.36 72.57 71.60 69.00 69.47 70.23 69.72 69.56 69.13 68.07 67.60 67.60 67.33
49.69 50.87 49.77 54.63 59.39 60.07 57.90 54.97 61.78 64.56 63.59 62.64 63.78 64.67 65.58 65.46 66.60 67.98 69.65 69.54 69.30 71.02 71.84 71.66 72.22 72.51 72.11 72.38 72.89 72.95 72.81 72.79 72.56 72.55 71.56 71.80 72.04 72.62 71.45 69.33 69.72 69.63 69.11 68.72 68.12 67.64 67.01 66.67 66.56
50.02 48.03 52.76 53.75 58.86 58.03 56.84 56.08 61.25 63.33 62.96 62.64 63.53 64.09 64.80 65.03 65.01 67.77 69.56 69.72 69.24 70.86 71.79 71.70 71.93 72.12 72.14 72.64 72.76 72.74 72.47 72.28 72.67 71.66 71.59 71.86 71.61 71.98 70.98 70.32 70.43 69.76 68.70 67.96 67.69 67.01 66.83 66.51 66.58
50.38 50.07 52.78 55.66 56.80 57.31 56.29 56.75 59.26 61.93 62.04 61.81 62.62 63.17 63.92 64.73 66.31 67.66 69.35 69.87 69.11 69.11 70.21 69.53 69.85 71.31 71.86 71.21 70.53 70.51 70.67 71.07 71.20 71.74 72.29 72.29 71.63 72.10 70.83 69.94 69.32 68.88 67.78 67.02 67.04 66.49 65.43 65.30 65.35
48.93 48.77 50.39 53.74 57.91 57.03 55.47 56.27 59.39 60.71 61.24 61.97 61.99 62.36 63.36 64.32 64.38 66.36 67.76 68.54 68.40 68.54 69.05 68.49 69.56 70.46 71.89 71.25 70.69 70.73 70.30 70.26 70.68 71.38 72.29 71.89 71.65 71.35 70.78 69.48 68.59 67.96 66.77 65.48 64.97 64.69 63.73 64.28 65.63
46.77 46.62 48.78 51.41 54.80 57.79 56.86 53.49 56.63 60.59 61.57 62.55 63.30 64.05 64.43 64.17 64.01 65.28 66.24 67.06 68.54 68.04 68.44 69.01 69.00 70.77 71.47 71.54 70.98 70.75 70.14 69.35 68.50 69.04 69.65 69.14 69.92 69.87 69.03 68.31 66.57 65.79 65.33 64.65 64.38 64.55 63.57 62.35 63.85
43.87 50.74 52.40 53.26 51.91 47.88 55.97 46.28 51.94 57.57 59.18 61.31 62.80 63.20 64.45 64.92 65.45 65.74 66.40 66.95 68.16 68.46 69.61 69.59 70.04 70.89 71.50 71.57 70.77 69.62 68.39 65.75 64.34 66.65 67.42 66.33 65.29 65.96 66.66 65.92 66.06 65.65 65.06 64.48 64.40 66.03 64.08 63.03 61.16
49.45 51.33 49.61 51.91 50.61 49.01 49.79 46.67 49.89 55.55 54.53 58.67 61.66 62.71 64.86 65.85 65.92 65.60 66.64 67.73 68.78 69.65 70.11 70.35 70.70 71.16 71.65 71.11 71.26 69.51 64.96 62.91 64.53 64.70 64.57 62.81 63.56 64.89 65.67 66.76 66.50 65.21 64.16 63.71 64.80 63.54 63.52 63.30 62.10
53.01 48.77 45.60 44.85 45.21 42.37 49.24 46.80 45.40 52.50 56.39 58.82 60.86 62.19 64.91 65.39 66.62 66.78 67.68 68.25 68.38 69.92 70.77 71.45 70.87 71.40 71.57 71.01 69.98 67.67 62.76 62.47 63.64 62.92 61.93 60.43 61.33 62.78 65.34 66.88 64.70 64.25 63.53 63.61 63.67 63.50 63.47 63.22 62.70
47.45 42.33 36.83 37.81 39.54 40.12 45.28 45.72 48.16 54.49 59.58 60.39 60.32 60.77 64.07 65.24 66.77 66.82 67.07 67.17 67.77 69.05 70.34 71.36 71.16 70.71 70.94 69.26 66.55 64.02 61.44 62.15 62.97 62.13 60.84 61.68 62.54 62.96 64.13 63.46 63.63 61.82 62.17 63.24 63.28 63.07 61.75 62.01 61.74
44.42 43.07 37.69 33.33 34.46 40.03 42.80 43.82 50.16 55.97 59.50 61.55 61.78 61.70 63.93 64.16 66.45 67.12 67.63 67.66 67.84 69.41 70.34 71.33 71.09 70.53 68.76 66.27 62.97 60.31 61.07 60.40 60.75 60.69 61.73 61.17 62.02 63.01 62.95 63.11 62.85 62.33 62.96 63.45 63.35 62.84 62.49 62.13 61.86
44.03 40.80 44.35 38.90 37.51 37.28 39.61 44.38 50.45 54.85 55.50 59.30 58.95 59.25 62.24 63.81 65.24 66.92 68.12 67.84 68.40 69.58 70.06 70.88 71.40 71.02 67.94 64.71 62.50 60.77 61.05 61.01 60.90 62.51 63.08 60.23 60.84 63.58 63.16 62.96 62.92 63.03 63.53 63.55 62.52 62.36 62.37 62.22 61.93
47.46 46.78 40.68 38.08 34.61 33.56 38.68 41.07 43.57 49.95 52.30 56.07 57.01 57.79 61.34 63.41 64.43 66.10 67.67 67.53 68.78 70.14 70.67 70.99 71.65 70.93 68.52 64.78 63.36 62.77 62.09 62.37 63.36 63.64 62.01 61.63 62.66 62.66 62.92 62.57 62.92 62.33 63.29 63.22 61.65 61.25 61.88 61.26 61.00
44.77 41.89 40.53 41.13 38.40 35.91 35.20 39.75 47.77 51.04 53.54 54.95 56.83 59.00 61.07 62.68 63.82 64.96 66.32 67.20 67.69 69.86 70.36 70.48 70.69 70.22 68.15 65.62 63.88 62.82 62.39 63.51 63.64 63.13 62.50 62.50 62.35 61.95 62.47 62.18 62.69 63.03 62.66 62.29 62.04 62.04 62.04 60.95 60.61
45.73 44.89 43.87 41.58 37.28 36.68 38.40 40.78 50.64 52.85 55.29 57.22 57.43 58.56 58.78 61.63 63.42 64.80 65.61 66.49 66.47 67.61 69.11 70.15 70.64 69.66 68.33 66.27 64.47 63.42 63.54 63.33 63.38 62.71 62.68 62.33 62.23 62.95 63.90 63.81 63.29 62.76 62.76 62.65 62.53 61.89 62.39 61.69 60.84

GFSSGP_sfc_wetblb_012.txt.gz
Wetbulb
76.08 74.93 72.23 69.35 54.71 53.39 50.81 53.59 58.58 58.26 59.55 63.29 64.73 63.08 60.85 62.06 58.87 53.64 67.65 70.90 72.17 72.07 73.70 75.61 77.14 76.56 76.77 76.40 76.57 76.65 77.36 77.34 78.23 78.46 78.24 77.83 77.55 77.27 77.21 77.49 77.76 77.37 77.04 76.68 76.70 76.64 76.37 76.18 75.60
74.17 72.53 70.09 63.82 51.35 47.70 49.27 56.71 56.13 59.73 62.85 64.97 65.12 64.29 62.67 60.55 65.83 66.74 67.92 72.63 73.52 73.59 73.93 74.76 77.27 77.46 77.29 77.19 77.94 78.02 77.45 77.64 78.05 78.42 78.41 78.20 77.63 77.47 77.42 77.64 77.13 76.87 76.62 76.49 76.35 76.13 75.75 75.39 75.30
73.06 71.98 63.90 56.69 48.40 46.93 49.91 56.72 59.60 62.78 64.92 64.71 63.48 65.89 64.28 62.59 67.05 67.78 70.79 73.67 74.34 74.12 75.09 75.80 77.25 77.69 77.46 77.47 77.67 78.35 77.96 77.75 78.21 78.21 77.56 77.49 77.61 77.65 77.26 77.09 76.76 76.76 76.29 76.10 75.78 75.70 75.36 74.87 75.30
68.55 65.91 60.86 48.42 46.83 52.85 55.66 57.98 61.98 62.29 64.89 65.67 65.19 62.52 66.68 69.27 68.19 70.33 73.25 74.11 74.00 74.49 75.40 77.16 77.64 77.31 77.56 77.79 78.32 78.08 78.44 77.99 78.08 78.12 77.98 77.62 77.38 77.08 76.80 76.45 76.47 76.10 76.05 75.86 75.53 75.55 75.35 75.26 75.78
65.91 59.35 49.26 48.26 49.91 57.85 59.39 60.74 61.64 61.14 63.81 64.45 65.23 62.09 64.06 69.48 71.21 72.13 73.03 73.71 73.39 74.10 75.58 75.93 77.87 77.93 77.58 78.15 78.01 78.37 77.88 77.28 78.17 77.72 77.42 77.29 77.24 77.13 76.85 76.44 76.28 75.97 75.92 75.84 75.84 75.86 75.84 75.94 75.49
57.17 55.78 48.96 47.22 50.38 58.08 60.09 61.33 62.08 63.74 64.31 64.14 63.46 63.30 64.91 69.80 70.04 72.00 73.05 72.76 74.30 74.50 75.10 76.04 77.40 77.99 78.08 77.44 77.49 77.56 77.80 77.66 77.80 77.64 77.30 77.38 77.21 77.01 76.90 76.30 75.98 75.71 75.85 75.85 75.76 76.14 76.37 76.26 76.20
57.94 53.05 50.01 49.63 53.59 56.51 59.51 63.32 63.10 63.21 63.26 63.03 65.79 61.66 66.32 68.01 71.00 72.31 72.26 73.54 74.68 75.28 74.84 75.12 76.01 76.81 77.77 78.16 77.50 77.49 77.55 77.61 77.39 77.38 77.59 77.68 77.14 77.20 76.84 76.74 76.47 76.34 76.18 76.04 76.37 76.39 76.58 76.44 76.29
58.70 54.07 50.81 50.60 53.90 54.73 61.16 63.36 65.33 62.98 63.24 67.68 67.15 61.28 62.69 68.40 71.79 71.93 72.45 73.07 73.99 74.85 74.99 74.54 75.10 75.54 75.86 76.07 77.34 77.16 77.06 77.04 76.86 77.35 77.63 77.52 77.36 76.94 76.72 77.05 76.71 76.87 76.70 77.15 76.66 75.95 76.15 75.71 75.55
61.75 50.87 49.46 52.02 53.16 54.93 61.88 62.53 66.10 67.62 64.84 66.23 66.90 65.56 67.75 71.05 71.94 71.11 71.42 72.43 73.48 74.19 74.41 74.67 74.66 74.74 75.58 75.29 76.51 77.60 77.42 77.17 77.06 76.89 77.44 77.56 75.32 75.62 75.05 73.64 75.44 76.00 76.01 76.43 76.72 75.89 75.64 75.90 75.32
56.38 51.13 53.17 56.83 56.51 57.73 61.31 63.33 64.00 63.41 63.24 63.96 64.92 68.50 70.51 71.02 70.56 69.50 69.32 69.04 70.62 71.86 73.81 74.59 74.74 74.85 75.44 77.07 75.88 75.58 75.45 75.60 75.93 76.01 75.41 75.28 74.95 74.40 72.73 74.93 75.04 75.58 74.65 76.31 76.48 75.76 75.74 74.98 73.51
57.33 54.04 57.35 58.60 58.35 62.50 61.11 62.21 63.50 62.25 59.96 63.36 63.08 66.53 69.02 69.68 69.49 69.35 69.21 69.37 69.89 72.32 73.48 74.03 74.53 74.65 74.99 75.83 75.34 74.66 74.77 74.56 75.11 75.06 75.03 75.10 74.36 73.51 73.91 72.71 72.28 73.15 74.24 73.99 74.27 74.26 73.81 73.40 73.02
53.45 58.49 59.38 59.44 61.41 59.69 59.86 62.09 62.49 62.63 62.09 66.20 66.48 68.12 68.92 68.67 68.81 68.74 68.96 69.92 70.52 71.80 72.88 73.54 74.26 74.40 74.27 74.33 74.69 74.41 74.55 74.59 74.06 74.22 74.56 73.70 73.12 72.15 72.26 71.59 73.09 73.67 72.98 73.00 72.85 72.73 72.62 72.55 72.81
52.04 53.03 59.17 60.92 59.42 59.73 61.79 60.64 62.05 61.80 65.30 67.44 67.49 68.45 68.07 68.22 69.16 69.91 70.40 70.90 70.74 71.18 72.32 72.90 73.94 73.99 74.37 73.93 74.34 74.13 74.13 74.27 74.25 74.20 74.04 73.90 73.25 71.43 70.99 72.39 73.45 73.25 72.93 72.72 72.29 72.48 72.20 71.49 71.97
52.46 56.96 59.10 59.85 59.49 59.53 59.37 60.52 62.11 63.32 66.97 67.07 66.82 66.81 67.80 68.26 69.06 69.60 70.32 70.27 70.65 71.54 71.92 72.75 73.21 73.70 73.90 73.68 73.66 73.57 73.54 74.08 73.89 73.80 74.05 74.18 73.61 71.99 71.78 72.05 72.63 72.29 72.85 72.60 72.98 72.40 71.76 70.80 70.66
59.00 56.33 58.62 58.55 57.59 58.78 61.67 57.34 58.86 64.24 66.24 66.01 66.49 67.24 67.94 68.77 69.89 69.43 70.53 70.22 71.18 71.82 72.55 72.29 72.97 73.81 73.32 73.30 73.33 72.79 73.36 73.87 73.23 73.66 73.82 72.94 74.02 72.35 72.25 71.38 71.54 71.67 71.86 71.97 71.71 71.10 70.31 70.02 70.04
54.54 54.54 51.61 56.41 58.40 59.77 58.51 52.30 61.06 64.29 64.18 64.45 66.42 67.12 67.65 68.38 69.21 70.24 70.93 70.60 71.29 71.86 71.55 72.29 73.64 73.41 72.71 72.53 72.82 72.83 73.22 72.55 72.46 73.26 73.13 72.43 73.64 73.24 72.61 71.77 71.00 71.84 71.78 71.26 70.98 69.99 69.67 69.70 69.08
49.69 48.80 49.65 54.34 58.67 58.77 56.98 53.63 61.12 63.87 63.13 63.61 65.45 66.28 67.17 67.75 68.48 69.75 70.28 70.60 71.04 71.15 71.39 71.96 72.91 72.72 72.50 72.43 72.67 73.06 73.38 73.10 73.36 73.72 73.54 73.05 73.15 73.27 73.01 71.36 71.44 71.61 71.29 70.82 70.38 69.78 69.55 68.80 68.45
47.17 48.54 48.96 52.76 56.61 58.37 55.82 54.68 60.68 62.38 62.25 62.27 63.79 64.85 65.69 66.20 67.12 68.23 68.94 70.41 70.63 70.79 71.71 72.18 72.43 72.43 72.40 72.49 72.77 73.24 73.09 73.25 73.63 73.63 72.03 73.02 72.92 73.35 72.47 71.89 71.48 71.57 70.55 69.84 69.78 69.40 69.17 68.87 68.60
50.83 51.97 51.91 54.22 56.71 55.32 54.83 55.37 59.43 61.35 61.58 61.31 61.81 62.71 63.98 64.55 66.92 67.94 68.48 69.80 69.24 70.20 70.85 70.99 71.03 71.82 72.10 71.52 71.25 71.64 71.59 72.48 72.61 72.70 73.34 73.29 72.33 72.96 72.12 71.67 70.78 70.58 69.90 69.42 69.26 68.56 68.09 67.95 67.70
51.29 50.22 50.55 52.99 56.94 56.07 55.12 55.35 59.26 60.97 61.11 61.67 61.94 62.20 63.09 64.32 63.83 65.68 67.45 68.60 68.42 68.75 70.48 70.43 70.85 71.30 71.74 71.67 71.63 71.79 71.80 71.96 72.11 72.42 72.90 73.53 72.91 72.75 71.76 70.98 70.32 70.48 69.11 67.98 67.46 67.45 66.50 66.56 67.98
45.84 46.99 48.62 52.42 55.54 56.35 55.71 52.94 54.85 59.59 61.19 62.00 62.69 63.37 63.84 63.82 63.23 64.29 66.39 67.77 68.23 67.70 68.96 69.69 70.10 70.71 71.58 72.01 71.49 71.34 71.27 70.63 70.07 71.13 71.71 71.79 72.16 72.14 71.64 70.58 69.72 68.25 68.08 67.12 67.23 67.05 66.25 65.44 66.56
43.47 49.57 50.36 52.34 52.59 46.50 54.12 43.44 52.02 56.34 57.90 59.70 61.03 61.86 62.76 63.55 64.68 64.77 65.70 66.78 67.86 68.02 69.10 69.59 69.66 69.67 71.15 71.79 71.35 70.81 69.85 68.97 68.40 68.98 70.56 69.74 69.44 69.15 68.85 68.50 67.50 67.77 67.10 66.97 66.86 67.75 66.81 65.94 64.59
48.00 50.72 50.17 51.61 49.03 48.01 50.02 45.17 48.52 55.99 54.54 57.62 60.20 61.75 62.84 63.91 64.59 64.77 65.51 66.77 68.02 69.01 68.63 69.09 68.83 69.56 70.98 71.56 71.89 70.84 68.81 68.04 65.49 66.83 68.36 66.92 66.25 66.88 67.34 67.45 68.12 67.34 66.65 66.43 67.19 66.41 66.39 66.05 65.03
50.96 46.62 45.42 44.22 44.62 40.54 47.47 47.82 45.21 51.22 56.46 58.81 60.93 62.50 63.63 64.51 65.06 65.71 66.44 67.32 67.38 68.78 68.99 69.26 69.08 69.48 70.97 71.36 71.25 70.76 69.08 65.16 64.71 65.13 65.25 63.88 63.88 64.79 66.44 67.88 67.97 66.92 66.14 66.16 66.49 66.20 66.07 65.87 65.80
45.68 42.22 36.40 36.37 38.33 38.89 44.68 45.72 49.91 53.30 58.81 60.11 60.28 61.95 63.81 65.04 65.15 65.16 65.22 66.23 66.88 67.64 68.45 69.26 69.18 69.23 70.79 71.22 70.95 70.67 68.89 64.79 65.03 64.91 64.41 62.45 63.24 65.09 65.94 66.97 65.83 65.25 65.41 65.74 65.78 65.96 65.19 65.34 64.87
43.89 43.07 37.20 33.19 34.00 40.04 44.65 44.46 50.21 57.29 57.91 60.70 61.34 62.36 62.92 64.31 65.65 65.58 65.83 66.47 67.02 67.96 68.56 69.31 69.36 69.35 70.65 71.21 70.87 69.71 67.55 64.47 64.74 64.63 62.91 62.74 63.90 65.38 66.14 65.30 65.49 64.23 64.89 65.69 65.96 65.34 65.20 64.94 65.05
42.17 40.16 43.37 37.18 34.25 36.07 39.41 44.02 50.43 53.06 53.55 56.85 58.65 59.96 60.98 63.51 64.89 66.11 66.54 66.94 67.30 67.83 68.58 69.45 69.68 70.08 70.48 70.75 70.12 66.61 64.74 62.56 62.92 63.30 63.51 63.47 64.28 64.95 65.12 64.87 65.12 64.91 65.00 65.93 65.52 65.01 65.16 64.88 64.88
45.48 45.46 40.57 36.60 32.99 31.83 37.33 39.55 43.05 48.38 52.03 53.23 55.45 58.27 60.43 62.74 64.38 66.26 67.03 67.38 67.84 68.34 69.07 69.90 70.56 70.28 70.52 70.37 68.84 65.98 63.43 62.86 62.57 62.54 63.39 62.84 63.24 64.68 64.94 64.76 64.80 65.07 64.94 65.61 64.96 64.37 64.41 64.57 64.14
42.31 40.51 39.17 39.28 36.91 34.33 33.52 37.85 46.15 48.94 51.64 53.38 55.14 58.71 59.62 61.20 63.30 65.41 67.22 68.05 68.37 68.81 69.13 69.51 70.28 70.62 70.47 69.56 67.53 65.62 62.68 62.71 63.13 63.44 64.30 63.64 63.40 64.06 64.48 64.52 64.54 64.45 64.45 65.12 64.36 64.30 64.39 64.26 64.12
45.63 42.89 41.95 39.73 35.33 35.75 36.59 39.17 49.34 51.20 51.79 54.83 55.82 58.36 58.43 60.82 63.15 64.72 66.78 67.76 67.94 68.08 68.72 69.38 70.12 70.70 71.17 70.04 66.75 64.94 63.63 63.59 63.85 64.08 64.34 63.90 64.04 63.90 64.24 64.28 64.43 64.68 65.14 65.05 64.54 64.48 64.98 64.41 63.83

GFSSGP_sfc_wetblb_015.txt.gz
Wetbulb
77.29 77.11 75.72 71.09 61.23 60.75 55.84 57.18 61.67 60.77 61.06 65.25 65.91 63.76 62.13 63.45 60.53 58.31 70.86 72.90 73.42 73.78 75.05 76.35 76.71 76.49 76.51 76.62 76.57 76.97 77.43 77.63 78.06 78.29 78.01 77.32 76.87 77.16 77.42 77.72 77.71 77.34 77.11 76.89 76.86 76.51 76.18 76.17 76.28
76.30 74.26 72.80 68.88 58.21 54.28 55.36 59.78 59.90 62.00 64.62 66.96 66.52 65.63 63.72 61.46 66.51 67.72 69.90 73.56 73.84 73.88 75.20 76.39 76.90 76.70 76.76 76.82 76.68 77.66 76.88 77.15 78.16 78.26 77.88 77.45 77.22 77.18 77.49 77.45 77.21 77.13 76.91 76.78 76.53 76.45 76.20 76.01 75.92
74.36 73.20 68.91 61.47 58.42 53.55 55.45 59.83 62.20 64.64 66.45 65.42 64.61 67.04 64.66 63.63 67.57 68.98 72.55 74.02 75.04 75.15 75.85 76.89 76.86 77.17 77.26 76.97 76.90 77.44 78.27 77.36 77.46 77.95 77.49 77.57 77.57 77.74 77.57 77.10 77.02 76.80 76.72 76.45 76.09 75.93 76.01 76.01 75.92
71.88 70.62 66.05 57.06 55.03 58.52 59.31 62.15 64.92 64.60 66.32 66.82 65.67 62.61 67.53 69.83 68.80 71.27 73.82 74.54 74.80 75.39 76.09 77.26 77.28 77.44 77.46 77.15 77.29 77.55 78.08 77.89 78.16 77.79 77.46 77.55 77.28 77.20 76.95 76.59 76.51 76.45 76.34 76.18 76.01 76.31 76.18 76.11 75.81
70.55 65.63 57.39 56.21 56.95 60.82 62.41 64.44 65.56 64.02 64.91 64.89 65.50 62.62 64.22 70.36 72.44 72.90 73.71 74.48 74.51 75.49 76.81 77.06 77.55 77.71 78.03 77.75 77.72 78.36 77.92 77.40 77.68 77.72 77.50 77.23 77.34 77.06 76.70 76.51 76.37 76.18 75.96 75.99 75.99 76.13 76.37 76.22 76.10
64.33 62.87 56.30 54.09 56.96 61.10 62.74 65.38 65.98 64.99 65.55 65.23 64.46 63.64 65.58 72.00 71.13 72.55 73.87 74.24 74.95 75.22 76.44 76.84 77.28 77.91 77.80 77.60 77.64 77.99 77.43 77.27 77.51 77.45 77.27 77.14 76.97 76.80 76.56 76.18 75.99 75.94 76.02 75.77 75.91 76.46 76.60 76.53 76.41
62.54 60.34 55.76 56.21 58.11 59.75 61.58 66.22 65.08 64.62 64.49 64.15 66.77 63.06 66.70 69.59 71.56 73.28 73.77 74.68 75.20 75.65 76.11 76.87 77.36 77.95 77.86 78.43 77.47 77.71 77.70 77.38 77.59 77.42 77.40 77.42 77.30 76.91 76.55 76.34 76.40 76.41 76.16 76.41 76.86 76.51 76.06 76.06 75.89
64.54 62.10 56.99 57.42 58.01 57.86 63.83 65.81 67.45 65.50 64.02 68.88 68.70 62.81 63.65 69.71 71.94 73.24 73.63 74.28 74.83 75.32 76.34 77.13 77.72 77.67 77.17 77.34 77.66 77.69 77.67 77.47 77.31 77.26 77.47 77.27 77.10 76.70 76.35 76.85 76.35 76.64 76.73 76.49 76.69 76.27 75.49 75.68 75.20
64.75 59.13 56.00 56.56 58.75 60.42 65.36 64.03 67.60 69.01 66.38 66.79 68.11 67.68 68.95 71.90 72.18 71.73 72.07 72.93 74.20 74.89 76.00 76.59 76.80 77.13 77.82 77.78 77.14 77.18 76.89 76.86 76.82 77.07 77.24 77.36 77.64 77.08 76.76 75.10 75.67 76.02 76.10 75.86 76.55 76.00 75.25 75.79 75.04
63.04 59.46 57.70 60.57 62.40 62.39 64.78 65.40 66.34 65.47 64.90 65.01 66.59 69.49 71.20 71.86 70.87 69.82 69.74 70.55 72.05 73.20 74.89 76.19 76.62 76.52 77.02 76.12 78.00 77.78 77.12 76.80 77.00 77.36 77.95 77.62 77.63 77.58 76.52 74.74 75.91 75.80 74.72 75.68 75.61 75.46 75.40 75.38 76.42
62.25 59.07 61.19 61.58 62.58 65.22 64.81 65.20 67.31 64.96 62.81 65.31 65.79 68.10 70.09 70.44 70.52 69.78 69.95 70.58 71.36 73.25 74.25 75.43 76.66 77.08 77.05 77.37 77.53 77.89 77.46 77.29 77.17 77.74 78.03 78.00 77.38 77.07 77.02 77.20 76.59 76.85 75.76 77.14 76.47 76.79 76.73 75.43 76.08
59.23 61.44 62.05 62.40 63.74 64.74 64.10 66.62 64.58 65.14 63.67 67.81 68.97 69.85 70.03 69.62 69.87 69.76 69.96 70.78 71.61 72.65 73.91 75.19 76.16 77.16 77.29 77.08 76.54 76.98 76.50 76.88 76.32 76.33 77.83 77.19 76.36 76.05 76.55 76.26 76.38 77.49 77.95 77.03 77.10 76.87 76.72 76.17 75.45
56.46 57.15 61.01 63.26 63.74 65.10 65.98 64.55 64.38 64.75 66.67 69.21 69.80 69.80 69.30 69.70 70.25 71.32 71.63 71.95 72.77 72.65 73.88 75.47 76.40 76.62 77.22 77.39 76.64 76.12 76.44 75.99 76.20 76.65 77.13 76.62 75.81 77.26 77.09 75.98 76.67 77.82 77.60 76.61 76.96 76.94 76.37 75.43 74.65
56.63 58.45 60.55 63.06 62.67 64.40 63.68 63.71 64.93 65.31 68.45 68.18 68.61 68.87 69.51 69.93 70.64 71.49 71.32 71.63 72.41 73.08 73.92 75.50 76.13 77.05 77.45 77.00 77.53 77.05 76.94 77.36 76.91 76.84 76.58 77.29 76.64 77.87 78.10 77.25 77.29 77.57 76.72 76.91 77.02 76.70 75.41 74.52 74.18
62.40 59.87 61.87 61.87 62.57 62.27 64.75 61.20 62.15 66.56 68.16 66.98 67.65 68.32 69.12 70.04 71.22 71.03 71.74 72.04 72.83 73.20 74.04 74.41 75.33 76.52 76.98 77.27 77.12 77.33 77.02 78.13 76.49 76.48 77.58 76.90 77.76 77.64 77.30 78.28 77.67 76.75 76.47 76.07 75.91 75.31 75.30 74.09 73.90
59.50 60.33 56.84 60.92 62.21 62.89 62.79 57.13 63.39 67.25 67.15 65.99 66.62 67.62 68.35 69.62 70.58 72.14 72.66 73.14 74.12 73.79 73.72 74.73 74.42 75.31 76.18 76.75 76.89 77.13 77.17 77.05 77.48 77.64 78.45 77.33 77.23 77.84 78.11 78.33 77.13 76.93 76.33 75.66 75.25 75.21 73.90 73.64 72.81
57.98 54.67 56.24 58.24 62.46 62.07 61.54 58.27 63.58 66.99 66.84 65.98 66.50 67.23 68.04 69.11 70.80 72.38 73.37 73.87 74.53 74.61 74.80 74.91 75.52 75.53 76.45 77.03 77.18 77.36 78.07 78.18 78.53 77.14 77.19 77.54 77.66 77.27 77.36 76.86 76.91 75.99 75.57 76.00 75.30 74.44 73.59 71.00 70.48
54.26 55.02 56.78 57.36 60.15 61.58 60.22 59.86 63.39 65.68 66.16 66.02 66.81 67.41 68.17 68.99 70.40 72.41 73.43 74.07 74.50 74.92 75.43 75.80 75.77 76.45 77.09 76.92 76.99 76.47 77.29 76.86 77.31 78.43 77.72 77.61 78.08 77.06 76.49 77.04 75.93 75.77 75.88 74.39 74.50 73.71 73.67 71.64 71.39
57.53 57.04 56.81 59.09 61.15 60.24 59.61 59.98 62.21 64.86 65.26 65.16 66.70 67.28 67.86 68.75 71.11 72.52 73.07 73.88 74.09 74.52 74.88 75.37 75.57 76.53 76.53 75.66 75.03 75.20 74.74 76.80 76.72 78.47 76.91 77.29 77.31 77.00 76.90 76.60 75.40 75.00 73.84 73.94 74.09 73.20 71.76 71.32 72.45
57.53 56.52 56.94 58.91 61.06 60.66 59.42 59.23 62.21 64.27 64.51 65.35 65.77 66.81 67.80 68.76 70.12 71.27 72.31 72.76 73.15 73.67 74.20 75.05 75.64 76.61 76.41 76.19 76.17 75.97 76.07 76.39 76.54 77.17 77.30 77.41 76.94 76.97 76.21 75.68 74.34 74.46 73.31 72.99 72.74 72.52 70.85 70.88 72.38
55.89 56.44 56.60 56.79 59.02 60.39 59.72 57.47 59.73 63.34 65.05 65.61 66.29 67.06 67.69 67.93 68.61 69.62 70.56 71.62 72.66 72.86 73.73 74.65 75.88 76.68 76.63 76.81 76.39 75.84 76.24 76.02 75.44 75.36 75.46 76.32 76.75 76.47 76.26 75.12 74.46 74.03 72.75 70.65 72.15 71.84 70.60 68.87 70.93
51.55 56.80 58.40 57.40 56.51 52.66 59.46 51.06 58.01 61.39 62.38 64.00 65.19 65.80 66.51 67.39 68.63 69.36 69.73 70.86 71.88 72.46 73.73 75.33 75.73 76.51 76.36 76.76 75.74 75.40 73.95 73.40 74.47 74.44 75.35 75.88 76.31 75.57 75.48 74.56 73.57 72.94 71.96 72.02 71.96 71.75 71.82 70.71 68.30
53.19 55.50 56.64 57.82 56.84 55.16 55.59 52.95 56.42 60.40 59.72 62.26 64.49 65.68 66.66 67.65 68.24 68.50 69.49 70.61 71.95 72.72 72.97 73.92 75.49 76.15 76.16 76.37 76.62 75.11 74.83 75.05 74.89 73.64 74.60 75.83 74.74 74.52 73.23 72.69 72.20 72.24 71.69 72.10 71.33 71.51 71.16 70.70 69.38
54.43 53.57 53.33 55.48 55.27 49.04 54.03 53.62 53.16 57.44 60.08 62.20 64.38 65.77 66.59 67.31 68.20 69.16 70.23 70.96 71.36 72.77 72.88 73.26 74.61 75.59 75.55 75.53 75.76 75.71 75.36 75.11 73.41 72.63 71.63 73.11 72.54 71.59 71.79 71.55 72.50 73.10 72.26 70.97 70.83 71.32 70.92 70.37 70.24
53.48 51.90 46.62 45.73 46.38 45.91 53.07 53.29 55.02 59.33 62.21 63.32 64.02 64.97 66.44 67.60 67.92 68.42 69.16 69.66 71.08 71.59 72.50 73.07 74.47 74.45 74.90 74.77 75.38 75.56 75.69 75.90 74.36 73.54 71.91 72.18 71.28 69.95 70.33 71.59 71.98 71.89 72.01 71.05 71.04 70.92 70.59 70.00 69.36
51.31 51.51 47.64 42.47 43.85 46.54 50.70 49.03 54.02 60.99 62.33 63.70 65.63 66.15 66.87 67.11 68.41 68.46 70.26 70.45 70.70 71.19 73.03 73.52 74.00 74.32 74.33 74.37 75.59 76.42 76.47 75.06 74.29 73.73 72.23 71.80 71.46 70.40 71.47 71.54 71.76 71.94 70.72 70.47 70.71 69.98 69.78 70.29 69.38
50.92 48.49 53.71 48.74 46.38 47.08 50.31 53.53 56.32 59.40 59.99 61.35 62.78 64.93 65.79 66.95 67.96 68.66 69.73 70.17 71.06 71.99 72.72 73.37 73.97 74.46 74.86 74.56 75.98 75.82 75.92 75.47 74.25 73.46 72.12 71.67 71.73 70.11 71.21 71.37 71.40 70.74 69.61 70.24 70.71 69.30 69.62 69.91 69.97
51.47 53.08 47.04 48.08 44.53 42.11 46.32 48.24 50.13 56.74 59.08 61.53 61.43 63.19 65.24 67.18 68.02 69.00 70.29 70.99 71.80 72.27 73.21 73.83 74.36 74.19 74.85 74.21 75.46 75.37 75.09 73.07 74.29 72.85 70.28 71.16 71.13 70.74 70.91 70.97 70.36 69.63 69.90 69.95 70.35 69.14 69.22 69.22 69.05
48.81 48.19 48.98 50.58 48.98 45.88 44.17 47.36 56.59 58.25 60.59 60.97 62.34 63.07 64.78 66.55 67.46 69.21 70.79 71.46 72.13 72.35 72.57 72.93 73.64 74.31 74.55 74.87 75.66 75.69 73.60 72.98 71.45 71.21 70.04 68.06 70.56 69.96 70.27 70.38 69.78 69.62 69.74 69.70 69.59 69.67 69.34 68.55 69.13
50.99 49.93 50.92 47.38 46.63 47.50 48.12 48.62 56.30 58.16 60.07 60.94 62.20 63.34 64.44 66.45 67.42 69.02 70.05 70.80 71.04 72.01 72.00 72.25 73.48 73.27 74.44 74.93 75.34 74.43 72.73 69.42 71.12 65.74 68.77 69.83 68.79 69.17 69.71 69.69 69.20 69.35 69.04 69.73 69.32 68.89 68.24 68.32 68.18

GFSSGP_sfc_wetblb_021.txt.gz
Wetbulb
76.68 76.73 77.34 74.24 63.46 59.75 57.27 59.97 64.31 62.52 63.60 66.93 67.59 66.49 64.43 64.91 63.19 58.82 71.84 74.41 74.29 74.83 75.90 76.33 76.70 76.64 76.78 76.85 76.61 77.03 76.92 77.11 77.63 77.74 77.89 77.49 77.71 77.95 77.68 77.58 77.39 77.31 77.01 76.88 76.65 76.40 76.38 76.38 75.85
77.63 77.31 76.86 71.96 60.59 53.27 56.80 62.34 60.62 64.24 67.10 68.50 67.94 67.32 65.28 64.82 69.08 69.39 70.47 73.87 74.10 74.09 74.88 75.76 76.48 76.91 76.93 76.95 76.92 76.69 76.59 76.60 76.84 77.27 77.49 77.14 77.63 77.64 77.20 77.09 77.15 77.09 76.76 76.63 76.30 76.46 76.32 76.21 75.93
78.18 77.62 71.41 67.64 59.06 54.74 56.95 61.79 64.23 66.07 67.40 66.98 66.43 68.66 67.91 66.35 70.14 71.11 74.10 73.68 73.65 74.45 75.68 76.39 76.85 77.06 77.30 77.00 77.25 77.13 76.91 76.98 76.81 76.90 76.87 77.15 77.67 77.34 76.79 76.99 76.93 76.82 76.46 76.21 76.38 76.30 76.18 76.27 76.04
76.37 73.85 71.58 59.96 56.90 61.07 61.70 63.79 65.64 65.63 67.29 68.18 68.39 65.72 69.81 72.30 71.42 73.87 75.69 74.66 74.44 75.59 76.06 76.46 77.12 77.14 77.14 77.21 77.37 77.49 77.54 77.16 76.74 76.82 77.40 77.48 77.18 76.63 76.77 76.74 76.57 76.44 76.30 76.35 76.24 76.41 76.46 76.57 76.18
75.23 70.91 61.89 57.31 57.91 61.76 64.53 65.93 66.18 64.43 65.93 66.83 68.26 65.99 67.22 72.09 74.36 74.89 75.20 74.63 74.40 75.21 76.41 76.83 77.60 77.57 77.31 77.44 77.94 77.65 77.43 76.95 76.54 77.04 77.34 77.07 77.02 76.83 76.77 76.38 76.15 76.15 76.27 76.60 76.57 76.71 76.13 76.27 75.93
68.97 66.84 57.14 55.00 56.88 61.15 64.96 66.09 65.51 65.99 66.55 66.64 67.13 67.02 68.65 73.74 73.86 74.89 75.58 75.62 74.98 76.02 76.89 77.21 77.82 77.71 77.74 77.59 77.38 77.20 76.96 76.90 77.00 77.09 76.99 76.96 76.99 76.63 76.32 75.84 75.95 76.01 76.37 76.54 77.05 76.71 75.88 75.93 75.32
66.95 62.62 57.40 57.23 57.29 58.90 62.08 65.95 64.51 65.06 65.20 66.33 69.48 66.41 69.48 72.12 74.61 75.31 76.03 75.97 75.24 76.18 76.68 77.11 77.63 77.90 77.81 77.63 77.20 77.04 77.06 77.06 77.06 76.85 76.76 76.63 76.60 76.21 75.62 75.65 75.76 75.65 76.29 76.48 76.29 76.18 75.29 75.63 75.07
68.83 63.33 57.57 59.00 57.70 57.36 62.78 64.72 65.73 65.34 65.23 69.51 70.70 66.17 66.83 72.32 74.43 74.83 74.98 75.17 74.86 76.40 75.98 76.51 77.40 77.29 78.26 78.28 77.21 76.91 76.88 76.63 76.77 76.63 76.93 76.93 77.10 76.85 76.01 75.98 76.24 75.71 75.68 75.73 75.67 75.45 74.98 75.30 74.99
69.49 60.22 58.41 57.58 58.41 59.42 63.49 62.82 65.78 68.36 66.38 67.26 68.52 69.82 71.63 73.46 74.27 73.59 73.31 73.88 73.95 75.26 76.04 76.60 75.88 76.09 77.21 77.44 77.46 77.10 77.05 76.91 76.66 76.91 77.32 77.13 76.99 77.08 77.85 76.78 75.60 75.94 75.82 76.18 75.39 75.59 75.75 75.98 75.91
65.65 58.04 59.60 61.79 62.79 62.00 62.86 62.86 65.02 64.96 65.21 66.01 67.06 70.86 72.37 72.96 72.74 71.96 71.78 72.62 73.26 74.06 74.77 75.47 75.59 76.47 76.70 75.65 77.48 77.14 76.82 76.58 76.67 77.10 78.04 76.59 77.91 77.78 76.17 76.81 75.75 76.30 75.57 76.36 76.17 76.42 76.73 76.57 76.47
64.64 61.55 62.45 62.32 63.80 64.87 63.35 63.17 65.37 64.61 63.05 65.96 66.11 69.11 70.69 71.45 71.97 71.68 72.01 72.82 73.43 75.02 75.40 75.88 77.15 76.74 76.37 77.96 76.52 76.65 76.69 76.64 76.80 78.20 77.96 77.64 77.49 76.93 76.46 77.82 77.12 76.99 76.04 76.43 76.98 76.55 76.93 76.12 76.26
61.48 64.09 63.40 63.77 63.43 64.28 62.96 65.35 62.75 63.64 64.74 67.42 69.03 70.61 70.64 70.67 71.14 71.41 71.78 72.78 73.89 74.58 74.97 75.31 76.47 77.40 77.37 76.79 76.07 76.20 75.71 75.82 75.74 76.53 78.10 77.43 76.50 76.32 76.75 76.31 77.01 77.97 76.97 77.72 78.31 76.27 77.33 75.87 77.55
61.22 62.82 62.41 62.43 63.60 63.87 64.93 63.99 63.16 62.66 66.14 68.21 69.92 70.46 70.28 70.69 71.13 72.02 72.53 73.32 74.23 74.01 74.73 75.40 76.47 77.75 77.64 78.31 76.54 76.21 75.79 75.45 75.76 76.16 77.52 76.75 76.01 76.39 76.53 77.10 76.58 77.95 77.47 75.51 76.50 76.28 77.76 76.03 75.82
61.88 62.20 61.08 61.30 62.49 63.67 63.11 63.92 64.23 64.33 67.42 67.92 69.42 69.60 70.20 70.33 70.82 71.68 72.06 72.83 73.56 74.47 74.94 75.90 76.54 77.51 77.85 78.42 78.87 76.86 76.69 77.06 75.91 75.91 76.77 77.81 76.71 77.08 76.11 76.98 77.02 76.20 77.62 76.43 76.63 77.08 75.60 76.58 76.43
61.53 58.58 61.53 61.68 62.37 62.59 64.19 61.72 62.20 65.97 68.10 67.41 68.47 69.36 69.60 70.12 71.03 71.39 72.19 72.69 73.83 74.48 75.43 75.80 76.37 77.16 77.85 77.92 78.00 77.27 76.58 76.26 76.41 75.61 78.06 77.74 79.01 77.83 78.18 77.84 76.36 77.09 78.07 77.66 77.32 76.91 76.61 75.33 75.26
58.81 60.02 57.04 60.95 62.00 63.09 63.07 58.31 63.52 67.23 66.84 67.23 67.64 68.75 69.18 70.03 70.81 72.11 72.73 73.36 74.34 74.64 74.97 76.00 75.98 76.56 77.44 78.52 78.29 77.33 76.84 76.34 78.06 76.40 76.73 78.17 78.65 78.77 78.15 76.64 75.68 76.94 77.74 77.44 77.17 75.24 74.27 72.51 71.52
57.91 55.00 56.48 58.38 62.50 63.43 62.61 58.37 64.15 67.36 66.25 65.63 67.70 67.99 68.93 69.70 70.97 72.19 72.93 73.71 74.24 74.97 75.39 75.69 76.38 76.19 77.19 79.07 78.30 78.37 80.15 78.35 77.36 78.31 77.23 78.23 78.28 78.52 77.97 76.50 77.60 78.21 77.22 77.02 75.72 73.59 73.47 71.37 69.50
55.05 55.47 57.18 58.84 60.62 62.91 61.09 61.04 64.73 66.96 66.13 64.88 66.69 67.52 68.21 68.85 70.00 72.19 73.23 73.81 74.35 75.02 75.80 76.40 76.14 77.71 79.37 78.94 80.29 78.15 77.97 77.56 77.39 77.15 77.61 79.03 77.89 78.96 77.76 76.92 77.06 77.01 75.98 75.66 75.64 74.08 72.91 70.79 69.48
58.42 57.88 56.78 59.19 61.14 61.12 61.04 61.50 63.68 66.60 66.66 65.44 65.35 66.78 67.36 68.23 71.06 72.30 73.23 73.56 73.90 74.88 75.88 76.22 77.34 80.07 77.99 76.27 76.01 76.03 75.38 76.06 76.07 77.01 78.13 79.06 78.46 77.84 78.09 76.22 76.71 76.68 75.44 75.14 74.28 72.36 71.83 68.83 71.74
57.31 57.21 57.33 59.32 60.98 60.86 60.71 60.63 64.05 66.12 66.48 67.07 66.41 66.36 67.23 68.19 69.44 71.28 72.89 73.32 73.93 74.72 76.07 77.84 78.38 80.12 79.03 77.63 77.71 77.73 77.19 75.07 76.16 77.58 79.59 78.42 77.69 78.33 77.66 77.71 76.87 77.33 74.25 74.92 72.86 71.54 69.01 68.94 71.11
56.14 56.35 57.36 57.11 60.90 62.32 60.85 59.31 61.38 64.44 67.08 67.56 67.72 67.82 68.07 67.93 68.16 70.00 71.93 72.97 73.97 74.37 75.70 78.29 79.85 80.55 80.33 80.42 78.97 78.11 77.87 76.64 75.63 74.62 75.81 77.49 77.38 77.68 77.87 77.76 76.36 76.51 74.25 69.72 72.33 71.74 70.98 67.95 69.73
53.75 58.27 58.14 57.78 57.24 55.80 60.70 54.05 60.15 62.33 63.17 65.93 67.38 67.98 67.79 68.40 69.00 69.68 71.36 72.77 73.56 74.42 76.19 79.01 79.90 80.68 80.38 81.24 78.62 79.20 75.96 73.85 73.61 74.64 75.20 75.32 75.95 75.97 76.82 75.74 75.66 75.18 72.18 74.93 72.11 71.36 71.36 70.66 68.39
54.93 58.94 58.42 58.24 57.20 57.59 57.01 54.95 57.46 61.73 60.75 62.96 66.20 67.84 68.44 68.54 69.17 69.21 70.61 72.25 73.73 74.75 75.40 77.04 80.14 81.09 81.13 80.90 79.99 77.56 77.27 74.75 74.74 74.49 77.76 77.30 78.22 75.96 74.75 76.00 75.10 73.60 70.24 72.96 72.77 71.68 71.90 71.39 68.69
57.12 57.51 57.99 57.81 56.73 51.72 57.15 54.88 56.63 57.80 61.43 62.93 64.98 67.30 69.09 68.93 69.46 70.56 71.18 72.15 72.99 74.27 75.08 76.05 79.51 80.87 81.54 81.09 80.61 80.47 80.31 77.29 75.28 75.86 74.22 73.40 74.21 74.36 75.69 75.37 74.79 73.79 72.51 72.90 72.49 72.21 71.56 71.12 71.05
55.17 54.60 50.76 50.02 50.39 49.86 58.10 55.50 57.82 61.37 62.93 63.74 63.83 65.25 68.30 70.16 69.04 69.59 70.67 71.10 72.57 73.87 75.23 76.13 79.04 80.42 81.38 80.43 80.18 79.71 80.16 79.97 78.78 77.71 74.47 75.71 72.99 73.26 76.60 76.24 74.99 72.96 73.95 73.79 73.16 72.55 71.77 70.91 69.94
53.14 53.65 50.89 46.78 48.22 50.86 56.58 53.85 57.48 63.43 63.49 64.67 64.98 64.67 66.75 69.56 70.16 69.16 70.06 70.72 71.96 73.51 76.18 76.89 78.32 79.90 80.77 80.34 80.81 81.01 80.98 77.34 76.88 77.82 75.51 72.97 72.48 73.63 78.31 75.69 74.74 73.35 73.78 73.40 73.10 70.84 70.26 71.90 70.14
52.77 52.01 56.33 52.98 54.29 51.59 53.79 56.97 59.79 62.37 62.63 63.14 63.37 63.36 63.87 68.27 69.85 69.48 69.98 70.24 71.09 73.56 75.93 77.08 78.20 79.74 80.31 80.17 81.12 80.90 80.50 79.99 77.34 79.10 79.15 75.77 77.18 73.57 74.86 75.39 74.05 73.82 73.06 73.51 72.79 70.26 71.11 71.17 71.18
52.93 56.02 52.04 53.94 49.18 48.32 51.74 53.55 54.56 59.58 60.26 61.61 62.14 62.44 63.95 65.92 69.02 70.04 69.88 70.61 72.15 72.57 75.20 77.21 78.40 79.71 80.26 80.27 80.59 79.91 80.20 80.61 80.32 80.39 79.73 78.33 78.07 76.24 76.58 74.50 73.75 73.44 73.60 72.97 72.62 71.86 72.49 71.19 70.06
50.97 51.82 54.04 54.53 53.65 49.47 48.66 52.59 59.40 60.44 61.64 61.33 62.12 63.10 63.69 64.96 67.99 70.07 70.38 71.06 72.46 72.64 73.45 75.48 77.49 78.85 79.59 79.73 80.17 79.88 79.63 79.09 80.05 79.32 79.38 78.80 78.56 77.54 76.02 75.11 74.88 73.36 72.51 72.30 73.02 72.17 71.47 70.87 71.51
53.56 51.94 53.28 53.18 51.89 53.13 52.36 52.47 60.47 60.82 61.52 61.82 62.50 63.19 64.18 64.97 66.26 68.80 70.57 71.25 71.64 73.56 72.98 74.11 75.67 76.32 78.40 79.09 80.25 79.81 80.11 79.36 78.83 79.10 79.24 79.25 77.74 77.70 76.37 75.54 74.54 72.51 70.79 69.55 69.50 70.87 69.89 70.57 70.00

GFSSGP_sfc_wetblb_024.txt.gz
Wetbulb
76.00 75.97 76.37 70.45 61.42 60.39 55.96 58.55 64.08 62.03 62.90 66.54 66.63 65.21 62.18 64.47 61.44 58.19 71.32 73.27 73.83 74.00 75.02 75.34 76.95 76.73 76.81 77.40 77.61 77.97 78.28 78.46 78.53 78.62 78.85 78.74 78.76 78.60 78.39 78.41 78.14 77.71 77.33 76.73 76.57 76.68 76.68 76.34 76.17
75.62 75.35 73.84 65.79 57.92 53.23 56.32 62.64 59.93 62.84 65.52 67.74 66.74 65.82 64.14 62.43 67.73 68.72 70.33 73.57 73.88 73.93 74.20 74.38 77.41 77.20 77.15 77.89 77.96 77.75 77.82 77.85 78.32 78.35 78.70 78.80 78.48 78.26 77.88 77.39 77.08 76.95 76.76 76.57 76.71 76.65 76.62 76.45 76.03
75.95 75.53 68.89 65.31 57.89 53.65 56.40 61.53 63.12 66.21 67.15 66.82 65.90 67.33 66.52 64.88 69.09 70.24 72.76 73.10 73.66 73.50 75.24 76.12 77.26 77.76 77.68 77.90 77.92 77.97 77.88 77.80 78.15 78.29 78.38 78.53 77.99 77.26 77.23 77.04 76.79 76.65 76.51 76.63 76.63 76.71 76.62 76.42 76.20
74.94 72.82 71.39 63.41 57.47 58.73 61.44 62.81 65.02 64.51 67.22 68.02 67.37 64.51 68.58 71.36 70.36 72.22 73.25 73.82 73.95 74.92 74.74 76.72 77.47 77.76 77.87 78.24 78.11 78.25 78.01 77.66 77.89 78.14 78.07 77.53 77.21 76.85 77.13 76.77 76.40 76.32 76.35 76.46 76.88 76.76 76.54 76.37 75.87
75.90 69.29 63.53 58.50 59.37 62.59 64.06 65.50 65.05 63.57 65.83 66.30 67.27 64.49 66.44 71.13 72.47 73.38 73.30 74.26 73.57 74.29 75.07 76.09 78.12 78.17 78.08 77.84 78.15 77.93 77.23 77.38 77.87 78.01 77.37 77.32 77.10 76.93 76.68 76.12 75.98 76.01 76.57 76.57 77.07 76.63 76.24 75.88 75.71
68.13 67.68 60.38 54.55 56.64 62.02 63.95 66.26 64.62 64.79 66.15 66.82 65.67 65.86 66.47 72.39 72.55 73.44 73.88 74.03 74.82 74.52 75.15 75.91 78.01 78.19 77.96 78.32 77.93 77.67 77.14 76.87 77.17 77.28 77.12 77.21 76.88 76.57 76.26 75.63 75.69 76.11 76.47 76.76 76.91 76.46 76.07 75.74 74.65
66.73 64.53 59.14 56.08 56.27 58.92 61.60 64.88 64.26 64.03 65.12 65.60 68.77 63.98 67.78 70.42 72.98 73.91 74.07 74.92 75.15 75.06 75.58 76.60 76.43 77.57 78.03 78.21 77.68 77.39 77.17 77.08 77.20 76.87 76.74 76.74 76.65 76.57 76.23 75.68 75.39 75.61 76.17 76.39 76.46 76.03 75.39 75.18 74.59
67.63 65.41 60.20 58.42 56.16 56.20 62.15 64.20 64.50 63.74 64.53 69.28 69.47 64.11 65.02 70.94 73.89 73.88 74.61 74.02 74.08 74.56 75.81 76.39 76.99 77.37 77.25 76.49 77.36 77.04 77.06 76.87 76.57 76.21 76.21 76.32 76.57 76.93 76.64 76.99 76.79 75.70 75.53 75.67 75.89 75.81 75.13 75.48 75.68
67.16 58.36 58.73 58.02 57.68 58.35 63.05 61.49 65.92 67.56 65.76 67.79 68.86 68.24 70.68 71.87 73.00 73.20 72.35 73.36 73.74 74.26 75.09 75.33 75.94 77.36 77.51 76.55 76.03 76.93 76.54 76.43 76.24 76.43 76.96 77.53 75.38 76.02 76.95 77.94 76.79 76.17 75.84 75.92 75.97 76.45 77.21 77.18 77.29
60.35 56.50 59.16 61.49 62.07 59.97 62.62 62.30 63.44 63.36 63.83 64.92 67.99 70.25 71.21 71.56 71.43 70.95 71.67 71.84 72.00 73.19 73.52 75.18 74.75 75.17 76.96 75.43 76.87 76.96 76.02 75.71 76.12 76.45 77.96 76.71 75.08 75.37 77.34 77.39 76.92 75.52 75.56 76.11 76.71 77.49 75.95 77.52 76.20
61.61 56.50 62.40 63.56 63.26 62.97 61.91 62.25 63.69 63.25 61.76 64.69 66.60 68.47 69.87 70.38 70.48 69.70 71.69 71.71 72.32 74.16 73.81 75.04 75.89 76.22 75.29 76.31 76.09 76.06 76.23 76.26 76.58 78.60 76.48 78.75 76.76 76.80 75.33 75.66 78.86 75.59 77.86 76.24 75.98 73.61 71.23 73.71 76.61
59.92 63.58 63.03 63.74 63.91 63.87 61.87 63.28 61.96 64.18 63.59 67.17 69.49 70.42 70.26 69.60 69.34 69.47 71.25 71.42 73.39 73.64 74.66 74.18 76.87 77.71 76.20 75.83 75.75 76.32 76.34 76.41 75.44 77.16 79.21 79.28 78.32 77.46 77.14 74.86 77.84 76.82 75.81 76.43 76.62 73.08 73.61 76.27 76.57
60.32 63.03 63.71 63.05 62.85 63.49 63.96 62.60 61.44 62.72 66.03 67.74 69.49 69.77 69.66 69.68 69.77 70.28 71.04 72.41 73.85 73.47 74.48 75.59 77.20 78.44 79.88 79.26 78.02 76.15 76.46 74.64 77.07 76.74 77.63 77.46 77.56 75.12 77.24 77.72 76.79 77.78 77.29 75.76 75.95 76.86 75.14 73.99 75.46
60.86 61.38 62.05 61.55 61.43 62.29 62.63 62.90 62.45 62.98 66.12 66.93 68.06 68.29 69.01 69.37 69.81 70.86 71.29 72.01 73.51 73.85 74.27 75.97 76.50 78.07 79.50 79.81 81.41 80.32 79.17 79.31 74.59 76.12 76.73 78.89 78.97 78.94 76.19 77.05 76.95 77.93 75.88 76.26 77.38 78.01 77.41 76.77 76.60
60.40 58.38 59.95 60.47 60.90 61.12 63.68 60.78 60.78 63.77 65.66 66.02 66.79 67.99 68.58 69.33 70.44 70.82 71.81 72.55 73.71 74.05 74.96 75.36 76.15 77.77 78.18 79.17 79.71 79.81 78.71 77.49 77.64 76.09 77.43 78.92 79.68 79.60 80.15 78.30 77.74 77.26 78.28 76.16 77.96 77.76 77.28 75.86 75.26
57.09 58.18 55.27 59.63 60.71 61.66 61.54 57.57 61.85 64.84 63.91 64.62 66.54 67.30 68.20 68.92 69.41 71.50 72.33 73.26 74.02 74.31 75.53 76.68 74.92 76.59 77.64 78.50 79.28 77.47 76.50 76.43 77.02 76.54 76.10 76.83 78.56 79.35 79.47 77.39 76.33 75.61 75.41 76.36 75.08 75.69 75.69 73.43 72.14
55.67 52.75 55.01 57.35 61.11 61.06 59.89 58.58 63.03 65.76 64.07 64.21 65.74 66.69 67.30 68.75 69.86 71.39 72.00 73.42 73.94 74.96 76.18 75.53 76.87 76.20 77.32 78.44 78.36 78.41 77.96 76.55 78.75 75.85 75.99 77.01 79.05 78.41 78.73 77.23 75.75 78.05 76.66 76.82 75.94 75.46 73.07 72.04 70.73
51.75 53.34 55.50 56.40 59.61 60.45 59.25 59.38 61.70 64.18 63.84 64.07 65.04 66.43 67.33 67.55 68.66 71.50 72.14 72.91 73.88 74.75 76.15 76.51 76.56 78.81 78.00 77.44 78.35 79.00 76.99 79.84 76.10 77.99 77.83 76.69 78.75 79.84 76.04 76.88 76.58 78.09 77.72 76.94 76.20 74.52 73.76 71.64 69.88
55.15 55.55 55.17 58.02 60.67 59.37 60.35 59.48 59.34 63.78 64.30 62.80 64.48 65.27 65.98 67.33 69.98 71.59 72.30 73.15 73.65 74.51 75.91 76.27 77.35 78.75 78.71 77.93 76.07 76.15 75.71 76.74 76.61 77.64 75.58 77.22 79.20 79.60 79.56 77.16 77.83 77.95 76.46 75.53 74.48 73.54 70.64 70.78 71.23
54.97 54.60 55.98 58.58 61.37 61.13 59.30 61.11 61.98 64.87 64.77 64.19 63.85 64.95 65.77 67.05 68.91 70.93 72.14 72.96 73.17 74.22 75.13 76.61 76.83 79.39 78.28 77.75 77.77 76.79 75.57 76.20 75.74 76.78 79.08 78.05 78.21 78.60 77.81 76.93 77.01 76.61 74.42 74.03 73.20 72.04 70.16 70.22 72.06
54.25 54.14 55.74 56.70 59.50 60.22 58.91 57.44 59.45 63.82 65.43 65.90 66.03 65.91 66.18 66.75 67.12 69.94 71.55 72.11 73.17 73.85 75.46 76.18 76.96 78.49 77.85 79.23 77.66 77.55 78.26 79.59 76.54 76.60 76.08 77.68 78.63 78.75 77.47 78.38 77.69 76.85 75.45 73.33 73.28 72.50 71.91 68.80 71.30
51.79 56.65 56.63 56.18 56.72 53.16 59.57 51.81 59.52 61.58 63.55 64.30 64.88 65.57 65.81 66.81 68.08 68.63 70.73 72.20 72.71 73.92 76.17 77.12 77.80 77.87 78.94 77.89 77.80 77.04 74.68 74.68 75.64 76.73 76.18 77.32 77.69 77.71 78.02 78.55 76.95 76.30 74.27 73.89 73.03 73.20 71.73 71.44 68.21
54.02 57.42 56.43 56.10 55.26 57.12 57.32 53.65 57.80 61.38 60.88 63.19 64.47 65.35 66.07 67.39 67.47 67.86 69.78 71.86 73.05 74.66 75.34 77.24 78.02 78.40 78.40 78.81 78.24 77.70 77.37 74.38 76.67 76.49 77.48 77.64 77.83 78.12 76.88 76.74 76.95 74.80 72.74 74.85 72.98 72.45 71.83 72.25 70.12
56.75 55.57 55.70 55.75 55.37 50.81 55.92 54.20 55.88 58.88 59.44 61.86 64.91 65.82 67.52 67.63 68.45 69.00 70.14 71.90 72.87 74.34 75.21 76.04 77.94 78.16 78.61 78.82 78.30 78.24 76.93 75.91 76.29 77.30 74.93 74.87 75.04 76.18 77.10 76.91 75.40 75.06 73.48 74.28 73.35 72.82 72.65 72.15 71.86
53.35 52.16 49.01 48.58 49.87 48.97 56.67 55.79 57.49 61.68 62.95 63.03 62.80 64.36 67.76 68.96 68.75 69.24 69.40 70.68 72.57 73.12 74.38 75.83 77.52 77.72 78.52 78.79 78.60 77.75 78.49 77.70 77.54 79.48 75.03 74.02 73.02 73.04 75.26 76.63 74.92 74.31 74.29 75.19 73.95 73.05 72.99 71.71 70.97
51.25 51.49 49.55 45.21 47.31 49.48 55.40 51.91 57.53 63.18 63.86 63.59 63.58 64.59 67.15 68.29 69.40 69.97 70.66 70.75 72.45 73.18 74.33 75.57 77.10 77.44 78.54 78.24 79.10 79.01 78.49 78.47 77.29 77.72 77.05 74.80 74.25 74.50 74.86 75.31 74.62 75.31 73.59 73.93 72.73 72.59 70.98 71.00 70.70
51.21 49.31 53.27 50.21 52.65 50.59 53.05 55.83 59.27 63.10 61.96 63.83 63.36 64.56 64.59 68.03 69.40 69.89 71.14 71.69 72.29 73.18 73.99 74.87 77.06 77.67 78.56 78.92 78.61 79.18 78.52 77.81 77.24 77.88 77.44 76.79 75.51 77.65 74.80 74.90 74.48 73.87 73.71 73.50 72.41 69.92 70.09 70.66 71.44
52.15 54.33 48.48 49.99 45.93 46.67 51.20 53.45 54.97 60.15 59.88 63.00 63.15 63.40 64.26 66.96 68.79 70.01 69.94 71.40 72.58 73.83 74.58 75.62 76.62 77.65 78.79 79.05 79.07 78.80 78.98 78.32 77.81 77.95 77.60 75.83 78.05 77.32 75.66 74.96 74.37 73.11 73.20 72.94 71.75 70.83 72.03 69.65 70.82
50.70 49.49 50.68 51.42 51.06 48.46 48.09 52.07 60.61 61.54 63.25 63.12 63.56 64.13 64.70 64.16 67.88 69.85 70.22 71.13 72.16 73.22 74.28 75.04 75.62 77.59 78.42 78.92 78.94 79.05 78.92 78.98 78.07 77.63 77.40 76.77 77.11 76.66 75.31 74.61 73.46 72.70 72.44 72.86 71.61 70.94 71.79 70.55 70.44
53.42 51.11 50.85 47.89 49.77 51.68 52.02 52.96 60.45 61.61 63.10 64.60 63.91 64.61 64.90 65.71 66.02 68.51 70.63 71.05 71.24 71.67 72.96 74.23 75.49 75.93 77.75 78.62 78.72 78.79 78.94 78.80 78.32 77.18 78.16 77.88 76.78 77.43 76.14 74.36 73.30 72.68 71.98 71.96 70.85 69.87 70.11 69.90 69.47

GFSSGP_sfc_wetblb_027.txt.gz
Wetbulb
75.87 75.22 74.21 68.53 61.22 59.23 54.59 57.56 62.47 60.03 60.81 64.75 65.70 63.99 62.50 64.71 60.87 55.80 69.71 72.04 72.85 72.87 73.98 74.49 76.85 77.20 77.13 78.16 78.35 78.18 78.49 78.67 78.98 78.92 78.78 78.72 78.15 78.07 78.24 77.79 77.25 77.04 76.72 76.50 76.61 76.44 75.92 75.81 75.67
74.61 74.37 67.27 62.87 57.43 53.06 55.07 60.88 60.13 62.27 64.41 66.28 66.34 65.00 63.09 61.26 66.89 67.62 69.00 72.43 73.37 73.18 73.51 74.53 76.98 77.71 77.33 77.97 78.21 78.49 77.97 77.79 78.82 78.63 78.78 78.59 78.07 78.32 77.42 77.23 76.90 76.83 76.64 76.50 76.45 76.28 76.00 75.84 75.78
74.12 71.63 63.54 59.17 57.15 53.31 55.15 60.95 62.20 64.66 66.60 65.62 64.12 67.06 65.05 63.52 68.24 68.80 71.57 72.86 73.07 72.23 73.70 75.07 77.36 78.01 77.77 77.64 78.03 78.26 78.09 77.86 77.94 78.51 78.44 77.99 77.48 77.26 77.10 76.83 76.72 76.69 76.53 76.50 76.28 76.12 76.11 76.03 75.48
72.13 70.65 68.12 60.39 55.10 59.00 60.46 61.67 64.69 64.72 66.13 67.10 66.00 62.65 67.20 70.14 68.78 70.94 72.32 72.89 72.61 73.37 75.08 77.27 78.07 77.42 77.74 77.81 78.20 77.74 77.61 77.74 78.35 78.74 78.35 77.72 77.05 77.19 76.86 76.67 76.56 76.42 76.40 76.67 76.64 75.95 75.64 75.70 75.28
72.37 68.64 59.79 59.33 56.91 60.43 61.89 64.15 65.27 63.62 65.23 65.23 66.23 63.06 64.27 69.15 71.41 71.62 71.84 73.23 71.63 73.03 75.10 76.16 78.43 78.63 78.34 78.01 78.14 77.71 77.32 77.35 78.54 78.55 78.28 77.81 77.22 77.08 76.51 76.23 76.20 76.17 76.26 76.51 76.65 75.90 75.29 74.98 75.28
66.53 66.30 57.61 55.94 56.72 61.58 62.31 64.13 64.41 64.85 65.65 66.38 65.11 63.70 64.58 70.18 70.02 71.35 72.78 73.12 73.07 73.21 74.63 75.59 77.93 78.49 78.47 78.08 77.83 77.47 77.25 77.25 78.58 78.51 78.42 78.23 77.89 77.35 77.19 76.12 75.98 75.80 75.86 76.17 76.20 75.98 75.59 75.12 74.82
66.05 60.40 57.88 56.73 57.38 57.57 62.00 65.13 64.90 64.55 64.71 64.73 67.50 62.15 65.64 68.42 70.75 72.04 72.59 73.07 73.13 73.88 73.93 74.95 75.52 76.76 78.40 78.71 77.57 77.22 77.36 77.41 78.07 78.08 77.92 77.74 77.13 76.12 76.40 76.37 75.92 75.67 75.63 75.66 75.84 75.95 76.83 76.65 76.22
64.68 61.13 57.97 57.87 55.25 54.63 62.72 62.99 66.89 65.61 64.67 68.99 69.02 63.26 63.23 68.58 71.57 72.13 72.71 72.64 72.92 73.46 73.97 74.15 74.63 75.10 75.17 75.43 77.37 77.10 77.25 77.28 77.20 77.04 76.88 76.83 76.67 76.45 76.56 77.49 77.15 76.09 75.86 75.50 75.52 76.43 77.02 77.29 77.75
66.36 56.89 54.39 56.55 55.75 56.00 60.80 61.96 66.31 68.94 66.45 67.54 68.32 68.12 69.18 71.29 71.81 71.05 71.02 71.44 72.06 73.54 73.57 74.05 74.55 74.63 74.08 74.01 75.47 77.09 77.23 77.41 77.40 76.81 77.54 77.44 74.50 72.96 75.81 76.28 77.33 76.34 76.34 76.73 75.98 77.58 77.25 78.03 76.97
61.57 55.57 56.69 61.48 60.64 56.87 61.47 63.31 63.85 64.53 64.83 65.31 66.76 69.35 70.75 70.96 70.63 69.60 69.19 69.63 70.34 71.10 72.83 74.01 73.99 74.51 73.75 74.64 73.61 73.64 74.46 74.01 73.50 73.71 73.81 74.96 73.34 73.12 74.75 76.71 77.95 76.81 76.48 76.87 76.45 76.69 71.47 75.44 73.36
61.64 57.74 60.69 61.39 62.59 62.21 59.35 60.49 63.14 61.64 61.94 65.10 64.94 66.92 69.45 70.07 69.77 69.24 69.61 69.94 70.04 71.64 72.56 73.16 73.99 74.68 73.94 73.21 73.34 73.41 73.49 73.19 73.24 72.94 73.66 74.29 75.08 72.77 74.41 74.66 74.88 72.16 76.56 74.02 75.10 74.75 70.92 71.90 72.32
58.51 61.80 61.85 61.33 63.14 61.07 59.98 60.98 61.35 62.41 62.88 68.09 68.00 67.76 68.02 69.03 69.13 69.47 69.47 69.76 70.15 70.36 71.59 72.12 72.02 73.38 72.75 73.65 72.91 73.49 73.25 73.35 73.08 73.93 75.08 73.64 72.73 71.53 73.11 73.85 74.00 74.11 74.16 74.27 73.87 72.20 72.19 72.11 73.45
60.21 61.33 62.32 62.98 62.87 61.90 61.64 60.11 61.60 62.31 67.63 68.98 68.80 68.17 67.42 67.09 69.17 70.34 70.70 70.90 71.05 70.39 71.64 73.04 73.43 73.42 73.63 73.66 72.23 72.82 73.52 74.26 73.73 74.14 74.19 73.10 71.98 72.83 74.27 73.33 73.13 73.69 74.01 73.23 72.11 73.03 73.13 72.18 71.35
61.87 62.58 62.02 60.93 60.96 62.14 60.73 60.29 61.60 63.71 68.13 68.02 68.08 67.15 67.40 66.85 66.86 69.15 69.41 70.56 70.51 70.67 71.82 73.66 73.49 74.41 73.33 74.01 74.48 75.59 74.56 73.19 73.62 73.84 74.18 74.55 73.30 73.75 73.44 74.41 73.44 73.28 73.83 73.22 74.36 73.04 72.77 72.84 73.42
58.17 56.14 61.34 60.84 57.54 60.57 62.33 58.66 59.58 63.81 66.76 66.45 66.87 67.33 67.80 67.79 67.64 66.81 70.10 70.05 70.05 70.48 71.79 72.99 73.31 74.47 73.61 73.58 74.31 73.46 74.12 72.42 72.23 74.12 74.60 74.18 74.15 73.45 73.44 73.36 72.99 73.26 74.61 73.37 73.60 73.83 73.25 73.59 73.73
53.64 52.09 48.81 55.57 57.33 58.89 59.60 53.78 60.04 62.96 64.54 64.59 66.04 66.74 67.36 67.40 67.66 68.20 69.85 70.79 70.65 70.88 72.43 73.61 74.52 73.80 73.35 73.77 74.65 73.28 72.41 72.65 73.50 73.69 73.41 74.94 75.49 74.51 73.24 72.85 72.83 74.35 74.23 74.11 71.66 70.92 71.54 70.96 68.27
48.17 45.99 48.58 52.58 58.06 58.62 57.84 54.54 60.87 61.72 63.54 63.12 64.53 65.48 66.12 66.47 67.28 68.54 70.04 70.64 71.05 70.45 72.16 72.22 73.18 73.38 73.54 74.12 75.11 73.99 73.54 73.99 74.23 72.87 73.63 73.81 75.25 74.95 73.74 73.65 73.52 74.53 72.85 72.06 71.79 70.19 70.18 65.51 64.66
44.46 46.19 48.95 50.94 56.55 58.00 56.17 55.59 60.42 61.18 61.66 62.83 63.78 64.74 65.27 65.59 66.39 68.66 69.43 71.03 71.66 71.30 72.64 72.22 72.33 73.88 73.93 74.86 74.23 74.38 73.55 74.72 74.06 72.78 74.28 73.90 75.21 75.66 73.76 73.04 73.04 72.71 71.97 71.72 70.24 69.44 67.90 65.09 65.41
50.45 49.75 49.65 53.09 58.52 57.35 56.90 56.45 58.48 60.12 60.18 60.78 62.99 63.72 64.44 65.32 66.86 68.70 69.44 70.94 71.20 71.98 72.65 71.65 71.91 73.72 74.05 73.63 73.31 72.64 71.67 73.04 73.26 73.96 74.75 74.40 74.74 74.73 73.39 73.08 72.78 72.74 71.60 70.38 71.67 66.45 63.59 64.79 66.49
50.06 49.18 49.54 53.68 58.17 57.17 58.21 56.66 58.74 59.15 59.23 61.09 62.20 63.40 64.02 65.09 65.86 67.82 68.63 69.63 70.67 70.98 72.25 72.04 72.37 74.58 73.96 74.13 73.33 72.84 71.85 72.80 72.84 72.89 73.31 73.64 75.09 74.48 73.71 72.65 72.31 72.52 72.37 70.31 66.34 65.34 63.44 64.94 65.74
49.39 48.26 49.73 51.69 57.18 58.48 58.05 55.95 55.80 59.16 61.24 62.28 63.03 64.06 64.90 64.80 65.08 66.79 67.84 68.67 69.87 70.40 72.06 72.47 73.33 74.65 74.60 74.55 74.23 73.66 73.33 73.53 73.56 73.12 73.41 75.48 75.05 75.08 73.79 73.16 72.76 72.02 70.50 66.80 66.11 65.26 64.60 63.08 65.93
46.29 52.49 52.84 52.43 53.74 49.84 58.23 49.13 54.77 57.82 59.61 61.31 61.51 62.53 63.35 64.77 66.09 66.84 67.93 68.23 69.60 70.86 72.64 72.65 73.52 75.15 73.80 74.76 72.97 71.46 70.58 69.89 71.56 73.59 72.80 73.78 74.69 74.60 74.36 73.91 72.59 70.55 68.96 67.52 66.19 66.89 65.50 64.34 61.19
48.74 53.50 52.71 52.41 50.56 52.48 52.94 49.93 52.21 58.65 57.88 59.98 61.07 62.05 63.01 64.13 65.45 66.69 68.11 68.76 70.11 71.48 72.17 73.54 73.52 75.03 74.08 73.63 73.92 72.84 71.64 72.02 70.98 69.73 72.50 73.58 73.41 73.44 73.97 74.08 71.39 68.08 68.49 68.48 66.74 65.65 65.19 66.36 65.37
52.08 50.90 51.24 51.30 49.64 44.56 51.32 50.59 50.79 53.17 58.19 59.69 61.21 62.70 63.19 63.76 65.10 66.65 68.50 69.76 69.82 71.66 73.16 73.80 73.37 73.31 75.27 73.25 73.63 73.51 72.67 71.19 68.89 71.43 72.18 72.77 71.05 71.63 72.52 72.67 69.94 68.15 68.09 67.38 66.84 67.57 65.98 65.23 65.17
49.27 45.33 42.65 41.58 42.87 41.91 52.38 51.03 51.78 57.40 59.88 62.02 62.58 62.99 63.65 64.49 64.62 64.92 67.16 68.67 69.24 70.38 72.10 73.79 73.49 73.41 74.62 75.05 74.64 74.50 74.05 72.69 71.26 71.23 70.30 70.18 69.76 69.68 70.42 70.80 69.59 67.80 67.84 68.56 67.99 66.81 65.47 65.09 64.32
46.73 45.52 42.73 36.28 39.79 42.89 48.43 47.32 52.73 60.13 61.55 63.83 63.33 63.38 62.89 65.03 65.07 65.16 66.06 68.17 69.45 69.93 71.70 73.79 73.69 73.55 75.00 74.88 74.52 74.70 74.49 75.35 72.89 72.77 71.38 69.42 70.84 70.29 70.35 70.74 70.24 68.72 67.27 69.79 68.57 66.83 66.48 66.36 64.45
45.89 43.99 46.77 40.91 43.99 41.93 46.42 49.53 54.23 59.73 60.23 61.01 61.50 62.24 62.79 63.30 65.66 65.66 66.16 67.69 69.16 69.75 71.29 72.22 74.29 74.23 74.84 75.49 75.37 75.06 74.41 74.41 75.18 73.18 73.34 71.32 70.19 71.33 70.99 71.58 70.47 69.57 68.03 68.27 67.79 67.28 66.13 66.44 65.28
48.61 47.62 42.80 44.08 37.47 38.41 44.19 46.10 48.21 54.12 57.94 59.39 60.16 60.83 61.90 63.63 63.81 65.80 66.69 67.32 69.48 70.49 71.46 72.79 75.06 74.62 75.51 74.88 76.05 76.23 75.71 74.80 74.75 73.87 72.77 73.07 70.82 71.78 71.34 71.85 70.72 70.80 69.03 68.85 67.98 66.33 67.70 66.48 66.77
45.49 45.73 43.74 43.65 44.11 39.74 39.53 44.53 51.64 56.80 59.22 59.05 60.47 62.10 62.92 63.42 65.52 65.90 67.40 67.86 69.82 70.69 71.24 72.32 74.43 74.91 75.54 75.77 75.37 75.92 76.41 75.81 74.79 74.75 73.58 72.88 72.50 72.09 71.62 71.78 71.13 69.86 69.91 69.69 68.56 66.36 66.37 66.95 65.81
50.61 46.72 43.82 41.58 37.84 42.07 42.27 44.35 54.80 55.36 60.60 61.18 61.45 61.66 62.20 63.31 64.87 66.96 67.90 68.44 69.04 70.07 70.85 71.84 74.79 74.74 75.55 76.35 76.24 75.56 75.80 76.39 75.22 74.33 73.88 74.32 72.31 72.76 72.47 71.93 71.32 70.03 69.18 69.59 68.46 66.57 67.39 66.63 66.11

GFSSGP_sfc_wetblb_030.txt.gz
Wetbulb
74.73 74.81 73.47 67.56 60.65 58.50 54.92 57.53 59.49 59.51 60.57 64.30 65.16 64.15 61.44 63.36 59.50 54.85 68.56 71.27 72.00 72.34 73.58 74.60 76.65 77.33 77.81 78.37 78.75 78.59 78.50 78.24 78.80 78.77 78.18 77.45 77.29 77.34 77.35 77.06 77.00 76.58 76.39 76.44 76.50 76.25 75.86 75.72 75.61
74.63 73.26 69.00 64.01 57.32 52.59 53.24 59.83 58.12 61.90 63.71 65.73 65.42 64.64 63.13 61.12 66.44 67.62 68.40 71.30 72.63 72.89 73.18 74.36 76.64 77.42 77.73 78.13 78.39 78.48 78.07 77.65 78.86 78.69 78.23 77.66 77.57 77.27 77.18 76.77 76.63 76.38 76.38 76.50 76.25 76.11 75.89 75.39 75.16
74.43 71.09 65.10 59.43 56.55 52.89 54.42 60.79 62.07 63.61 65.71 64.90 63.88 65.93 64.17 63.07 67.21 67.95 71.09 72.05 72.25 72.44 73.62 74.64 77.69 77.83 77.71 77.90 78.16 78.41 78.27 77.73 78.27 77.85 77.29 77.30 77.34 77.07 76.74 76.63 76.44 76.41 76.36 76.27 76.25 76.00 75.80 75.45 75.04
71.37 68.95 65.74 58.55 55.86 58.41 59.32 62.52 64.05 63.56 65.42 66.17 64.81 62.25 66.63 69.66 68.81 70.36 72.44 72.43 72.13 72.74 74.16 76.71 77.91 77.01 77.61 77.52 77.76 77.48 77.29 77.29 77.85 77.56 77.27 77.07 77.18 76.78 76.59 76.56 76.45 76.39 76.53 76.69 76.01 75.53 75.48 75.23 75.01
71.82 67.58 59.77 57.59 57.41 60.10 62.68 64.48 65.18 62.63 63.95 64.05 64.83 61.96 63.57 68.81 71.39 71.88 71.91 72.11 71.60 72.88 74.85 75.69 77.96 78.05 77.76 77.85 77.37 77.49 76.87 77.33 77.71 77.45 77.15 77.02 77.16 76.70 76.32 76.21 76.35 76.46 76.26 76.73 76.01 75.35 74.96 75.04 75.09
66.02 66.05 56.62 52.93 57.14 61.23 63.29 65.58 64.94 63.97 64.77 64.52 63.47 63.20 63.39 70.01 70.19 71.02 71.96 71.94 73.06 73.82 75.13 75.90 77.88 78.32 78.05 77.39 77.03 76.94 77.01 77.57 77.58 77.59 77.31 77.12 77.21 76.67 76.26 75.93 75.71 75.87 76.10 75.99 75.93 75.26 75.15 74.85 74.60
61.57 60.30 56.44 55.93 56.56 59.96 62.59 66.54 63.93 64.16 63.75 63.60 66.04 61.16 64.39 67.16 69.88 71.77 71.63 72.53 73.17 74.43 74.63 74.95 75.40 76.20 77.85 78.47 77.26 76.82 76.87 77.51 77.57 77.51 77.41 77.19 76.90 76.61 76.04 75.71 75.51 75.48 75.54 75.59 75.82 75.40 75.07 75.34 75.01
65.25 61.76 56.61 57.08 55.92 56.66 63.59 64.97 66.46 64.86 64.09 68.09 67.44 61.19 61.46 67.11 70.78 71.94 71.77 71.87 72.50 73.31 74.12 74.05 74.08 75.08 75.55 76.02 77.39 77.02 76.87 77.35 77.41 77.14 77.17 77.14 76.91 76.62 76.21 77.28 76.84 76.26 75.76 75.59 75.43 75.71 76.39 76.60 76.63
66.02 57.20 53.60 55.81 56.57 57.80 64.65 63.40 66.91 67.97 65.54 66.12 67.74 66.26 67.47 69.63 70.90 70.45 70.10 70.61 71.26 72.64 73.41 73.78 73.84 74.33 74.10 74.10 75.33 76.98 77.15 77.33 77.23 76.63 76.96 77.09 74.36 73.75 74.96 76.26 76.80 76.85 76.29 76.24 75.93 76.13 75.20 76.39 76.38
59.19 56.16 57.01 59.99 59.31 56.86 63.57 64.28 64.67 64.31 64.42 64.98 65.94 68.03 69.23 69.60 69.58 68.79 68.81 68.97 70.39 71.04 72.25 73.37 73.72 73.94 73.36 75.12 73.42 73.43 74.21 74.27 73.78 73.77 73.60 74.68 73.82 71.72 73.59 76.03 77.42 76.99 76.60 76.77 75.90 76.01 73.52 72.01 72.45
60.87 57.31 59.83 61.31 61.94 60.85 63.73 64.12 65.81 63.66 61.87 64.42 64.17 66.39 68.47 68.58 68.56 68.85 69.26 69.93 70.56 71.23 72.62 73.28 73.53 73.59 72.82 73.14 72.74 72.71 72.71 72.45 72.34 72.23 72.39 73.27 74.08 72.54 73.85 74.22 74.56 71.97 74.85 72.78 74.81 74.30 72.06 71.96 71.97
57.38 60.79 61.24 60.57 62.05 60.03 63.36 65.11 64.04 64.53 64.26 67.25 67.68 68.62 68.33 67.74 68.21 68.74 69.14 69.84 70.19 71.23 71.88 72.83 73.46 73.61 72.49 71.82 72.87 72.03 72.26 72.16 71.71 71.95 72.11 72.61 72.44 72.01 72.07 72.86 72.04 72.36 72.63 72.96 73.24 72.29 71.85 72.00 72.17
58.32 60.03 62.20 62.88 60.94 60.46 61.09 61.08 63.77 63.51 66.63 68.44 68.91 68.76 67.89 67.81 68.68 69.47 70.22 70.32 70.66 70.81 71.98 72.29 73.38 73.45 72.69 71.87 71.76 71.27 72.18 72.24 72.17 72.01 72.85 72.99 70.86 71.28 72.12 72.76 72.82 72.58 73.70 72.79 72.22 71.58 71.59 71.82 71.21
61.21 61.44 61.56 61.81 60.57 61.59 58.46 60.22 61.52 64.88 67.47 67.06 67.63 67.34 67.77 68.39 68.69 68.99 69.31 69.29 70.13 70.78 70.97 72.01 71.43 73.09 72.67 72.38 70.68 71.38 72.66 72.89 72.96 73.20 73.21 73.50 71.72 72.39 72.06 72.58 72.01 72.62 72.22 72.56 73.24 71.52 71.81 71.40 73.42
56.62 56.79 60.85 61.38 60.33 59.64 60.35 58.35 61.39 65.78 66.72 65.27 65.35 66.62 68.04 68.44 68.96 68.80 69.52 69.41 70.11 69.92 71.20 71.24 71.39 72.62 72.20 72.18 71.77 73.33 74.16 74.06 73.10 72.90 73.09 73.14 72.64 72.78 72.29 72.12 71.86 72.12 72.69 72.50 72.18 71.32 71.72 72.00 71.43
48.84 48.62 45.52 53.67 59.93 60.95 57.84 53.31 62.98 65.78 65.14 63.92 64.90 65.78 66.07 67.23 68.81 69.55 70.45 70.23 70.58 70.49 70.94 72.25 73.11 72.94 72.16 72.62 73.39 72.32 72.05 71.40 71.60 72.98 73.33 73.36 73.81 73.34 72.57 72.00 71.64 73.18 73.58 73.18 71.29 70.23 68.87 66.57 64.28
44.75 42.36 45.10 48.82 54.86 59.54 56.99 52.58 62.59 65.67 64.79 63.77 64.37 65.09 65.85 65.71 66.11 69.19 70.47 70.71 70.70 70.29 71.05 71.71 72.43 73.08 72.42 72.27 73.10 71.93 71.36 71.45 71.53 72.21 72.64 72.81 73.96 73.93 72.54 71.98 72.55 72.76 72.39 71.63 70.99 68.99 67.79 63.64 62.66
41.54 42.31 44.83 46.89 52.15 58.76 54.66 53.66 60.59 64.58 64.33 63.92 64.52 64.92 65.39 65.67 66.09 67.30 70.19 70.91 70.07 70.28 71.54 72.11 71.94 72.15 72.16 72.24 72.74 71.94 71.55 72.42 72.70 70.94 72.07 72.46 74.07 74.25 72.68 71.92 72.25 72.07 71.28 70.66 69.09 68.32 66.07 63.52 64.22
46.25 45.44 45.30 49.16 52.89 56.52 55.08 55.64 57.50 62.38 63.21 63.14 63.56 64.25 64.87 65.44 67.25 67.31 70.27 70.74 70.22 70.83 71.36 71.88 71.66 71.54 71.46 71.76 71.51 71.12 70.67 71.55 72.56 71.57 73.02 74.02 73.66 74.56 72.94 71.71 72.02 71.67 70.72 69.71 69.15 64.96 62.25 62.38 64.12
46.78 45.71 45.83 48.78 52.30 55.41 55.04 55.94 57.44 60.52 61.55 62.86 63.03 63.39 64.32 65.05 65.77 66.75 68.37 69.95 69.95 69.87 70.89 70.84 71.53 72.00 71.82 72.40 72.29 71.58 71.21 71.94 71.83 72.24 73.49 73.37 73.51 73.82 72.52 71.91 71.34 71.75 71.18 68.94 65.12 63.71 61.72 63.33 63.99
46.73 45.29 45.93 46.64 50.96 56.68 55.75 53.53 55.03 58.21 60.53 62.38 63.55 64.26 64.72 64.56 64.34 65.67 67.01 68.68 69.82 69.11 70.52 70.67 71.29 72.30 72.36 72.86 72.59 71.79 71.55 71.62 71.37 71.33 71.69 72.26 74.25 73.59 72.90 71.81 71.22 71.25 69.82 65.44 64.63 63.90 62.22 61.67 63.66
42.48 49.62 49.25 48.77 47.17 47.09 55.01 45.18 53.11 56.13 55.79 57.98 61.56 62.68 63.69 64.65 65.39 65.79 66.89 67.73 69.04 69.67 70.96 70.86 71.27 73.13 72.92 73.13 72.58 71.68 70.52 69.39 70.23 71.53 73.10 72.49 73.80 73.77 73.26 72.10 71.16 68.76 68.60 65.46 64.83 65.83 64.79 61.59 60.53
46.32 50.04 48.93 48.84 45.95 45.88 50.25 46.27 49.02 55.27 54.64 55.59 59.14 62.13 63.50 64.72 65.46 65.31 66.82 67.68 69.29 70.06 70.77 71.34 71.30 73.05 73.39 73.26 72.86 72.15 70.64 70.72 70.46 70.21 71.10 71.49 72.63 73.32 73.48 72.36 70.70 67.75 67.23 65.90 65.72 64.16 65.12 64.32 63.08
51.16 47.10 46.43 45.70 44.68 41.59 47.22 49.86 46.45 52.91 55.61 58.00 59.98 61.15 63.53 64.23 65.34 65.89 67.52 68.11 68.50 70.14 71.00 71.31 71.16 72.35 73.32 73.35 72.70 71.88 71.08 69.91 69.19 68.83 70.02 71.34 72.33 71.89 72.57 72.36 69.44 67.38 67.07 66.64 65.70 63.85 64.50 64.79 64.10
47.58 40.84 36.84 37.33 38.12 38.68 45.98 46.04 50.27 55.31 59.05 60.16 60.39 60.97 62.68 64.25 64.84 65.21 66.12 66.92 67.81 68.76 70.14 71.23 71.06 71.71 72.50 73.12 72.43 72.01 71.48 71.13 69.55 68.87 70.49 70.69 70.16 69.46 70.62 70.54 68.11 66.11 66.77 66.42 65.43 65.96 64.46 63.75 63.00
43.06 43.65 38.59 32.72 34.02 37.66 43.80 43.58 50.24 56.97 59.96 62.42 63.05 63.17 62.75 63.06 64.38 65.14 65.96 67.28 67.68 68.68 70.00 71.22 70.74 70.98 72.26 71.82 72.75 72.89 72.42 72.33 71.92 69.99 70.71 71.75 71.52 70.35 70.43 69.99 68.52 66.67 67.54 66.88 66.04 65.01 64.94 64.37 63.27
43.97 40.69 44.35 37.68 38.08 37.57 41.28 46.21 51.37 56.57 57.34 61.51 62.32 62.92 62.39 62.93 63.60 64.84 66.20 67.47 67.92 68.71 69.86 71.03 71.03 70.94 72.52 72.63 72.09 71.98 72.86 73.11 73.01 71.57 70.27 70.25 70.08 69.94 70.37 69.70 68.72 67.12 66.52 67.88 66.41 65.12 64.43 65.41 63.64
47.59 44.93 40.11 35.24 35.25 34.95 38.33 42.07 45.59 49.65 55.34 57.55 61.06 61.97 62.83 62.97 63.47 64.33 65.04 66.94 68.36 68.91 70.22 71.57 71.82 71.27 72.01 73.33 73.22 72.95 72.56 72.95 73.48 72.46 71.15 69.54 69.58 70.04 69.67 69.79 68.95 67.87 66.00 67.66 66.59 65.25 64.92 64.65 64.47
45.41 42.67 40.97 40.77 39.29 37.52 34.20 41.06 47.48 49.38 53.09 56.41 60.64 62.16 62.59 62.93 63.49 64.35 65.23 66.39 68.05 69.33 70.19 71.83 71.98 71.74 72.31 72.97 73.26 73.21 73.24 72.74 72.70 73.61 72.64 71.92 69.74 70.18 69.44 70.36 69.34 68.60 67.13 66.47 66.82 65.23 65.58 64.54 64.69
49.51 45.99 41.94 40.78 35.59 37.77 41.58 42.30 50.00 50.77 54.36 58.37 59.79 61.75 62.88 63.63 62.90 64.87 65.40 65.69 66.91 68.55 69.38 70.56 72.74 72.31 72.91 73.79 73.80 73.38 73.58 73.51 72.90 72.46 73.68 72.54 71.86 70.42 70.56 70.15 69.75 69.35 68.26 67.22 67.49 65.86 65.88 65.40 64.40

GFSSGP_sfc_wetblb_033.txt.gz
Wetbulb
74.57 74.22 72.91 67.03 59.91 58.26 53.26 56.03 58.50 58.95 59.83 63.96 65.49 63.33 61.18 62.64 59.12 54.34 68.20 70.93 71.89 72.26 73.73 74.51 76.51 77.00 77.24 77.38 78.05 77.89 77.80 77.23 77.44 77.25 77.06 76.99 76.85 77.01 76.72 76.67 76.51 76.21 76.22 76.16 76.18 75.80 75.82 75.55 75.53
73.79 73.01 68.52 62.45 54.87 50.30 52.41 58.81 56.92 60.92 62.91 65.04 65.09 64.28 62.33 60.84 65.94 66.50 67.68 71.24 72.25 72.62 72.79 73.82 76.65 77.15 77.28 77.58 77.82 77.98 77.61 77.55 77.28 77.18 77.21 77.25 76.99 76.92 76.71 76.49 76.16 76.02 76.19 75.81 75.89 75.82 75.52 75.35 75.34
73.96 71.85 62.63 59.19 55.62 51.19 52.99 59.75 61.00 62.84 65.07 64.69 62.83 65.31 63.64 62.13 66.56 67.05 69.82 71.56 72.44 72.10 73.01 74.01 76.77 77.63 77.24 77.32 77.77 78.13 78.01 77.39 77.32 77.35 77.23 77.05 76.84 76.60 76.19 76.02 76.07 75.91 75.94 76.32 75.83 75.68 75.46 75.47 75.00
70.03 67.59 65.03 58.38 55.16 58.28 58.74 61.49 62.99 62.66 64.68 65.06 64.47 61.52 66.20 68.60 67.65 69.61 71.03 71.92 71.54 72.42 73.86 75.69 76.94 77.09 76.96 77.01 77.25 77.44 77.42 77.23 77.11 76.93 76.91 76.92 76.66 76.33 76.14 76.14 76.19 75.86 76.16 76.22 75.42 75.28 75.35 75.33 75.14
71.85 67.16 59.32 56.42 55.88 59.71 61.60 63.95 63.80 62.00 63.05 63.45 64.31 61.37 63.33 68.45 70.48 70.57 70.59 71.48 71.01 71.96 73.45 74.56 77.45 77.59 77.28 77.01 76.97 76.86 77.16 77.25 77.19 77.01 76.86 76.93 76.61 76.12 76.17 75.95 76.09 75.76 76.04 76.14 75.56 75.26 75.01 75.30 75.09
62.44 65.34 56.14 53.30 56.28 60.16 62.92 64.99 64.06 62.77 63.33 63.33 62.70 62.40 63.09 69.44 69.47 70.32 71.10 70.79 72.25 72.92 73.82 74.53 76.54 76.96 77.00 76.81 76.86 76.70 76.84 77.17 77.16 76.99 76.81 77.03 76.68 76.20 75.96 75.74 75.63 75.66 75.85 75.60 75.60 75.07 75.06 74.65 74.60
60.57 58.64 55.62 55.70 56.21 59.11 61.75 65.58 62.71 62.52 62.51 62.47 65.08 60.53 64.19 67.49 70.12 70.99 70.92 71.35 72.37 74.33 74.29 74.24 74.19 75.10 76.82 77.00 76.68 76.57 76.94 77.17 77.19 77.17 77.02 76.85 76.68 76.22 76.01 75.52 75.24 75.35 75.35 75.38 75.27 75.04 74.96 74.90 74.85
64.02 60.88 56.06 57.11 55.92 57.42 64.01 64.34 65.54 63.37 62.88 67.10 66.29 60.20 61.35 67.23 70.41 70.84 71.29 71.26 72.72 73.75 73.96 73.75 73.43 73.88 74.39 74.70 76.71 76.55 76.94 77.32 77.20 77.29 77.18 77.00 76.60 76.26 75.93 77.00 75.96 75.93 75.79 75.35 75.24 75.49 74.56 75.54 75.86
66.63 54.92 52.32 55.41 57.51 58.61 64.66 63.19 66.49 67.39 64.27 65.05 66.21 64.85 66.71 69.00 70.41 69.49 69.70 70.20 71.78 72.93 73.08 73.07 73.36 73.76 74.33 74.13 74.76 76.60 76.82 77.09 77.24 76.75 76.97 76.86 73.87 73.72 74.55 75.64 76.21 75.46 76.41 76.07 75.77 75.49 74.65 75.60 76.31
58.38 52.67 55.16 59.04 59.73 61.10 64.01 63.94 64.25 63.58 62.77 64.13 64.43 66.65 68.21 69.24 69.16 67.98 67.98 68.33 69.41 71.01 72.50 73.24 73.05 73.64 73.58 74.93 73.32 73.31 73.50 74.34 74.18 73.88 73.45 74.00 73.41 72.72 72.68 75.02 76.51 76.23 76.12 75.66 76.01 76.10 73.44 73.05 72.53
59.97 56.17 59.31 60.31 60.59 64.28 63.58 63.47 65.10 62.75 60.18 63.40 62.62 64.44 66.84 67.78 68.44 67.92 68.31 68.82 68.89 70.86 72.30 73.05 73.43 73.58 73.23 73.31 72.28 72.41 72.74 72.60 72.56 72.32 72.30 72.41 73.43 71.96 72.87 73.43 73.48 72.05 73.95 72.96 73.98 73.76 71.71 71.22 71.27
57.10 60.76 61.23 60.60 63.02 63.33 62.75 64.66 63.01 63.54 62.88 66.13 66.07 66.39 66.76 66.64 67.41 67.84 68.19 68.96 69.46 70.33 71.41 72.69 73.47 73.19 72.15 71.69 72.46 72.20 71.85 71.43 71.25 71.28 71.48 71.08 71.63 71.70 71.67 72.13 71.92 71.89 72.02 72.02 72.30 72.19 71.34 71.43 71.89
58.40 59.65 60.31 62.20 61.12 63.90 65.06 63.12 63.08 63.57 66.16 67.15 67.33 66.77 66.16 66.57 67.62 68.79 69.40 70.03 70.47 69.81 71.04 72.10 73.02 72.68 72.10 70.62 71.27 70.30 70.89 71.24 71.27 70.87 71.13 71.63 71.46 71.06 71.20 71.97 72.35 71.86 73.39 72.27 72.07 70.84 70.91 71.25 71.24
58.80 59.63 58.83 60.27 60.18 64.53 62.90 63.03 63.41 64.33 66.67 66.58 66.40 66.05 66.52 66.74 67.68 68.40 69.19 69.25 69.93 70.37 70.89 71.99 72.30 72.44 71.94 70.66 70.07 70.39 70.59 71.38 71.33 71.12 71.45 72.72 71.52 70.71 71.54 71.29 71.53 71.40 72.03 72.41 71.84 71.44 71.00 70.94 72.64
55.30 54.54 56.87 59.45 59.00 59.99 62.34 58.89 60.86 64.71 65.80 65.38 65.75 66.12 66.77 67.12 68.22 68.31 69.40 69.30 70.09 70.58 71.29 71.33 71.97 72.59 72.10 71.24 70.61 70.31 70.84 72.29 72.66 72.31 71.99 72.58 71.65 71.90 71.88 71.57 71.04 71.32 71.86 71.76 72.10 70.58 70.99 69.19 68.67
47.71 47.30 44.03 50.76 56.91 59.49 58.81 52.75 61.14 64.89 64.66 64.14 65.49 65.92 66.37 66.88 68.11 69.03 69.73 69.80 70.37 70.89 70.63 71.41 72.64 71.86 71.84 71.55 71.06 70.86 71.65 73.03 73.08 71.82 71.99 72.39 72.16 72.41 71.52 70.92 70.88 71.83 72.18 72.42 71.15 69.56 67.14 64.76 63.59
42.96 41.26 44.13 47.31 54.73 56.95 56.05 51.71 61.93 64.80 64.22 63.82 64.80 65.44 65.99 66.45 68.00 68.83 69.77 69.83 70.38 70.48 70.04 70.21 71.13 70.87 71.48 71.53 71.72 71.12 71.55 70.45 70.58 71.24 71.84 72.13 72.76 73.19 72.18 70.98 71.08 71.67 71.78 72.01 70.54 68.51 66.59 62.67 61.80
40.80 40.98 43.00 45.12 50.09 55.04 53.32 53.21 61.62 63.50 63.40 62.91 64.10 65.28 65.75 66.15 66.98 68.66 69.48 70.04 70.27 70.09 70.22 70.51 70.90 71.15 71.29 71.88 72.00 70.80 70.06 70.33 71.15 71.11 71.70 71.97 72.70 73.38 72.50 71.47 71.74 71.75 70.76 70.04 68.44 67.16 64.80 62.57 62.96
45.16 43.55 43.72 46.79 52.74 53.89 52.41 53.60 60.38 62.54 62.50 61.90 62.36 63.54 64.58 65.67 67.89 68.96 69.67 70.29 70.03 69.90 69.62 70.66 70.37 71.28 71.31 70.82 70.96 69.78 69.14 69.91 71.14 70.94 71.40 71.56 73.43 73.41 72.59 70.95 71.19 70.57 70.04 69.48 68.00 64.65 62.00 60.93 63.31
44.95 43.93 44.22 46.44 50.08 49.49 51.28 53.37 60.44 61.83 62.01 62.56 62.51 62.94 63.71 64.34 64.96 66.44 68.16 69.67 69.45 68.62 69.16 70.14 70.69 71.04 71.39 71.40 71.79 70.83 70.18 70.53 70.77 71.71 71.27 72.79 73.44 73.77 72.47 70.96 70.87 70.85 69.93 68.47 67.23 63.20 61.04 61.97 62.88
43.54 43.01 44.80 44.53 48.40 51.72 52.52 50.29 55.70 61.39 62.71 63.41 64.05 64.42 64.64 64.42 64.42 64.07 67.10 68.53 69.27 68.24 69.13 70.06 70.68 70.69 71.25 71.40 70.79 70.56 70.33 70.65 70.18 70.31 70.97 72.32 72.72 73.73 72.48 71.57 70.90 70.40 70.37 67.34 63.93 63.11 61.59 61.03 62.69
40.67 47.21 47.55 46.44 44.20 40.45 52.55 43.38 50.03 57.18 59.20 61.11 62.33 63.37 64.16 64.66 65.51 65.62 66.38 67.87 68.62 68.53 70.00 70.49 70.80 70.88 70.96 71.02 70.83 70.46 69.14 68.54 69.30 70.35 70.87 70.92 72.46 73.22 72.53 71.67 70.80 70.58 69.33 66.02 63.95 64.04 61.94 61.05 61.15
45.47 48.92 46.87 46.45 42.99 40.40 45.03 44.44 47.56 54.42 55.03 57.45 60.27 62.40 63.76 64.89 65.39 65.39 65.69 67.58 69.05 69.61 69.80 70.49 70.54 71.06 71.33 71.36 71.37 70.68 69.61 70.21 69.23 69.73 70.34 70.61 71.72 72.55 73.04 71.69 70.45 68.57 68.06 65.74 64.68 64.04 64.25 61.07 60.91
49.58 46.48 43.83 42.87 40.56 36.74 43.74 44.73 45.52 51.39 54.30 56.51 58.58 61.80 63.24 64.20 65.07 65.75 66.43 67.41 68.29 69.73 69.46 70.33 69.58 70.77 71.35 71.41 71.60 71.09 70.28 69.58 68.84 68.02 69.23 69.58 70.82 71.83 72.30 72.04 70.20 67.46 67.28 65.41 64.87 64.17 64.19 64.51 63.31
45.55 39.95 34.93 33.21 34.04 36.14 41.80 41.89 46.04 51.63 57.56 58.44 58.21 59.26 62.77 64.17 64.65 64.97 65.08 65.94 67.11 68.28 68.97 69.75 69.36 70.05 71.46 71.43 71.47 71.44 70.93 70.20 69.66 68.77 69.03 69.15 69.60 69.20 70.88 71.08 69.26 66.38 66.40 66.04 64.88 63.05 63.33 63.60 62.63
42.30 42.57 33.44 29.53 31.03 35.89 40.46 39.22 45.29 54.40 56.55 60.04 61.27 61.13 61.63 63.45 64.34 64.92 65.32 65.65 66.66 67.89 68.60 69.23 69.11 69.71 71.47 71.78 71.53 71.64 71.46 70.99 70.63 69.30 69.04 70.08 70.63 71.05 71.40 71.55 70.03 66.35 66.21 65.93 64.72 64.47 63.39 63.17 62.62
42.03 40.67 43.97 34.91 34.90 34.16 38.34 43.13 49.05 53.09 54.37 56.14 58.87 60.31 60.91 62.16 64.02 64.43 65.56 65.82 66.61 67.24 68.25 69.07 69.39 69.66 71.16 71.76 71.88 71.50 71.54 71.09 70.67 69.39 69.72 70.29 70.92 71.48 70.44 71.14 69.75 66.91 66.07 65.84 64.75 64.00 63.73 63.76 62.16
46.10 43.43 37.83 32.21 32.59 32.22 34.99 39.37 42.53 48.79 52.20 54.17 57.28 59.00 60.99 62.20 63.10 64.53 65.29 65.84 66.84 67.51 68.44 69.39 69.89 69.86 70.72 71.63 72.04 71.81 71.70 71.75 71.40 70.88 69.74 69.74 69.95 70.24 70.11 70.15 69.19 66.89 65.61 66.29 65.36 63.71 63.56 64.21 63.17
41.90 40.99 38.31 39.08 35.48 34.26 31.19 38.34 45.62 49.05 52.57 53.80 57.06 60.11 61.60 62.33 62.51 63.77 64.99 65.91 66.79 67.65 68.02 69.02 69.88 69.78 70.30 71.11 71.35 71.69 71.83 72.07 72.15 71.66 70.98 70.11 69.41 69.00 69.07 69.74 68.82 67.30 65.16 66.63 65.99 64.67 64.02 63.20 63.36
47.23 43.54 38.95 36.05 35.15 35.61 39.99 39.21 46.88 50.87 51.09 53.32 55.88 59.46 62.19 63.45 63.54 63.61 64.36 65.54 66.23 66.86 67.59 68.80 69.88 69.89 70.27 71.52 71.43 71.28 71.41 71.17 71.50 72.35 72.04 71.06 69.35 69.27 68.77 69.36 68.65 68.02 66.86 65.12 66.66 65.39 65.51 63.98 62.77

GFSSGP_sfc_wetblb_036.txt.gz
Wetbulb
74.30 74.45 72.71 68.25 60.11 57.60 53.55 55.16 57.98 58.39 59.14 63.25 64.45 62.25 60.66 62.31 58.71 55.44 69.04 71.14 71.77 71.66 73.51 74.05 76.91 77.31 77.29 77.90 77.87 77.54 77.48 77.40 77.68 77.47 77.37 77.01 76.85 76.55 76.59 76.21 76.19 76.19 76.25 76.21 75.59 75.88 75.48 75.31 75.33
73.47 72.51 68.35 61.39 54.21 50.10 51.12 57.66 56.68 59.83 62.66 64.38 64.60 63.73 61.97 60.44 64.93 65.97 67.75 71.61 72.38 72.24 72.97 73.52 76.93 77.49 77.15 77.24 77.89 77.77 77.01 76.84 76.91 77.16 77.08 76.99 76.77 76.87 76.30 76.14 75.89 76.27 75.75 75.78 75.69 75.67 75.53 75.23 74.63
73.41 71.83 60.83 58.41 54.01 51.03 51.93 58.16 59.98 62.24 64.41 64.09 62.13 64.94 63.24 62.26 66.09 66.85 69.69 71.64 72.41 72.24 72.80 73.88 76.81 77.70 76.84 76.79 77.47 77.70 76.99 77.07 77.14 77.31 77.12 76.80 76.62 76.38 76.08 75.97 75.75 75.72 76.09 75.83 75.99 75.82 75.58 75.01 74.76
70.02 66.43 64.49 57.32 53.70 57.29 57.58 60.56 61.90 62.12 63.67 64.61 64.06 61.13 65.58 67.97 66.86 69.19 71.06 72.06 71.78 72.30 73.41 76.06 77.00 76.85 76.87 76.72 77.17 77.51 77.01 77.06 76.90 76.99 76.80 76.53 76.41 76.06 75.98 75.67 75.75 75.83 76.52 75.54 75.37 75.52 75.41 75.07 74.60
70.85 66.14 56.54 55.06 54.62 58.80 60.31 62.70 62.95 61.32 62.30 62.94 64.14 60.88 62.17 67.89 69.76 70.39 70.73 71.52 71.24 71.95 73.36 74.91 77.60 77.41 77.05 76.89 77.29 77.20 77.15 76.96 76.66 76.60 76.67 76.44 76.20 76.01 75.81 75.48 75.62 75.76 76.23 75.98 75.68 75.32 75.12 74.92 74.65
61.29 64.46 55.46 52.93 55.48 59.16 61.81 63.88 63.26 62.27 62.82 62.92 62.21 61.74 63.45 68.64 68.54 69.57 70.69 70.86 72.23 72.31 73.48 74.43 76.74 77.17 76.85 76.82 76.92 76.85 76.85 76.76 76.87 76.61 76.59 76.54 75.98 75.65 75.43 75.35 75.52 75.58 75.97 75.99 75.46 75.21 74.93 74.44 74.52
59.95 57.95 55.03 54.86 56.02 57.68 61.08 64.38 61.81 61.82 61.95 61.75 64.42 60.34 64.49 66.40 69.06 69.95 70.44 71.10 72.25 73.36 73.60 73.37 73.90 75.55 76.87 76.65 76.60 76.52 76.75 76.91 76.92 76.69 76.61 76.31 75.86 75.35 75.32 75.19 75.16 75.25 75.38 75.61 75.41 74.91 74.63 74.58 74.74
62.01 58.05 54.94 56.30 54.49 55.93 63.03 63.41 64.29 62.39 62.20 66.28 65.84 59.72 61.17 66.56 69.54 70.20 70.37 70.70 71.99 73.34 73.48 72.89 72.93 73.32 73.71 74.35 76.44 76.55 76.69 76.80 76.90 76.88 76.56 76.24 75.92 75.52 75.74 76.72 75.67 76.01 75.33 75.24 75.02 74.64 74.75 75.00 75.13
66.09 54.53 51.74 55.48 56.31 58.53 63.59 61.98 65.06 66.15 63.54 64.73 65.34 64.49 66.07 69.24 69.98 69.11 68.87 69.88 71.79 72.81 72.54 72.87 72.68 72.64 73.83 73.89 74.63 76.60 76.60 76.83 76.93 76.65 76.60 76.40 75.15 74.68 75.08 75.68 76.08 75.60 75.36 75.49 74.17 75.00 74.22 75.33 75.52
58.15 52.09 54.42 57.84 59.91 59.34 63.12 63.11 63.07 62.58 61.85 63.01 63.58 66.55 68.02 69.00 68.38 67.68 67.37 67.53 69.04 70.61 72.20 72.67 72.73 72.94 73.84 74.90 73.72 73.79 73.80 74.70 75.30 75.01 74.61 75.18 74.90 74.36 74.58 74.56 76.66 75.63 75.34 75.42 75.61 75.47 73.53 73.41 74.08
58.77 55.70 58.26 59.42 60.29 63.34 63.09 63.00 64.55 62.43 59.29 62.28 61.79 64.52 66.71 67.47 67.55 67.46 67.46 67.52 68.15 70.34 72.18 72.87 72.94 73.38 73.85 73.93 72.97 72.86 73.02 73.55 73.98 73.75 73.48 73.56 74.49 73.41 73.28 74.10 74.18 74.59 74.55 74.54 74.25 73.74 72.81 72.49 73.14
57.14 60.00 61.63 60.53 60.80 62.22 62.49 64.15 62.60 62.54 61.66 65.18 65.20 66.08 66.83 66.52 66.67 67.23 67.51 67.97 68.59 70.19 71.48 72.66 73.31 73.42 72.99 72.64 72.48 72.41 72.39 72.47 72.34 72.66 72.52 71.88 72.15 72.40 72.61 72.54 73.58 73.50 74.03 73.54 73.45 73.47 73.04 73.11 73.31
58.99 60.57 60.25 61.85 60.47 63.31 64.27 62.67 62.61 62.58 65.34 65.98 65.84 66.18 66.35 66.74 67.15 68.01 68.74 68.85 68.75 69.61 71.18 72.10 73.25 73.26 72.76 71.59 71.89 71.64 71.61 72.19 71.97 71.88 71.71 71.67 71.71 71.98 72.35 72.80 73.46 73.17 73.57 74.03 73.76 73.21 72.90 73.04 72.90
56.15 60.10 60.24 58.07 58.79 62.21 62.07 62.37 62.84 63.72 65.52 64.64 64.86 64.92 66.02 66.69 67.41 67.83 68.45 68.57 68.45 69.54 70.34 71.91 72.58 73.24 72.63 71.71 70.37 71.03 71.02 71.62 71.64 71.42 71.53 72.00 72.17 72.22 71.94 72.72 73.05 73.53 73.55 73.64 73.61 73.70 72.80 73.17 73.38
52.51 50.30 53.26 57.12 57.91 60.22 63.38 59.08 60.19 64.22 65.32 63.64 63.90 64.79 65.67 66.42 67.69 67.64 68.64 68.81 69.59 70.00 70.53 71.12 71.86 72.72 72.05 70.78 70.14 70.21 71.10 71.28 71.49 71.81 71.89 73.13 73.11 72.60 72.64 72.97 72.30 73.00 73.76 73.28 74.01 72.64 72.48 69.90 68.85
45.87 45.61 43.18 48.76 57.14 59.76 61.19 55.07 61.59 64.22 63.93 63.09 63.72 64.26 64.97 65.83 67.04 68.30 69.33 69.72 70.37 70.54 70.21 71.18 72.35 72.12 71.77 71.01 70.44 70.65 70.38 70.59 71.42 72.28 72.65 72.84 73.28 72.95 72.95 72.36 72.46 73.33 73.58 73.73 72.21 71.55 69.43 67.45 66.37
42.17 40.30 42.71 46.93 55.05 55.72 58.43 51.95 58.98 63.82 63.22 63.34 63.78 64.14 64.98 65.32 66.79 68.22 69.35 69.99 70.42 70.47 70.43 70.59 71.44 71.42 71.72 71.43 70.96 71.10 70.97 71.11 71.89 72.44 72.47 73.08 73.41 73.44 73.23 72.48 72.74 73.50 73.41 73.27 72.68 70.99 69.42 66.69 65.76
39.69 39.45 41.75 45.21 48.36 53.22 52.72 52.19 56.95 62.63 62.54 63.04 63.61 64.06 64.71 65.14 65.87 68.11 69.24 70.27 70.48 70.67 70.86 70.91 71.10 71.09 71.61 71.85 71.47 71.27 71.14 71.28 71.45 71.65 72.26 72.90 73.21 73.83 73.38 72.81 73.05 73.30 72.68 72.42 70.98 69.91 67.15 65.86 66.00
44.57 42.60 43.43 45.97 50.20 51.73 50.49 51.80 58.12 61.50 62.23 62.23 62.97 63.55 64.20 64.88 66.96 68.36 69.22 69.93 69.86 70.43 69.78 70.12 70.08 70.34 70.80 70.78 70.17 70.40 70.19 70.54 71.19 71.89 72.69 73.02 73.19 74.07 73.54 72.91 72.78 72.67 72.07 71.64 70.37 68.01 66.73 65.14 65.19
44.05 42.84 43.03 45.24 48.55 46.79 46.64 51.46 58.87 60.94 61.60 62.70 63.24 63.49 64.24 65.05 65.91 67.38 68.35 68.90 68.99 69.26 69.33 69.68 69.90 70.34 70.52 70.96 71.23 71.40 71.15 70.71 71.65 72.60 72.44 73.04 73.28 74.08 73.45 72.60 72.13 72.34 71.47 71.07 69.94 67.69 65.17 64.63 65.01
41.72 42.81 42.71 43.51 46.50 47.55 50.35 48.14 54.95 60.24 61.59 62.69 63.20 64.61 65.15 65.20 65.33 66.41 67.47 68.12 68.84 68.65 68.91 69.16 69.98 70.39 71.03 71.15 71.09 70.77 71.13 71.55 70.91 71.36 71.94 72.29 73.34 74.09 74.05 72.94 72.32 72.24 71.99 70.20 69.08 66.69 65.65 63.86 65.53
38.15 45.51 46.44 45.28 42.49 39.30 49.08 40.13 49.06 57.40 58.87 60.59 61.48 62.03 63.45 64.69 65.93 65.97 67.18 67.42 68.57 68.99 69.62 69.78 70.19 70.49 71.16 71.42 70.80 70.53 70.19 69.66 70.68 70.70 71.71 72.48 73.60 73.31 74.13 73.29 72.52 72.13 71.75 70.40 68.19 66.56 65.14 65.21 64.78
43.72 47.58 45.52 44.92 41.58 38.55 42.47 42.18 45.78 54.86 55.90 58.35 60.88 62.24 63.32 64.32 65.03 64.80 65.43 67.95 68.83 69.91 69.30 69.37 69.79 70.49 70.89 71.15 71.16 70.32 70.27 70.30 69.94 70.99 71.38 71.46 72.30 73.48 73.88 73.19 72.36 71.56 71.14 70.51 67.90 66.66 66.36 64.59 64.58
47.99 44.66 41.83 39.98 38.78 34.95 40.67 41.87 39.91 48.15 55.92 58.91 61.18 62.66 63.93 64.51 65.08 65.83 65.72 67.15 68.20 69.65 69.38 69.32 69.63 70.10 70.66 70.76 70.91 70.45 70.14 69.19 69.06 69.57 70.40 70.87 71.68 72.21 73.16 73.22 72.31 71.55 70.95 69.01 67.56 67.48 67.21 65.94 66.01
44.93 39.72 32.74 31.77 32.53 36.26 39.70 40.11 44.57 50.31 55.99 59.23 60.61 61.97 63.55 64.96 65.28 65.40 65.41 65.29 67.10 68.06 68.68 68.97 69.29 69.18 70.35 70.34 70.39 70.64 70.44 70.05 69.79 69.56 69.92 70.01 70.64 71.29 72.19 72.86 71.71 69.88 69.88 69.13 67.72 66.77 66.54 66.95 65.85
41.84 39.18 32.61 28.28 29.45 35.15 38.42 37.29 42.33 50.46 56.84 58.67 60.83 62.26 62.78 63.70 65.03 65.45 65.94 65.94 65.92 67.77 68.52 68.67 68.85 68.87 69.95 70.39 70.38 71.01 71.23 70.86 70.79 70.33 70.22 70.50 70.71 71.59 72.89 72.72 72.49 70.40 69.24 69.05 67.58 66.36 65.78 66.63 66.25
39.82 39.61 41.68 33.98 32.69 32.21 36.02 40.82 47.45 50.56 51.54 56.87 58.08 59.34 59.93 61.67 64.11 64.89 65.88 66.30 66.17 66.87 68.14 68.35 68.94 69.07 69.66 70.54 70.91 71.08 71.47 71.40 70.88 70.80 70.71 70.61 71.65 72.15 72.15 72.78 72.10 70.07 69.06 68.45 67.23 66.24 65.60 66.25 65.70
43.07 43.49 37.42 31.98 30.02 28.35 33.22 36.32 40.68 46.81 49.60 52.31 54.14 57.57 59.68 60.71 62.36 64.43 65.33 66.01 66.38 66.93 68.20 68.92 69.15 68.97 69.73 70.83 71.20 71.27 71.43 71.67 71.62 71.09 70.27 70.63 71.21 72.21 71.71 72.14 72.09 69.87 68.73 68.31 67.21 66.38 66.50 66.33 65.21
40.04 38.94 36.16 39.04 33.93 31.94 29.49 35.56 43.75 47.65 50.00 51.36 53.50 56.73 59.20 60.50 61.21 63.10 64.87 65.94 66.69 66.96 67.73 68.36 68.76 68.89 69.20 70.78 71.45 71.40 71.48 71.65 71.87 71.15 71.12 70.78 71.02 71.48 71.38 71.59 71.33 70.13 68.43 67.83 67.20 66.65 66.34 65.99 66.13
47.87 42.10 37.43 35.11 32.92 34.59 33.17 37.14 46.01 47.88 50.93 52.21 53.03 55.49 58.43 60.66 61.82 62.80 64.31 65.50 66.16 66.00 66.83 67.76 68.44 68.95 69.61 70.47 71.17 71.25 71.60 71.75 71.35 71.25 71.72 71.48 70.62 70.91 71.07 71.27 70.94 70.13 68.90 68.15 67.49 66.63 66.61 65.89 65.48

GFSSGP_sfc_wetblb_039.txt.gz
Wetbulb
74.28 74.73 73.03 70.74 61.98 60.82 56.80 57.75 61.86 60.44 60.88 64.90 65.62 63.42 62.55 63.50 60.44 57.58 69.97 71.91 72.43 73.15 74.52 74.53 76.56 76.87 77.23 77.93 78.32 78.19 77.70 77.78 77.91 77.33 77.03 77.08 76.73 76.71 76.39 76.23 76.37 76.25 76.06 76.05 75.65 75.64 75.47 75.31 75.06
74.37 73.30 71.08 65.44 58.95 55.97 56.88 60.47 59.80 62.18 64.37 66.37 65.90 64.92 63.16 61.41 65.53 67.16 68.80 72.00 73.12 73.79 74.80 75.08 76.43 77.37 77.62 77.98 78.26 78.17 77.18 77.54 77.39 77.12 76.92 76.74 76.88 76.53 76.37 76.21 76.64 76.07 76.07 76.08 75.71 75.83 75.53 75.06 74.43
74.21 72.57 64.83 62.20 59.72 56.05 57.05 60.74 62.43 64.16 65.93 64.95 64.00 66.44 64.66 63.22 67.25 68.08 71.34 72.53 72.74 73.73 74.87 76.04 77.11 77.95 77.58 77.56 77.74 77.88 77.25 77.25 77.19 77.23 76.82 76.86 76.62 76.35 76.10 76.15 76.04 76.32 76.04 75.96 76.20 75.82 75.41 75.14 74.90
72.30 68.52 66.44 60.60 56.70 59.81 60.14 63.09 64.35 64.07 65.43 65.95 65.53 62.67 66.21 69.38 68.34 70.92 72.65 72.94 72.72 73.37 74.61 76.79 77.68 77.17 77.32 77.41 77.38 77.06 77.09 77.21 77.33 76.98 76.74 76.56 76.32 76.08 76.15 76.21 76.09 76.89 76.13 75.42 75.55 75.52 75.22 75.00 74.73
71.95 68.61 60.60 58.54 57.39 60.91 63.36 64.92 65.26 63.37 63.92 64.56 65.03 61.65 63.42 68.79 71.65 72.11 72.55 72.79 72.61 73.47 75.09 76.28 77.89 77.62 77.15 77.41 77.56 77.21 77.12 77.03 76.97 76.98 76.53 76.24 76.14 76.19 76.19 76.19 76.43 76.70 76.64 75.84 75.04 75.01 75.17 74.86 74.39
65.42 66.42 58.81 57.13 57.43 60.86 64.18 65.68 65.38 64.06 64.53 64.44 63.44 63.52 64.70 70.58 70.59 71.70 72.68 73.00 73.72 73.75 74.85 75.66 77.16 77.46 77.38 77.30 77.45 77.12 76.93 76.65 76.76 76.71 76.56 76.27 76.02 75.94 75.83 75.84 76.09 76.42 76.40 75.81 74.96 74.92 74.84 74.65 74.96
62.69 62.10 58.14 57.45 57.45 59.61 63.08 66.69 64.53 64.24 63.84 63.23 66.00 61.93 65.40 68.01 70.78 72.03 72.68 73.50 73.66 74.45 75.05 75.54 75.74 76.76 76.79 77.02 76.96 76.82 76.88 76.81 76.63 76.39 76.47 76.42 76.10 75.47 75.61 75.53 75.73 75.57 75.54 75.51 74.93 74.60 74.87 74.82 75.45
64.84 62.87 57.99 59.03 57.54 58.98 65.01 65.68 66.59 64.88 63.21 67.71 67.29 61.79 61.93 67.96 70.98 71.62 72.33 72.81 73.48 74.25 75.10 75.48 75.88 76.16 76.50 76.59 76.48 76.40 76.77 76.60 76.73 76.25 76.01 75.96 75.72 75.45 75.67 76.04 75.34 75.95 75.29 75.14 75.03 74.47 74.68 74.90 75.72
67.00 60.36 58.24 57.75 58.25 60.92 66.08 64.08 66.44 67.92 65.19 65.62 66.88 66.47 67.98 70.21 71.02 70.58 70.70 71.48 72.56 73.40 74.07 75.01 75.13 76.10 76.62 76.45 76.22 76.45 76.53 76.41 76.57 76.64 75.98 76.48 78.09 77.43 76.58 75.58 76.15 75.38 75.20 75.16 74.74 75.01 74.40 75.39 75.86
64.55 60.57 59.11 62.26 62.10 62.41 65.54 65.56 65.14 64.60 63.86 63.90 65.48 67.84 69.19 69.62 69.67 68.66 68.82 69.30 70.54 71.68 72.95 74.08 74.33 74.75 75.69 75.12 76.45 76.69 76.20 76.09 76.80 77.07 77.32 77.62 77.53 77.45 76.38 75.97 76.24 75.55 75.15 75.57 75.14 74.84 73.93 74.69 77.19
64.02 60.71 62.47 62.45 63.15 65.19 65.56 65.35 66.81 64.33 62.03 64.68 64.68 66.21 67.87 68.41 68.87 68.64 69.07 69.64 69.94 71.55 72.22 73.19 74.28 75.12 75.10 75.05 75.52 75.89 75.40 75.98 76.59 77.49 77.09 76.69 76.88 77.34 77.40 77.43 77.54 78.10 75.91 76.99 76.91 77.30 76.78 75.48 77.09
60.77 63.66 64.17 64.07 63.96 64.10 64.89 66.88 64.80 65.04 64.08 67.00 67.81 67.82 67.80 67.87 68.16 68.42 68.66 69.42 70.05 71.44 72.17 73.39 74.43 75.19 75.41 75.26 74.98 75.20 74.73 75.11 75.18 75.72 76.65 75.87 75.04 76.42 76.84 76.87 77.45 77.56 77.73 77.47 77.60 77.21 77.09 77.00 76.93
62.51 62.67 62.99 64.57 63.75 63.49 66.48 65.48 65.52 65.13 66.64 68.18 68.54 67.69 67.49 67.99 68.30 69.06 69.52 70.05 70.63 70.86 72.14 73.74 74.59 75.00 75.48 75.75 75.36 75.06 75.12 74.47 74.66 75.43 75.47 74.85 74.56 76.01 76.71 76.12 76.54 77.29 77.02 78.04 77.68 77.45 76.94 76.87 76.82
61.41 61.78 60.87 62.18 61.25 64.46 64.10 64.68 65.77 66.54 67.60 67.09 67.31 66.83 67.56 67.69 68.29 69.06 69.70 69.61 70.35 71.52 72.17 73.62 74.34 75.11 75.67 75.86 76.30 75.46 75.17 74.98 75.03 74.64 74.59 75.23 74.60 76.04 76.54 76.83 76.61 77.14 77.59 77.45 78.02 77.23 76.43 77.15 75.59
56.85 53.47 55.17 57.28 59.38 60.47 65.21 61.86 62.90 66.72 67.33 66.04 66.15 66.79 67.31 68.05 69.02 69.17 70.38 70.67 71.22 71.74 72.95 73.33 74.21 75.15 75.62 75.80 75.70 75.27 74.57 74.47 73.96 74.12 75.45 75.23 75.29 76.29 76.90 76.63 76.66 77.25 77.41 77.76 78.38 77.29 77.16 74.88 74.06
51.87 52.47 50.62 54.71 58.92 61.06 63.55 56.48 64.18 67.20 66.13 64.99 65.54 66.33 67.03 68.16 69.15 70.19 70.95 71.55 72.26 71.92 72.20 73.44 73.82 74.34 75.10 75.24 75.18 74.62 74.21 74.07 73.84 73.97 74.35 75.27 76.23 77.40 77.21 76.50 76.69 77.66 77.82 78.64 75.97 75.87 74.92 73.00 69.09
50.05 48.97 49.55 52.32 58.71 61.08 61.97 57.22 62.65 67.11 66.20 65.01 65.12 65.80 66.41 67.57 69.13 70.44 71.28 72.11 72.71 72.87 72.72 72.80 73.79 73.59 74.27 75.25 75.16 74.86 74.50 73.76 73.61 73.88 73.78 75.55 76.54 77.09 76.90 76.40 76.83 77.44 77.53 77.88 76.78 76.26 75.07 72.98 71.33
46.71 47.49 49.94 50.85 55.28 58.54 60.04 59.13 60.61 65.89 66.02 65.35 65.30 65.68 66.16 66.74 67.86 70.08 71.25 72.16 73.08 73.55 73.74 73.56 73.60 74.34 74.80 74.46 74.79 74.10 73.27 73.13 73.77 74.22 74.91 76.34 77.09 77.29 77.35 75.95 76.42 76.76 76.12 76.80 76.28 75.68 72.45 71.60 71.66
49.16 49.07 49.94 52.87 54.15 54.54 55.78 58.01 59.60 63.50 65.57 65.56 65.68 65.27 65.89 66.62 69.01 70.49 71.29 72.10 72.65 73.40 73.68 73.64 73.76 75.21 74.27 73.35 72.46 72.34 71.40 72.94 74.21 75.67 76.62 76.97 77.34 77.62 77.61 76.72 75.48 76.65 76.23 76.73 76.29 74.64 72.33 70.71 71.46
48.16 47.87 49.19 51.84 52.35 51.91 53.28 54.06 57.49 62.30 63.96 65.54 65.95 65.79 66.16 67.04 68.27 69.52 70.60 71.63 72.13 72.76 73.38 73.97 74.47 75.27 74.40 74.04 74.41 73.77 73.95 73.96 75.21 76.31 76.87 77.26 77.23 77.79 77.51 77.37 76.61 76.87 75.79 75.93 75.38 73.67 71.91 71.07 71.52
47.67 46.88 48.98 49.47 50.52 51.86 52.64 52.02 56.36 62.24 64.24 65.67 66.80 67.36 67.52 67.39 67.65 68.94 69.88 70.89 72.06 72.36 73.35 74.24 75.13 75.55 75.11 75.50 74.50 74.44 74.93 74.93 74.37 74.73 75.67 76.47 77.06 77.56 77.56 76.25 75.67 76.94 76.31 74.79 75.55 74.16 72.44 70.53 70.95
45.79 49.55 49.17 48.85 48.66 46.90 53.67 47.41 54.09 59.24 61.72 63.68 65.21 66.44 67.27 67.94 68.74 69.40 69.87 70.67 71.44 72.76 73.55 74.43 74.86 75.72 75.20 75.99 74.59 74.75 72.39 72.09 73.45 74.47 75.76 76.07 77.25 77.22 77.45 77.53 76.92 77.29 76.15 76.16 75.34 73.85 72.61 70.64 68.40
47.65 50.51 49.56 49.73 48.87 48.85 49.23 47.62 52.40 58.15 59.29 61.79 64.16 65.73 67.13 68.43 68.86 69.09 69.91 71.23 72.10 72.87 72.93 73.71 74.79 75.40 75.76 75.80 75.72 74.20 73.89 73.79 74.63 74.80 76.50 77.36 77.82 77.26 77.10 77.54 77.35 76.90 76.26 76.52 75.91 73.37 71.66 70.39 69.40
52.19 50.25 49.49 48.77 48.53 43.04 48.17 47.55 49.63 53.72 58.64 62.00 64.46 65.85 66.53 68.10 69.02 69.96 70.82 71.74 71.85 72.60 72.87 73.05 74.12 74.74 75.74 75.74 75.58 75.62 75.24 75.17 73.97 74.29 74.15 74.60 75.18 75.66 77.16 77.54 77.53 77.35 76.64 76.15 75.48 74.80 73.05 71.15 70.86
50.40 47.73 42.25 40.72 40.96 40.96 49.73 46.83 49.59 55.02 59.64 60.78 63.81 65.35 66.79 67.54 68.30 69.06 69.88 69.93 71.85 72.25 72.99 73.37 73.99 73.88 75.23 75.21 75.29 75.51 75.53 76.02 75.67 75.47 74.01 74.94 73.91 74.61 76.18 77.36 77.04 76.55 76.71 76.47 75.87 74.29 72.90 72.34 70.75
48.34 47.64 42.67 37.95 39.60 42.10 47.98 44.61 49.52 55.37 57.41 61.24 63.60 65.67 67.19 67.62 68.35 68.51 70.14 70.24 70.37 72.32 73.01 73.49 73.35 73.49 74.40 74.77 75.16 75.76 76.22 75.03 75.14 75.51 74.51 74.15 74.26 74.94 77.40 77.19 77.25 77.05 76.66 76.16 75.28 73.51 72.53 72.72 71.87
47.72 45.69 49.40 44.20 43.16 42.45 45.55 48.95 52.48 55.13 55.69 59.58 61.59 63.95 65.58 67.04 68.06 68.57 69.48 70.62 70.65 71.30 72.59 73.55 73.36 73.67 74.35 74.49 74.92 75.30 75.76 75.53 75.23 76.33 76.61 74.99 76.62 75.58 76.41 76.96 77.04 76.99 76.55 75.79 75.10 73.49 72.39 71.93 72.08
48.92 50.57 43.44 45.29 38.93 38.02 43.08 45.16 47.67 53.14 54.62 56.98 59.82 61.54 63.81 66.55 67.61 68.70 69.81 70.94 71.43 71.42 72.60 73.51 73.79 73.59 74.12 74.59 74.82 74.88 75.22 75.74 75.98 76.43 76.01 76.30 76.90 76.32 76.21 76.34 76.83 76.69 76.25 75.86 74.75 73.82 73.10 71.66 70.92
46.23 46.76 47.42 47.20 45.03 40.69 39.74 43.86 52.92 55.11 57.76 57.00 58.02 60.70 62.69 64.15 65.90 67.34 69.60 71.19 71.79 72.00 71.63 72.50 73.12 73.49 73.92 74.34 74.71 74.96 75.07 75.50 76.01 75.87 76.10 76.54 76.91 77.19 76.71 76.32 76.51 76.24 75.62 75.59 74.59 74.03 72.82 71.39 71.52
49.72 48.29 47.92 43.66 42.68 44.26 44.42 44.42 52.76 55.43 57.56 58.48 59.21 60.85 62.39 64.55 65.58 66.76 67.84 69.72 70.09 71.41 71.64 71.76 72.75 72.81 73.62 74.20 74.63 74.70 75.31 75.42 75.55 75.65 76.11 76.69 76.41 77.23 77.24 76.78 76.33 76.03 75.65 75.46 74.45 73.41 72.55 71.61 71.06

GFSSGP_sfc_wetblb_042.txt.gz
Wetbulb
74.59 73.86 74.17 70.82 62.75 63.68 59.29 60.17 63.45 61.98 62.96 66.72 67.50 65.09 64.85 64.43 62.72 58.54 69.57 71.78 70.61 72.28 75.63 76.30 77.16 77.57 77.76 78.06 78.73 78.27 77.73 77.33 77.39 77.17 77.13 77.30 76.75 76.65 76.57 76.49 76.59 76.29 76.27 75.89 75.95 75.87 75.62 75.40 75.48
75.38 74.85 72.80 69.79 61.76 56.55 58.34 62.75 61.47 64.52 66.73 68.56 67.83 66.89 65.64 62.14 67.69 67.50 70.43 73.59 71.80 74.72 75.59 76.54 76.97 77.73 77.82 77.97 78.26 78.13 77.27 77.42 77.20 77.34 77.18 77.14 76.71 76.71 76.47 76.65 76.31 76.39 76.36 75.78 76.00 75.75 75.67 74.87 74.81
75.52 74.39 67.84 65.52 64.26 58.58 58.94 62.83 64.59 66.22 67.74 67.02 65.97 68.82 67.28 64.24 68.99 68.31 71.30 73.37 74.82 74.63 75.56 76.93 76.81 77.63 77.68 77.85 77.84 78.09 77.78 77.54 77.34 77.08 77.06 77.12 76.63 76.33 76.41 76.17 76.41 75.98 76.22 76.46 76.08 75.78 75.29 75.20 74.95
72.04 71.62 68.72 63.65 59.70 62.32 62.55 64.66 66.40 66.13 67.45 67.78 67.95 65.07 68.60 70.72 70.15 71.34 74.05 74.18 74.31 74.94 76.06 76.40 77.18 77.32 77.65 77.49 77.21 77.19 77.22 77.35 77.49 77.06 76.90 76.58 76.47 76.47 76.39 76.63 76.56 76.36 75.78 75.78 75.78 75.53 75.29 75.07 74.65
73.74 70.57 64.26 61.60 60.71 63.30 65.76 66.75 67.07 65.41 66.04 66.67 67.22 63.57 65.00 69.71 72.63 73.04 73.33 73.90 74.16 75.02 76.16 76.58 77.80 77.93 77.65 77.38 77.34 77.17 77.42 77.51 77.25 76.96 76.55 76.42 76.25 76.53 76.28 76.91 76.20 76.76 76.12 75.67 75.40 75.37 75.23 74.95 74.80
68.97 68.04 61.72 59.28 59.20 63.26 66.62 67.90 67.03 65.83 66.62 66.66 66.24 65.37 65.43 71.76 71.79 72.47 74.08 73.74 74.67 74.51 75.55 76.39 77.43 77.45 77.65 77.60 77.28 77.28 77.22 77.10 77.02 76.93 76.52 76.25 76.30 76.25 76.14 76.09 76.51 76.73 76.17 75.51 75.15 75.04 74.76 75.18 75.37
66.78 64.49 60.95 59.62 59.64 61.29 65.29 68.71 66.17 65.90 66.05 65.74 68.89 65.34 67.59 69.81 72.12 73.36 73.76 73.84 73.86 74.55 74.98 75.77 76.49 77.28 77.37 77.71 77.45 77.23 76.90 76.95 76.78 76.79 76.79 76.44 76.00 75.81 75.67 75.40 75.79 75.64 75.75 75.64 75.16 75.00 74.98 75.12 75.81
68.26 65.35 60.69 61.29 59.87 60.70 66.91 67.67 68.54 66.39 65.83 70.01 69.98 64.50 65.34 69.48 72.81 73.72 74.03 73.46 73.19 74.38 74.57 75.34 76.34 76.47 76.97 77.67 77.04 76.98 77.00 76.86 76.76 76.74 76.54 76.28 76.03 75.79 76.06 76.09 75.73 75.76 75.14 75.09 75.12 75.10 75.31 75.54 75.73
69.07 62.82 60.30 60.03 60.63 63.44 68.08 66.35 68.40 69.12 67.45 67.81 68.89 68.78 70.92 72.39 73.34 72.72 72.01 71.71 72.35 73.63 74.28 74.67 75.18 76.09 76.63 76.32 76.68 76.81 76.75 76.79 76.98 76.93 76.50 76.70 77.78 78.26 77.43 75.81 76.14 75.43 75.06 74.77 74.97 74.78 75.25 75.89 76.22
65.80 62.74 60.77 63.61 64.06 64.50 67.41 67.23 67.31 66.08 66.23 66.47 67.66 70.25 71.66 71.84 72.06 71.39 71.23 71.07 72.38 72.75 73.36 74.16 74.61 75.19 76.03 75.33 77.06 76.85 76.09 75.95 76.72 77.54 77.59 78.28 78.40 78.82 77.45 76.67 75.75 76.16 75.11 75.17 74.91 74.93 74.49 75.50 75.73
65.24 61.61 63.88 63.80 64.86 66.28 67.27 67.36 68.50 65.92 64.21 66.85 66.84 68.44 70.27 70.80 71.11 71.07 71.63 72.31 72.74 73.27 73.34 73.70 74.42 75.49 75.57 75.38 75.86 76.03 75.52 76.14 76.90 78.17 77.92 78.79 79.04 78.85 79.31 78.35 77.44 77.94 76.07 77.75 76.27 77.15 76.86 75.51 76.07
62.40 64.27 65.64 64.80 64.60 64.86 66.17 68.57 67.19 66.86 65.91 68.83 70.04 70.27 70.20 70.04 70.36 70.89 71.26 71.92 72.67 73.25 73.69 74.20 75.08 75.66 75.83 75.21 75.13 75.50 74.18 75.16 75.35 76.25 77.66 78.02 76.90 78.07 78.87 78.10 78.22 78.24 76.91 77.57 77.88 77.70 76.41 76.48 76.13
63.63 63.00 64.56 65.67 65.00 64.08 66.45 66.57 66.54 67.18 68.26 69.55 70.67 70.16 69.95 70.22 70.78 71.81 72.28 72.62 72.95 72.70 73.63 74.52 75.57 76.05 76.04 76.15 75.17 74.79 74.53 74.12 74.85 75.90 76.50 76.89 76.92 78.51 78.41 78.50 77.79 78.35 78.60 77.87 77.29 77.85 76.46 76.51 74.50
63.20 63.40 63.13 63.72 64.02 63.25 63.91 65.47 67.24 68.17 69.82 68.94 69.48 69.37 69.95 70.27 70.85 71.55 71.91 71.92 72.38 72.85 73.27 74.35 74.74 75.73 76.16 76.05 76.64 75.77 75.44 74.89 75.00 74.96 75.55 76.84 76.93 78.79 77.33 76.94 77.99 78.11 78.15 76.97 77.37 76.65 76.33 75.87 75.88
62.41 58.39 58.76 59.34 61.73 60.76 65.05 63.02 64.76 68.91 69.75 68.74 68.68 69.25 69.79 70.41 71.41 71.19 72.02 71.96 72.61 73.10 73.91 74.36 75.11 75.64 76.26 76.44 76.72 76.59 75.13 74.74 74.26 74.37 76.19 76.67 77.10 77.76 78.85 77.90 76.74 78.22 77.99 77.84 76.83 77.29 76.67 75.11 74.41
56.17 56.74 53.81 59.42 60.65 61.35 62.95 58.93 65.79 69.33 69.10 68.23 68.46 68.67 68.96 69.97 70.91 71.68 71.94 72.24 73.04 73.42 73.85 74.87 75.05 75.31 76.26 76.67 76.81 75.93 74.96 74.52 74.08 74.07 75.26 76.54 77.16 78.39 78.82 77.36 78.24 78.32 78.17 76.65 77.83 77.02 74.93 73.48 70.54
54.37 52.23 54.00 57.41 60.09 60.68 61.90 59.60 64.38 69.19 68.81 68.30 68.70 68.40 68.60 69.14 70.37 71.39 72.29 72.78 73.31 73.90 74.29 74.73 75.41 74.73 75.66 76.75 76.65 76.25 76.12 74.89 74.02 74.70 75.69 77.09 77.48 78.49 78.77 77.25 78.54 79.98 78.38 77.41 77.06 77.05 75.66 74.21 74.07
51.24 51.85 54.63 55.70 58.43 60.25 60.80 60.42 62.60 67.09 67.59 68.09 68.60 68.68 68.73 68.67 69.45 71.27 72.27 73.04 73.81 74.20 74.51 75.13 75.23 75.89 76.34 76.02 76.42 75.50 74.69 74.32 74.05 74.60 75.48 76.92 77.70 78.85 78.99 77.89 78.63 78.88 78.05 77.40 77.34 76.86 75.63 74.57 72.94
54.13 53.53 53.40 57.01 58.94 58.31 58.97 59.97 61.96 64.18 66.56 66.65 68.26 68.55 68.92 69.16 70.63 71.54 72.31 72.76 73.12 74.16 74.40 74.91 75.05 76.96 75.64 74.75 74.06 73.44 72.42 73.38 73.46 74.78 76.94 78.47 79.22 79.34 79.35 78.79 78.50 78.08 77.51 77.22 76.66 75.92 74.79 73.16 73.86
52.63 51.77 52.96 56.66 57.26 56.80 57.52 57.64 60.63 62.13 64.67 66.51 67.74 68.36 69.02 69.63 69.99 70.77 71.76 72.23 72.73 73.60 74.61 75.29 75.40 76.50 76.63 75.60 75.51 74.44 73.74 73.48 74.12 75.80 78.05 79.30 79.11 79.65 79.05 79.15 77.83 78.56 77.38 78.04 77.88 76.75 74.18 74.17 73.95
51.43 51.48 52.52 53.40 56.14 56.49 56.09 55.41 57.58 60.17 62.89 65.39 67.35 69.24 69.70 69.74 69.46 70.20 70.93 71.81 72.41 73.13 74.35 75.46 76.69 76.75 77.09 77.83 75.92 75.35 74.75 74.60 74.02 75.66 77.04 78.40 78.88 79.20 79.51 79.29 78.76 78.33 77.81 76.20 77.26 76.48 74.93 71.95 71.41
49.15 52.63 52.44 52.49 52.50 50.85 56.35 50.48 57.39 59.58 61.09 64.01 65.71 68.03 69.10 69.96 70.65 70.67 70.84 71.20 72.10 73.23 75.04 76.11 76.85 77.37 77.41 77.79 76.68 77.26 73.33 72.13 73.91 75.88 76.36 77.45 78.84 78.67 78.81 79.46 78.87 79.11 77.45 77.99 77.22 76.65 75.86 74.73 69.04
49.90 52.99 51.89 51.53 51.18 51.79 52.83 51.28 55.04 59.53 58.53 62.29 65.15 66.83 69.14 70.15 70.81 70.63 70.94 71.51 72.33 73.52 74.43 75.62 76.85 77.96 78.29 77.79 78.18 75.83 75.69 73.43 75.19 75.46 78.79 79.40 79.80 78.94 78.33 79.01 79.12 78.89 78.18 78.35 78.16 76.91 76.29 74.51 70.75
53.05 51.56 51.63 51.59 50.56 46.40 51.61 51.73 52.68 55.76 58.97 61.02 64.74 66.59 68.59 69.82 70.79 71.69 72.46 72.09 72.52 73.67 74.51 75.47 76.96 78.68 78.60 77.85 77.12 78.82 77.62 75.99 75.07 76.66 75.70 75.99 76.49 77.10 78.67 78.55 78.59 79.12 78.84 78.59 78.28 77.92 76.93 75.81 73.59
51.74 49.69 44.86 43.85 44.34 44.52 52.36 50.81 53.41 57.18 59.37 61.43 62.96 65.79 68.22 70.15 70.59 71.27 71.92 72.13 72.16 72.91 74.05 75.13 77.75 78.21 78.38 77.31 77.73 77.57 78.38 78.10 78.40 77.98 76.17 77.71 75.31 75.71 78.28 78.65 78.34 78.40 79.46 78.99 78.98 78.24 76.96 76.17 74.21
50.21 49.94 45.76 41.55 42.85 45.34 51.33 47.98 52.09 58.21 59.95 60.98 63.02 64.40 68.09 69.35 70.68 71.08 72.09 72.84 73.06 73.02 75.07 75.77 77.56 77.62 77.29 77.29 78.82 79.35 79.74 76.46 76.55 78.26 76.78 76.14 75.60 75.80 77.97 77.86 78.51 78.94 79.06 79.03 79.14 77.48 76.47 76.42 75.30
50.53 48.60 51.62 47.38 48.56 46.07 48.71 51.27 54.92 57.17 58.42 59.58 60.34 62.47 64.22 68.13 69.94 70.84 71.98 72.70 73.62 74.10 75.73 76.60 77.62 78.27 78.38 77.59 79.22 79.24 79.16 78.75 77.13 79.20 79.67 77.36 79.12 76.62 77.49 77.84 78.49 78.67 78.80 79.14 78.93 77.16 76.34 75.94 75.89
52.79 53.25 46.97 48.08 42.96 42.23 46.22 48.42 49.83 54.30 55.92 58.63 59.40 61.40 63.64 66.70 69.35 70.59 71.35 72.34 73.43 74.39 75.35 76.65 77.95 78.07 78.29 77.29 78.31 78.10 78.78 79.36 79.39 79.73 79.59 79.52 79.59 78.95 77.73 77.99 77.82 78.39 78.65 79.16 78.77 77.52 76.91 76.06 75.02
50.26 49.79 50.56 50.08 48.35 44.92 44.03 47.51 55.23 55.46 57.78 57.83 59.52 62.05 64.25 66.32 68.54 70.41 71.52 72.35 73.39 74.20 74.39 75.52 76.56 77.35 77.30 77.93 78.50 78.68 78.74 78.43 79.06 78.33 79.49 79.89 79.92 80.46 78.95 79.14 77.88 77.71 78.49 78.88 78.30 77.95 76.86 75.76 75.39
52.82 51.01 51.06 46.65 46.79 48.12 48.01 48.98 54.54 56.00 57.19 59.44 60.27 62.06 64.22 65.75 67.46 69.29 70.08 71.62 72.55 73.23 73.91 74.26 75.11 75.62 76.20 77.72 78.65 78.52 79.19 78.90 78.38 78.81 79.30 79.91 79.98 80.23 80.19 79.86 78.59 77.70 77.87 78.50 78.07 77.20 76.38 75.61 74.67

GFSSGP_sfc_wetblb_045.txt.gz
Wetbulb
74.26 75.03 74.89 70.67 62.32 64.05 58.04 60.56 65.25 63.64 63.28 67.01 66.73 66.71 64.09 65.32 63.40 59.11 69.22 70.73 70.68 73.31 75.54 75.86 77.01 77.67 78.54 78.90 78.67 78.39 77.69 77.32 77.21 77.05 77.43 76.96 76.85 76.90 76.79 76.71 76.50 76.50 76.22 76.39 76.23 75.90 75.70 75.43 75.40
75.68 74.53 73.62 69.03 59.32 55.73 57.25 63.07 61.37 63.58 66.91 67.92 68.55 67.96 66.19 64.17 67.46 66.80 69.12 70.59 71.59 74.24 75.23 76.20 76.98 77.63 78.22 78.47 78.34 78.06 77.39 77.22 77.25 77.54 77.09 76.99 76.91 76.86 76.42 76.40 76.39 76.48 75.98 76.28 76.01 75.84 75.37 74.83 75.01
74.92 74.69 67.70 64.71 60.94 55.09 56.99 62.31 64.24 66.53 68.50 66.90 67.16 67.82 67.81 66.17 67.77 68.50 72.64 70.49 72.74 74.45 75.19 77.16 77.37 77.90 78.17 77.80 77.97 77.90 77.34 77.25 77.42 77.23 77.51 76.94 76.61 76.53 76.53 76.39 75.98 76.28 76.72 76.34 76.22 75.92 75.45 75.11 74.78
72.45 71.44 69.80 60.58 56.52 62.28 61.82 64.27 66.54 65.78 67.33 68.74 67.97 65.34 69.99 71.98 69.96 72.35 72.13 73.01 73.50 73.82 76.47 76.95 77.47 77.92 77.58 77.47 77.66 77.53 77.45 77.31 77.23 77.26 76.86 76.81 76.84 76.70 76.50 76.79 76.56 75.92 75.87 75.95 75.98 75.81 75.34 74.97 74.51
73.57 71.14 64.94 62.53 60.85 62.54 64.84 66.56 67.06 65.13 66.57 67.37 67.80 65.80 66.92 70.41 73.50 73.69 72.76 74.84 73.65 74.24 76.30 77.44 77.74 78.21 77.66 77.31 77.34 77.46 77.57 77.59 77.10 76.83 76.75 76.51 76.53 76.37 76.86 76.45 77.01 76.48 76.04 75.76 75.73 75.59 75.31 74.90 74.66
68.71 69.87 59.43 55.63 59.43 62.94 65.86 67.13 67.11 66.91 67.87 67.75 67.21 66.40 67.29 71.77 71.87 72.58 73.87 73.91 74.58 74.38 75.97 77.02 77.57 78.17 77.94 77.32 77.27 77.54 77.73 77.26 76.96 76.75 76.56 76.42 76.42 76.17 76.45 76.73 77.12 76.64 76.02 75.58 75.47 75.33 75.53 75.59 75.56
68.54 66.16 60.41 59.26 59.07 61.20 64.36 67.79 66.17 66.38 67.12 67.25 69.47 65.19 69.00 70.17 71.90 73.53 73.68 74.39 74.43 74.46 75.79 76.49 76.67 77.69 77.55 77.41 77.47 77.30 77.02 77.18 77.08 76.78 76.64 76.39 76.29 76.18 75.87 75.84 76.17 76.10 75.89 75.56 75.26 75.10 75.14 75.67 75.48
69.86 66.89 61.23 61.10 57.54 60.08 65.39 66.76 67.12 67.30 66.96 71.13 71.95 66.16 65.97 70.36 72.60 73.06 73.68 73.02 73.20 74.47 75.42 74.95 75.94 76.52 77.22 77.24 77.33 77.03 76.97 76.88 76.86 76.67 76.34 76.51 76.51 76.79 76.73 76.33 76.23 75.59 75.58 75.51 75.30 75.12 75.33 75.81 75.87
70.69 62.68 58.04 59.46 59.87 62.50 65.98 63.89 67.37 69.74 68.41 69.12 69.61 70.71 71.95 72.75 72.88 71.85 71.73 71.56 72.22 73.40 74.71 74.37 74.93 75.86 76.50 76.63 77.02 77.09 76.91 76.92 76.75 76.70 76.67 76.73 77.73 77.56 77.48 77.36 76.37 75.61 75.52 75.39 75.59 75.25 76.17 76.36 76.09
66.54 61.07 58.44 64.67 65.08 63.24 66.15 65.51 64.96 66.23 66.93 67.23 69.03 72.14 72.45 72.64 71.41 69.89 69.76 70.35 71.22 72.31 73.47 73.75 74.21 74.92 75.73 74.86 76.48 76.43 75.88 75.77 76.90 77.18 77.41 75.54 77.73 78.15 77.45 77.83 76.80 76.29 76.28 76.23 76.10 75.97 76.08 76.81 75.34
66.07 61.67 61.50 63.87 65.46 66.11 65.87 66.76 67.25 64.37 64.85 67.06 67.78 70.06 71.10 71.92 71.21 70.01 71.07 71.35 72.25 73.16 72.87 73.14 74.27 75.27 75.13 76.36 75.39 75.44 74.88 75.47 76.61 78.07 78.12 76.54 77.89 77.64 76.05 77.25 76.54 76.91 77.34 75.73 75.93 76.13 74.85 75.61 73.74
63.02 64.74 64.76 64.20 65.34 65.15 64.41 67.48 66.45 65.94 65.21 69.26 70.27 71.58 71.23 71.08 71.46 71.49 70.52 72.13 73.04 72.66 72.79 73.47 74.70 76.67 76.06 75.52 74.94 74.90 74.17 75.35 75.47 76.82 78.25 78.39 76.55 77.18 77.22 75.23 77.07 78.48 78.63 77.31 77.24 76.48 76.43 73.14 75.65
63.34 63.46 64.84 66.87 65.78 64.99 66.30 65.53 66.36 66.32 67.39 69.55 70.83 71.12 70.85 71.25 71.75 72.34 72.97 73.38 73.21 72.53 72.88 73.65 74.69 76.40 76.26 76.55 75.23 74.81 74.17 74.26 74.76 76.28 77.73 77.29 76.91 77.23 75.81 77.16 75.95 77.52 77.60 77.07 75.84 75.73 76.28 75.77 74.86
64.00 64.24 64.20 65.77 65.11 64.69 64.22 65.57 66.53 67.89 69.07 68.84 69.73 70.21 70.86 71.13 71.78 72.51 72.61 72.46 72.91 73.07 73.11 74.03 74.64 76.02 76.38 76.86 77.69 75.51 74.94 74.76 74.81 75.09 76.28 77.61 77.07 77.11 76.76 77.72 75.82 76.35 76.53 77.86 77.43 76.76 75.92 75.92 75.26
63.80 61.08 62.88 64.28 64.61 63.43 64.40 62.32 64.03 68.58 69.76 68.76 69.21 69.66 70.38 71.19 72.16 71.95 72.71 72.59 73.12 73.36 74.08 74.16 75.07 75.95 76.49 76.52 76.77 76.29 75.27 74.77 74.39 74.67 76.62 77.23 77.60 78.22 78.38 75.33 76.69 76.31 77.84 77.96 77.29 76.79 76.29 73.48 74.89
60.67 61.26 57.91 61.95 62.14 63.34 63.20 58.42 64.54 69.12 69.21 68.45 69.07 69.12 69.44 70.70 71.51 72.52 73.02 73.12 73.73 73.63 73.82 74.66 74.50 75.18 76.06 77.09 76.80 76.13 75.16 74.40 74.30 74.21 75.73 77.09 77.77 78.40 79.20 77.14 75.04 79.35 77.75 77.17 77.04 76.31 74.72 71.88 73.02
57.15 54.10 56.72 58.65 62.16 62.10 61.24 59.37 59.71 68.86 68.95 68.34 69.16 69.39 68.89 69.84 71.20 72.42 73.18 73.44 73.67 74.03 74.09 74.32 74.97 74.53 75.83 77.69 77.18 76.99 78.71 75.03 74.26 74.12 75.09 78.29 77.89 78.36 78.69 78.16 76.09 78.64 78.06 76.55 76.65 74.57 75.89 73.89 72.51
52.90 53.24 55.84 56.34 60.38 61.09 59.95 60.26 63.80 67.73 67.79 68.12 69.15 69.57 69.26 68.88 70.11 71.86 72.76 73.32 73.51 73.98 74.60 75.58 75.13 77.82 78.94 77.06 78.01 75.98 74.82 74.73 74.44 74.07 75.14 78.19 77.83 78.57 79.11 77.95 77.96 78.42 74.63 75.98 76.59 76.17 75.35 72.98 71.11
56.29 55.01 54.65 57.75 61.02 59.65 60.02 59.75 62.23 65.67 66.82 66.23 68.34 69.27 69.37 69.15 70.67 71.63 72.17 72.54 72.91 73.72 74.24 75.88 76.55 78.70 76.98 75.15 74.30 74.02 72.69 73.91 73.51 74.11 76.89 77.56 78.03 78.96 79.73 77.85 77.43 77.70 77.47 76.84 76.71 76.03 74.43 72.51 71.58
56.15 54.65 54.73 57.05 60.02 59.90 59.47 60.10 62.74 63.76 65.67 66.83 67.31 68.84 69.33 69.94 70.06 70.56 71.60 72.08 72.38 73.24 75.27 76.74 77.52 79.38 78.22 76.17 76.56 74.98 75.24 73.41 73.48 74.02 78.09 77.95 78.57 79.71 78.62 79.05 75.98 78.63 76.31 77.69 76.94 76.06 73.42 72.02 71.86
55.22 54.21 54.53 54.56 57.70 60.30 58.65 58.07 59.35 62.68 64.17 66.71 66.94 69.73 69.91 70.24 70.14 70.08 70.66 71.43 72.10 72.71 75.24 76.42 78.03 78.87 78.59 78.36 77.17 77.07 76.22 75.50 73.12 73.83 74.91 77.61 78.85 79.30 79.41 79.29 78.69 76.38 78.05 77.13 77.52 76.42 74.88 72.02 70.18
50.11 54.94 55.22 54.68 54.89 53.15 58.06 51.80 57.99 60.33 61.37 63.25 65.08 67.66 69.30 70.18 71.37 71.01 70.58 71.14 71.60 72.69 74.43 77.18 78.65 79.04 79.00 79.64 76.97 76.88 73.14 71.64 72.21 74.12 74.82 77.21 79.24 79.05 78.95 79.42 78.14 78.26 77.31 80.49 77.76 76.34 76.17 75.09 70.36
51.97 54.74 54.30 54.81 53.93 54.66 55.17 53.54 56.67 60.02 59.04 61.03 63.70 65.32 68.46 70.11 71.10 71.06 71.01 71.11 72.06 72.47 73.16 75.61 78.84 79.30 79.20 79.22 78.63 76.24 75.70 73.46 73.66 73.96 78.29 78.80 80.74 80.04 78.41 80.02 79.46 77.82 77.23 80.00 78.02 77.78 77.11 75.31 72.64
55.12 53.27 53.32 53.42 52.71 48.49 53.31 54.10 54.77 56.99 59.77 61.35 64.07 65.35 66.81 69.57 70.78 71.57 72.36 71.83 71.50 72.15 72.86 74.57 78.60 79.56 80.01 79.95 79.16 79.42 77.39 76.22 73.23 75.26 74.98 75.40 75.90 77.83 80.19 78.94 80.44 80.29 79.62 79.22 78.38 78.90 77.90 77.05 75.03
53.13 50.73 45.88 45.21 46.01 46.06 53.15 52.36 55.09 58.95 60.54 62.18 62.81 65.13 66.74 69.34 70.56 71.27 71.60 71.30 71.89 72.27 73.71 74.92 78.25 79.24 80.12 79.81 79.22 78.57 79.42 78.80 78.34 78.81 75.65 77.23 74.82 75.06 78.61 80.36 80.76 78.65 80.54 80.00 80.70 80.07 78.82 77.11 75.83
51.66 50.67 46.46 42.62 43.88 46.52 52.61 49.81 53.81 59.69 61.17 62.46 64.10 65.08 66.78 68.31 70.37 71.22 71.93 72.32 72.29 73.36 74.81 75.98 77.89 78.83 79.90 79.76 79.70 79.94 80.21 77.10 76.38 77.69 76.49 75.75 75.52 75.81 81.03 80.82 80.08 79.79 79.61 79.83 81.05 78.24 77.37 78.62 76.29
52.07 49.47 52.69 49.28 50.42 47.90 49.60 52.92 56.31 59.14 59.56 60.90 61.72 63.58 65.58 67.28 69.51 70.97 72.21 72.57 72.69 73.75 75.41 76.32 77.79 79.10 79.81 79.64 80.09 80.34 80.12 79.39 77.54 78.16 79.48 77.33 79.35 76.47 79.14 79.28 79.50 80.12 80.20 80.60 81.06 77.26 78.65 78.68 77.42
54.08 54.50 47.99 49.43 45.58 45.04 48.65 50.63 51.19 55.53 57.20 59.35 60.45 62.31 64.07 67.10 69.21 70.75 71.76 72.87 73.83 73.91 75.58 77.03 77.78 79.12 79.52 79.82 80.13 80.23 80.48 80.55 79.83 79.87 79.85 79.13 79.52 80.95 79.94 79.70 78.98 79.44 80.24 80.55 80.91 78.65 79.46 78.72 76.76
51.38 51.54 51.64 51.22 49.92 46.68 46.33 49.34 56.47 57.30 58.34 58.25 60.33 61.86 63.10 65.06 68.03 69.90 71.39 72.77 74.15 74.50 74.62 76.15 77.57 78.19 79.63 79.82 80.00 80.24 80.32 80.51 80.97 79.80 80.12 80.15 81.27 81.99 80.27 81.09 79.78 79.78 79.71 80.31 80.35 79.87 79.44 78.18 77.87
54.16 52.56 52.79 49.34 49.14 49.88 50.37 50.99 57.36 58.10 58.19 59.74 60.03 62.28 63.24 65.38 67.11 69.27 70.81 72.29 72.99 74.48 74.45 75.20 76.48 76.98 79.18 79.55 79.75 79.97 80.52 80.60 80.30 80.25 80.32 81.14 80.71 81.48 81.79 80.52 80.48 79.88 79.71 80.16 80.12 78.99 77.32 78.22 76.98

GFSSGP_sfc_wetblb_048.txt.gz
Wetbulb
74.00 73.38 74.00 69.86 62.35 61.49 57.02 59.28 63.71 62.40 62.91 66.55 67.30 65.76 64.78 65.50 62.41 57.93 68.65 71.22 71.24 73.34 74.51 76.13 77.67 78.22 78.45 78.43 78.30 78.53 78.00 78.12 77.72 77.76 77.90 77.53 77.43 77.48 77.32 77.00 76.72 76.68 76.65 76.66 76.33 75.96 75.63 75.55 75.24
74.36 73.54 71.99 67.62 61.08 56.03 56.77 63.18 61.84 63.69 66.26 68.25 67.73 67.35 66.47 63.40 66.87 66.09 67.69 70.72 72.92 73.41 74.69 75.75 77.60 78.39 78.48 78.64 78.66 78.25 77.56 77.07 77.46 78.11 77.60 77.41 77.21 77.23 76.96 77.01 76.51 76.51 76.71 76.49 76.21 76.02 75.49 75.33 75.22
74.27 73.81 67.84 63.69 59.48 54.74 56.60 63.32 63.84 66.12 67.74 67.11 66.63 68.92 68.14 65.08 67.04 66.61 70.21 71.05 73.36 73.73 75.35 76.42 77.56 78.24 78.52 78.42 78.41 78.21 78.01 77.53 77.70 77.37 77.46 76.84 76.63 77.07 76.93 76.16 76.70 77.04 76.74 76.43 76.13 75.94 75.58 75.33 75.30
72.80 70.65 68.62 60.65 57.08 60.39 62.11 63.00 66.25 65.76 67.12 68.37 67.65 65.37 68.68 70.30 67.82 70.15 70.37 71.85 73.56 74.34 75.58 76.99 77.44 77.71 78.40 78.37 78.27 78.20 78.13 77.38 77.78 77.82 77.07 77.10 76.99 77.10 77.24 76.88 76.24 76.38 76.38 76.27 75.94 75.74 75.41 75.09 74.73
72.25 69.65 61.47 58.78 58.78 62.72 64.99 66.50 66.89 65.55 66.01 66.94 67.93 64.49 65.41 70.35 72.61 70.96 70.25 72.81 72.99 74.51 75.36 76.18 77.82 78.36 78.35 78.36 78.45 78.13 77.73 77.41 77.25 77.12 76.82 76.88 77.13 77.32 77.02 77.13 76.75 76.38 76.33 76.02 75.88 75.66 75.52 75.11 74.96
67.02 67.55 56.27 55.09 58.39 62.99 64.85 67.24 67.12 65.85 67.32 67.59 66.76 65.87 66.21 71.36 69.56 70.03 72.36 72.74 73.44 73.75 74.53 75.64 77.40 78.24 78.11 77.79 77.90 77.85 77.46 77.01 76.95 76.87 76.90 76.88 76.71 76.91 77.10 77.33 76.94 76.60 76.07 75.85 75.74 75.60 75.74 75.71 75.58
66.58 63.31 59.28 59.56 59.92 60.38 63.74 67.24 64.97 66.56 66.43 66.86 69.07 63.87 66.93 69.00 70.07 70.77 72.91 73.28 73.31 74.04 75.60 76.25 76.25 76.94 77.86 78.12 77.85 77.87 77.09 76.93 77.01 76.96 76.82 76.55 76.38 76.69 76.69 76.91 76.94 76.71 76.25 75.78 75.65 75.54 75.40 75.52 75.41
68.69 64.79 58.98 60.22 57.86 59.54 64.84 65.12 66.04 67.04 66.14 70.89 70.70 64.29 64.05 68.86 71.16 72.18 72.56 73.19 73.60 73.72 75.32 76.14 76.10 75.91 76.41 76.30 77.37 77.10 76.93 77.01 77.01 76.99 76.66 76.38 76.41 76.55 76.77 77.50 77.36 76.51 76.30 75.93 75.55 75.53 75.62 75.29 74.94
69.45 61.16 56.61 58.14 58.77 60.56 64.99 64.24 67.55 69.34 68.46 69.74 70.48 68.86 70.08 71.54 72.10 71.43 71.30 71.76 73.29 73.00 74.19 73.86 74.50 76.17 76.26 76.31 76.08 76.90 76.79 76.74 76.80 76.36 75.57 75.17 75.27 77.27 76.94 77.89 77.89 76.83 76.69 76.26 76.02 76.03 75.13 75.82 76.08
65.39 59.08 58.08 61.99 62.22 62.08 63.89 63.48 65.40 65.61 65.97 67.64 68.85 70.51 70.73 71.07 70.59 69.98 70.00 70.13 69.59 72.50 72.42 73.12 73.66 74.21 75.64 74.33 76.47 76.72 75.84 75.55 76.32 76.38 73.00 72.80 75.33 75.65 76.34 77.33 78.40 78.03 77.64 77.01 77.22 76.08 75.81 76.49 76.09
64.48 60.33 60.78 63.11 63.63 65.37 63.11 62.33 66.57 64.74 63.28 68.19 67.21 68.43 69.73 69.85 69.75 69.39 70.07 70.78 70.09 72.69 72.46 72.49 73.85 75.06 74.75 74.69 75.04 75.46 75.29 75.45 76.94 77.18 74.98 74.25 76.44 77.71 74.87 75.77 76.57 76.27 77.44 75.91 75.95 75.66 75.61 74.91 75.63
61.42 64.58 64.17 62.94 65.53 64.65 63.73 64.80 63.54 65.10 64.95 69.78 70.39 70.45 70.04 69.52 69.15 69.77 69.49 70.64 71.20 72.71 72.46 72.67 74.99 75.32 76.12 75.75 74.23 75.45 74.43 75.41 75.98 76.88 78.39 77.68 73.37 76.49 72.46 73.97 74.08 75.84 75.07 76.08 75.49 75.84 76.35 72.74 74.96
61.98 63.80 64.95 65.19 65.38 65.65 64.65 61.49 63.72 64.00 67.60 70.28 70.94 70.59 69.77 69.88 69.59 70.65 71.04 71.65 72.97 72.60 72.47 73.34 75.35 76.16 79.03 77.08 75.61 74.82 76.22 75.98 74.71 77.61 78.02 78.91 73.84 76.70 73.73 73.89 73.93 76.68 77.78 75.50 76.53 75.32 75.96 73.45 74.37
63.54 63.87 64.17 65.40 64.74 65.18 64.63 64.48 64.46 64.46 67.54 68.72 69.56 69.34 70.22 70.01 70.58 71.29 71.42 71.46 72.46 72.19 72.53 74.19 75.11 76.65 78.24 79.13 80.71 77.38 78.82 76.41 77.94 77.41 77.66 79.82 78.84 76.11 75.83 75.81 73.41 76.36 76.99 78.10 76.68 77.60 76.66 73.80 73.04
62.61 60.07 62.54 63.51 63.88 63.66 63.75 61.94 63.35 65.70 67.42 66.83 68.28 69.08 69.49 70.92 71.67 71.18 71.39 72.40 73.45 72.82 72.94 73.61 74.46 75.61 77.33 78.32 78.86 79.08 78.82 75.71 76.47 77.60 78.44 79.42 80.33 80.09 78.71 74.31 77.30 74.69 75.95 79.29 76.29 76.57 76.17 73.40 74.64
60.04 60.12 56.91 62.18 63.36 64.02 63.03 57.46 64.18 65.65 64.57 66.32 67.30 68.36 69.09 69.62 70.58 72.75 73.06 73.28 73.39 72.20 72.91 74.52 73.43 75.07 76.11 77.00 77.63 77.78 76.59 76.42 77.58 76.48 77.02 78.32 79.90 80.50 80.89 76.69 73.70 77.19 79.21 76.41 76.22 77.14 75.62 74.09 74.39
58.19 54.12 56.32 58.48 63.25 62.15 61.60 58.19 63.28 65.93 63.70 66.81 67.08 67.30 68.53 69.52 70.40 71.76 72.43 73.13 73.24 73.46 74.34 74.10 74.98 74.85 75.59 77.42 77.34 76.86 77.69 78.54 77.29 77.28 77.80 78.22 78.90 79.56 79.20 76.67 76.31 77.37 77.21 75.24 75.43 73.83 76.39 73.11 73.77
53.29 54.22 55.98 56.35 60.70 60.64 59.23 58.70 63.03 63.94 63.76 66.32 67.48 67.61 68.05 68.39 69.49 71.58 72.04 72.79 73.30 74.26 75.07 74.53 75.06 76.73 76.24 76.40 77.15 76.40 76.37 76.88 76.86 77.53 77.20 78.59 79.28 79.60 80.47 76.52 75.64 77.12 73.59 77.02 76.16 77.16 75.94 74.24 71.86
56.99 55.99 54.09 56.85 60.53 58.95 58.23 59.80 61.39 62.40 62.70 63.32 66.66 68.10 67.30 68.29 70.29 71.83 72.14 72.75 73.43 73.75 74.43 74.33 75.60 77.03 75.85 75.35 74.72 74.77 73.51 75.51 76.25 77.13 78.11 79.18 79.31 79.40 80.78 77.98 75.26 78.88 77.33 77.40 77.57 77.34 75.70 73.88 71.56
56.17 54.56 53.87 55.92 58.90 59.08 58.75 58.77 62.68 61.73 60.91 63.50 66.29 64.72 68.51 68.27 69.35 70.97 71.63 72.34 72.61 73.14 74.12 75.12 75.53 76.77 76.55 75.77 75.41 75.25 75.88 74.88 74.86 76.14 78.04 79.06 78.54 79.88 78.93 77.89 78.71 77.70 73.71 77.42 76.85 77.17 73.44 73.83 72.60
55.15 54.44 54.16 53.92 56.51 59.76 58.43 56.33 60.09 63.86 65.27 61.92 62.36 68.92 69.24 69.17 68.67 70.03 70.94 71.50 72.06 72.87 73.91 74.84 75.55 77.30 76.77 76.52 76.60 77.27 76.73 77.13 74.37 74.22 75.31 77.08 78.56 79.62 78.91 79.25 79.08 78.51 76.16 76.57 76.70 76.99 75.96 70.33 71.18
51.01 57.06 56.41 55.12 54.00 50.84 58.80 50.98 58.66 60.61 62.05 63.17 65.97 67.78 68.10 69.42 70.13 69.78 70.26 70.91 71.51 72.68 74.32 75.28 75.96 76.57 77.11 77.43 75.58 75.60 72.57 71.75 72.70 74.11 74.85 76.15 77.70 78.70 79.23 79.37 78.37 78.80 78.47 77.11 77.43 77.43 77.13 75.13 70.61
52.18 55.59 55.24 55.30 53.56 53.07 53.24 53.29 56.05 60.90 59.49 60.81 64.60 65.66 68.35 69.13 70.23 69.71 70.23 70.83 71.94 73.01 74.23 75.17 76.22 76.26 77.31 76.24 76.99 74.66 74.07 73.11 74.19 73.85 76.02 76.26 78.32 79.15 79.48 79.46 79.53 78.74 78.31 78.04 77.16 77.61 76.49 77.41 74.32
54.63 52.91 53.19 53.88 52.89 48.68 52.13 53.46 53.86 57.01 59.98 60.69 63.26 64.30 68.33 69.06 70.50 71.19 71.34 71.65 71.62 72.99 73.77 74.65 75.88 76.03 77.04 77.27 75.95 77.42 74.33 74.93 72.56 73.65 74.21 76.06 77.44 78.04 79.24 79.67 79.32 78.83 78.27 78.20 78.41 79.54 78.18 77.46 77.04
52.93 50.30 45.52 44.57 45.77 45.98 52.72 51.75 55.38 59.61 61.48 61.79 62.73 63.75 65.96 69.61 70.32 71.04 70.97 70.88 71.28 71.88 72.53 73.83 75.86 76.01 76.94 77.40 76.81 75.82 77.91 75.26 75.68 77.70 73.46 75.34 75.06 76.19 77.02 78.40 79.29 78.08 78.70 79.45 78.40 79.66 78.46 77.53 76.83
51.12 50.36 46.43 41.60 43.19 45.32 51.92 49.25 53.57 60.20 61.90 63.50 64.02 64.62 65.88 67.38 70.45 71.17 71.79 71.53 71.19 71.75 72.31 73.27 75.15 75.77 77.16 76.56 77.14 76.91 76.88 77.72 74.89 75.80 76.13 74.88 75.57 75.95 78.03 77.47 77.97 78.42 78.05 78.07 79.64 78.95 77.83 77.74 76.85
51.03 48.47 52.26 48.09 49.06 46.30 48.76 52.07 55.62 59.08 59.59 61.30 61.38 64.17 65.41 66.35 69.95 71.02 72.13 72.21 71.49 71.71 72.20 72.67 74.67 76.23 77.18 77.17 77.55 77.81 76.64 76.92 76.94 75.43 77.07 78.05 76.64 77.13 80.25 77.89 77.80 78.46 79.01 78.68 78.52 77.26 77.86 78.02 76.93
52.97 53.92 47.44 48.64 43.58 43.91 47.28 50.69 51.01 55.77 58.25 60.03 60.24 61.59 64.36 67.06 68.64 70.70 71.91 72.46 72.33 72.08 72.65 73.53 75.23 76.27 77.48 77.91 77.89 78.01 77.97 76.73 76.65 77.68 75.64 76.30 78.25 78.97 80.42 78.38 78.50 78.37 78.14 78.90 78.29 77.94 78.07 77.05 77.02
51.21 50.89 50.53 50.09 48.76 45.24 45.13 48.57 57.10 57.88 58.66 59.88 60.87 62.35 63.04 66.09 67.94 69.96 71.45 72.87 73.07 72.60 72.67 73.46 74.34 76.54 77.39 77.95 78.26 78.02 78.14 78.02 77.59 76.27 77.27 76.83 77.66 78.25 80.19 79.48 78.13 77.72 77.94 78.09 78.43 77.44 77.16 77.13 76.18
53.22 51.54 52.38 48.51 47.92 49.52 49.67 49.64 57.98 58.73 60.09 60.06 60.75 62.48 63.48 65.77 68.43 69.91 71.42 72.77 73.25 73.16 72.93 73.18 74.15 75.22 77.28 78.34 78.22 78.10 78.63 78.93 78.37 77.28 77.08 77.84 78.28 78.86 78.73 79.45 78.46 78.03 77.50 78.05 77.90 77.38 76.24 76.80 75.74

GFSSGP_sfc_wetblb_051.txt.gz
Wetbulb
73.88 73.31 72.59 69.75 61.44 60.46 56.63 57.81 63.27 61.39 61.29 65.05 66.01 64.30 63.86 64.63 60.81 54.96 67.56 69.70 71.60 72.40 74.91 76.49 77.89 78.15 77.37 77.84 78.09 77.71 77.49 77.19 78.07 78.20 77.86 77.29 77.14 77.11 77.16 76.82 76.90 76.79 76.83 76.54 75.85 75.73 75.90 75.65 75.29
72.13 71.53 71.66 67.42 58.93 53.85 55.51 61.26 60.27 62.39 65.35 66.68 67.33 66.09 64.93 61.81 65.48 64.77 66.69 69.92 72.33 73.04 74.56 75.91 77.97 78.14 77.66 77.88 78.05 78.07 76.95 77.35 78.21 78.20 78.05 77.51 77.33 77.23 77.23 76.77 76.66 77.03 76.53 76.48 76.21 75.85 75.73 75.37 75.21
71.83 72.39 67.12 62.98 58.87 54.56 55.28 61.85 62.38 64.96 67.44 66.87 65.93 67.79 66.56 62.74 65.02 65.84 68.93 70.08 72.55 72.96 74.83 76.00 78.53 78.43 78.01 77.93 77.96 77.92 77.38 77.28 77.37 77.35 76.98 76.96 77.02 76.92 76.40 76.99 76.99 76.80 76.72 76.34 76.23 76.01 75.93 75.60 75.24
70.98 69.43 66.97 59.28 56.52 59.62 59.93 63.22 64.83 64.88 67.15 67.99 67.03 63.38 65.97 67.45 66.00 67.76 69.76 71.37 72.14 74.21 75.29 77.50 78.71 78.13 78.12 77.95 77.74 77.22 77.47 77.48 78.04 77.48 77.15 76.99 77.16 77.34 76.57 76.29 76.40 76.51 76.42 76.28 76.18 75.99 75.85 75.79 75.35
72.18 68.10 60.31 57.90 57.47 60.76 63.79 65.08 65.45 64.21 65.71 65.95 66.57 62.10 62.09 66.14 69.30 68.90 69.64 72.17 72.88 73.65 75.51 76.44 78.48 78.74 78.45 78.12 77.80 77.60 77.55 77.20 77.51 77.41 77.03 77.32 77.36 76.95 77.15 76.62 76.40 76.32 76.29 76.26 76.13 75.82 75.71 76.43 76.21
65.61 65.18 56.21 54.43 57.20 61.23 63.68 66.14 66.00 65.73 66.30 65.39 64.29 63.48 64.75 68.57 67.05 68.48 70.57 71.48 73.38 73.29 74.97 75.80 77.79 78.40 78.35 77.91 77.34 77.95 77.10 76.79 77.16 77.39 76.94 76.91 77.08 77.36 78.02 76.85 76.63 76.40 76.35 76.15 75.99 76.04 76.70 76.80 75.81
64.07 59.02 54.09 57.04 57.85 60.05 62.39 66.99 65.29 65.78 65.62 64.76 67.41 62.87 64.84 65.89 67.47 68.53 70.80 72.24 73.09 73.42 74.19 74.66 75.08 75.84 77.40 78.29 77.66 77.47 76.88 76.79 76.93 76.82 76.77 76.71 76.45 76.37 76.90 77.24 77.21 76.57 76.23 76.01 75.79 75.74 77.13 76.73 76.03
67.00 63.86 57.51 57.56 56.95 58.36 63.97 65.11 67.50 67.14 65.52 69.54 68.63 62.29 60.78 65.36 67.90 70.82 71.39 71.69 71.69 73.05 73.83 74.02 73.95 74.09 74.61 75.27 78.01 77.24 77.07 77.15 77.05 76.94 76.67 76.39 76.10 76.15 76.10 77.63 77.91 76.59 76.45 76.17 75.98 76.07 76.67 76.88 75.89
70.00 58.57 55.44 57.04 57.96 59.66 64.25 64.30 68.27 69.71 66.93 68.03 67.92 66.98 66.20 67.44 69.81 70.12 69.80 70.34 71.26 72.78 73.27 73.65 73.25 73.31 73.30 73.97 75.45 76.98 77.02 77.21 77.15 76.89 76.92 74.82 72.82 73.30 75.62 76.16 77.64 76.65 76.53 76.37 76.12 76.79 76.95 77.06 75.54
64.40 57.64 58.75 62.20 61.86 60.97 63.44 63.40 64.19 66.46 66.14 65.15 66.12 68.22 67.75 67.51 68.74 68.69 67.98 68.73 69.86 71.18 72.50 72.55 72.66 72.76 73.13 74.53 73.67 73.66 74.58 74.32 74.14 72.97 69.43 70.60 71.91 73.14 74.77 75.97 77.18 77.10 77.74 77.41 77.40 76.96 77.32 76.54 73.67
63.00 58.32 63.00 62.29 63.81 64.28 62.36 61.83 65.64 65.12 63.09 65.36 64.24 66.16 67.70 67.57 68.93 68.19 69.05 69.28 69.69 70.83 71.19 71.38 72.51 72.75 72.47 72.97 73.30 73.71 73.12 72.97 73.51 68.00 69.54 69.89 72.72 73.31 68.97 72.90 73.70 73.62 75.87 73.41 75.58 75.01 73.77 73.07 73.22
59.47 62.77 63.10 63.24 63.77 61.41 60.11 63.74 63.08 64.18 66.32 68.32 67.91 68.08 68.16 68.36 68.41 68.64 69.04 69.13 69.57 69.70 69.80 70.80 71.19 72.17 71.95 72.46 72.46 73.09 72.48 72.52 73.67 68.80 68.34 69.45 72.52 72.19 71.34 72.22 70.35 72.88 74.13 73.94 73.05 72.52 73.54 72.53 72.58
60.16 61.67 64.32 64.13 64.05 61.67 63.09 62.31 63.35 66.20 68.82 69.19 68.77 68.55 68.10 68.33 68.90 69.10 69.52 70.02 69.77 69.89 69.23 70.15 71.40 71.67 72.00 71.60 71.29 71.57 71.72 72.32 74.03 72.36 70.44 72.36 72.50 71.09 71.50 70.43 69.85 71.88 74.86 74.42 72.34 72.96 73.69 70.78 71.65
61.75 61.62 62.92 63.28 64.01 63.89 61.35 62.05 62.76 67.07 69.23 67.85 67.74 67.16 67.88 68.29 68.67 68.81 68.67 68.97 69.36 70.86 69.75 71.20 71.01 72.21 73.47 73.08 72.36 72.67 72.02 71.85 74.87 74.71 74.03 74.54 73.15 73.23 72.84 72.14 72.66 73.20 72.14 74.07 73.00 72.36 71.50 70.58 71.65
61.00 57.95 60.24 62.86 63.48 62.10 63.52 59.75 61.36 64.89 68.47 66.95 67.09 67.50 67.79 68.35 68.67 68.45 69.10 68.86 69.49 70.21 70.26 70.95 71.20 73.18 72.39 72.62 72.19 73.10 72.76 70.60 70.51 74.61 73.99 73.26 73.54 73.64 72.96 73.18 73.41 73.75 74.44 73.91 73.32 71.80 71.74 70.14 70.95
56.28 56.68 53.52 58.63 61.77 63.73 62.16 55.58 61.17 65.29 66.63 65.81 67.11 67.49 68.05 67.85 68.35 69.10 69.93 70.02 70.23 70.21 71.18 71.73 72.73 72.73 72.55 72.43 72.33 73.48 71.91 70.79 70.22 73.63 73.60 73.00 73.94 74.66 72.90 71.78 71.73 72.21 74.62 73.14 73.34 71.91 70.46 69.41 70.01
52.38 50.02 52.13 55.53 60.98 60.89 60.07 57.45 61.72 64.95 64.88 64.16 65.54 67.14 67.54 67.80 68.23 69.41 70.46 70.58 70.50 70.00 70.61 71.35 71.89 71.87 72.60 72.60 73.07 72.53 72.70 72.78 71.07 71.27 72.72 73.18 73.93 74.85 74.20 71.99 73.36 72.90 73.07 73.28 72.32 70.34 70.15 68.67 69.30
47.61 49.49 51.97 52.70 58.14 60.06 57.68 58.79 61.43 63.18 63.52 63.69 64.77 65.72 66.20 67.17 68.08 69.93 70.90 71.29 71.21 70.02 70.80 70.29 71.46 71.72 72.50 72.86 73.32 72.06 71.81 73.05 71.18 71.32 72.80 74.21 74.35 74.84 74.29 74.30 72.00 71.90 72.13 71.91 71.63 71.56 71.50 70.79 69.60
53.21 52.83 52.08 55.11 57.93 57.80 56.94 58.23 59.88 61.61 60.79 61.36 63.36 62.65 65.47 66.32 69.22 70.33 70.73 71.64 70.07 71.02 70.54 70.74 71.37 72.20 72.20 72.76 71.60 71.57 70.30 71.34 69.72 70.69 73.93 74.82 75.38 75.35 74.50 73.47 72.97 74.00 72.22 72.30 72.50 71.70 69.90 69.00 64.47
52.54 51.67 51.90 54.96 57.29 56.42 56.82 57.29 60.12 61.39 61.49 62.41 63.30 62.42 62.70 66.39 66.86 68.66 69.57 69.99 70.07 70.53 70.08 70.74 70.94 72.44 72.09 72.81 71.77 71.41 71.36 71.15 70.60 70.81 71.11 75.53 75.03 75.23 74.85 74.10 73.60 73.50 73.03 72.44 71.76 69.99 69.51 69.21 65.25
51.27 50.25 51.09 51.65 54.50 54.75 54.48 55.70 56.94 59.97 61.65 61.28 63.21 62.63 62.75 64.98 66.25 67.33 67.93 68.94 69.67 69.82 70.32 70.27 71.37 73.05 72.50 73.09 72.81 71.81 71.61 70.63 69.65 69.82 69.37 73.76 74.18 74.47 74.85 74.62 74.01 73.48 72.07 72.37 72.19 72.32 70.17 66.72 65.25
47.82 53.99 54.15 53.70 51.65 46.52 54.35 45.85 54.67 57.36 58.89 59.58 61.24 62.16 63.98 64.35 66.89 67.75 67.88 68.29 69.40 70.11 71.77 70.68 72.55 73.73 72.94 73.02 72.58 71.46 70.16 68.30 69.41 68.96 69.98 72.45 73.78 74.81 75.69 75.39 74.43 73.44 73.21 72.28 72.31 73.00 69.61 68.46 65.57
50.81 54.31 53.16 53.37 51.15 47.90 50.26 48.86 52.87 58.81 56.74 57.85 59.82 62.01 63.10 65.41 67.00 67.43 67.99 68.80 69.74 70.87 71.37 71.67 72.04 73.56 73.63 72.90 72.20 71.76 69.80 69.11 68.48 69.60 69.01 70.88 72.40 73.69 76.58 75.49 74.34 73.40 73.66 72.75 73.23 72.88 70.70 71.60 67.72
55.36 52.25 50.56 51.16 49.82 43.64 47.84 47.20 49.37 54.52 57.84 58.65 60.29 61.44 63.21 65.35 67.35 67.83 68.92 69.30 69.17 71.04 71.63 72.37 71.74 72.73 73.42 72.98 72.68 71.12 70.01 68.48 68.36 67.41 68.69 70.71 73.75 74.52 75.82 75.88 75.46 74.11 73.37 73.00 73.42 72.81 71.44 70.37 72.37
52.27 47.68 40.87 39.99 41.48 41.14 45.90 44.68 46.70 55.37 59.26 60.41 60.99 62.32 64.86 67.11 67.21 67.25 67.67 67.88 68.55 69.44 70.77 72.18 72.03 71.69 73.71 72.79 72.01 72.65 70.85 70.47 68.77 68.65 68.30 70.58 73.01 74.12 74.57 75.22 75.09 74.29 73.60 74.47 74.18 74.39 72.99 71.92 71.55
49.95 47.22 39.02 33.09 36.63 39.88 45.13 42.84 47.56 55.32 58.14 61.73 63.48 65.62 66.96 67.36 67.63 67.43 67.79 67.94 68.34 69.06 70.71 71.69 72.21 71.96 73.13 73.73 72.75 71.89 73.22 72.44 71.49 71.56 72.37 70.20 72.35 74.09 74.65 75.19 75.89 75.05 74.59 74.42 74.80 74.38 74.60 73.05 72.26
47.23 44.73 47.01 39.51 42.86 38.35 41.60 46.01 50.65 53.57 54.65 57.97 60.05 61.75 65.93 66.73 67.72 67.78 67.93 68.41 68.21 68.91 70.11 71.22 72.27 72.28 72.82 73.36 73.77 72.83 71.99 73.69 72.08 70.84 71.63 72.58 71.29 73.29 74.17 74.99 74.86 75.24 74.76 74.16 74.12 75.09 74.34 74.03 73.19
48.70 48.93 42.28 43.05 35.43 35.41 41.31 43.33 45.19 48.97 51.65 53.88 55.54 59.94 62.82 66.85 67.85 68.47 68.26 68.44 68.74 69.16 70.05 70.88 72.67 72.55 73.17 73.16 73.96 74.20 73.54 72.41 74.29 72.72 71.22 71.50 73.04 72.56 73.51 74.90 74.42 75.79 75.45 74.93 74.32 74.39 74.52 73.49 73.72
46.74 45.75 45.64 42.28 40.79 36.45 36.46 42.53 51.10 51.06 52.95 53.66 55.54 58.50 61.75 66.18 67.67 68.66 68.89 69.16 69.10 69.33 69.89 70.29 71.82 72.93 73.57 74.29 73.88 74.46 74.59 73.98 73.03 73.93 72.81 72.30 72.38 73.23 75.47 75.12 74.98 75.20 74.86 75.68 74.77 73.74 74.10 74.02 73.35
50.52 47.44 46.64 42.52 38.68 40.52 39.63 43.12 54.45 53.32 55.06 55.74 56.42 57.39 60.84 64.95 68.14 68.91 69.51 69.35 68.96 68.82 69.39 69.64 71.29 72.78 73.89 74.78 74.76 74.38 75.14 75.36 74.06 73.03 73.52 72.85 72.39 73.79 73.88 76.07 75.64 75.62 75.46 75.22 75.22 74.14 74.68 73.16 73.21

GFSSGP_sfc_wetblb_054.txt.gz
Wetbulb
74.04 73.56 72.11 69.42 61.38 59.96 56.74 58.43 62.08 60.58 60.42 64.15 65.52 63.93 62.69 63.50 59.89 54.36 66.75 69.12 71.70 72.41 75.21 76.18 77.81 77.46 76.81 77.51 77.48 77.64 77.38 76.82 77.55 77.20 77.26 77.11 77.11 76.95 76.93 76.85 76.72 77.21 76.38 75.72 75.83 75.71 75.69 75.49 74.76
72.93 72.20 71.40 67.18 58.72 54.10 55.72 61.09 60.18 61.56 64.22 65.16 66.64 65.62 64.34 61.17 64.36 64.33 66.09 70.72 72.50 74.38 75.00 75.35 77.70 77.77 77.04 77.47 77.58 77.43 77.04 77.33 77.39 77.17 77.05 76.74 76.87 76.77 76.84 76.94 76.94 76.63 76.38 75.61 75.50 75.55 75.33 75.44 75.09
71.95 71.90 66.64 62.74 58.59 52.75 55.57 60.69 61.39 64.49 66.04 65.99 65.20 67.21 65.15 62.19 64.83 65.79 69.12 71.73 73.20 74.23 75.13 76.06 78.10 78.01 77.05 77.14 77.45 77.45 77.15 76.88 77.00 77.09 76.91 77.08 76.92 76.94 77.13 76.73 76.94 76.48 76.32 76.10 75.69 75.39 75.44 75.39 75.19
68.89 68.20 66.67 59.19 56.16 59.30 59.75 61.99 64.45 63.94 66.25 66.85 65.62 62.00 64.48 67.42 65.78 67.74 70.42 72.34 73.33 74.33 75.76 77.52 77.72 76.84 77.20 77.15 76.92 77.65 77.22 77.19 76.90 76.99 77.10 77.10 76.99 76.30 76.46 76.59 76.65 76.54 76.19 75.99 75.75 75.50 75.28 75.42 75.16
70.74 68.11 59.35 57.01 56.72 60.54 62.66 64.47 65.03 63.73 65.20 65.45 65.28 59.65 61.12 65.87 68.42 69.33 70.14 72.96 73.03 74.04 75.78 76.23 78.00 78.08 77.54 76.95 77.26 77.20 77.49 76.90 77.14 77.12 77.09 77.25 77.26 77.07 76.66 76.41 76.33 76.47 76.16 75.86 75.59 75.14 74.92 74.84 74.89
64.64 63.76 53.76 53.22 56.51 60.76 63.59 65.45 65.98 65.30 64.75 62.88 60.73 60.21 61.92 66.74 67.54 68.54 71.61 72.81 74.08 74.31 75.28 75.82 77.88 78.37 77.91 77.27 77.02 77.46 77.02 76.68 76.93 76.94 77.02 77.29 77.37 77.60 76.85 76.67 76.53 76.39 76.20 76.06 75.78 75.69 75.28 75.25 74.76
61.08 58.67 54.79 55.22 56.74 58.10 62.29 66.05 64.79 64.67 64.46 63.30 65.94 61.34 62.81 64.78 67.38 68.79 72.28 72.94 74.06 74.83 74.88 74.95 75.22 75.88 77.63 77.80 77.75 76.80 76.69 76.68 76.85 76.87 76.79 76.60 76.76 76.92 77.08 77.03 76.70 76.31 76.14 75.84 75.62 75.78 75.66 75.22 75.02
64.72 60.75 55.58 56.92 56.15 56.41 63.80 64.30 67.41 66.19 64.54 68.61 67.35 61.06 60.14 64.79 67.83 68.64 72.18 71.96 73.13 73.83 74.08 73.39 73.21 73.66 74.71 75.06 77.75 76.87 76.88 76.94 76.77 76.63 76.61 76.42 76.16 76.00 76.34 77.14 77.47 76.25 75.80 75.72 75.67 75.64 75.66 75.32 75.49
69.55 59.81 56.11 57.45 57.72 58.95 63.94 63.20 67.59 68.68 65.80 67.01 67.68 65.50 65.93 67.44 67.66 69.34 69.93 70.50 71.52 72.93 73.12 73.21 72.88 73.06 73.62 74.64 75.78 76.90 77.02 77.12 77.10 76.50 76.71 72.93 72.60 73.21 74.96 75.77 76.36 76.17 75.97 75.69 75.56 75.59 75.83 75.51 75.50
64.46 57.66 58.71 61.74 61.04 60.36 62.89 64.56 65.67 65.05 65.01 64.32 64.17 66.81 66.86 66.88 66.80 67.62 68.05 68.13 69.57 70.98 72.29 72.59 72.53 72.63 72.89 75.20 73.43 73.17 74.46 74.54 74.28 72.67 69.28 70.51 71.57 72.87 74.55 75.37 76.67 76.42 76.42 76.44 76.59 76.23 75.58 75.11 72.59
62.81 59.20 62.17 63.00 63.01 62.52 62.02 61.69 66.49 64.54 62.06 63.54 61.59 63.33 64.97 65.61 68.04 67.36 67.89 69.42 69.80 71.25 72.25 71.85 72.08 72.20 72.13 72.49 72.52 72.60 72.94 73.20 72.96 69.49 68.57 70.42 72.08 69.39 70.54 72.52 73.22 72.84 75.30 73.06 74.39 73.96 73.68 73.68 72.73
57.96 62.45 63.45 63.67 64.04 62.27 60.75 62.55 64.60 65.70 64.97 66.83 64.99 64.97 65.29 66.84 66.96 67.48 67.72 69.27 69.96 70.86 71.32 71.37 71.50 71.83 70.99 72.24 72.29 72.61 72.39 72.25 72.60 66.77 68.15 71.06 69.69 70.62 69.77 71.95 71.03 72.01 73.70 72.85 73.46 72.15 72.49 72.30 71.77
56.92 60.54 63.30 64.39 64.29 62.24 62.69 62.31 63.12 64.33 67.28 67.36 65.38 65.24 65.24 66.66 67.39 68.39 69.09 69.94 70.22 69.88 70.31 70.63 71.41 71.59 71.15 71.10 70.98 71.44 71.50 72.02 72.84 68.66 68.17 71.24 71.86 70.67 69.27 67.43 68.57 69.57 73.71 73.22 71.79 72.02 72.56 70.41 70.55
59.54 59.71 61.44 63.29 63.22 63.52 61.42 61.89 65.03 65.85 67.19 66.28 65.23 64.18 65.53 67.13 67.53 68.23 68.71 68.91 68.93 69.63 69.25 70.20 70.47 71.39 71.43 70.67 69.24 70.54 70.60 70.94 72.79 71.55 68.71 71.87 72.20 70.73 71.14 70.27 70.90 71.09 71.98 73.25 72.00 71.24 70.62 70.56 70.03
56.23 56.24 59.28 60.62 62.83 62.10 63.21 59.72 63.23 66.87 67.18 65.39 65.14 65.50 66.86 67.72 68.45 68.20 69.07 69.04 69.53 69.14 69.23 69.33 70.01 71.65 71.29 70.25 70.10 70.86 71.23 71.20 73.13 73.92 72.51 73.55 72.58 72.03 71.29 71.20 70.94 72.16 72.96 72.53 72.10 71.22 70.58 68.98 70.25
53.02 52.63 49.87 56.13 61.90 62.97 61.84 55.65 63.39 66.36 65.93 64.67 65.34 66.10 66.51 67.20 68.16 68.36 69.11 69.36 69.59 70.18 68.37 69.40 71.22 71.91 71.52 71.87 70.86 72.04 70.34 69.23 71.64 73.25 73.14 72.66 72.88 72.70 71.60 71.85 71.80 71.94 72.78 73.00 71.48 70.23 69.10 68.05 69.14
46.46 45.45 47.92 52.40 61.80 61.05 59.80 57.01 63.64 66.60 65.25 64.28 64.81 65.56 66.02 66.61 67.80 68.62 69.31 69.49 69.17 70.15 68.68 69.49 70.15 71.62 70.75 70.94 70.86 71.58 71.36 70.69 69.83 71.87 71.77 71.82 73.09 73.18 72.16 71.92 72.42 73.05 72.22 72.01 72.02 69.86 68.80 67.43 67.60
41.83 44.92 47.59 50.34 58.26 59.57 58.80 57.75 62.50 64.21 65.09 64.59 64.68 65.49 65.46 65.91 66.78 68.47 69.36 69.94 69.98 68.88 70.11 69.82 70.15 71.47 70.76 71.27 70.38 70.59 70.46 71.10 70.69 69.83 71.40 71.82 72.79 73.76 73.25 72.46 72.05 70.46 71.14 70.48 70.72 70.42 70.31 70.07 68.28
48.41 47.88 48.39 52.90 56.64 58.86 58.45 57.77 60.27 63.73 64.03 64.28 64.71 65.44 65.56 65.85 67.81 68.75 69.43 69.94 69.76 68.94 69.98 69.59 69.63 70.69 70.95 70.41 69.87 68.68 68.24 69.31 69.82 69.32 71.66 72.49 72.96 73.83 73.10 72.73 71.65 72.04 70.88 71.11 70.73 70.38 68.42 66.87 64.13
47.86 47.45 48.58 53.05 56.02 55.04 57.75 57.10 60.34 61.87 62.39 63.97 63.50 63.38 65.23 66.22 67.13 67.88 68.54 69.49 69.43 68.57 69.90 69.74 69.90 70.00 70.81 70.93 70.93 69.83 69.20 69.44 70.07 68.98 72.28 73.14 73.36 74.08 73.69 72.47 71.90 71.68 72.37 71.44 71.04 68.97 67.95 67.65 63.84
47.54 46.21 48.40 49.47 53.31 53.54 57.67 55.33 57.16 60.24 60.58 62.34 64.31 65.01 65.38 64.79 66.34 67.38 68.05 69.05 69.71 68.54 69.09 69.18 70.27 70.24 70.83 71.22 70.45 70.18 70.69 69.16 68.89 68.20 68.23 73.13 73.88 74.18 74.15 73.56 73.08 72.14 71.94 70.79 70.65 70.30 68.41 64.75 64.12
44.64 50.89 51.12 51.24 48.77 44.67 53.35 47.64 54.23 57.42 57.85 60.58 62.07 63.94 64.48 65.13 64.54 67.90 68.44 68.81 69.61 69.00 69.69 69.70 70.90 70.78 71.05 71.64 70.33 70.06 70.13 69.41 68.44 67.57 67.95 71.79 73.59 73.24 74.00 73.45 73.04 72.62 71.44 71.08 71.21 71.98 69.21 66.63 62.27
48.20 51.78 50.85 51.09 47.17 43.59 48.66 47.17 52.02 57.02 55.48 57.69 60.92 63.44 64.07 64.76 65.33 65.58 68.51 69.24 69.94 69.76 69.21 70.18 71.26 71.09 71.27 71.97 71.03 70.24 69.42 69.49 68.11 67.71 67.74 68.48 71.95 72.69 74.33 74.04 73.53 72.07 72.24 72.31 71.19 71.88 70.45 67.15 64.36
53.16 50.20 49.43 49.29 44.31 40.16 47.03 44.67 47.36 53.20 55.97 57.70 60.55 62.55 63.78 61.93 64.32 65.48 68.43 69.38 69.23 69.92 69.77 69.98 70.68 70.96 71.29 71.91 71.34 70.59 69.39 67.83 67.38 66.76 66.97 67.20 69.91 71.33 73.56 74.53 73.82 72.66 72.26 71.75 71.62 71.97 70.86 70.79 68.13
51.87 44.53 39.96 36.13 37.96 37.98 46.04 42.97 45.69 56.44 58.99 59.79 59.98 62.03 63.69 63.20 63.38 65.04 66.81 67.30 68.20 68.93 69.63 69.22 70.45 70.66 71.22 71.54 71.30 70.89 70.30 68.86 68.21 67.17 66.41 67.56 69.83 70.83 71.96 74.12 73.82 72.84 72.29 72.34 72.26 71.97 70.78 69.22 70.16
48.31 47.35 37.54 32.73 33.63 39.71 42.23 39.56 45.04 57.68 60.71 61.95 62.22 62.83 63.93 63.36 64.53 65.42 67.07 67.67 68.15 68.95 69.65 69.61 69.30 70.37 71.51 71.47 71.05 71.13 69.75 70.55 69.41 67.98 67.78 67.27 70.05 72.21 72.79 74.31 74.56 73.95 72.90 72.64 72.50 72.64 71.83 71.16 70.20
48.39 45.12 45.91 37.06 36.09 35.62 39.19 42.84 48.02 51.36 57.81 61.34 61.76 62.42 62.58 63.02 64.21 65.83 67.43 67.99 68.13 68.96 69.49 69.99 69.44 69.74 71.56 71.62 71.64 71.48 71.45 70.69 70.36 69.44 68.77 68.83 69.91 73.01 73.36 73.96 74.71 74.38 73.58 72.83 73.43 72.41 72.67 72.16 70.96
50.66 48.19 40.51 36.33 34.31 30.83 37.11 39.05 43.17 46.57 48.29 56.19 59.85 61.42 62.56 63.54 64.88 66.74 67.38 68.07 68.50 69.23 70.00 70.59 70.67 69.88 70.95 72.18 71.66 71.19 71.42 72.86 71.78 69.88 68.89 70.64 70.00 71.38 72.94 73.26 73.91 74.72 74.15 73.33 72.70 72.62 73.06 73.05 72.11
44.77 46.35 43.84 42.57 37.27 36.41 33.07 39.24 46.23 46.87 48.53 49.35 55.73 62.04 63.17 64.46 65.53 67.43 67.54 68.29 68.62 68.83 69.89 70.44 70.83 70.59 70.76 71.51 72.49 72.08 71.44 70.86 72.80 72.21 69.93 70.14 69.96 71.63 70.81 72.86 73.36 73.83 74.00 73.42 72.64 72.04 72.66 72.44 72.57
51.97 43.47 44.37 41.17 35.50 36.05 37.18 42.03 50.74 50.50 50.87 51.93 52.37 61.26 63.83 66.05 67.13 67.95 67.59 68.03 68.05 68.11 69.03 69.90 70.97 71.08 71.18 71.74 72.13 72.50 72.65 72.21 70.47 71.80 72.80 71.35 70.35 70.73 72.03 73.73 73.27 73.11 74.16 74.08 73.13 72.56 73.43 73.19 72.35

GFSSGP_sfc_wetblb_057.txt.gz
Wetbulb
73.56 73.30 71.85 69.24 62.30 60.23 56.29 58.14 61.40 59.70 59.71 63.21 64.58 63.50 61.81 62.69 59.89 55.04 66.60 68.78 71.06 72.51 74.69 75.98 77.41 77.28 76.95 76.93 77.34 77.14 76.87 77.14 77.05 77.17 77.00 76.86 76.64 76.58 76.67 76.79 76.65 76.29 75.75 76.10 75.93 75.88 75.28 75.03 75.33
72.90 72.48 70.49 66.67 58.23 54.23 55.42 61.05 59.17 60.31 62.76 64.15 65.48 64.97 63.14 60.43 63.87 64.33 65.66 70.54 72.70 74.06 74.48 75.50 77.25 77.48 77.09 77.18 77.05 77.21 77.52 77.15 77.11 76.82 76.89 76.87 76.85 76.65 76.84 76.58 76.73 75.97 75.53 75.69 75.88 75.63 75.39 75.06 75.00
72.41 72.23 66.01 62.24 57.30 53.79 54.56 60.43 61.06 63.16 64.48 65.21 64.27 65.53 64.03 60.91 64.38 65.35 68.94 71.66 74.05 73.96 74.34 75.32 77.37 77.50 77.02 77.15 77.21 77.19 77.14 76.84 76.97 76.59 76.72 76.87 76.94 76.69 76.88 76.68 76.38 76.51 75.94 75.77 75.80 75.63 75.58 75.06 74.90
69.25 66.82 65.73 59.49 54.57 59.09 59.58 62.11 64.13 62.76 65.51 65.91 64.76 60.71 63.85 66.56 65.49 68.04 71.45 73.75 73.71 74.23 75.19 76.71 77.07 76.73 76.84 76.97 77.19 76.83 76.66 76.68 76.58 76.53 76.81 76.19 76.48 77.13 76.87 76.92 76.48 76.16 75.94 75.42 75.54 75.66 75.66 75.03 74.70
69.19 67.72 58.90 57.09 56.21 60.05 62.45 64.50 64.71 63.55 64.46 64.34 63.66 59.62 61.22 65.61 68.64 70.54 71.76 73.47 73.21 73.95 74.64 75.00 77.55 77.19 76.76 77.21 77.57 77.32 76.88 76.71 76.58 76.33 77.19 77.18 76.47 76.25 76.35 76.46 76.46 76.24 76.05 75.80 75.45 75.34 75.26 75.20 74.92
64.64 61.98 52.47 52.61 56.39 60.37 62.89 65.61 65.30 64.32 63.09 61.48 60.65 60.22 61.54 66.83 68.57 69.63 72.46 72.90 74.01 74.29 74.37 74.36 77.02 77.18 76.79 77.26 77.23 77.32 76.63 77.05 77.03 76.75 77.03 77.29 77.03 76.71 76.57 76.58 76.52 76.33 76.06 75.95 75.46 75.29 75.05 75.25 75.05
61.29 56.53 54.17 55.87 57.04 57.44 61.18 66.60 64.28 64.25 62.43 60.59 63.26 59.42 61.67 65.67 68.34 70.16 72.36 73.24 73.96 74.61 74.12 73.83 74.12 75.69 77.06 76.80 77.63 77.01 76.55 76.79 76.79 76.70 76.81 76.70 77.12 76.99 76.58 76.61 76.70 76.56 76.20 76.03 75.78 75.60 75.45 75.38 75.31
64.19 59.29 55.76 57.09 55.33 56.64 62.70 64.72 65.35 65.38 63.50 66.11 65.64 58.79 59.67 65.15 68.03 71.86 72.57 72.97 73.31 73.62 73.63 72.95 73.21 73.52 73.97 74.77 77.05 76.70 76.63 76.79 76.79 76.58 76.42 76.17 76.32 76.58 76.61 77.21 77.34 76.34 76.12 75.84 75.95 75.66 75.72 75.79 75.71
68.91 57.88 54.57 56.79 57.12 58.50 63.49 62.85 66.37 67.86 64.63 66.43 66.15 63.49 65.56 67.16 70.24 70.40 70.79 71.80 72.38 72.83 72.25 71.97 72.13 73.12 73.19 74.88 74.73 76.66 76.85 76.79 76.71 76.15 76.33 74.57 72.32 73.03 74.34 75.31 76.06 76.28 76.12 75.62 75.78 75.81 75.88 75.78 75.45
62.58 57.33 58.46 62.27 60.88 59.47 63.16 64.08 65.12 64.09 64.03 63.21 62.89 65.17 66.92 66.64 69.45 68.75 68.65 68.31 69.81 71.29 71.74 71.51 71.64 72.20 73.10 75.81 73.65 73.22 74.40 74.31 73.93 72.97 71.14 70.13 71.37 71.77 74.22 75.03 76.28 75.98 75.89 75.64 75.73 75.34 75.59 73.80 71.49
62.76 58.55 61.81 62.78 61.97 63.31 62.82 63.07 66.30 63.90 61.34 62.65 60.79 63.28 65.41 65.13 68.14 68.13 68.33 68.72 69.34 71.13 72.27 71.66 71.53 71.57 72.38 73.07 72.37 72.37 72.84 73.21 73.06 70.86 68.29 69.69 71.29 68.66 70.95 72.38 73.24 72.52 74.56 72.56 73.55 72.97 72.79 73.57 71.56
58.03 62.32 63.98 63.71 63.83 62.92 61.73 63.00 64.51 65.04 64.62 66.01 64.34 65.30 65.06 64.42 66.93 67.57 67.79 68.87 69.46 70.66 71.49 71.31 71.52 71.19 71.09 71.00 71.60 71.69 71.94 72.41 72.10 69.21 67.67 69.90 70.84 69.55 69.89 71.17 71.10 71.33 72.32 71.69 72.28 71.89 71.97 71.62 71.95
56.32 59.40 61.46 63.31 62.90 62.95 63.40 63.00 64.20 65.08 66.36 66.16 65.08 65.48 64.68 65.46 66.79 67.99 68.95 69.69 69.80 70.01 70.74 70.73 71.16 70.79 71.02 70.28 70.63 70.90 71.32 71.71 71.78 68.15 66.97 70.44 69.22 69.43 68.17 66.79 67.55 69.08 71.80 72.23 71.06 70.82 71.41 70.34 70.34
55.78 56.67 57.92 59.92 60.16 62.14 61.75 62.92 64.39 65.34 65.34 64.54 63.93 63.88 64.88 66.27 66.99 67.13 68.68 68.93 69.50 70.25 70.40 70.48 70.31 70.83 70.43 69.80 69.34 70.08 70.72 70.96 71.59 70.04 65.99 69.99 71.23 70.24 69.42 68.07 69.89 69.66 71.38 71.85 71.46 70.17 70.93 69.57 69.10
53.74 51.84 54.24 56.95 59.21 61.36 62.61 60.00 62.11 65.14 63.99 62.56 62.89 63.11 65.02 66.49 67.50 66.89 68.45 68.97 69.85 70.05 70.16 69.63 69.85 70.56 70.10 69.72 68.71 69.72 70.45 70.83 70.57 71.84 68.36 70.34 71.59 70.76 70.34 70.16 70.25 70.94 71.81 72.32 71.63 70.97 70.20 68.01 69.85
49.31 49.15 45.24 52.93 58.01 61.93 60.87 53.68 63.20 64.84 62.63 61.22 62.27 63.12 64.43 65.90 67.04 68.07 68.93 69.24 69.97 69.87 68.69 69.14 70.81 70.15 70.33 69.78 68.86 69.15 70.25 70.28 70.12 72.26 71.84 71.46 72.27 71.72 70.46 70.96 71.23 71.66 71.84 71.66 70.72 69.62 68.39 67.46 67.96
41.86 41.01 46.35 50.37 58.13 60.33 58.76 56.76 63.41 64.91 63.42 61.26 61.53 62.47 64.25 65.54 66.89 68.13 69.20 69.34 69.44 69.14 68.21 68.32 69.08 69.25 70.04 70.22 69.52 70.43 70.17 68.54 69.75 72.01 72.21 72.01 72.41 72.49 71.05 71.29 70.98 71.83 71.37 71.38 71.78 69.73 67.82 65.39 66.67
38.65 41.41 44.55 47.55 56.04 58.85 56.94 56.75 62.94 64.03 63.77 62.65 62.37 62.89 64.17 65.47 66.34 68.02 68.84 69.72 69.63 69.56 68.02 68.42 68.91 68.95 70.02 70.61 69.32 69.94 70.08 69.65 69.08 70.57 70.99 71.67 72.43 72.34 71.40 71.48 71.31 70.41 70.35 69.95 70.45 70.57 69.73 68.59 67.40
44.83 45.45 46.71 50.24 56.64 57.09 56.42 57.06 61.48 63.20 63.34 62.82 63.05 63.59 63.73 65.08 67.24 68.40 68.58 69.34 69.17 69.50 68.72 67.86 68.12 68.88 70.09 69.29 68.46 67.71 67.79 68.61 69.43 69.00 71.22 70.96 72.05 73.31 72.37 71.42 71.06 70.29 70.44 69.90 69.70 69.55 67.62 65.09 63.90
44.03 42.32 43.85 49.23 54.24 56.77 56.21 55.90 61.21 63.04 62.86 63.50 63.26 63.73 64.46 64.84 65.94 67.18 67.96 68.45 68.29 67.97 69.17 67.99 68.10 68.98 70.07 70.57 70.32 68.34 67.87 68.37 69.12 68.82 69.71 71.37 71.90 72.82 72.53 71.70 71.12 71.10 70.89 69.84 69.96 68.80 67.34 66.20 62.84
43.26 42.62 43.52 46.11 51.40 55.37 54.16 53.89 57.63 61.76 63.91 64.37 64.82 65.25 65.58 65.02 65.11 66.12 67.00 67.89 68.39 67.24 68.31 68.56 68.26 68.72 70.07 70.66 69.04 69.27 68.98 68.27 68.15 67.59 67.57 71.30 72.22 73.13 73.11 72.41 71.55 70.93 71.49 70.02 69.68 68.62 66.71 63.99 63.04
39.90 47.48 47.63 47.60 46.34 43.63 55.16 45.30 53.80 57.88 59.98 60.59 63.46 64.58 65.37 65.71 66.25 66.63 66.96 67.26 68.04 67.95 69.34 69.26 68.80 68.88 70.02 69.67 69.52 68.81 68.00 67.13 67.27 67.34 67.22 70.60 72.52 72.79 73.66 73.11 72.43 72.02 71.47 70.41 69.34 70.77 68.67 63.67 60.98
45.03 49.20 47.87 47.64 44.00 43.39 48.93 47.96 50.31 56.65 56.17 58.55 60.34 63.63 64.81 66.22 67.05 66.81 67.03 67.71 68.69 69.17 68.83 69.45 69.09 69.06 69.45 69.84 69.57 68.83 67.12 66.89 67.36 66.79 66.91 67.50 71.39 72.31 73.84 72.80 72.22 71.65 71.41 70.04 70.44 70.32 68.52 66.39 62.60
51.33 47.54 45.85 44.38 42.04 38.17 44.60 46.00 42.49 52.51 55.53 58.04 60.81 61.98 63.76 65.24 66.47 67.18 68.46 68.55 68.34 69.51 68.72 69.10 68.83 69.11 69.51 69.96 69.73 68.81 68.26 67.03 66.74 66.74 66.33 66.12 68.53 71.51 72.01 73.19 72.58 71.96 71.24 71.14 70.94 70.89 69.95 68.62 65.89
49.75 42.30 34.89 33.96 34.62 37.69 43.41 43.11 46.87 55.36 58.65 59.34 60.06 61.54 62.76 64.97 65.61 65.66 67.15 67.68 68.23 68.68 68.29 68.77 68.68 68.78 69.67 69.87 69.99 69.48 68.78 67.77 67.70 66.78 67.82 65.91 66.67 68.85 70.57 72.66 72.49 71.76 71.17 71.40 70.99 70.63 70.57 69.80 68.77
46.35 42.85 35.30 29.93 31.60 36.26 43.16 38.44 44.10 54.59 60.41 61.46 62.18 63.00 63.47 64.31 64.95 64.24 65.90 67.89 68.51 68.84 68.65 68.55 68.45 68.90 69.58 69.88 70.09 70.14 69.55 68.87 68.90 68.41 66.58 66.87 67.31 69.40 70.46 71.85 72.93 72.85 72.10 71.59 71.10 71.12 70.80 69.33 69.65
46.65 43.68 46.24 37.04 32.79 35.76 41.45 41.17 47.23 51.88 56.55 59.49 60.58 61.70 62.12 63.49 64.53 62.65 65.37 67.21 68.68 68.88 68.54 68.09 68.66 69.29 69.82 70.11 70.52 70.31 70.19 69.65 68.97 68.18 68.38 67.39 67.71 69.97 70.51 71.58 72.65 73.14 72.62 71.65 71.46 71.27 71.16 70.30 69.41
49.43 47.98 40.40 37.29 31.73 29.94 34.78 37.58 42.83 46.70 51.42 56.05 58.45 60.34 61.65 63.19 64.40 64.27 64.30 66.60 67.78 68.76 68.89 68.87 68.88 69.22 69.93 70.21 70.64 70.59 70.38 70.29 70.00 68.82 67.31 67.39 67.38 69.13 70.84 71.47 72.25 73.24 73.22 72.35 71.78 71.36 71.63 71.50 70.54
44.44 45.01 42.55 43.23 38.01 37.44 30.73 37.59 44.14 47.09 50.50 54.41 57.87 60.43 61.80 62.63 63.81 63.92 65.18 66.92 67.57 68.49 68.88 68.94 68.49 68.91 69.56 70.32 70.45 70.37 70.38 70.38 70.15 69.21 69.13 69.31 68.91 68.53 69.82 71.47 72.03 72.77 73.18 72.89 71.81 71.79 72.20 72.12 71.77
43.05 44.81 41.60 42.65 36.39 34.19 36.03 41.69 47.70 47.92 49.17 51.57 57.58 60.39 62.35 63.34 64.14 64.46 65.24 66.56 67.61 67.64 68.45 68.83 69.15 68.65 69.32 70.72 70.57 70.56 70.52 70.98 71.22 70.72 69.29 68.92 69.57 69.91 70.04 70.50 71.73 72.39 73.27 73.18 72.51 71.89 72.36 72.30 71.70

GFSSGP_sfc_wetblb_060.txt.gz
Wetbulb
73.59 73.12 71.87 69.25 61.95 59.93 55.85 57.91 60.56 58.57 59.00 62.06 64.00 61.92 61.45 62.24 60.04 55.18 66.16 68.50 71.38 72.37 73.92 75.42 77.13 76.49 77.04 76.87 77.13 76.96 77.11 76.72 76.88 76.91 77.01 76.93 76.67 76.43 75.94 76.45 76.34 75.36 76.27 75.54 75.59 75.21 74.54 74.85 75.20
72.68 72.21 70.44 66.76 58.45 53.27 54.38 60.14 58.51 59.35 61.76 64.67 65.14 64.16 62.76 59.95 63.71 64.79 65.57 70.02 72.71 73.65 74.21 74.63 77.00 77.14 77.07 76.82 76.47 77.09 76.95 76.84 77.01 76.85 76.67 76.62 76.51 76.66 76.42 76.39 75.86 75.92 75.86 75.79 75.48 75.37 75.23 75.45 75.62
72.24 72.31 66.26 62.41 56.71 53.38 53.77 60.39 61.58 62.07 63.92 64.55 63.57 65.32 63.37 61.38 64.58 65.32 68.06 72.09 73.54 73.50 74.35 74.40 77.14 77.26 77.13 77.03 76.87 76.99 76.96 76.68 76.56 76.73 76.82 76.69 76.42 76.75 76.39 76.58 76.25 75.83 75.91 75.86 75.70 75.45 75.23 75.01 74.87
70.00 67.61 65.46 59.42 55.16 58.19 58.85 61.65 63.02 62.29 65.06 65.71 64.11 60.04 63.54 66.17 65.15 67.58 71.01 73.55 73.30 73.66 74.59 76.07 77.00 76.80 77.01 77.25 77.04 76.85 76.76 76.68 76.83 76.59 76.64 76.65 76.71 76.70 76.61 76.33 76.13 75.91 75.94 75.89 75.92 75.62 74.82 74.93 74.76
67.93 67.03 58.37 56.16 56.37 58.95 61.72 63.95 63.98 62.39 63.70 62.83 63.23 59.14 61.47 65.97 69.10 70.27 72.42 73.35 72.84 73.44 74.13 74.53 77.40 77.14 76.98 76.88 76.64 76.45 76.42 76.58 76.80 76.58 76.30 76.16 76.32 76.14 76.20 76.50 76.14 76.17 76.00 75.63 75.64 75.59 75.07 74.63 74.77
65.14 61.35 51.31 52.08 55.25 59.68 61.98 65.59 64.63 64.01 62.53 61.71 60.83 60.18 61.58 68.16 68.69 70.96 72.61 72.68 73.67 73.43 73.72 74.38 76.30 77.01 76.87 77.34 77.33 76.56 76.50 76.74 76.74 76.64 76.76 76.85 76.38 76.38 76.27 76.25 76.20 76.15 76.12 75.76 75.47 75.34 75.45 74.96 74.54
60.68 55.41 53.28 55.27 56.46 57.35 61.22 66.50 63.78 63.23 61.76 61.08 63.09 58.81 62.47 66.80 69.22 71.79 72.26 73.42 73.98 73.55 73.25 73.18 73.63 75.29 77.05 77.04 77.55 76.53 76.89 76.85 76.85 76.64 76.44 76.65 76.68 76.52 76.30 76.36 76.26 76.26 75.72 75.82 75.40 75.26 75.48 75.45 75.10
63.70 58.35 54.40 55.31 55.34 56.57 62.33 64.68 65.76 64.44 62.43 64.79 64.41 58.36 60.47 65.79 69.81 71.79 72.48 72.99 73.28 73.09 73.01 72.64 73.07 73.21 73.78 74.88 77.07 76.46 76.49 76.65 76.65 76.40 76.44 76.45 76.45 76.55 76.39 76.72 76.98 75.97 76.14 75.95 75.81 75.29 75.62 75.67 75.37
67.48 57.39 53.56 55.82 56.14 58.20 63.49 62.41 66.68 67.61 62.64 65.11 64.48 62.99 65.31 68.10 71.05 70.63 70.57 71.69 72.13 72.41 71.72 72.23 72.35 73.14 73.13 74.73 74.77 75.96 76.58 76.60 76.47 76.01 76.19 75.23 73.92 74.40 74.24 75.32 75.82 76.01 76.15 75.81 75.69 76.09 75.73 75.63 75.46
62.46 56.72 56.72 60.83 60.99 58.18 63.56 63.63 64.37 63.99 62.88 62.23 62.27 65.43 66.82 68.89 69.18 67.39 67.60 67.99 70.31 70.83 71.56 71.47 72.03 72.55 73.27 75.85 73.62 73.78 74.83 74.56 74.44 74.16 72.16 72.00 72.72 73.30 74.73 75.03 75.42 75.82 75.53 75.87 76.01 75.90 75.81 73.94 72.91
62.16 57.90 62.07 61.89 62.16 62.44 63.02 63.57 65.97 62.99 60.61 61.39 61.17 63.20 65.24 68.06 67.35 66.76 67.27 67.81 68.71 70.20 71.98 71.22 71.63 72.05 73.02 73.89 72.88 73.00 73.46 73.98 73.72 72.36 70.42 71.40 72.48 71.26 72.51 73.61 73.81 74.27 75.31 73.50 74.07 73.68 73.95 73.68 72.40
57.80 61.71 63.30 63.55 64.16 61.50 61.12 63.18 63.72 64.16 63.91 65.15 64.37 65.00 65.21 66.75 66.41 66.67 67.00 67.71 68.52 69.78 71.30 71.37 71.65 71.31 72.15 72.24 72.27 72.33 72.69 72.93 72.82 71.65 69.46 70.80 71.73 70.60 71.78 72.37 72.72 72.86 73.75 72.95 73.12 72.43 72.81 73.53 73.28
57.41 59.21 61.98 63.85 63.11 62.09 62.82 62.53 63.77 64.12 65.33 64.95 65.19 65.06 64.73 66.78 66.84 68.01 68.57 68.98 69.65 69.54 71.20 71.23 71.24 70.70 71.36 71.05 71.74 71.64 71.77 72.43 72.49 71.27 68.49 71.40 71.06 71.03 69.97 70.24 70.38 70.12 72.17 72.81 72.20 72.56 73.35 72.32 72.67
55.67 57.92 58.89 60.06 58.62 60.51 60.43 61.44 63.88 63.99 64.78 63.44 64.13 63.76 64.39 66.46 67.07 67.79 68.39 68.24 69.29 70.05 70.66 71.13 71.04 70.76 70.74 70.11 70.52 70.56 71.33 71.82 72.13 71.88 67.73 71.20 71.55 71.28 70.54 69.69 71.40 71.09 72.24 73.35 72.95 72.92 71.84 71.42 70.23
52.65 48.78 51.73 54.02 56.93 59.34 62.93 60.06 61.50 64.01 63.99 62.13 63.20 63.76 64.22 66.13 67.58 67.36 68.67 68.31 69.08 69.91 70.53 70.25 70.53 70.43 70.11 69.97 69.83 70.07 71.03 71.38 71.68 72.36 70.38 69.61 72.30 71.88 71.66 70.80 71.71 72.46 73.46 73.15 72.25 72.39 72.00 71.10 71.33
47.00 46.95 45.51 51.03 54.97 59.48 59.82 52.68 62.41 63.33 62.21 60.90 62.59 63.31 63.96 65.73 66.67 67.78 69.25 69.22 69.65 69.75 69.76 70.03 71.08 70.23 69.83 69.67 69.44 69.60 70.68 70.87 71.15 72.12 72.49 69.90 72.23 72.82 72.06 71.63 72.56 73.51 74.00 73.44 72.48 71.59 70.49 70.31 70.20
40.69 39.99 43.68 48.80 55.13 58.96 57.36 53.61 62.34 62.58 61.89 60.60 61.58 62.34 63.72 64.87 66.41 67.43 69.12 69.75 70.00 69.81 69.55 69.21 69.63 69.08 69.64 69.96 69.57 69.34 70.08 70.43 70.68 71.61 72.57 72.40 72.70 73.65 72.41 72.37 71.81 73.12 72.81 73.48 73.32 71.49 70.27 68.63 69.54
38.06 37.99 42.59 47.26 52.99 57.08 55.76 55.57 61.76 61.46 60.96 60.95 60.90 61.65 62.74 64.25 65.40 67.38 68.50 69.85 70.15 70.05 69.05 69.08 68.78 68.37 69.34 69.72 69.73 70.36 70.62 70.19 69.65 71.15 72.45 72.89 73.15 73.78 72.61 72.89 72.86 72.95 72.63 72.64 73.08 71.81 71.10 71.00 69.61
43.73 43.21 44.43 48.17 54.13 55.97 55.18 55.63 60.76 61.86 60.76 59.78 60.43 60.98 61.80 63.33 66.17 67.84 68.49 69.48 69.65 69.49 68.25 68.12 67.61 67.63 69.38 69.03 68.26 68.79 69.07 70.09 70.38 70.41 72.35 72.45 73.14 73.85 72.66 72.87 72.29 72.05 72.36 72.11 71.98 71.91 69.19 67.27 67.31
42.99 40.80 41.39 46.75 52.29 55.06 54.05 54.93 60.68 61.67 61.43 61.25 60.59 60.77 61.99 63.38 65.15 66.68 67.72 68.65 68.70 68.55 67.85 67.74 67.54 67.58 69.58 70.07 69.99 69.55 69.16 69.68 70.91 70.59 71.67 72.32 72.86 73.97 73.47 73.22 72.80 72.83 71.33 71.74 72.20 71.64 69.69 67.72 66.17
40.05 41.66 41.16 43.66 49.38 56.72 53.77 51.99 57.45 61.80 62.82 63.16 63.46 63.16 63.01 63.49 64.49 66.02 66.71 67.66 68.65 68.03 68.34 67.23 67.69 67.84 69.51 69.83 69.56 69.29 69.08 69.30 69.37 69.53 69.84 71.59 72.50 73.34 73.89 73.63 72.77 72.55 73.04 71.54 72.32 71.15 69.93 66.74 66.35
34.54 44.25 45.69 44.60 43.60 43.39 53.25 41.74 51.87 58.30 60.32 61.71 62.74 63.21 63.63 64.14 65.30 66.26 66.82 66.97 67.74 68.07 69.25 68.90 67.98 68.03 69.25 70.00 69.53 69.27 68.31 67.39 67.86 68.74 69.50 71.18 72.57 73.09 73.96 74.09 73.38 73.02 73.05 72.01 72.06 71.66 70.70 67.28 65.89
40.93 45.62 44.44 44.68 42.33 42.17 46.45 45.95 48.31 56.72 57.33 59.90 62.11 63.37 64.49 65.35 65.68 65.68 66.44 67.41 68.05 68.57 68.34 69.26 68.63 68.25 68.95 69.60 69.92 69.38 68.86 67.78 67.97 68.41 69.22 69.65 72.29 72.97 73.77 74.27 73.83 73.48 73.20 72.13 72.43 72.47 71.65 69.46 65.81
47.35 44.79 42.88 41.41 39.93 35.98 42.58 46.11 41.90 51.09 55.79 58.77 62.38 63.56 64.86 65.58 66.18 66.52 67.24 68.12 68.13 69.06 68.45 68.89 68.18 67.95 68.59 69.41 69.49 69.21 68.90 67.35 67.58 67.53 67.77 68.03 69.69 72.16 73.05 73.96 73.78 73.76 73.14 72.77 72.52 73.00 72.27 70.43 68.89
45.95 41.10 32.70 31.50 32.39 35.82 42.46 42.88 45.14 50.41 57.47 59.22 60.24 62.58 64.13 66.10 66.68 66.66 66.33 66.87 67.54 67.92 68.16 68.68 68.37 67.55 68.29 68.92 69.11 69.04 68.89 68.11 67.96 68.01 67.59 67.14 67.84 69.69 71.71 73.17 73.47 73.43 73.50 73.22 73.29 72.61 72.76 71.85 70.51
43.56 40.27 33.36 27.88 29.15 36.02 39.50 37.74 43.78 52.37 56.86 59.91 61.48 62.63 63.59 64.69 66.39 66.82 67.30 67.52 67.49 68.05 68.40 68.31 68.15 67.91 68.47 68.66 69.00 69.47 69.44 68.79 69.19 68.81 68.65 68.23 67.95 69.18 71.45 72.44 73.54 73.94 74.02 73.30 73.32 72.64 72.63 72.53 72.24
42.50 40.82 43.95 35.19 32.34 32.78 40.44 41.19 47.42 50.11 52.75 56.35 58.91 60.17 61.65 63.27 65.08 65.92 67.33 68.14 68.19 68.07 68.27 67.92 68.17 68.35 68.61 69.05 69.34 69.57 69.64 69.42 69.15 69.12 69.09 69.20 69.06 69.52 70.72 71.87 72.82 73.72 73.92 73.59 73.21 72.72 72.68 72.72 72.07
41.81 45.54 39.44 35.75 30.98 28.29 34.70 37.07 44.11 46.43 48.76 52.76 56.24 59.08 60.95 62.72 64.04 65.15 66.63 66.81 68.56 68.94 68.93 68.65 68.57 68.22 68.90 69.46 69.78 69.85 69.93 69.89 69.90 69.29 69.00 69.13 68.71 70.21 70.90 71.43 72.05 72.95 73.82 73.68 73.20 72.77 73.34 72.93 72.51
40.90 40.87 40.84 42.54 38.51 34.45 29.74 36.34 43.84 47.50 51.23 52.16 54.61 59.72 61.07 62.33 63.41 64.52 65.15 66.49 67.92 69.31 69.41 68.88 68.43 68.33 68.83 69.43 69.83 70.03 70.10 70.30 70.34 69.30 69.26 69.04 69.02 68.91 69.99 71.76 72.20 72.62 73.49 73.93 73.04 73.24 73.47 72.90 73.22
40.98 38.38 41.01 40.50 36.37 36.95 35.35 40.04 47.79 48.45 50.32 52.97 54.64 58.46 61.32 62.66 63.73 64.71 65.11 65.03 66.51 68.28 69.02 68.98 68.42 68.43 69.17 69.73 69.91 70.08 70.62 70.51 70.20 69.96 69.86 69.71 69.16 69.41 69.94 71.23 72.24 72.74 73.65 74.05 73.47 73.01 73.47 73.06 73.04

GFSSGP_sfc_wetblb_063.txt.gz
Wetbulb
73.84 74.03 72.80 69.12 62.60 60.07 58.19 59.19 63.22 60.95 61.46 64.73 65.15 63.42 61.84 62.99 60.94 58.56 69.98 72.07 73.19 73.61 75.42 75.68 77.40 77.51 77.00 76.78 77.19 77.15 77.35 77.12 76.94 76.91 77.20 77.09 76.67 76.63 76.39 76.27 75.15 76.00 75.58 75.26 74.63 74.44 74.86 75.46 75.76
73.33 72.15 70.38 66.87 58.97 54.64 57.63 61.77 60.70 62.33 64.13 65.50 65.79 65.19 63.30 60.95 64.84 65.96 68.54 72.59 72.92 73.63 75.30 75.36 77.14 77.84 76.87 77.14 77.07 77.12 76.92 76.96 77.12 77.11 76.92 76.80 76.72 76.16 76.16 76.36 75.79 76.14 75.58 75.27 75.35 75.27 75.41 75.41 75.83
72.65 72.51 66.34 62.38 59.50 55.49 56.83 61.77 62.26 63.48 65.30 65.16 64.36 65.24 63.87 62.53 65.63 67.13 70.89 73.04 73.25 74.17 75.45 75.70 77.57 77.74 77.07 76.58 77.37 77.20 77.07 77.09 76.86 76.90 76.61 76.66 76.60 76.23 76.38 75.90 75.85 75.93 75.93 75.44 75.27 75.38 75.27 75.30 75.45
71.27 69.52 66.09 60.32 57.16 60.23 60.79 62.93 63.57 63.62 65.93 66.86 65.81 61.72 64.06 66.98 66.65 69.08 72.32 73.42 73.17 74.18 75.27 76.71 76.90 77.16 76.81 77.22 76.99 76.95 76.37 76.91 76.59 76.98 76.78 76.43 76.14 76.52 76.70 76.79 76.09 75.70 75.71 75.60 75.49 75.27 75.32 75.15 74.71
71.19 67.26 60.58 58.66 58.31 61.04 63.91 65.20 65.14 63.65 64.67 64.61 64.76 60.27 62.16 67.07 69.64 71.44 72.68 73.46 73.42 73.69 74.98 76.41 77.64 77.59 77.37 77.08 76.95 76.91 76.86 76.86 76.70 76.43 76.50 76.76 76.58 76.53 76.92 76.43 75.84 75.43 75.29 75.80 75.52 75.11 75.08 75.19 75.45
65.74 65.11 57.29 56.43 57.68 61.34 64.06 66.15 65.90 65.25 64.71 63.48 62.81 62.04 62.73 69.34 69.72 71.69 73.06 73.30 74.55 73.78 74.09 75.85 76.88 77.12 77.00 76.60 76.60 76.54 76.97 76.82 76.91 76.87 76.56 76.56 76.67 76.86 76.72 76.39 76.27 75.94 75.91 75.49 75.35 75.07 74.94 74.91 75.05
63.76 60.34 57.04 57.26 57.91 59.25 62.61 67.51 65.12 64.99 64.00 63.47 64.75 60.69 64.55 67.55 70.71 72.43 73.01 73.94 74.61 74.26 74.01 75.40 75.90 76.82 77.42 77.49 76.74 76.85 77.05 77.12 77.16 76.71 77.06 76.94 77.04 76.74 76.64 76.62 75.92 75.85 75.44 75.24 75.13 75.30 75.22 74.99 75.05
67.58 62.74 58.41 58.99 58.14 58.38 64.75 65.50 67.37 65.73 62.88 66.76 66.29 60.95 61.70 67.06 71.50 72.70 73.02 73.83 74.43 74.06 74.18 74.96 75.97 76.41 77.17 77.61 76.60 76.84 76.92 77.12 77.09 77.11 76.97 77.11 76.98 76.79 76.78 76.19 75.90 75.88 75.68 75.41 75.10 75.22 75.33 75.41 75.93
67.29 61.05 58.14 58.84 58.79 60.75 65.17 63.71 67.72 67.35 63.92 65.41 65.58 65.38 67.49 69.92 71.77 71.36 71.76 72.39 73.13 73.10 73.34 74.17 75.11 75.86 76.77 77.47 76.18 76.43 76.70 76.51 76.45 76.51 76.63 76.36 77.10 76.94 76.38 75.90 75.69 75.83 75.91 75.88 75.80 75.47 75.52 75.69 75.77
64.97 60.09 59.04 63.04 63.24 61.97 64.20 65.22 66.39 64.31 63.41 63.50 64.39 66.87 68.62 69.70 70.13 68.90 69.03 69.37 71.18 71.42 72.46 73.46 74.46 74.92 75.81 75.29 76.53 76.67 76.54 76.33 76.64 77.16 76.39 76.34 76.63 76.67 76.28 75.65 74.88 75.85 75.96 75.85 76.05 75.88 75.38 74.86 75.09
64.01 59.78 62.95 63.63 63.74 65.23 65.20 64.94 67.31 64.70 62.78 64.53 63.73 65.42 67.40 68.57 68.49 67.69 68.69 70.02 70.49 70.97 71.64 72.95 74.74 75.58 75.66 75.17 75.76 75.79 76.23 76.41 76.90 77.25 75.56 76.16 76.80 77.04 77.02 76.72 78.29 77.34 75.19 75.80 75.87 75.81 75.72 74.21 75.46
60.24 63.47 64.86 65.02 65.84 64.61 63.55 67.20 65.52 66.04 66.19 68.20 67.15 67.17 67.61 67.27 67.37 67.46 68.57 69.81 70.22 70.41 71.41 73.23 75.16 75.34 76.33 75.87 75.21 75.55 75.52 76.03 75.93 75.87 74.35 75.98 75.75 75.57 75.76 75.99 76.60 76.92 77.46 77.02 77.59 76.89 76.94 75.97 75.30
60.90 61.72 63.57 65.14 65.29 64.40 64.69 64.98 65.77 65.95 67.74 68.18 67.60 67.07 67.06 66.66 67.74 68.58 69.50 70.50 70.82 70.06 71.28 73.23 74.97 74.92 76.15 76.81 75.41 75.14 75.28 75.12 75.57 75.59 74.39 74.76 76.19 75.49 75.96 75.96 75.82 76.26 77.24 77.53 77.63 76.80 76.74 76.54 75.90
58.79 59.49 62.03 62.19 62.66 63.65 61.73 62.92 66.05 66.50 67.30 66.43 66.17 66.28 67.26 66.99 67.40 68.13 68.86 69.37 70.17 70.63 71.07 73.05 74.29 74.70 75.34 76.08 76.22 74.76 75.13 75.44 75.61 75.86 73.12 74.80 75.70 75.80 74.84 75.05 75.25 75.67 77.51 77.89 77.44 76.49 73.70 75.49 75.71
57.27 54.44 55.71 56.20 58.15 60.85 63.08 61.03 62.90 66.53 66.73 65.33 65.38 65.99 67.20 67.50 68.14 68.03 69.15 69.32 70.51 71.39 71.91 72.76 73.80 74.11 74.20 75.46 75.33 74.69 74.40 74.36 74.98 75.72 75.52 74.08 76.10 76.86 75.89 75.21 75.64 76.57 77.25 77.41 77.19 76.21 73.46 73.36 73.47
50.31 50.75 47.51 54.31 57.06 60.87 62.42 57.07 64.11 66.35 65.58 64.58 65.05 65.30 66.32 67.47 68.00 69.24 70.19 70.22 71.30 71.66 72.39 73.17 72.84 72.89 73.60 73.82 74.33 73.69 73.66 74.03 74.87 75.80 76.24 75.29 74.27 76.73 76.70 76.39 76.59 77.02 79.02 77.40 76.45 76.82 75.16 74.26 73.59
48.89 44.39 46.15 49.44 58.01 60.84 61.03 57.78 64.27 66.08 65.54 64.50 64.74 65.08 65.50 66.98 68.46 69.71 70.50 71.10 71.39 72.12 72.67 72.65 73.09 72.30 72.95 73.91 73.89 73.86 74.11 73.95 74.90 75.51 75.77 76.59 76.16 76.19 77.02 76.87 77.47 77.61 79.31 79.30 76.40 76.11 75.13 73.90 71.79
44.80 44.95 48.23 47.56 55.67 59.40 59.46 59.11 63.36 64.79 64.67 64.21 64.73 65.01 65.21 65.87 67.66 69.72 70.54 71.60 71.95 72.16 72.84 72.89 72.79 73.11 73.68 73.42 74.24 73.60 73.37 73.76 74.64 75.05 75.64 76.65 76.44 76.60 76.90 76.82 77.12 77.39 77.92 77.57 76.58 75.93 73.66 74.05 72.54
48.04 48.04 46.95 52.05 55.10 57.52 58.09 59.05 62.37 63.85 64.37 63.77 64.26 64.69 65.04 65.76 68.42 69.82 70.45 71.61 72.11 72.17 72.27 72.46 72.38 73.20 72.73 72.03 71.91 72.32 72.50 74.04 74.50 74.66 75.77 76.61 76.77 77.13 77.58 76.30 76.51 76.47 76.95 77.03 75.98 74.47 73.16 72.96 73.09
46.67 46.79 47.76 51.43 55.06 57.26 57.87 57.79 61.14 63.58 63.66 64.59 64.16 64.39 64.31 65.86 67.58 68.71 69.75 70.73 71.53 72.16 72.32 72.16 72.45 73.12 73.06 72.46 73.34 73.88 74.15 74.37 75.37 75.11 75.99 76.65 76.90 77.61 77.22 76.64 76.58 76.37 77.49 76.50 76.27 75.48 72.88 72.04 72.42
45.45 44.83 46.32 48.27 51.05 55.52 56.61 55.09 58.80 63.40 64.65 64.72 65.42 65.63 64.13 65.78 66.38 67.85 68.84 70.04 71.18 71.55 72.17 72.26 73.05 73.33 73.63 74.20 73.75 73.82 74.30 74.44 73.99 74.26 74.50 76.08 76.93 77.28 77.49 77.70 77.11 76.77 77.99 78.14 76.95 75.88 74.44 70.02 71.45
42.66 47.52 47.12 47.18 47.49 45.93 55.80 48.74 56.53 61.08 62.21 63.80 64.46 64.51 64.93 65.63 67.09 68.15 68.81 69.30 70.36 71.37 72.73 73.44 73.47 73.55 73.37 74.32 73.96 74.69 72.72 71.80 73.31 74.36 74.86 75.86 76.91 76.62 77.09 77.41 77.20 76.95 76.67 77.77 77.32 76.14 74.70 73.42 69.93
44.59 47.44 46.22 46.74 46.33 47.15 49.02 49.96 54.14 59.60 59.97 62.48 64.77 65.64 65.73 66.50 67.08 67.57 68.58 69.71 70.80 71.94 72.02 72.65 73.10 74.08 74.61 74.53 74.58 73.39 74.06 73.67 73.95 73.99 75.24 75.76 76.54 76.74 76.55 77.33 77.41 77.25 76.80 77.70 76.63 76.46 75.91 74.36 71.49
48.59 47.54 46.74 46.33 44.71 39.36 46.69 48.21 51.07 55.79 59.44 62.49 65.20 66.44 67.09 67.20 67.32 68.48 69.72 70.59 70.58 71.72 71.96 72.31 72.94 73.57 74.21 74.12 74.26 74.98 74.81 73.92 72.60 73.39 73.01 73.70 74.58 75.58 76.74 76.99 77.63 78.13 77.55 77.51 76.88 77.10 76.95 75.81 74.66
47.28 44.45 39.55 38.22 38.18 37.27 46.10 45.72 49.06 56.20 60.94 62.56 64.31 66.16 67.50 68.33 68.24 68.21 68.76 69.44 70.29 70.82 71.50 72.28 73.50 72.98 73.92 73.90 74.02 74.56 75.13 75.17 74.40 74.03 72.98 74.21 73.07 73.92 75.94 77.11 77.24 77.10 78.08 77.82 77.38 77.20 76.88 76.39 74.69
46.60 46.15 40.75 35.32 37.18 39.75 45.69 43.25 48.60 55.57 57.36 63.20 65.29 66.78 68.04 68.40 68.92 69.03 69.59 70.15 70.71 71.53 72.24 72.33 72.86 73.06 73.54 73.59 74.26 75.04 75.62 73.31 73.48 74.58 73.57 73.01 72.93 73.54 76.32 76.69 77.10 77.55 77.97 77.83 77.77 76.79 76.49 77.13 76.27
46.79 43.79 48.49 43.30 44.00 41.98 43.88 46.96 52.05 55.46 56.69 58.06 60.31 64.49 66.51 67.91 68.88 69.32 69.78 70.27 70.83 71.70 72.22 72.16 72.79 73.07 73.42 73.42 74.22 74.61 74.84 74.74 74.19 75.42 75.19 73.55 75.18 73.73 74.80 76.01 76.24 76.83 77.50 77.91 77.89 76.67 76.70 76.93 76.92
47.38 50.70 43.20 44.17 36.97 36.77 42.68 44.39 45.13 51.19 54.16 57.29 58.40 61.04 64.52 67.28 68.37 69.74 70.38 70.91 71.53 71.72 72.57 72.88 73.14 73.17 73.46 73.55 73.85 73.77 74.38 74.81 75.02 75.09 74.73 75.12 74.91 74.63 74.24 75.19 75.64 76.15 76.77 77.43 77.60 76.69 77.33 76.91 76.42
44.86 44.53 47.02 47.52 44.95 39.91 38.89 43.59 52.75 52.72 55.94 56.60 58.35 60.37 63.38 65.20 66.90 68.61 70.35 71.83 71.90 71.98 72.40 72.54 72.66 73.15 73.20 73.39 73.54 74.05 74.20 74.19 74.45 73.92 74.32 75.01 75.04 75.02 74.96 75.33 75.35 75.55 75.85 76.47 76.74 76.64 76.47 76.80 77.12
43.96 43.19 46.09 42.72 42.60 45.80 44.28 45.01 53.72 55.90 56.46 58.09 58.96 60.84 62.99 65.62 66.58 68.15 69.22 70.59 71.50 72.22 72.37 72.13 72.51 72.45 73.15 73.74 73.88 73.87 74.61 74.84 73.66 74.14 74.19 74.69 74.61 74.99 75.09 75.24 75.49 75.71 75.74 76.38 76.21 75.79 75.62 75.90 76.30

GFSSGP_sfc_wetblb_066.txt.gz
Wetbulb
74.81 75.46 75.27 71.26 62.24 63.20 60.21 61.12 65.84 63.94 64.21 67.09 67.69 65.40 64.83 66.31 63.83 61.20 73.04 74.50 75.13 75.15 76.17 75.79 77.83 77.65 77.21 77.40 77.29 77.24 77.30 76.98 77.05 76.83 76.78 76.75 76.69 76.58 76.56 75.53 75.72 75.76 75.42 74.84 74.73 75.29 75.89 75.70 75.87
73.32 73.87 71.02 67.12 61.32 58.41 59.77 64.04 63.04 65.09 65.84 66.51 67.12 66.91 64.29 64.04 67.95 69.53 71.20 74.51 75.42 75.36 75.92 75.28 77.76 77.47 77.17 77.36 77.24 77.37 77.29 77.40 77.30 76.94 76.97 76.83 76.66 76.48 76.43 75.78 76.31 75.99 75.54 75.78 75.45 75.42 75.51 76.02 76.06
74.25 73.10 66.81 62.97 60.86 60.02 59.42 63.98 65.15 66.41 67.19 66.07 66.07 66.79 66.14 65.07 68.50 70.53 74.23 74.90 75.59 75.45 75.49 76.71 77.57 77.60 77.27 77.30 77.45 77.32 77.16 77.05 76.83 77.10 77.02 76.91 76.56 76.40 75.89 76.19 76.28 76.17 75.54 75.34 75.42 75.65 75.95 76.03 75.83
72.56 71.75 69.82 62.28 59.90 63.08 63.51 65.83 66.73 65.88 67.57 68.20 67.82 62.08 65.51 69.81 69.94 72.53 74.66 74.71 74.81 74.94 75.23 77.21 77.35 77.02 77.07 77.20 77.17 77.29 77.02 77.06 76.74 76.96 76.59 76.60 76.68 77.11 76.48 76.28 76.12 76.20 75.95 75.56 75.45 75.08 75.26 74.87 75.12
73.10 70.45 62.71 61.70 61.15 63.88 66.40 67.84 67.69 66.61 67.24 67.12 67.80 64.47 64.03 67.86 71.52 73.90 74.09 74.24 74.20 74.03 75.23 76.69 78.26 77.49 77.07 77.19 77.15 76.62 77.04 76.98 76.92 76.97 76.89 76.57 76.94 77.00 76.20 75.76 75.73 75.64 75.92 75.65 75.15 75.15 75.30 75.20 75.17
68.09 69.02 61.42 60.04 61.27 64.40 67.05 68.24 68.02 67.30 67.56 67.39 66.29 65.27 65.19 70.54 71.74 73.32 74.26 73.95 73.74 73.67 74.85 75.88 77.74 77.44 77.12 77.01 77.25 77.24 77.19 77.39 76.82 77.04 76.98 76.93 76.68 76.41 76.75 76.56 75.98 76.01 75.70 75.62 75.23 75.01 75.00 75.29 75.51
66.27 64.07 60.73 60.83 61.23 62.81 65.25 69.22 67.86 67.50 67.04 66.36 68.87 64.37 66.77 69.21 72.51 73.87 74.14 73.80 73.43 73.93 75.04 75.86 76.88 77.76 77.04 76.77 76.88 77.38 77.26 77.19 77.00 77.32 77.04 77.12 76.53 76.98 77.08 76.39 75.98 75.92 75.42 75.34 75.37 75.23 74.81 74.77 75.48
68.64 65.61 61.39 62.20 61.34 61.94 66.45 68.50 69.46 68.13 66.34 69.98 69.51 64.87 64.42 69.26 71.32 73.59 74.03 73.52 73.16 73.62 75.03 75.38 76.24 77.32 77.80 77.03 77.10 77.33 77.42 77.22 77.31 77.31 77.31 77.27 77.47 77.22 76.42 76.82 75.87 75.50 75.60 75.30 75.28 75.12 75.20 75.64 75.73
70.15 63.44 60.69 61.22 61.78 64.08 68.03 67.22 69.72 69.21 67.10 66.67 68.76 68.45 70.48 71.58 71.68 70.87 71.63 72.25 72.61 72.67 74.36 74.98 75.06 77.25 77.91 76.42 77.35 77.06 77.18 77.11 76.98 77.00 76.99 77.48 77.00 77.01 77.18 76.05 75.55 75.53 75.61 75.78 75.50 75.31 75.28 76.09 76.17
65.97 63.57 61.75 65.24 65.31 64.69 67.16 67.73 68.60 67.33 66.41 65.37 66.89 69.62 70.84 71.09 70.32 70.17 70.45 70.67 71.20 71.40 73.04 74.21 74.57 75.95 77.31 75.27 76.81 77.03 76.60 76.47 77.01 77.42 77.45 77.36 77.47 77.37 76.65 76.27 75.76 75.83 75.60 76.03 75.70 75.50 75.27 75.98 75.26
65.02 62.00 64.18 65.65 66.35 67.46 66.64 67.29 69.65 66.77 65.48 67.39 66.85 68.20 69.80 70.15 71.02 70.85 71.00 71.44 71.37 71.99 72.67 73.56 74.68 75.47 75.99 75.76 76.06 76.03 76.46 76.39 77.04 77.57 77.54 77.51 76.99 76.42 76.94 75.86 76.28 76.17 76.56 76.12 76.58 76.19 75.13 75.11 75.29
61.43 64.08 65.58 66.71 66.98 66.57 66.15 68.73 67.49 67.94 68.67 70.85 70.16 69.93 70.00 69.87 69.99 70.52 70.64 71.33 71.52 71.59 72.33 73.71 75.02 75.63 76.00 75.70 75.57 75.85 75.62 76.28 75.98 76.71 77.32 77.19 76.01 76.42 76.27 76.43 76.06 77.40 76.44 76.87 77.52 76.53 76.67 76.43 76.32
61.78 62.43 64.15 67.78 67.29 66.10 66.61 67.06 67.14 67.86 70.07 71.26 70.74 69.81 69.42 69.78 70.02 70.88 71.57 72.08 71.65 71.07 72.10 73.54 75.16 75.75 76.62 76.35 75.57 75.68 75.99 76.35 76.79 76.65 76.69 77.73 77.15 76.60 76.39 76.81 76.56 77.25 77.45 76.45 76.10 76.66 76.92 76.40 75.42
58.34 60.72 62.51 65.35 65.60 65.93 64.66 65.71 67.20 68.62 70.72 70.09 69.61 68.95 69.61 69.69 69.87 70.53 70.99 71.33 71.22 71.15 71.77 73.58 74.63 75.57 76.84 76.27 77.00 76.09 76.22 76.61 76.66 76.55 75.97 77.16 78.03 77.82 76.78 76.79 76.51 76.59 77.57 76.41 77.22 76.75 74.78 77.04 76.19
57.98 55.99 58.57 59.75 62.24 63.27 65.96 63.34 64.48 69.61 70.27 69.02 68.91 69.02 69.32 69.80 70.34 69.94 70.99 71.22 71.51 71.36 71.96 73.19 74.43 75.26 76.39 76.57 76.53 75.88 75.86 75.65 75.98 76.31 76.62 77.00 77.86 77.65 78.05 76.54 77.51 77.10 77.57 76.87 76.16 76.85 73.37 74.87 74.66
53.17 53.78 51.92 57.63 58.08 62.02 64.85 59.42 66.00 69.65 69.18 68.22 68.52 68.59 68.94 69.63 70.01 70.59 71.33 71.75 72.19 71.65 71.58 73.12 73.54 74.27 75.50 76.32 76.08 75.19 75.23 75.86 76.51 76.80 77.11 76.95 77.80 79.15 78.32 77.18 77.34 77.01 77.61 76.03 75.54 75.68 73.68 73.82 73.59
51.11 47.65 49.42 53.32 58.62 61.54 63.57 61.28 66.80 69.22 68.81 68.03 68.55 68.56 68.74 69.29 69.91 70.66 71.41 71.77 71.88 72.05 72.48 72.73 73.66 73.35 74.26 75.77 75.66 75.37 76.10 75.57 76.02 76.90 77.37 78.56 77.79 77.88 78.20 77.89 78.25 77.02 76.43 75.59 75.46 74.87 75.33 74.02 73.28
47.54 47.60 50.44 51.11 56.55 60.61 61.95 62.31 66.18 67.80 68.05 67.94 68.33 68.47 68.69 68.97 69.48 70.75 71.35 72.10 72.14 72.45 73.46 73.67 73.65 74.01 74.71 74.38 75.13 74.58 74.79 75.39 76.66 76.66 77.11 78.53 78.34 78.21 78.62 78.64 77.54 77.00 75.89 75.54 75.90 76.38 75.24 74.41 72.59
49.96 49.95 49.18 52.93 55.63 60.20 61.04 62.34 64.82 66.91 67.37 67.66 68.20 68.47 68.33 69.12 70.85 71.53 71.76 72.08 71.98 72.43 73.01 73.53 73.46 74.64 73.97 72.99 72.20 73.01 73.48 75.08 75.66 76.29 77.57 78.30 78.69 78.53 78.92 77.73 77.30 76.91 75.80 76.27 76.39 75.47 74.79 72.74 74.17
49.84 48.86 49.66 52.33 55.64 56.51 61.08 61.53 63.94 66.41 66.48 67.69 68.07 68.37 68.58 68.89 70.31 71.09 71.68 71.99 71.92 71.82 72.77 73.58 73.81 74.50 74.42 72.92 73.21 73.90 74.93 75.50 76.29 76.85 77.74 78.67 78.64 78.78 78.56 78.27 78.65 77.06 76.17 76.12 75.29 76.10 73.50 73.65 73.71
48.80 48.34 49.00 49.79 53.78 56.51 58.40 59.20 61.70 64.53 67.13 67.51 68.51 69.54 69.62 68.89 69.07 70.46 71.10 71.46 72.29 71.98 72.36 73.37 74.51 74.89 74.91 75.48 74.00 75.39 76.04 76.28 75.82 76.13 76.75 77.82 78.49 78.46 78.88 77.89 77.92 77.28 76.43 74.94 75.89 75.89 75.42 70.92 73.20
46.74 50.07 49.36 48.95 50.10 49.05 56.43 51.79 59.41 62.49 63.98 65.84 67.27 68.42 69.22 69.47 69.76 70.77 71.11 71.32 72.17 72.78 73.40 73.93 74.81 75.23 74.93 75.30 75.56 77.06 74.19 73.33 74.17 75.39 75.51 76.32 78.39 78.24 78.33 78.85 78.77 79.14 79.73 76.49 75.98 75.83 75.39 74.96 71.00
47.94 51.01 49.63 49.14 47.94 48.58 52.14 51.52 56.59 61.94 61.24 64.63 66.47 67.78 69.07 69.70 70.06 70.06 71.21 71.84 72.63 73.38 73.57 74.35 74.96 75.46 76.60 76.21 76.35 75.00 75.35 73.79 74.33 75.07 77.25 77.91 78.55 78.37 77.82 78.46 78.81 78.50 77.91 78.49 76.99 76.98 76.71 74.78 73.16
51.87 50.15 49.45 49.21 47.79 42.93 48.23 51.12 53.36 57.48 61.24 64.42 66.89 67.82 68.63 69.86 70.24 70.98 71.66 72.63 72.62 73.46 73.61 74.08 75.17 76.56 76.76 75.99 75.51 76.67 77.00 76.39 74.58 75.47 74.74 74.91 75.61 76.82 78.15 77.95 78.64 79.01 77.47 77.35 77.65 77.62 77.59 77.08 75.83
50.76 48.18 43.62 41.63 41.54 41.04 47.96 47.16 52.15 59.27 62.02 63.90 65.94 67.50 68.99 70.07 70.41 70.67 70.95 71.33 72.24 72.65 73.17 73.59 76.19 76.47 77.04 75.54 75.55 75.24 76.19 76.62 76.35 76.12 74.80 76.60 74.33 74.66 76.71 78.46 78.41 77.85 78.94 78.27 78.91 78.69 77.68 77.48 76.24
49.77 48.57 44.89 40.36 41.20 43.22 48.21 44.27 48.43 57.52 60.75 64.23 65.87 67.89 69.32 70.20 70.75 70.81 71.42 71.73 72.00 72.73 73.29 74.16 76.20 76.22 76.09 76.07 77.20 77.76 77.65 74.80 75.41 76.29 75.28 74.93 74.43 74.80 77.03 77.89 78.07 78.30 78.37 78.56 79.02 77.63 76.99 77.95 76.83
49.96 46.56 51.02 46.82 48.51 45.79 47.38 48.74 52.18 55.26 57.75 60.49 62.88 65.57 67.26 69.53 70.65 71.10 71.66 72.24 72.53 72.73 74.26 75.40 76.48 77.17 76.81 75.54 77.65 77.82 77.65 77.16 75.69 78.63 77.73 75.54 77.28 75.54 76.51 76.94 77.73 77.82 77.89 78.62 78.96 77.30 78.26 77.92 77.95
50.84 53.03 45.94 47.19 41.26 41.18 46.02 47.70 47.33 51.75 55.39 58.23 59.99 61.83 65.74 68.66 70.30 71.44 72.20 72.49 73.16 73.47 73.79 74.47 76.08 76.90 76.84 75.75 76.17 75.97 76.91 76.91 77.65 77.31 77.63 77.83 77.35 77.05 76.51 76.78 76.66 76.83 77.48 78.04 78.77 77.73 78.36 78.66 77.46
48.47 47.51 49.35 49.57 47.39 43.27 42.75 46.69 54.40 54.32 55.43 57.46 59.28 61.54 63.59 67.07 69.45 70.93 72.32 73.20 73.60 74.04 74.01 73.87 74.63 75.09 75.36 75.95 76.83 77.49 76.46 76.29 76.73 76.14 76.73 77.28 77.59 77.40 77.38 76.74 76.33 76.19 76.87 77.69 78.08 77.91 77.38 77.29 78.38
46.43 48.50 49.55 45.69 45.00 47.16 47.19 48.43 55.79 56.56 57.02 57.40 58.66 61.45 63.18 65.14 67.19 69.80 71.35 72.93 73.33 73.53 73.77 73.88 74.17 74.33 75.01 76.54 77.59 76.91 77.18 77.37 75.89 76.25 76.62 77.30 77.06 77.79 77.54 77.54 77.16 76.30 76.29 77.44 77.47 77.05 76.44 76.55 76.84

GFSSGP_sfc_wetblb_069.txt.gz
Wetbulb
74.95 75.41 74.88 72.28 62.49 63.22 58.75 61.09 64.90 64.40 64.80 67.71 68.81 65.92 65.69 65.97 63.78 61.35 73.59 74.11 74.49 74.43 75.54 76.33 77.09 76.92 76.91 76.94 76.84 76.68 76.77 76.82 77.07 76.93 76.61 76.37 76.75 76.62 76.23 75.38 76.20 75.87 75.44 75.16 75.74 75.91 76.02 76.13 76.21
75.19 74.50 74.51 68.16 61.50 56.44 57.84 62.79 61.72 65.21 67.58 69.32 68.87 67.99 66.74 65.07 70.22 70.16 71.19 74.30 74.71 75.03 75.74 75.42 77.24 77.79 77.42 77.54 77.52 77.40 77.14 77.11 77.02 77.18 77.09 76.92 76.66 76.45 75.27 75.89 76.21 75.75 76.33 75.72 75.38 75.75 76.21 75.97 76.34
75.49 74.88 67.33 65.77 63.83 55.98 57.84 62.59 65.39 66.90 68.02 68.31 66.51 68.43 68.22 66.59 70.18 71.47 74.10 74.56 75.50 74.76 74.83 77.35 77.42 77.87 77.56 77.25 77.26 77.53 77.31 77.07 76.95 77.07 76.86 76.72 76.39 76.52 76.49 76.35 76.07 75.61 75.80 76.00 75.83 75.96 76.05 75.83 75.55
72.71 72.19 70.27 62.84 59.69 61.43 62.94 64.39 67.34 66.69 68.11 68.90 66.94 64.95 68.99 72.59 70.80 72.53 74.96 74.51 74.83 74.42 75.74 77.44 77.83 77.48 77.63 77.70 77.48 77.29 76.97 76.81 76.99 76.77 76.89 76.78 76.95 75.75 76.11 76.19 76.49 75.99 75.86 76.02 75.77 75.47 75.36 75.66 75.80
73.04 69.24 63.00 63.07 59.78 64.44 66.00 66.80 68.05 65.93 67.43 67.50 67.51 64.52 65.49 71.10 73.84 74.03 74.41 74.83 74.02 73.70 75.78 76.97 77.94 77.47 77.58 77.44 77.21 77.24 77.04 76.98 76.82 76.78 76.91 76.76 76.79 76.58 76.11 75.91 75.94 75.83 75.99 75.55 75.58 75.55 75.18 75.49 75.36
66.35 69.21 62.44 59.76 59.26 64.11 66.46 67.97 67.65 66.64 67.99 68.32 68.20 66.49 66.94 72.08 72.90 73.95 74.71 74.15 73.35 73.50 75.42 76.17 77.62 77.39 77.41 77.40 77.11 76.99 77.03 77.12 76.95 76.95 76.97 77.26 76.88 76.83 76.38 76.52 76.27 75.94 76.02 75.60 75.38 74.80 75.46 75.72 75.47
66.37 64.43 61.01 61.48 61.00 62.26 65.05 69.53 66.94 66.69 67.27 67.44 70.09 66.65 68.72 70.28 73.38 74.03 74.16 73.97 73.11 73.81 74.93 75.95 77.05 77.41 77.06 77.41 76.97 77.44 77.57 77.29 77.06 77.27 77.17 76.41 76.16 76.82 76.69 76.30 75.99 75.82 75.54 75.31 75.49 75.02 74.96 75.30 75.77
68.58 66.58 60.34 61.94 60.16 61.35 68.60 68.28 69.22 68.27 67.54 71.26 71.12 65.42 66.09 71.09 73.77 73.34 73.52 72.99 72.66 74.31 74.38 75.72 76.68 75.93 76.26 76.87 76.56 77.26 77.34 77.12 76.95 77.37 77.55 77.05 77.27 76.69 76.24 76.51 75.96 75.86 75.58 75.41 75.39 75.30 75.44 75.88 75.91
68.86 63.52 60.99 59.02 61.53 62.45 69.07 67.69 70.48 71.36 68.45 68.98 69.34 70.66 71.62 72.89 73.66 71.34 71.50 71.71 71.88 73.27 74.09 74.92 75.26 76.53 76.14 76.08 77.34 77.17 77.16 77.55 77.48 77.10 77.25 77.75 76.29 76.91 76.30 76.23 75.64 75.95 75.84 75.44 75.33 75.63 76.30 76.91 76.27
65.56 63.93 60.04 64.64 65.73 65.26 68.23 67.70 69.77 68.49 68.20 66.99 68.81 71.75 72.09 72.33 71.86 69.83 70.40 70.08 70.44 72.15 73.26 73.99 75.24 76.60 75.76 74.96 77.34 77.71 76.75 76.88 77.49 77.16 78.31 75.29 77.94 77.01 75.68 75.93 75.43 75.80 75.98 75.84 75.65 75.73 76.27 76.35 74.59
64.80 61.17 65.65 65.82 67.55 68.05 67.93 67.84 69.76 67.49 65.96 68.23 68.34 69.83 70.41 70.04 70.52 70.97 70.80 70.94 70.62 72.20 72.84 73.36 75.90 75.95 75.97 75.99 76.17 75.45 76.11 76.36 77.06 77.77 77.66 77.73 75.87 76.19 75.50 75.51 75.96 75.94 76.30 75.21 75.56 75.38 74.83 72.76 74.23
62.30 64.89 65.87 65.68 67.90 67.12 66.50 68.59 68.06 68.20 65.19 70.94 71.26 71.27 70.13 69.95 70.63 71.01 70.61 71.16 70.84 71.75 72.62 73.66 74.86 76.50 76.42 75.25 75.44 75.12 75.33 75.62 75.48 76.65 77.37 76.93 76.62 77.00 75.59 75.01 76.81 75.38 76.82 75.01 73.72 75.83 76.26 75.60 75.32
62.36 64.13 64.01 66.64 68.11 67.86 68.21 67.26 65.97 67.08 70.67 71.91 71.65 71.14 69.98 70.58 71.04 71.57 71.70 71.91 71.67 71.37 72.49 73.93 75.07 75.67 76.45 76.56 75.92 76.14 75.13 75.46 75.34 76.46 77.20 76.91 75.19 77.65 75.60 77.49 76.81 75.50 75.85 75.61 75.64 75.66 73.84 73.30 73.97
61.11 63.12 63.48 65.14 67.85 66.44 65.79 66.77 68.18 68.67 71.46 71.05 70.63 70.39 70.80 70.78 71.14 71.65 71.71 71.48 71.36 71.63 72.38 74.10 74.66 75.60 76.71 76.50 77.13 76.72 75.77 75.27 76.90 76.26 76.93 77.91 76.72 77.81 77.00 76.89 76.70 76.08 72.88 74.00 76.00 76.40 75.66 75.29 74.12
59.49 57.00 59.78 62.01 66.63 65.83 67.27 63.45 65.18 69.67 70.98 70.18 70.12 70.44 70.93 70.94 71.44 71.15 71.80 71.88 71.65 71.44 72.64 73.73 74.40 75.34 76.43 76.90 76.41 76.13 75.84 76.01 76.22 76.59 77.57 77.83 78.50 77.93 79.57 77.50 77.10 75.20 77.32 77.61 76.75 76.20 74.71 75.16 72.02
54.91 56.52 54.46 59.21 63.52 65.25 65.51 59.94 65.57 70.94 69.85 69.22 69.87 69.78 70.20 70.72 70.98 71.85 72.30 72.58 72.26 71.25 72.20 73.84 73.68 74.59 75.94 76.77 76.56 75.62 75.42 75.55 75.49 75.83 76.76 77.69 78.36 78.15 78.64 77.00 76.24 76.39 78.36 73.78 75.94 75.86 70.53 73.83 70.75
52.36 50.10 52.73 55.79 62.15 62.30 62.44 60.58 60.70 70.35 69.67 69.00 69.58 69.54 69.88 70.34 70.74 71.84 72.33 72.76 72.21 71.53 72.24 73.14 73.84 73.89 75.36 76.93 76.39 76.09 77.57 76.52 76.59 77.32 76.61 78.26 78.19 77.94 78.21 76.57 76.78 77.98 76.78 75.69 75.07 73.18 72.32 72.50 72.85
48.76 48.75 51.68 53.23 57.87 59.20 59.92 61.19 60.41 68.52 68.89 68.88 69.54 69.60 69.42 69.74 70.47 71.64 72.17 72.89 72.43 71.94 72.37 73.31 73.37 76.56 77.22 76.16 76.78 75.57 75.61 75.93 76.59 76.34 76.89 78.86 78.61 78.19 78.66 77.20 77.58 77.53 75.39 74.79 72.59 75.45 74.54 74.17 70.38
52.26 51.33 50.05 54.04 57.65 58.13 57.97 61.90 63.06 67.84 68.26 68.49 69.15 69.41 68.93 70.14 71.52 72.12 72.17 72.71 72.16 72.11 72.06 73.06 74.63 77.94 75.18 73.85 73.59 73.97 73.27 75.12 77.26 75.95 78.22 78.53 77.99 77.83 78.79 74.97 77.32 78.48 77.33 76.26 76.27 74.90 73.66 72.68 73.26
51.70 50.72 50.88 52.84 56.21 56.64 58.71 59.05 63.60 67.05 67.43 68.55 68.98 69.46 69.68 70.21 70.94 71.40 71.72 72.20 71.98 71.78 72.49 74.48 75.61 77.62 75.82 74.36 75.16 75.41 75.71 74.80 75.46 75.93 78.10 78.20 78.03 78.50 78.02 75.61 77.25 77.39 76.30 76.46 75.90 76.41 71.46 72.59 72.50
51.04 50.43 50.67 50.96 53.79 56.32 55.87 58.22 61.97 64.70 67.84 68.64 69.85 70.65 70.80 69.80 70.61 70.83 71.23 71.72 72.06 71.70 72.86 74.87 76.54 77.37 76.61 76.66 75.65 75.81 76.63 77.21 74.73 76.38 76.16 77.61 78.03 78.29 79.04 78.21 78.20 77.85 77.15 75.27 76.20 76.11 77.29 72.39 72.08
49.11 52.36 51.95 50.88 50.62 49.33 55.89 49.90 59.85 61.04 65.15 66.49 68.07 69.49 70.25 70.62 70.85 71.52 71.57 71.80 72.02 72.16 72.68 75.65 76.31 77.36 76.79 77.80 74.79 76.46 73.82 72.80 74.11 75.66 75.58 76.76 78.20 78.08 78.28 78.42 78.25 78.25 76.68 77.64 76.87 75.88 77.07 76.51 71.39
50.20 53.23 51.64 50.92 49.88 50.60 52.57 50.92 56.48 62.66 60.98 65.04 67.07 68.62 70.03 71.16 70.72 71.11 72.03 72.51 72.86 72.93 72.49 73.64 76.72 77.36 77.33 77.02 77.17 75.19 75.58 73.92 74.33 74.40 79.11 80.65 80.15 78.40 77.48 78.44 78.37 77.39 76.88 77.76 78.01 77.53 78.06 74.75 73.82
53.65 51.50 51.59 51.46 49.32 44.58 48.84 50.42 52.56 57.34 61.99 63.60 66.81 68.17 69.78 70.88 71.27 71.51 72.59 73.36 73.14 73.67 73.41 73.05 76.25 77.36 77.94 77.46 76.74 77.90 76.59 76.81 73.72 75.08 75.04 74.82 75.97 76.81 78.36 77.73 78.72 79.92 78.27 78.10 77.48 78.11 77.60 77.86 76.79
52.30 50.27 44.67 43.58 43.69 42.98 49.85 47.60 52.51 58.22 61.73 64.16 65.97 67.77 69.40 70.69 71.53 71.45 71.56 72.12 73.00 73.32 74.03 74.52 76.00 77.10 77.56 77.77 76.34 77.24 78.56 78.26 78.65 77.95 74.71 75.75 73.85 74.36 78.95 80.02 79.30 78.49 79.03 78.95 78.75 78.61 77.78 77.32 76.34
50.91 50.23 45.93 41.15 42.84 44.75 49.82 46.22 49.20 57.18 61.18 63.50 66.34 68.16 69.43 69.97 71.27 71.76 72.16 72.26 73.05 74.02 75.37 75.90 76.42 76.97 77.89 77.45 77.47 77.08 78.19 74.84 75.16 77.61 74.91 74.03 73.63 74.87 80.87 78.69 78.19 78.28 78.69 78.37 79.64 77.58 77.10 79.26 76.49
50.97 48.37 52.20 48.13 50.42 47.16 48.56 50.36 53.58 55.17 56.61 60.47 63.52 66.71 67.44 69.48 70.32 71.61 72.49 72.81 72.94 74.22 75.68 76.19 77.04 77.75 77.97 77.26 77.78 78.42 77.94 76.14 75.14 78.10 79.10 76.38 78.02 75.66 77.15 77.56 78.47 78.62 78.66 78.95 80.50 77.03 78.25 77.64 78.13
51.50 54.03 47.56 48.03 42.65 42.92 47.97 49.45 48.91 52.77 54.00 57.95 61.82 64.56 66.31 69.41 70.28 71.07 71.94 72.79 73.37 73.86 75.01 76.64 77.32 78.02 78.31 77.78 77.92 77.89 78.21 78.23 77.48 78.46 79.24 78.14 79.71 79.26 77.55 77.78 77.16 77.99 78.92 79.07 80.72 78.89 79.59 79.17 77.35
48.82 48.83 50.20 50.51 48.25 44.27 44.39 48.44 55.98 55.27 55.38 56.16 59.52 63.82 65.66 68.07 69.55 70.89 71.64 72.87 73.86 74.31 74.32 74.84 76.42 77.85 77.59 77.64 78.19 77.81 77.81 77.91 77.35 77.92 78.94 79.44 80.15 80.58 79.52 78.92 77.86 77.74 77.80 79.03 80.28 80.15 78.91 79.24 79.25
48.82 48.98 49.77 46.74 46.32 48.07 48.20 49.26 57.75 57.52 57.36 57.64 58.60 60.61 63.14 65.88 68.72 70.50 71.50 72.83 73.23 73.89 74.30 74.50 74.96 75.12 77.16 77.67 78.28 77.90 78.41 78.15 77.50 76.55 78.41 79.64 79.89 80.56 80.78 79.86 79.20 77.79 77.80 79.39 79.08 77.38 77.81 77.06 77.28

GFSSGP_sfc_wetblb_072.txt.gz
Wetbulb
74.38 74.25 73.39 70.44 62.76 61.87 56.93 59.40 65.14 63.14 63.83 67.70 68.24 66.57 64.65 66.49 63.73 60.60 72.31 73.75 74.29 73.90 75.02 75.81 76.96 76.82 76.76 76.96 76.92 76.72 76.27 77.00 77.08 77.00 76.60 76.36 76.63 76.54 75.65 76.38 76.06 75.54 75.27 76.12 75.88 76.23 76.21 76.48 77.26
74.61 73.39 72.41 68.21 59.55 51.83 56.20 61.92 61.97 63.93 66.93 68.20 68.44 67.36 66.34 64.63 69.07 69.45 70.75 74.11 74.19 74.37 74.97 75.14 76.95 77.52 77.45 77.72 77.15 77.11 76.88 76.71 76.62 76.68 76.94 76.55 76.65 75.76 76.50 76.37 75.90 76.59 76.04 75.60 76.18 76.23 76.07 76.74 76.77
74.59 73.99 68.24 64.52 61.18 54.98 57.01 62.88 64.80 66.60 68.26 67.78 67.18 69.24 67.16 65.53 69.21 70.69 73.26 73.86 74.10 74.17 74.85 75.54 77.87 78.23 77.44 77.72 77.65 77.49 77.43 77.05 77.08 76.92 76.40 76.35 76.64 76.39 76.51 76.23 75.96 76.18 76.35 75.74 76.09 76.18 75.85 75.95 76.16
72.22 71.33 69.44 62.20 58.02 59.81 61.46 63.52 66.23 66.23 67.36 68.61 67.69 65.08 68.78 71.45 70.38 72.42 73.95 73.91 73.07 74.32 75.16 76.98 78.35 78.20 77.81 78.06 77.89 77.41 77.17 77.06 76.94 76.78 76.75 76.79 76.32 76.32 76.38 76.24 76.16 76.29 76.26 76.01 75.80 75.99 75.88 76.10 75.60
71.87 68.60 62.61 61.03 57.22 60.81 64.59 66.49 66.95 65.71 65.92 66.71 67.82 64.77 65.71 70.39 73.08 73.58 73.34 73.53 71.93 73.99 74.84 76.14 78.21 78.16 77.90 77.76 77.60 77.39 77.32 77.17 76.87 76.99 76.94 76.99 76.87 76.60 76.21 76.10 76.32 76.43 76.13 75.88 75.71 75.43 75.60 75.55 75.26
66.24 68.00 60.92 56.35 57.14 62.39 65.96 67.78 67.55 66.26 66.97 66.86 66.15 65.63 66.01 71.64 71.76 72.71 73.40 72.47 73.51 73.08 74.20 75.51 77.53 77.98 77.65 77.51 77.45 77.30 77.25 77.12 76.96 77.44 77.05 77.49 76.84 76.57 76.57 76.27 76.07 76.21 76.15 75.85 75.37 76.32 76.42 75.71 75.43
65.14 64.04 60.67 59.28 59.09 61.58 65.57 68.95 66.86 66.28 66.60 66.47 68.60 64.76 67.39 69.56 72.48 73.42 73.34 71.84 72.34 73.95 73.76 75.16 76.18 77.24 77.96 78.10 77.15 77.13 77.12 77.16 77.22 77.51 77.46 77.21 77.06 76.95 76.62 76.46 76.13 75.62 75.84 75.49 75.37 75.46 75.68 75.63 75.46
67.20 64.90 61.69 60.37 59.66 59.51 64.95 68.42 68.23 67.83 66.36 71.25 71.02 63.80 64.32 69.21 72.83 72.84 72.52 71.63 71.98 73.38 73.83 75.81 76.80 75.92 76.60 76.10 77.71 77.38 77.32 77.11 77.27 77.30 76.76 76.64 77.31 76.66 76.04 77.24 77.05 75.90 75.84 75.56 75.23 75.24 75.46 76.84 76.80
69.09 60.63 59.98 59.82 59.86 61.44 64.51 65.97 70.20 71.33 68.69 69.32 70.53 69.06 70.40 71.67 72.50 71.43 70.50 70.53 72.35 72.34 73.52 74.11 74.13 75.27 76.14 76.21 76.74 77.30 77.33 77.36 77.42 77.57 77.37 77.38 76.01 75.71 75.32 76.85 76.41 76.01 75.72 75.56 75.53 75.76 76.54 76.84 76.02
64.70 60.50 61.04 64.28 64.81 60.57 62.77 64.01 67.68 67.72 67.43 66.99 69.00 70.66 71.56 71.47 71.41 70.02 69.00 69.15 70.58 71.50 72.30 73.22 74.03 74.00 75.04 75.23 76.77 77.07 76.69 76.25 76.71 77.24 76.45 77.71 74.28 77.60 74.84 75.70 76.40 76.11 76.09 75.92 76.29 75.99 75.08 74.51 72.65
64.73 60.25 63.69 64.48 66.80 64.80 65.65 64.62 68.30 66.80 64.85 66.90 67.51 68.87 70.29 70.24 70.36 69.89 69.22 69.49 71.04 71.63 72.15 73.45 75.76 76.63 74.24 75.08 76.88 76.58 76.11 76.09 76.44 77.44 73.59 77.24 77.14 74.54 75.43 75.05 75.07 74.65 76.35 74.63 74.86 75.00 73.66 72.43 72.39
61.85 64.51 63.80 65.57 66.95 67.48 65.47 68.81 65.82 66.58 65.04 67.99 70.46 70.74 70.26 69.24 69.16 69.16 68.86 69.22 71.07 71.39 71.65 74.28 73.55 76.90 74.42 75.51 76.14 75.21 73.91 76.57 75.67 77.16 78.92 78.98 74.91 73.04 73.30 74.06 75.10 74.36 76.54 73.30 71.95 72.49 73.36 72.69 73.58
61.61 63.53 64.84 65.84 65.30 67.96 68.26 64.83 64.48 64.48 65.15 66.81 71.03 70.56 69.73 69.69 69.41 70.34 70.03 70.10 71.22 71.35 72.71 74.05 75.58 75.88 76.74 78.93 73.61 74.78 74.90 75.78 76.01 76.59 78.79 73.35 75.79 73.27 73.15 75.63 73.08 72.85 74.08 73.95 72.62 74.63 73.07 73.41 72.37
62.12 62.59 63.12 64.58 63.87 67.60 65.39 66.32 66.45 66.68 67.82 69.75 69.85 69.10 69.86 69.74 70.02 71.17 69.53 69.95 70.26 71.49 72.99 74.21 74.13 77.43 78.19 79.23 79.33 73.44 76.29 76.13 74.52 77.28 77.84 75.99 77.11 74.46 75.89 76.62 72.86 73.28 72.21 73.02 74.88 74.98 71.69 73.20 74.08
58.99 57.51 59.03 61.47 62.94 66.27 66.71 63.67 64.51 68.14 69.92 68.58 69.09 68.63 69.18 69.89 70.60 70.43 70.63 70.74 70.82 71.91 73.55 73.73 73.94 75.39 77.27 78.90 79.51 78.76 73.61 72.63 75.93 76.02 79.27 75.18 76.73 78.11 76.69 77.02 72.52 72.71 73.74 74.92 77.10 76.46 73.85 72.40 72.61
54.84 55.62 53.29 58.12 61.28 64.36 65.99 59.55 65.28 68.23 66.98 67.90 68.80 68.93 69.61 69.76 70.17 71.39 71.88 71.55 71.47 71.54 73.13 73.63 73.42 74.04 76.19 78.77 78.69 78.27 77.58 75.45 76.25 76.66 78.13 78.47 79.26 78.64 76.51 77.91 76.74 77.93 75.85 73.83 73.08 73.14 74.57 71.28 72.68
53.12 48.35 51.14 54.60 60.02 61.11 64.05 60.79 65.96 65.96 65.13 67.57 68.25 68.76 69.16 69.29 70.58 71.53 72.15 71.90 71.69 72.34 73.12 73.27 74.58 73.62 75.42 77.41 77.34 77.75 80.55 75.04 76.85 76.21 77.46 79.73 78.74 76.77 74.43 76.94 78.80 79.23 76.24 76.32 73.34 71.14 72.38 74.05 73.08
48.88 48.83 50.06 52.30 56.99 59.34 60.36 60.82 62.46 61.60 62.22 62.74 68.08 68.31 69.21 69.01 69.36 71.73 72.07 72.53 71.72 72.32 73.30 74.31 74.57 74.87 77.27 76.70 77.86 76.93 77.97 77.76 73.17 76.59 77.14 78.84 79.23 77.72 76.56 76.80 79.14 78.74 74.94 75.27 74.50 74.16 74.48 74.58 68.78
52.11 50.90 49.77 51.61 55.89 56.44 58.29 60.23 60.66 61.19 61.37 62.69 67.36 67.52 68.38 69.20 70.62 72.02 72.25 72.94 71.89 71.47 72.53 74.34 74.44 75.38 75.01 75.37 74.42 74.62 74.65 76.01 76.65 74.89 78.64 79.37 76.88 78.81 78.71 79.43 78.70 78.45 76.04 75.46 77.06 76.86 74.30 72.60 72.39
52.90 50.90 50.12 52.86 53.90 55.08 56.27 58.00 60.25 61.22 61.32 62.38 63.14 67.82 68.08 69.24 70.26 71.33 71.87 72.39 71.65 71.39 72.12 73.28 74.55 75.58 74.71 75.98 75.96 76.05 76.84 75.25 75.16 75.97 78.30 78.76 79.11 79.23 77.28 77.77 78.19 79.57 77.20 77.06 76.55 71.23 70.72 75.00 70.69
51.81 50.50 50.32 50.53 53.22 53.95 54.76 55.21 58.76 60.72 62.92 64.72 64.06 69.50 68.41 69.60 69.39 70.49 70.85 71.65 71.96 71.40 71.90 72.57 74.94 75.73 75.02 76.10 75.38 77.13 77.59 76.91 75.35 77.33 77.15 77.88 79.28 79.19 76.13 78.67 79.26 79.30 78.53 76.10 76.45 75.10 74.98 71.93 70.13
48.74 52.79 51.82 51.06 50.20 47.02 53.68 46.95 59.20 62.20 63.50 62.86 65.82 68.17 68.28 69.22 70.44 70.77 70.38 71.43 71.59 71.93 72.95 73.28 74.79 76.06 75.13 76.59 74.58 76.02 73.69 73.69 75.05 75.87 75.65 77.14 79.48 79.23 78.97 79.17 79.64 79.52 77.03 76.46 76.76 77.22 74.94 75.09 72.71
50.39 53.53 52.14 51.29 49.88 49.34 49.68 48.25 51.69 60.95 60.58 59.71 61.39 66.97 68.71 68.80 70.44 70.44 70.86 71.43 72.14 72.72 72.61 73.78 74.32 75.91 74.71 74.88 76.55 74.80 74.51 74.66 75.57 75.13 77.57 77.28 79.89 80.19 77.32 78.95 79.24 79.06 78.34 78.46 78.66 78.01 78.00 77.39 75.16
54.10 51.66 51.39 51.39 49.46 44.52 48.05 48.05 50.41 55.61 61.66 60.08 60.39 63.83 68.52 69.06 69.71 71.34 72.03 72.43 72.44 73.09 72.56 73.94 74.02 74.82 75.42 74.53 75.15 75.57 73.84 76.48 75.41 75.32 75.37 76.45 76.71 78.12 80.01 78.55 79.22 79.39 79.02 78.32 78.69 79.47 78.54 78.72 77.97
52.43 49.26 43.07 42.52 43.16 42.50 48.84 47.13 50.91 55.92 63.46 63.49 61.48 64.09 68.40 70.41 70.45 70.73 71.19 71.65 72.08 72.23 72.30 72.68 73.82 73.68 74.83 74.65 73.70 76.16 74.44 75.12 77.80 77.20 75.14 74.60 75.03 75.14 77.55 79.86 78.41 77.98 78.97 78.41 79.38 79.32 78.97 78.67 77.83
49.77 49.38 44.45 39.06 40.89 43.56 49.46 46.15 49.46 55.25 57.41 66.27 64.04 65.70 66.23 68.43 70.98 70.70 71.67 72.14 72.30 72.86 72.58 72.47 73.69 73.58 74.32 75.19 73.13 74.73 76.77 74.56 75.44 78.28 74.94 75.88 73.95 75.41 77.35 77.94 78.83 79.67 78.68 78.98 79.31 78.71 78.04 78.41 77.63
49.73 47.63 51.32 46.60 48.20 45.17 47.78 50.47 53.43 55.68 55.52 57.64 64.50 63.59 64.09 66.64 71.23 71.09 71.96 72.57 73.22 73.15 73.30 73.05 73.51 74.17 74.77 74.74 74.98 73.50 75.84 76.49 74.61 77.84 79.15 75.95 78.04 77.74 77.19 77.97 78.81 78.63 78.76 78.52 78.68 77.68 77.59 78.54 78.79
49.78 51.51 46.33 47.74 41.06 40.97 45.88 48.95 49.41 53.61 55.12 56.15 58.43 63.92 64.98 65.47 68.62 71.67 72.08 72.71 73.53 73.94 74.48 74.69 74.67 74.45 75.33 74.62 75.67 74.46 74.27 75.33 76.45 75.13 78.27 77.49 78.84 78.22 77.79 78.14 77.97 78.38 79.36 79.27 78.32 77.52 77.22 77.91 76.99
47.87 47.52 48.80 48.97 47.98 42.92 42.32 46.83 56.19 56.78 56.56 56.40 56.84 60.52 65.36 65.48 68.40 71.00 72.17 73.12 73.71 74.42 74.51 74.70 75.05 74.86 75.35 75.79 75.43 75.39 74.49 74.55 74.41 75.33 75.07 76.85 77.49 80.89 79.32 79.63 78.70 78.24 77.90 78.93 78.73 78.17 77.11 76.93 77.17
49.78 48.41 48.34 45.86 45.09 47.57 47.53 47.74 57.56 58.90 57.57 57.09 57.59 59.40 64.06 64.83 67.96 66.86 67.59 72.79 73.52 73.98 74.30 74.69 75.00 75.92 76.22 76.37 76.01 75.37 76.23 75.40 74.41 73.19 75.30 77.77 77.32 78.41 81.08 79.08 79.75 78.24 78.02 78.20 78.00 77.29 76.07 76.58 76.94

GFSSGP_sfc_wetblb_075.txt.gz
Wetbulb
73.77 73.17 71.49 69.94 62.20 60.27 54.52 55.20 61.59 61.86 62.62 66.23 67.22 65.83 64.08 65.46 63.00 57.87 69.90 71.91 72.21 71.96 73.93 75.46 77.53 76.93 76.65 76.72 76.43 76.54 76.86 77.02 76.89 76.79 76.31 76.89 76.56 76.15 76.29 76.30 75.40 75.70 76.28 75.98 76.31 76.12 76.67 77.01 77.15
72.40 72.22 71.44 67.19 58.25 51.93 53.28 61.14 61.03 63.48 65.60 67.10 67.56 67.02 64.56 62.75 67.62 67.68 68.84 72.16 72.60 73.07 73.85 74.66 77.33 77.39 76.76 76.62 76.68 76.71 77.02 77.23 76.93 76.38 76.98 76.68 75.86 76.37 76.55 76.01 76.30 75.68 75.60 76.37 76.15 75.85 76.62 76.74 76.77
72.56 73.09 66.63 61.65 58.11 52.86 55.73 61.07 62.65 65.66 67.63 66.93 65.88 67.34 66.02 64.19 68.51 68.86 71.70 72.70 73.06 72.79 73.63 74.75 77.36 77.75 76.82 76.79 76.74 77.10 76.97 76.86 76.89 76.54 76.66 76.52 76.22 76.50 76.37 75.96 76.31 76.47 75.63 76.20 76.31 75.87 75.97 76.15 75.64
71.35 70.21 67.30 58.43 54.82 58.81 60.58 62.82 64.96 65.27 66.81 67.42 66.09 63.03 67.53 70.24 69.00 70.56 72.42 72.86 72.29 72.96 73.90 76.68 77.89 77.42 77.58 77.42 77.51 77.50 77.25 77.14 77.10 76.94 76.72 76.64 76.80 76.51 76.18 76.26 76.45 76.18 75.82 75.96 76.15 75.76 75.84 75.21 75.18
71.66 67.71 60.09 54.54 55.74 59.34 61.72 64.13 66.20 64.32 65.26 66.06 66.53 63.34 64.79 69.31 71.39 71.65 71.63 72.67 71.93 72.76 74.49 75.99 78.30 77.99 77.91 77.60 77.29 77.24 77.21 77.29 77.03 77.00 77.04 76.01 76.51 76.43 76.26 76.56 76.35 76.10 75.71 75.71 75.49 75.38 75.26 75.04 75.43
65.74 66.29 58.37 54.08 56.21 61.24 63.93 64.76 65.49 64.78 66.05 66.15 65.04 64.31 65.39 70.96 70.18 70.70 71.78 72.24 73.00 72.58 74.53 75.23 77.43 77.75 77.84 77.52 77.19 77.51 77.30 77.03 76.96 77.08 76.87 77.13 76.42 76.28 76.34 76.29 76.32 76.21 75.82 75.79 75.82 75.65 75.24 75.10 75.45
63.33 60.42 58.25 58.56 57.75 60.18 64.06 67.14 64.42 64.67 65.13 64.35 67.20 62.65 66.12 68.60 70.33 71.55 71.59 72.02 71.86 73.50 73.54 74.84 75.18 76.46 77.63 77.40 77.40 77.38 77.26 77.16 77.17 77.19 77.49 77.01 76.63 76.75 76.56 76.54 76.21 76.15 75.71 75.34 75.21 75.13 75.12 74.96 74.85
66.39 61.31 58.06 59.78 58.62 59.29 64.52 64.64 66.93 66.95 64.83 69.19 68.77 62.59 62.80 68.50 71.00 71.29 71.21 70.99 71.47 72.51 73.09 73.92 74.46 74.61 74.55 74.62 77.38 77.22 77.37 77.29 77.36 77.33 76.77 76.52 76.95 76.40 76.15 76.91 76.75 76.01 75.81 75.34 74.81 74.26 74.96 75.48 75.64
68.78 59.04 55.99 58.80 60.02 58.94 61.94 62.13 66.87 70.26 65.96 67.57 68.30 67.53 68.64 70.18 71.21 69.26 69.34 69.47 70.35 71.42 72.87 73.88 73.18 73.59 73.57 74.72 75.97 77.09 77.43 77.36 77.28 76.55 76.61 76.40 73.91 73.42 74.22 76.70 76.96 75.84 75.73 75.51 75.57 75.52 75.65 75.42 74.79
62.00 57.92 59.36 63.58 63.42 61.92 62.85 62.89 63.82 66.21 66.32 65.30 66.44 69.28 70.02 70.34 69.78 66.78 67.92 67.60 68.62 69.76 71.97 73.47 71.98 72.60 73.57 75.30 74.26 74.30 74.97 75.01 74.35 74.40 74.33 74.57 72.92 72.93 73.84 75.81 76.74 76.15 75.67 75.34 75.88 75.25 73.49 73.41 71.30
60.68 57.63 63.10 63.92 65.14 65.49 64.72 60.29 63.30 64.36 63.36 65.81 64.70 66.71 68.29 68.83 67.85 67.45 67.87 67.93 68.65 70.26 71.54 71.23 71.64 72.83 72.66 72.90 74.16 74.25 73.89 73.67 73.82 73.86 73.37 73.45 73.32 72.02 72.13 72.11 73.30 72.90 75.19 73.39 72.96 72.79 71.41 70.59 70.22
57.58 62.04 63.13 64.10 66.96 65.01 63.03 66.62 65.47 64.55 65.11 68.72 68.36 68.52 68.30 67.62 67.12 67.08 67.34 67.54 68.61 69.41 69.61 71.36 71.53 71.40 71.70 73.51 74.16 74.23 73.13 74.19 73.02 72.78 72.43 72.70 70.40 69.14 70.73 72.22 71.92 71.98 70.92 71.01 71.09 72.15 71.71 70.55 72.09
58.41 60.38 62.81 64.24 65.82 65.18 67.63 65.60 62.54 64.41 67.43 68.91 69.34 68.53 67.83 67.55 67.37 67.15 68.29 68.51 68.52 69.13 71.39 71.77 73.13 71.62 71.73 72.34 73.39 72.22 72.43 73.65 71.97 73.03 72.50 72.04 72.22 71.38 71.62 71.98 71.79 71.20 69.87 69.55 69.19 69.51 71.67 71.78 71.28
59.75 60.22 60.57 62.05 62.39 65.22 65.30 64.83 62.96 64.75 68.06 68.09 68.38 67.55 68.04 67.87 67.07 67.17 67.00 67.40 67.60 71.13 70.80 70.84 71.12 71.44 72.89 72.41 72.59 73.18 71.73 72.90 73.73 72.87 72.40 71.82 73.03 72.60 71.44 70.77 71.58 71.43 70.78 71.03 71.08 70.69 70.86 69.44 71.22
58.59 53.40 55.15 57.33 57.48 61.40 66.53 61.96 63.35 66.85 68.24 67.34 67.17 67.75 67.67 67.83 67.76 67.07 67.15 66.86 67.02 71.05 70.93 71.22 72.38 72.21 71.99 73.31 72.86 72.37 69.52 71.59 73.37 74.56 72.78 71.85 72.12 73.33 73.26 71.80 70.76 71.95 69.41 70.72 71.16 70.71 70.91 70.22 71.06
51.42 49.83 46.81 53.42 56.15 59.36 63.87 57.58 64.39 65.60 66.90 65.90 66.37 67.38 67.66 67.48 67.53 68.78 68.03 67.54 67.54 70.52 69.77 70.45 73.01 72.60 71.38 73.14 72.45 72.00 70.95 69.11 72.84 74.35 74.14 73.50 73.98 73.28 72.18 72.89 71.70 71.54 71.61 72.05 70.79 70.25 70.46 68.99 69.21
49.47 42.13 45.26 49.75 55.02 56.62 59.74 59.19 63.28 62.64 64.43 64.64 65.71 65.85 66.84 67.47 68.22 68.45 68.61 68.17 67.96 70.08 70.03 69.58 69.88 71.84 71.03 72.58 71.73 72.45 71.23 72.63 74.02 73.45 73.77 74.63 74.49 71.26 72.59 72.39 72.50 73.52 72.41 70.32 71.02 69.59 68.01 69.21 68.46
44.89 43.49 45.13 45.75 51.43 53.88 55.04 60.90 63.09 63.66 63.96 61.41 64.86 64.00 66.11 66.84 67.45 68.30 68.57 68.87 68.36 70.60 69.85 69.81 70.29 71.66 71.78 71.35 71.33 71.87 73.33 73.21 74.17 73.74 74.16 74.35 75.02 74.51 72.82 72.19 73.24 73.93 72.50 69.51 69.89 69.74 69.33 70.35 68.68
50.12 48.94 46.61 48.52 50.97 50.31 54.17 59.57 62.54 64.07 63.28 63.81 63.07 62.54 65.94 66.75 68.60 69.53 69.26 68.75 68.43 70.32 69.64 69.76 69.65 71.57 73.07 71.84 70.22 70.25 69.92 70.22 72.42 73.75 75.18 74.91 74.97 74.57 72.60 72.41 73.94 73.10 71.54 72.05 71.70 71.86 70.06 69.76 68.97
49.39 47.74 47.62 50.18 52.04 47.60 50.25 57.42 60.84 59.78 60.19 61.30 62.22 63.70 65.49 66.91 67.61 68.47 69.05 68.30 68.31 68.70 69.82 69.43 70.75 71.47 72.52 71.93 71.29 70.48 70.95 71.47 72.22 73.73 74.76 75.23 74.04 74.59 73.65 73.20 73.13 73.22 71.99 72.12 71.86 68.88 67.00 69.45 67.88
48.17 46.18 47.37 47.41 50.77 50.17 47.42 54.17 56.21 59.39 61.34 62.51 65.15 66.13 64.87 66.78 66.85 67.92 67.94 68.04 67.94 68.11 69.29 70.21 71.43 71.35 71.84 71.28 71.15 71.80 72.60 70.46 70.18 71.88 73.96 74.33 74.91 75.15 74.12 73.47 74.21 73.54 73.55 70.78 71.05 69.32 69.42 66.37 66.67
42.87 50.32 50.78 49.44 46.27 40.23 47.19 38.34 53.50 56.89 58.12 61.54 63.53 63.60 64.12 62.35 67.52 68.33 67.89 67.65 67.32 68.29 69.48 71.19 72.07 71.52 70.87 71.86 69.88 69.74 69.75 68.55 70.84 72.40 73.03 73.04 74.64 74.86 74.10 74.92 74.09 73.75 73.95 72.23 71.15 72.81 71.96 70.04 67.04
46.87 51.20 49.06 48.43 44.89 41.01 45.30 39.79 44.66 57.74 55.94 58.08 62.06 61.47 62.85 62.73 66.78 67.79 68.23 68.85 68.27 69.07 69.07 70.30 72.48 71.38 71.03 71.59 69.90 70.07 69.03 70.31 70.53 71.55 73.11 72.73 74.17 75.07 75.33 75.49 74.11 73.15 73.53 73.03 72.74 72.33 71.93 72.48 70.11
52.30 48.80 47.50 45.31 41.81 36.35 42.36 40.18 43.36 54.99 57.43 58.76 61.54 60.21 63.64 63.19 65.76 68.69 69.00 69.54 68.78 69.53 69.29 69.29 71.97 70.64 70.85 70.44 71.61 69.77 68.82 69.60 70.79 71.22 72.03 72.59 73.69 74.69 75.11 75.22 74.52 73.60 73.80 73.82 72.93 73.19 72.65 72.67 72.73
47.83 41.99 34.97 34.40 35.18 36.65 42.27 41.06 43.87 49.61 61.69 61.57 60.92 59.12 60.94 63.62 65.17 68.28 67.73 68.41 68.70 68.67 69.21 69.01 70.58 71.22 70.68 70.15 70.38 71.96 69.41 69.65 71.21 70.56 73.47 72.33 72.02 71.78 73.79 74.66 74.23 73.88 73.86 74.30 74.17 73.09 73.60 73.27 72.05
45.27 41.68 36.53 31.17 32.52 37.69 43.30 38.78 44.37 51.06 60.25 62.88 62.58 61.26 62.68 65.50 65.85 68.39 68.48 68.37 68.98 68.95 69.52 69.66 69.46 70.90 71.08 69.95 69.69 71.21 70.53 70.36 71.12 72.69 71.41 72.32 72.65 72.23 72.46 75.02 73.87 73.72 74.12 73.75 74.39 73.43 73.88 72.81 72.99
43.88 41.67 44.45 38.92 40.54 38.30 41.18 44.45 49.76 51.37 51.05 61.49 60.96 61.53 62.32 65.63 67.80 68.44 69.10 68.87 69.13 69.40 69.10 70.35 69.80 70.01 71.49 70.89 69.55 70.29 72.70 69.78 70.46 71.57 72.88 72.42 70.92 72.58 72.77 74.94 75.08 74.74 74.54 74.64 74.02 73.28 73.76 73.32 73.55
44.36 46.17 38.25 38.71 32.15 33.37 38.61 41.51 42.59 47.55 49.17 55.06 60.90 61.21 64.46 65.68 65.75 67.11 66.43 69.38 69.64 70.15 70.00 69.97 71.08 70.34 71.62 71.76 70.72 70.13 71.71 72.43 71.47 71.57 73.07 72.69 71.43 72.19 73.77 74.23 75.49 74.57 74.49 73.80 74.42 72.63 73.82 72.74 72.44
41.98 40.16 40.21 39.77 38.42 36.54 34.67 39.56 48.05 49.67 52.13 52.84 55.30 61.76 64.10 63.59 64.09 65.42 66.03 67.62 70.32 70.69 70.63 69.96 71.46 71.01 71.53 71.56 72.22 70.11 70.01 72.26 72.14 71.13 71.28 73.10 72.36 74.74 74.91 74.80 74.59 74.99 74.54 74.31 74.12 72.38 73.62 72.66 72.16
43.95 41.20 41.86 36.46 35.89 39.28 38.48 40.50 53.25 52.53 55.17 56.34 53.35 63.32 64.61 63.11 63.46 63.55 66.54 68.09 67.86 70.49 70.97 70.48 71.19 71.67 72.02 71.99 72.39 72.14 70.11 71.30 72.22 71.28 70.19 72.13 72.36 73.15 74.81 75.33 75.21 74.59 73.92 74.54 73.88 73.64 73.59 73.30 73.03

GFSSGP_sfc_wetblb_078.txt.gz
Wetbulb
74.02 73.28 71.71 69.32 60.86 60.33 54.47 56.06 60.76 61.02 61.62 65.17 65.58 64.29 62.31 64.23 62.06 56.50 68.28 70.82 71.41 71.28 74.13 75.76 77.23 76.61 76.52 76.80 76.61 76.88 77.03 76.77 76.66 76.38 76.92 76.45 76.08 76.29 76.07 75.26 76.38 75.62 75.92 76.75 76.28 76.61 76.87 77.20 77.22
72.67 71.90 70.48 67.04 57.84 52.06 53.90 59.68 58.79 62.20 65.39 66.81 67.15 66.22 64.50 62.30 66.80 66.22 67.83 71.34 71.71 72.18 73.77 75.23 77.33 77.34 76.69 76.64 76.64 76.89 77.06 77.07 76.49 76.66 76.60 75.85 76.53 76.18 76.10 75.54 75.32 76.00 76.01 76.30 75.68 76.49 76.63 76.94 76.45
72.00 72.17 66.03 61.84 56.18 52.50 54.56 61.05 62.65 64.77 67.03 66.19 64.31 67.07 65.67 63.66 66.69 67.65 70.56 71.58 71.93 72.30 73.72 74.96 77.49 77.36 76.57 76.68 76.86 77.06 76.87 76.61 76.89 76.86 76.56 76.15 76.21 76.23 76.00 76.34 76.21 75.87 76.10 76.27 76.17 76.35 76.56 76.13 76.05
70.73 70.21 67.52 56.66 55.26 58.05 59.48 62.70 64.56 64.82 65.69 66.49 65.50 62.38 66.96 69.65 68.53 70.13 71.88 72.42 72.15 72.85 73.98 76.39 77.19 76.93 76.63 76.66 76.69 76.83 77.17 77.15 76.70 76.82 76.52 76.85 76.66 76.12 76.12 76.26 75.96 76.22 76.21 75.87 75.54 75.85 75.62 75.40 75.67
70.64 67.45 57.79 55.22 55.52 59.31 61.99 63.26 64.29 63.50 65.11 64.87 65.55 62.83 64.13 68.42 71.32 71.41 71.54 72.44 71.81 72.49 74.14 75.48 77.77 77.74 77.34 77.64 76.99 77.39 77.26 77.26 76.95 77.15 76.49 76.28 76.48 76.15 76.31 76.26 76.12 75.85 75.77 75.65 75.60 75.59 75.29 74.60 75.15
64.27 65.60 56.16 54.67 55.56 60.54 62.73 63.44 65.27 64.93 65.31 65.19 64.57 63.69 64.35 69.81 69.99 70.71 72.01 71.79 72.80 73.27 74.76 75.60 77.56 77.83 77.80 77.53 77.37 77.44 77.39 77.26 77.12 77.19 76.55 76.87 76.16 76.12 76.18 76.04 76.15 76.02 76.16 75.85 75.57 75.29 75.12 74.76 75.23
63.31 60.20 58.09 57.54 56.42 60.66 60.70 63.92 64.59 64.79 64.50 64.23 67.07 62.34 64.64 67.19 69.96 71.28 71.58 71.87 72.84 74.24 74.16 74.44 75.01 76.65 77.55 77.24 77.50 77.37 77.19 77.18 77.28 77.15 76.89 76.29 76.39 76.18 76.23 76.35 76.13 75.82 75.68 75.96 75.63 75.43 75.33 74.90 75.32
65.44 61.72 57.44 59.56 57.51 58.65 62.61 65.64 66.76 65.79 64.28 68.65 68.44 62.03 62.00 66.84 70.20 71.41 71.36 70.70 72.37 73.12 74.05 73.83 73.99 74.53 74.40 75.16 77.41 77.52 77.20 77.19 77.31 77.29 76.78 76.68 76.62 76.50 76.51 76.77 76.94 75.99 75.62 75.54 75.21 75.21 75.58 75.67 75.00
68.23 59.92 54.93 58.32 59.17 59.99 64.24 62.80 65.56 68.49 66.36 67.08 68.20 66.74 67.98 69.37 70.43 69.20 69.14 70.02 70.81 72.49 72.98 73.34 73.28 73.27 73.56 74.12 75.63 77.14 77.59 77.48 77.26 76.37 76.76 76.04 73.23 73.11 74.09 75.48 76.40 76.01 75.68 75.68 75.93 76.06 75.91 75.18 75.85
63.16 57.50 58.03 63.09 62.74 61.85 62.28 63.31 65.22 65.85 64.89 65.06 66.30 68.57 69.11 69.26 68.62 67.20 67.58 67.83 68.55 70.70 72.02 72.68 72.98 72.22 73.67 75.37 74.01 73.63 75.04 74.71 74.33 73.59 74.01 73.60 72.73 72.28 74.11 75.40 76.04 75.82 75.96 76.13 76.04 74.96 74.39 71.24 71.33
58.60 56.43 61.43 63.95 64.79 65.28 62.28 62.23 65.98 64.23 62.50 65.44 64.11 66.00 67.85 67.83 67.53 67.26 67.72 68.02 68.54 71.34 72.01 71.71 72.14 72.93 72.80 73.83 73.38 73.35 73.42 73.69 73.34 73.30 72.73 72.84 72.83 72.08 72.04 72.74 73.37 72.57 73.98 73.00 72.56 71.31 70.43 69.44 71.13
54.07 59.41 61.05 62.85 66.64 64.31 60.70 64.05 63.17 64.62 65.11 68.11 67.24 67.82 67.72 66.69 67.08 67.31 67.21 67.58 69.09 70.36 71.65 71.10 71.66 72.52 70.81 72.93 73.26 73.31 72.98 72.69 72.48 72.34 72.21 72.10 69.64 70.21 71.07 72.16 71.43 70.42 70.42 70.20 70.19 70.21 70.40 69.92 70.73
55.51 57.96 60.30 62.55 64.95 65.38 65.27 63.01 63.27 63.96 67.93 69.53 68.88 68.25 67.38 67.55 67.22 67.80 68.32 68.46 69.42 69.73 70.39 70.13 71.23 71.61 70.68 72.22 73.04 72.59 72.23 72.98 72.35 71.97 72.34 72.21 70.06 69.24 70.86 71.24 70.78 69.39 68.58 69.07 66.86 67.59 69.18 70.47 70.64
58.12 58.07 58.80 60.30 65.09 65.52 64.43 63.49 60.85 63.71 68.03 67.49 67.70 66.76 67.47 66.18 67.11 67.14 67.02 67.73 68.72 69.08 69.08 70.26 70.48 70.31 71.68 71.96 72.50 70.94 71.63 72.94 72.11 71.39 71.12 71.97 71.66 70.36 70.31 70.52 70.36 70.39 68.96 68.26 69.42 67.54 69.45 69.66 70.82
57.98 53.16 52.85 53.36 63.58 64.97 65.47 59.68 58.89 65.78 67.08 66.25 66.13 66.80 67.42 66.51 66.95 66.57 67.09 66.96 68.34 69.10 70.41 70.81 70.86 71.70 71.59 71.34 70.91 71.24 71.71 72.65 71.93 71.38 70.40 71.82 72.53 71.72 71.39 70.52 70.18 70.18 69.42 69.12 70.28 70.40 69.71 69.07 69.37
51.01 47.25 43.76 50.13 53.14 64.93 62.75 56.89 63.28 67.14 65.30 65.21 66.20 66.63 66.98 67.18 66.31 67.87 67.42 68.47 70.10 69.72 70.20 70.57 71.88 71.60 71.28 71.22 71.16 70.24 70.05 71.66 72.69 72.27 71.66 70.82 73.46 72.77 72.10 70.20 70.23 70.29 69.45 70.59 70.03 69.55 68.64 68.23 68.63
46.33 42.65 44.42 47.38 51.56 60.53 61.71 58.28 63.44 64.94 66.16 64.51 64.92 66.27 66.39 66.58 66.59 67.19 67.87 69.59 69.66 69.77 70.50 70.40 71.19 70.04 71.13 70.75 70.90 70.64 68.84 70.77 72.67 72.50 71.91 73.21 73.11 72.32 72.08 70.97 70.81 70.58 70.20 70.00 70.44 68.37 67.78 66.80 67.50
41.81 42.33 42.24 44.02 48.84 50.25 60.30 60.35 62.24 62.66 64.95 65.34 65.32 65.04 66.29 66.26 66.52 67.11 67.66 69.44 69.94 70.06 69.67 69.83 71.05 69.10 71.17 69.75 70.39 71.12 69.94 71.01 72.83 71.78 73.09 73.64 71.96 72.45 71.35 71.82 72.40 72.50 71.01 68.98 68.89 67.55 68.01 68.90 66.62
47.09 44.85 44.85 48.97 51.83 47.38 52.16 59.40 59.61 61.36 63.04 63.17 63.82 63.88 63.86 65.92 68.02 67.29 67.83 68.68 69.73 69.45 68.35 68.50 69.84 68.74 70.54 68.65 68.83 69.20 69.11 70.11 71.86 72.67 73.44 73.26 72.96 73.53 71.61 72.27 72.44 71.88 70.75 68.35 69.13 70.97 68.78 68.44 66.64
47.74 45.38 44.77 47.84 51.32 47.75 56.92 58.83 61.20 60.75 59.31 62.65 60.79 64.02 64.34 65.33 66.94 67.27 67.07 67.46 68.80 68.39 68.46 68.19 70.19 69.60 70.08 69.54 68.89 69.44 69.15 69.70 72.05 72.82 73.59 73.97 73.17 72.90 72.34 71.93 72.08 70.93 70.64 70.62 69.56 68.07 66.71 67.73 66.78
46.28 43.10 44.68 45.15 49.42 47.74 57.47 56.77 59.19 61.23 61.21 61.64 62.72 64.64 64.89 65.38 65.86 66.40 65.91 66.08 68.68 68.25 67.99 68.31 69.95 70.53 70.58 70.13 69.84 69.82 69.76 70.21 69.89 71.28 72.48 73.75 73.74 73.54 73.11 72.09 72.88 72.07 70.92 70.21 68.73 66.86 67.61 65.72 65.59
41.12 49.22 48.79 47.97 43.58 38.98 44.42 37.69 55.31 59.19 59.01 61.41 61.73 63.48 64.24 66.10 66.87 67.13 66.14 65.91 68.27 68.42 68.81 69.07 69.94 70.65 71.01 70.03 69.52 68.89 69.24 66.85 68.88 70.41 72.38 73.15 74.01 73.64 73.82 72.85 73.11 72.52 72.23 69.81 70.33 71.31 70.39 68.77 64.59
46.49 50.36 47.31 46.44 41.27 39.27 41.25 37.98 39.80 56.60 54.66 57.25 61.06 64.46 64.20 65.96 67.12 67.03 66.60 66.52 67.75 68.78 68.77 70.13 69.48 70.67 71.41 70.23 69.28 69.29 68.06 68.08 69.76 70.16 71.23 71.47 72.59 73.31 73.54 73.76 73.21 72.56 72.30 71.26 70.78 71.51 71.16 70.89 68.84
51.03 46.68 44.24 41.15 39.16 34.07 37.55 38.87 40.47 52.77 55.60 57.87 60.91 63.79 64.42 64.64 64.79 64.92 67.94 67.38 67.11 68.37 69.20 70.19 69.46 69.73 70.70 70.30 67.91 68.30 67.90 68.24 68.88 69.78 70.84 70.47 71.88 73.07 73.06 74.36 72.79 72.18 72.48 72.38 71.16 71.80 71.63 71.37 71.05
45.54 39.17 33.16 32.99 32.85 32.44 36.88 38.38 40.48 55.27 58.40 59.87 60.45 63.09 64.10 65.89 65.08 65.31 65.47 66.67 66.29 67.02 67.94 70.23 69.62 68.93 69.55 70.20 69.01 68.41 68.74 67.79 68.96 69.55 71.43 70.48 71.10 72.02 73.01 73.56 72.58 72.01 72.43 73.09 72.54 72.62 71.92 71.14 70.75
39.98 38.84 34.06 29.48 30.25 33.26 39.49 35.99 42.09 50.67 57.13 61.86 62.26 63.25 62.60 62.39 64.83 65.24 66.63 67.46 66.60 67.26 67.29 69.18 69.71 68.77 69.05 69.44 70.23 69.18 68.72 68.31 69.81 70.33 71.62 71.87 71.85 72.04 73.09 73.46 72.88 72.44 72.48 72.90 72.85 71.44 72.46 72.02 71.82
40.46 37.35 41.47 35.90 34.19 33.67 37.39 42.14 47.84 50.01 49.28 59.92 61.13 60.03 60.50 61.55 63.48 64.85 67.06 68.20 67.27 67.40 67.23 67.50 69.76 69.28 69.23 69.08 68.92 69.84 70.40 67.93 69.00 70.88 70.99 71.90 72.18 72.06 71.93 73.54 72.66 72.14 72.12 72.28 72.37 71.92 72.19 72.18 71.80
39.73 41.98 36.45 34.72 29.94 28.46 35.12 37.34 39.79 45.66 50.21 54.63 60.02 60.77 60.05 61.48 63.96 65.91 67.51 68.16 68.28 68.18 68.05 68.01 68.54 69.59 69.61 69.43 68.83 69.03 70.24 70.74 68.06 69.73 70.96 70.85 71.22 70.89 71.17 73.80 73.22 72.46 72.47 73.11 72.19 71.61 72.17 71.93 71.42
38.25 35.76 35.22 34.53 34.68 30.90 30.39 35.63 43.28 46.48 49.79 51.00 53.92 56.63 62.29 62.03 64.27 66.42 67.89 68.59 68.61 68.79 68.73 68.51 67.97 68.84 70.04 70.06 69.23 68.59 68.89 70.67 69.02 69.19 69.87 71.98 70.60 70.87 71.54 72.34 73.69 73.39 72.97 72.19 72.51 71.59 71.60 71.79 70.49
40.20 37.48 34.31 30.08 31.52 34.20 34.86 36.84 50.19 50.81 50.75 53.04 54.70 56.70 59.04 64.00 64.99 67.14 68.02 68.19 68.67 68.45 68.55 68.66 69.15 68.61 69.83 70.72 70.29 68.85 68.57 69.72 70.90 70.52 69.35 71.63 71.05 72.73 72.99 72.63 73.84 73.47 73.44 72.85 72.53 71.54 72.13 71.84 71.07

GFSSGP_sfc_wetblb_081.txt.gz
Wetbulb
73.64 72.94 71.48 68.60 60.04 60.53 54.30 55.67 60.72 60.85 60.75 63.96 63.98 62.05 60.79 63.04 60.58 55.13 66.53 69.34 69.47 69.64 73.14 74.92 76.70 76.16 76.18 76.40 76.67 76.71 76.56 76.23 75.89 76.34 76.39 75.64 76.14 75.83 75.04 75.85 75.16 75.81 76.03 76.04 76.21 76.65 76.65 76.93 76.52
72.50 71.52 69.97 66.36 57.75 51.02 53.44 59.28 58.83 61.38 63.98 64.34 65.44 65.37 63.86 61.86 66.08 64.80 66.78 69.94 69.50 72.27 73.33 74.48 77.04 77.04 76.55 76.48 76.67 76.79 76.59 76.49 76.08 76.36 75.76 76.46 76.04 76.08 74.84 75.54 75.77 75.98 75.86 75.94 76.27 76.39 76.34 76.35 75.77
72.02 71.75 64.98 61.59 56.20 52.73 54.20 59.55 61.41 64.98 65.34 65.43 64.63 66.42 64.95 63.17 65.41 65.75 69.63 69.65 71.65 72.53 73.58 74.63 77.07 76.92 76.63 76.55 76.55 76.80 76.93 76.01 76.26 76.55 75.91 75.89 75.94 75.68 75.81 75.71 75.90 76.04 75.90 75.96 76.09 76.18 75.90 75.33 75.42
69.49 69.12 64.99 56.74 54.56 58.04 59.11 61.48 63.69 63.98 65.46 66.04 64.97 62.52 66.28 68.03 66.27 69.22 70.29 70.44 71.29 72.94 74.13 76.33 76.66 76.49 76.48 76.67 77.05 76.71 76.26 76.27 76.52 75.89 76.18 76.26 75.61 75.86 75.98 75.84 75.82 75.95 76.07 75.44 76.05 75.63 75.38 75.44 75.36
70.04 66.76 56.84 55.61 55.91 59.30 62.04 63.77 64.38 63.15 64.02 64.20 65.29 62.21 63.35 68.01 70.21 70.34 70.17 70.77 71.53 72.16 73.66 74.90 77.43 76.86 76.60 76.43 76.43 76.76 76.50 76.56 76.72 76.35 76.31 76.07 76.21 75.99 75.75 75.75 75.69 75.83 75.59 75.56 75.33 75.19 75.16 74.95 75.66
63.71 65.36 56.30 53.91 55.83 60.15 63.12 63.24 63.41 64.19 64.31 64.99 63.80 63.25 64.21 69.18 69.37 70.13 71.08 71.38 72.50 72.65 73.85 74.46 76.72 76.84 77.16 77.06 77.17 77.08 77.05 76.78 76.73 76.03 76.13 76.36 76.15 76.04 76.24 76.16 75.86 75.73 75.56 75.31 74.89 74.78 74.59 75.26 75.83
63.22 58.78 57.36 56.93 56.77 59.66 61.76 63.78 64.47 64.47 64.23 63.96 65.98 61.35 65.35 67.34 69.73 70.95 71.21 71.75 72.50 74.00 74.09 74.10 74.87 75.92 77.34 77.17 77.16 76.90 77.01 76.97 76.94 76.43 76.43 75.97 76.04 75.90 76.21 76.19 75.92 76.20 76.00 75.70 75.17 74.97 74.78 75.25 75.79
65.30 61.97 56.87 58.95 57.64 57.70 63.03 65.43 66.40 65.50 64.34 68.29 67.15 61.18 62.12 66.93 70.14 70.75 71.04 71.53 72.70 72.99 73.43 73.50 73.84 74.32 74.22 74.28 76.97 76.88 76.97 77.08 76.86 76.55 76.11 75.90 75.89 76.05 76.22 76.26 76.54 75.59 75.59 75.50 75.22 75.06 75.03 76.09 76.15
67.95 59.10 55.05 57.97 58.19 60.33 65.36 63.41 66.36 67.50 65.37 66.74 67.44 65.85 67.41 68.99 70.27 69.02 69.02 70.54 71.30 72.62 72.39 72.63 72.95 73.09 73.47 74.09 75.42 76.60 77.07 77.25 77.14 76.39 76.13 75.55 72.70 72.62 73.54 75.00 76.08 75.75 75.56 75.53 75.42 75.74 75.69 75.82 75.67
61.15 57.90 57.89 62.25 62.79 60.70 63.76 64.17 63.75 62.54 63.97 64.85 65.20 66.77 68.36 69.27 68.55 67.23 67.36 68.04 69.63 71.27 71.90 72.23 72.32 72.31 73.08 75.01 74.04 74.00 74.98 74.54 74.00 73.61 73.59 72.58 71.65 71.84 73.58 74.47 75.95 75.86 75.84 76.44 75.71 74.93 74.00 72.89 70.88
59.30 56.75 60.91 62.29 64.70 64.07 62.44 63.53 64.12 62.03 61.56 65.26 63.48 64.50 67.05 67.69 67.24 67.18 67.22 67.85 68.83 70.82 72.30 71.76 71.80 72.11 72.97 73.20 72.71 72.87 73.35 73.25 73.27 72.43 72.33 71.82 72.27 71.92 72.29 72.47 72.18 72.11 74.35 71.90 71.44 70.14 68.84 70.13 70.10
53.13 58.41 61.06 61.36 65.07 62.65 62.09 65.07 62.77 63.48 65.07 68.15 67.00 66.84 66.94 66.54 66.57 66.72 66.72 67.15 68.72 70.33 71.58 71.61 71.73 71.95 71.54 72.76 72.33 72.19 72.49 72.41 71.94 72.27 71.45 70.95 70.09 70.22 70.58 71.20 71.20 70.19 70.54 68.35 69.52 69.35 69.37 69.31 69.74
53.97 57.35 59.73 60.06 64.63 63.23 64.64 62.78 62.93 63.55 66.87 68.52 68.24 66.99 66.27 66.15 66.65 67.46 67.71 67.50 69.43 69.75 70.43 70.55 71.08 71.12 70.30 72.14 72.01 71.76 71.74 72.03 71.80 71.22 71.49 70.91 68.89 69.29 70.52 70.27 70.18 68.60 68.71 67.54 67.07 67.59 68.73 69.40 69.96
56.55 57.10 57.58 57.85 58.77 63.10 62.07 61.63 62.33 63.48 68.23 67.29 66.59 66.03 66.12 66.23 66.55 66.83 67.03 67.11 68.89 69.70 70.03 69.46 70.04 70.81 70.48 71.36 71.77 71.73 71.41 72.13 71.69 71.27 71.56 71.55 69.81 68.75 70.27 70.07 69.55 68.51 66.96 67.54 67.16 65.98 68.71 68.87 69.58
56.60 53.44 53.94 58.19 63.00 63.38 63.18 59.46 59.46 65.57 66.85 65.76 65.32 65.94 66.24 65.92 66.98 66.65 67.22 67.28 68.79 69.35 69.35 68.54 69.31 70.09 70.35 70.87 71.72 71.15 71.16 72.37 71.19 71.06 70.61 71.23 71.19 69.87 70.22 69.78 69.35 69.84 69.12 67.35 68.82 69.56 69.01 68.53 68.41
48.98 46.66 43.18 52.38 63.24 64.73 61.41 55.44 61.85 66.37 65.37 64.68 65.29 65.89 66.33 65.95 66.54 67.18 67.66 67.97 69.23 68.56 68.13 69.08 71.24 70.30 70.25 70.39 71.03 70.55 70.99 71.65 71.15 70.88 69.82 71.40 72.38 71.54 70.35 69.89 69.66 69.62 68.51 68.87 68.89 68.69 67.75 67.50 67.19
45.11 41.97 43.99 47.18 62.42 63.26 59.46 56.33 63.34 65.64 64.96 64.16 64.46 65.03 66.05 64.81 66.19 66.84 67.59 68.12 68.93 68.18 68.80 69.41 69.71 70.22 70.18 70.56 70.07 68.76 69.46 70.72 71.59 71.31 70.55 70.78 72.64 72.44 70.99 69.55 69.91 69.43 68.24 69.01 69.39 68.15 66.98 66.20 66.63
40.92 41.57 41.13 43.72 52.57 57.11 59.43 58.32 61.97 63.84 64.68 63.97 63.93 64.74 65.39 64.19 64.91 66.57 66.95 68.50 69.03 69.04 69.65 69.78 69.71 69.56 70.21 69.72 69.50 69.67 67.82 70.11 71.80 71.42 70.87 72.77 71.94 72.07 71.00 70.33 70.44 69.89 69.35 68.92 68.49 66.63 66.72 67.08 65.80
46.36 43.73 42.75 46.60 50.16 47.57 54.71 58.51 59.64 62.71 63.89 63.42 63.21 64.06 64.68 64.99 65.36 66.97 67.06 69.15 69.00 69.26 69.55 69.55 69.31 68.36 69.46 68.18 68.50 68.80 67.37 69.35 71.00 70.84 72.55 73.08 71.42 72.21 70.82 71.23 71.22 71.20 69.72 68.19 68.27 67.71 66.15 67.29 65.34
45.95 43.66 42.91 46.87 49.45 45.79 54.81 57.22 59.64 60.02 62.38 63.32 63.33 63.82 64.47 65.10 64.81 65.64 66.03 68.57 68.26 68.65 69.19 69.81 69.11 68.44 69.66 68.24 68.51 69.34 68.66 69.06 71.13 71.54 72.44 72.94 72.89 72.54 71.50 71.55 71.13 70.62 69.58 67.72 68.99 67.95 66.51 66.39 65.58
43.64 42.02 43.10 44.55 47.48 54.53 56.41 54.72 56.97 60.23 61.16 60.63 62.65 63.21 65.02 65.07 64.79 64.43 64.91 67.75 68.20 68.07 68.21 69.45 69.56 68.56 69.82 68.51 68.52 69.07 68.22 69.95 69.68 70.78 71.52 72.11 72.59 72.26 72.20 71.61 71.24 69.88 69.76 69.56 68.18 66.41 66.66 64.27 65.12
39.38 48.04 48.29 46.52 41.91 38.00 45.50 35.54 53.92 58.11 58.47 60.31 60.20 62.12 62.46 65.12 66.11 64.79 64.35 67.08 67.40 68.12 68.71 69.37 69.89 69.01 69.35 68.75 67.98 68.12 67.89 66.46 68.69 70.13 71.47 72.67 72.47 72.57 72.60 72.03 72.38 71.18 70.23 69.64 68.08 68.72 68.08 67.77 63.75
45.46 49.19 46.77 45.06 40.27 37.55 40.06 37.62 40.84 57.78 56.94 58.32 60.14 62.34 62.90 64.55 65.99 65.30 64.73 66.18 67.93 68.48 68.39 68.28 69.20 69.34 69.52 69.24 68.57 67.98 67.96 66.95 68.44 69.34 70.20 71.45 71.77 72.72 73.15 71.91 71.50 70.88 71.52 69.43 69.93 70.25 69.64 69.24 67.49
50.38 45.32 42.16 38.65 37.70 33.22 37.76 37.32 37.88 52.19 56.69 58.15 60.22 61.92 63.40 64.56 65.82 66.79 66.39 65.86 67.57 68.50 68.39 68.39 68.63 69.10 69.52 69.00 68.20 68.00 67.51 67.57 67.73 68.29 69.24 69.98 70.71 71.86 72.08 72.65 72.10 71.17 71.09 70.51 70.04 70.43 70.50 70.47 69.11
42.81 37.66 32.11 31.94 31.68 31.83 35.08 36.86 40.23 50.40 57.10 59.53 59.71 61.43 62.71 65.26 65.27 66.66 65.34 65.28 65.88 67.18 67.64 68.35 68.19 68.49 69.55 68.94 67.91 67.88 67.80 67.52 67.77 68.51 69.28 69.42 69.97 71.21 71.61 72.39 71.70 71.07 71.61 71.74 70.75 70.88 70.38 70.20 70.06
37.12 37.18 32.90 28.76 28.75 32.34 35.74 35.28 40.86 47.34 54.66 59.43 61.09 61.92 62.76 64.93 65.53 66.25 65.94 65.94 65.31 66.88 67.53 68.33 67.82 68.25 69.37 69.42 68.28 67.58 67.56 67.80 68.10 68.94 69.67 70.29 70.53 71.94 72.68 72.42 72.47 71.71 71.66 72.26 71.39 71.55 70.87 71.57 70.31
37.59 34.33 37.95 33.44 31.46 32.95 35.06 39.73 45.45 50.88 52.38 56.54 57.99 59.91 61.39 64.29 65.40 66.08 66.51 66.37 65.88 66.44 67.29 68.10 68.13 68.05 69.05 69.65 69.34 67.82 67.45 67.22 67.43 69.27 69.81 70.71 70.35 71.53 71.86 72.91 72.41 71.85 71.64 71.45 71.59 70.91 70.58 71.13 70.57
38.82 39.28 33.89 32.88 28.78 28.10 33.53 35.23 37.64 45.50 48.48 51.27 52.60 57.71 59.73 60.80 62.12 63.70 66.05 66.97 66.69 66.85 67.19 68.45 68.74 68.18 68.53 69.51 69.89 69.47 68.11 67.56 67.23 68.37 70.55 70.43 70.52 70.38 70.76 72.36 72.23 71.60 71.60 71.12 71.02 70.66 70.89 70.95 70.74
36.15 34.00 32.85 31.84 31.99 28.92 29.31 34.65 43.03 46.11 48.45 49.95 51.69 54.84 56.83 56.71 61.35 62.45 65.21 67.26 67.28 67.00 67.08 67.08 68.73 68.29 68.20 68.58 69.30 69.31 69.12 69.29 67.02 67.98 68.98 70.47 70.20 69.92 70.00 71.49 72.18 71.47 71.23 71.58 71.07 70.46 70.65 70.95 70.55
40.02 34.24 31.49 29.02 27.91 29.73 30.98 34.32 47.45 47.79 49.80 51.58 53.79 58.18 61.17 61.11 59.62 62.60 64.68 66.51 67.76 66.57 66.82 66.79 67.46 68.73 68.75 68.94 68.63 68.22 68.58 69.15 69.18 67.93 68.43 69.20 70.40 69.79 70.51 70.27 71.93 72.19 71.84 71.33 71.38 71.18 71.62 70.59 70.18

GFSSGP_sfc_wetblb_084.txt.gz
Wetbulb
73.53 72.05 70.61 68.17 59.50 59.84 54.52 55.83 60.89 60.25 59.65 63.05 63.08 60.74 58.94 61.10 59.24 53.79 65.43 67.74 69.39 70.00 73.12 74.85 76.67 76.00 75.96 75.97 76.39 76.38 76.02 75.28 75.91 75.84 75.31 75.84 75.50 75.04 74.97 75.05 75.60 76.07 76.38 76.25 76.74 76.68 76.66 76.54 76.73
72.24 71.18 69.64 65.34 57.91 51.42 53.43 59.75 59.31 61.29 63.19 63.41 65.24 64.08 63.31 61.20 65.33 63.82 66.14 68.66 69.74 71.49 72.85 73.83 76.63 76.72 76.18 76.33 76.56 76.31 75.99 75.63 75.85 75.60 75.52 75.91 75.56 74.84 75.77 75.20 75.01 75.79 75.89 76.43 76.53 76.41 76.26 75.89 76.00
71.87 71.48 65.01 60.70 56.02 52.79 54.25 60.52 62.09 63.11 63.63 63.94 64.17 66.12 64.61 62.19 64.83 64.58 68.39 68.80 71.28 72.30 73.49 74.22 76.54 76.75 76.28 76.52 76.60 76.51 76.43 75.56 75.87 75.61 75.62 75.68 75.53 75.26 75.01 75.02 75.69 75.54 75.47 76.18 76.30 75.98 75.81 76.01 75.95
69.31 68.52 64.49 56.98 54.67 58.08 58.52 61.19 63.67 63.65 65.28 65.87 65.15 62.72 64.97 67.07 64.67 68.43 68.63 71.06 71.60 73.07 74.13 75.57 76.59 76.59 76.32 76.45 76.51 76.56 76.21 75.61 76.09 75.51 75.64 75.79 75.15 75.44 75.53 75.56 75.58 75.71 75.48 75.89 75.90 75.64 75.75 75.81 75.65
69.89 65.41 57.16 55.73 56.14 59.63 62.05 63.60 62.85 62.33 63.98 64.11 65.37 61.53 62.09 67.40 69.48 68.64 69.08 71.16 71.67 72.57 73.64 74.70 77.17 76.17 76.46 76.92 76.61 76.13 76.03 76.18 76.20 75.56 75.70 75.59 75.45 75.61 75.50 75.09 75.39 75.37 75.40 75.69 75.17 75.36 75.40 75.56 75.89
64.01 64.59 56.10 53.50 56.22 60.29 61.68 63.26 62.84 63.25 64.45 64.42 63.29 62.57 64.01 68.55 67.88 68.03 69.61 71.12 72.74 73.01 73.68 74.33 76.55 76.57 76.41 76.37 76.23 76.36 76.14 76.26 76.38 76.18 75.75 75.37 75.55 75.14 75.17 75.62 75.51 75.32 75.34 75.18 75.09 74.90 75.44 76.05 76.55
63.44 58.16 57.18 56.57 57.35 58.80 60.66 63.87 62.46 63.79 63.56 63.66 65.95 61.95 65.51 66.99 68.48 69.68 70.53 71.65 72.81 73.72 73.66 73.71 74.20 75.32 76.81 76.66 76.35 76.42 76.32 76.43 76.04 75.80 75.47 75.74 75.77 75.37 74.73 75.75 75.51 75.48 75.37 74.90 74.60 74.74 75.34 75.97 76.12
64.83 61.04 57.70 58.21 57.12 56.71 62.95 63.07 66.40 65.14 63.16 67.46 66.80 60.91 62.15 66.58 69.90 70.53 70.96 71.81 72.76 73.09 73.32 73.53 74.09 74.32 74.39 74.74 76.51 76.68 76.80 76.77 76.39 75.84 75.72 75.55 75.46 74.96 75.58 75.53 75.88 75.73 75.29 74.95 74.70 74.96 75.53 76.31 76.86
67.41 58.55 55.93 57.48 58.07 59.91 65.48 63.83 66.79 67.43 64.73 66.66 66.98 65.47 67.08 69.14 69.96 69.34 69.99 70.81 71.72 72.35 72.27 72.96 73.44 73.32 73.72 74.33 75.39 76.63 76.75 76.55 76.53 75.85 75.69 74.77 73.67 73.83 74.22 75.16 75.42 75.26 75.29 75.01 74.87 75.04 75.56 76.17 76.14
60.98 58.24 58.05 61.70 62.78 61.16 63.82 64.12 64.26 63.23 63.32 63.36 64.66 67.04 68.47 68.90 68.06 67.50 67.31 67.27 69.09 70.60 71.84 72.17 72.57 72.70 73.55 75.19 74.40 74.32 74.98 75.18 74.67 74.45 73.51 73.27 72.80 73.45 73.84 74.74 75.26 75.57 76.09 75.73 75.54 74.73 75.15 72.94 73.12
60.45 58.26 61.08 62.83 64.25 64.08 63.69 63.60 64.23 62.37 60.02 64.28 63.27 64.97 67.29 67.19 67.00 66.94 67.00 67.37 68.17 70.56 72.31 71.98 72.28 72.41 72.99 73.42 73.50 73.57 73.87 73.80 73.72 73.51 73.37 73.17 72.99 73.02 73.42 72.39 72.66 73.98 74.80 72.61 72.04 69.75 70.51 71.61 72.02
53.06 59.73 61.54 62.78 64.88 63.11 62.85 63.80 62.13 63.04 64.95 66.55 66.15 67.15 67.05 66.27 66.14 66.23 66.37 67.40 68.84 70.08 71.64 71.66 71.92 72.10 72.41 72.93 72.75 72.83 73.06 73.05 72.85 72.90 72.35 72.32 71.51 71.94 71.82 72.31 72.60 71.95 71.72 70.77 70.66 70.65 71.02 71.06 70.46
54.77 57.44 58.64 60.09 63.74 62.46 64.94 62.89 63.26 63.09 66.97 67.04 67.01 67.10 66.34 66.03 66.51 66.98 67.07 68.03 69.26 69.79 71.09 71.18 71.38 71.63 71.49 72.44 72.40 72.62 72.50 72.84 72.43 72.35 72.47 71.75 71.29 70.97 71.72 71.71 71.57 70.74 70.69 69.77 69.68 69.85 70.84 71.07 71.17
56.63 57.24 56.48 56.89 60.53 62.65 62.14 62.39 62.87 64.15 67.91 66.75 66.00 65.62 66.07 66.01 66.51 66.63 66.44 66.24 68.54 69.57 69.93 70.56 70.85 71.35 70.89 71.81 71.83 71.92 72.15 72.62 72.56 72.28 72.48 71.96 70.77 70.65 71.65 71.46 70.94 69.66 69.78 69.67 69.15 69.05 70.97 70.97 70.98
55.24 53.03 52.22 60.17 59.70 60.86 62.69 58.81 59.31 65.64 68.03 66.27 65.08 65.28 65.79 65.88 66.77 66.41 66.50 66.52 68.75 69.46 69.97 69.10 70.07 71.21 70.52 71.28 72.12 71.78 71.79 72.36 72.26 72.19 72.01 72.59 71.73 70.51 71.50 71.31 71.08 71.05 69.65 69.23 70.92 71.14 70.76 70.26 70.62
47.71 45.91 42.77 56.69 62.24 62.58 60.32 54.47 61.45 66.33 66.17 64.68 64.75 64.85 65.23 65.76 66.55 67.29 67.48 67.16 68.86 69.08 68.53 68.63 71.37 70.87 70.37 70.72 71.64 71.85 71.80 72.25 72.60 72.23 71.54 71.54 72.43 71.33 70.83 71.35 71.37 71.48 70.69 70.33 70.64 70.93 69.48 69.51 69.48
44.43 41.44 43.02 46.60 61.89 61.86 59.02 55.25 61.32 65.79 65.58 63.64 63.93 64.30 64.47 64.82 66.11 67.14 67.90 67.71 68.79 68.89 68.11 68.34 69.82 69.88 70.28 70.54 71.14 71.21 71.82 71.57 72.14 71.90 71.04 71.95 72.41 72.24 71.35 71.28 71.45 70.80 70.65 71.27 71.33 70.29 69.39 68.81 69.20
40.65 41.54 40.54 44.59 58.34 60.40 58.32 57.33 60.25 63.77 64.75 63.84 63.80 64.35 64.38 63.86 65.11 67.04 67.80 68.11 68.84 68.76 68.42 69.14 69.71 69.94 69.94 70.60 69.87 69.66 69.68 70.44 72.48 72.25 71.46 71.82 72.69 72.79 72.32 71.08 71.71 70.82 70.08 70.08 70.52 69.60 69.35 69.29 68.51
45.50 43.80 42.83 45.51 48.66 46.73 48.02 55.15 57.99 62.65 63.29 63.15 63.62 63.58 64.15 64.18 66.15 67.06 67.65 68.13 68.52 68.87 68.27 68.54 68.63 69.13 69.80 68.75 68.77 68.88 68.11 69.67 71.89 72.24 72.83 72.84 72.71 72.61 71.74 71.93 71.71 71.44 70.86 70.45 70.40 69.59 69.20 69.81 68.17
45.05 43.05 41.97 48.49 49.49 45.71 47.93 51.09 58.70 61.11 62.26 62.90 63.51 63.40 63.97 64.78 64.59 65.64 66.18 67.43 67.76 67.86 68.35 68.62 68.83 68.77 69.78 69.75 69.36 70.34 69.37 70.26 72.21 72.66 73.39 73.93 72.76 72.87 72.07 72.22 72.24 71.67 70.74 70.10 70.41 70.87 69.39 69.01 68.20
43.16 41.45 41.99 44.65 48.09 54.67 53.61 47.95 55.05 59.42 61.03 61.69 64.28 64.61 64.51 64.73 63.24 64.69 65.01 66.38 67.81 67.59 68.15 68.77 68.93 69.07 70.42 69.45 69.40 69.06 70.24 70.60 71.09 71.92 72.61 73.42 73.60 73.51 72.42 73.07 72.78 71.65 71.41 69.81 71.14 70.13 70.12 67.96 67.89
38.61 47.20 47.39 45.79 41.39 37.27 44.78 34.96 47.42 56.02 57.73 60.09 60.33 62.00 62.54 64.23 64.21 64.62 64.78 66.19 67.41 67.97 69.13 69.34 69.42 69.04 70.56 69.02 69.03 69.00 67.94 68.00 69.87 71.36 72.54 73.24 73.92 73.39 73.58 73.29 73.13 72.16 72.08 71.68 70.73 69.69 70.05 69.94 67.53
44.95 48.27 46.25 44.81 39.49 37.00 39.19 36.60 38.57 54.51 55.41 57.88 60.57 61.18 62.62 62.98 65.06 64.10 64.84 66.79 67.77 68.61 68.82 69.41 69.61 68.87 70.20 69.18 69.21 68.80 68.04 68.93 70.11 71.06 72.03 72.62 73.28 73.83 73.83 73.26 72.80 72.64 72.77 72.02 71.72 71.76 72.39 71.99 68.78
49.14 43.26 40.15 37.62 36.06 32.37 37.04 36.90 37.11 51.81 55.35 58.32 60.58 62.34 62.87 63.28 64.58 65.42 65.04 66.97 67.75 68.64 68.76 69.07 69.31 68.80 69.18 69.52 68.17 68.36 68.94 67.91 68.58 69.63 70.49 71.28 72.58 73.08 73.86 73.65 72.96 72.70 72.60 72.08 71.76 72.97 72.72 72.74 71.60
41.89 37.39 30.82 30.97 30.96 31.64 32.92 36.58 38.83 44.76 49.35 58.32 59.78 61.37 63.08 63.96 64.05 65.32 64.34 64.64 66.99 67.39 68.11 68.38 68.57 68.56 69.05 69.13 68.74 68.12 68.79 68.92 68.63 69.21 69.94 70.54 71.20 72.30 72.92 73.50 73.44 73.10 73.51 73.29 72.76 73.19 72.78 72.73 72.67
36.40 36.62 32.07 27.74 27.95 31.91 35.08 34.18 42.23 49.61 52.26 55.27 60.02 60.85 62.30 63.21 64.49 65.35 66.49 64.61 66.18 67.41 67.68 68.17 67.57 68.33 69.05 69.05 68.80 68.74 68.36 69.11 69.22 69.60 70.02 70.77 71.20 72.28 73.68 73.32 73.80 73.49 73.43 73.40 72.97 73.39 73.10 73.19 72.48
36.53 33.94 35.78 31.83 29.25 31.79 34.07 38.94 44.56 49.92 51.14 52.30 53.63 58.62 59.81 62.01 64.35 65.11 66.96 66.56 65.20 67.11 67.37 67.79 67.57 68.20 68.85 69.27 69.06 68.12 68.17 68.35 68.76 69.85 70.59 71.19 71.88 72.64 73.62 73.86 73.80 73.60 72.81 73.39 73.43 73.05 72.85 73.48 73.56
37.96 37.81 33.26 32.49 28.54 28.01 32.59 34.11 37.15 44.24 46.74 49.84 52.28 53.01 55.51 58.23 63.47 65.23 66.26 66.85 66.41 66.56 67.94 67.97 68.38 68.13 68.88 69.58 69.54 68.59 68.14 68.28 68.80 69.60 70.00 71.12 72.01 72.15 72.92 73.57 73.77 73.65 73.60 73.22 73.19 72.98 72.73 73.10 73.03
35.23 32.94 31.98 31.75 30.96 29.21 28.98 34.09 41.31 41.44 45.23 48.04 51.07 55.96 58.18 60.40 59.67 62.49 66.12 67.33 67.17 66.56 67.60 67.62 68.22 68.08 68.41 69.41 69.83 69.47 68.35 67.77 67.76 68.83 70.35 71.20 72.04 72.11 71.96 72.87 73.39 73.34 72.98 73.24 72.67 72.80 73.11 72.65 72.85
36.55 32.87 30.37 29.75 28.98 28.53 30.37 34.50 42.85 42.43 45.23 49.27 50.53 53.55 59.19 61.84 62.43 60.18 63.00 66.54 67.07 66.22 66.64 67.24 68.02 68.12 68.47 69.05 69.66 69.59 69.51 68.94 67.66 67.94 68.84 70.77 71.76 71.92 72.00 71.85 73.09 73.24 73.00 72.99 72.78 72.37 72.90 72.34 72.39

GFSSGP_sfc_wetblb_087.txt.gz
Wetbulb
74.16 73.02 71.77 69.09 60.42 59.97 55.65 56.75 61.74 60.39 60.98 64.06 64.16 61.54 60.26 61.69 60.35 59.02 68.81 70.44 71.72 72.36 74.19 74.97 76.88 76.15 76.08 76.42 76.28 76.41 75.65 75.76 76.66 76.00 75.62 75.64 75.06 74.62 75.06 75.78 76.17 76.51 76.67 76.93 76.90 77.04 76.85 77.05 76.86
73.29 70.79 70.96 66.83 58.15 54.29 56.10 60.68 60.72 61.94 64.15 64.78 64.82 63.35 63.42 61.35 66.27 65.38 66.70 70.92 72.31 73.12 74.43 75.10 76.86 76.53 76.24 76.63 76.34 76.24 76.00 76.12 76.00 75.56 76.14 75.80 74.98 75.70 75.47 74.88 75.91 76.22 76.50 76.76 76.79 76.53 76.48 76.57 76.81
71.93 71.96 66.83 61.28 56.73 55.12 55.16 60.49 62.97 63.50 64.82 64.82 64.96 66.87 65.66 63.07 65.30 66.53 70.18 71.50 72.96 73.95 75.13 75.73 76.45 76.61 76.46 76.59 76.75 76.27 76.15 75.84 75.84 75.60 75.71 75.74 75.45 74.88 75.67 75.65 75.59 75.61 76.30 76.38 76.55 76.23 76.24 76.18 76.01
70.25 69.63 65.60 59.00 55.19 58.56 58.94 61.89 63.06 63.09 65.96 67.38 66.13 62.57 65.72 68.03 66.36 69.47 70.80 71.90 72.55 74.16 74.80 76.16 76.47 76.51 76.42 76.77 76.71 76.52 76.01 75.79 76.09 75.72 75.36 75.61 75.38 75.39 75.65 75.30 75.78 75.73 75.80 76.10 75.84 76.01 76.18 75.78 76.15
70.20 67.13 59.86 56.88 56.01 59.41 62.27 63.68 63.53 63.38 64.56 64.80 65.95 61.80 62.52 68.40 70.87 70.01 71.01 71.86 72.25 73.24 75.05 76.09 77.29 76.77 76.51 76.61 76.51 76.51 75.92 76.17 75.51 75.79 75.75 75.71 75.32 75.65 75.26 75.45 75.34 75.37 75.64 75.68 75.87 75.68 75.46 75.71 76.01
65.02 65.95 59.10 54.83 56.40 60.70 62.13 63.56 63.15 64.13 65.49 64.35 63.69 63.81 64.70 70.12 68.60 70.00 71.37 71.89 72.93 73.05 74.94 75.87 76.68 76.64 76.75 76.71 76.03 76.15 76.16 76.01 75.94 75.87 75.91 75.54 75.52 75.65 75.79 75.60 75.77 75.74 75.79 75.65 75.38 75.56 75.76 75.78 76.42
64.51 62.56 58.36 57.77 57.64 57.84 60.82 64.30 63.60 64.31 64.83 64.48 66.69 62.97 65.57 67.02 68.98 70.58 71.56 72.62 73.06 74.18 75.15 75.91 76.17 76.82 76.15 76.68 76.30 76.21 76.39 75.99 76.09 75.82 75.83 75.69 75.34 75.37 75.45 75.82 75.56 75.42 75.46 75.24 75.13 75.60 76.15 76.39 76.77
66.90 63.00 59.01 58.35 56.30 57.35 63.17 63.59 66.73 65.18 63.87 68.52 68.46 62.57 62.11 66.80 69.21 70.93 72.04 72.49 73.28 74.35 75.20 76.02 75.95 76.74 76.88 76.96 76.59 76.36 76.15 76.38 75.82 75.77 76.02 75.84 75.44 75.48 75.33 75.39 75.90 75.57 75.43 75.29 75.40 75.93 76.09 76.31 76.30
68.10 59.93 57.51 58.29 58.57 60.32 64.35 63.81 66.84 67.45 66.26 66.74 67.77 66.78 67.86 68.84 69.86 69.95 70.53 71.52 72.70 73.44 74.53 74.83 75.85 76.77 76.88 76.89 76.65 76.51 76.60 76.14 76.00 75.97 75.67 76.24 76.23 75.84 75.46 75.46 75.52 75.60 75.32 75.15 75.54 75.79 75.89 76.14 76.46
63.33 60.71 58.71 62.85 63.48 62.66 64.81 65.38 65.01 64.95 64.88 64.90 66.13 68.30 68.78 68.76 68.43 68.06 68.80 69.09 70.47 71.81 73.29 75.32 75.60 75.84 76.34 75.88 77.10 77.05 77.01 76.82 77.01 76.91 76.91 76.43 76.68 76.03 75.48 75.66 75.88 76.02 75.51 75.82 75.59 75.77 74.75 75.26 76.06
62.88 60.30 62.76 63.24 65.16 65.81 64.45 64.69 64.40 63.76 61.97 65.37 64.22 65.51 67.06 67.17 67.22 67.59 68.70 69.70 70.49 72.04 73.38 74.93 75.68 75.93 75.84 76.41 76.32 76.30 77.35 77.74 76.75 77.03 76.65 76.36 75.99 75.77 76.78 77.25 76.92 76.56 75.51 74.89 73.65 73.90 74.69 74.78 75.69
58.58 61.98 63.48 63.64 65.64 64.67 64.12 65.07 63.02 64.08 65.66 68.52 68.11 67.83 66.75 66.31 66.72 67.89 68.61 69.78 70.79 71.32 73.03 74.71 75.46 75.99 76.20 76.43 75.78 75.91 76.10 76.43 75.78 76.19 76.53 76.16 75.03 75.56 76.46 75.75 76.10 75.65 74.51 73.77 73.64 74.16 74.74 74.60 74.45
59.44 59.83 61.02 62.54 64.86 64.83 66.10 63.39 63.17 64.90 67.65 68.67 68.54 67.40 66.88 67.06 67.54 68.95 69.81 70.51 71.06 70.57 73.02 74.16 75.40 75.79 75.89 76.20 75.88 75.65 75.56 75.33 75.69 76.11 76.07 76.30 74.75 75.03 75.54 75.72 75.54 74.99 74.08 73.59 73.51 74.41 74.20 74.32 74.22
59.51 59.57 60.52 60.05 61.35 64.38 63.72 63.43 64.43 64.98 67.38 67.41 67.49 67.01 67.89 68.16 68.48 69.05 69.32 69.72 69.97 71.33 72.65 73.99 74.69 75.19 75.92 75.53 76.42 75.70 75.53 75.76 75.59 75.87 76.28 76.00 75.42 74.82 74.76 74.90 74.21 74.43 74.55 74.01 73.47 74.52 74.30 74.64 75.02
58.69 55.01 56.51 62.86 60.22 62.58 64.74 60.84 60.84 65.97 66.79 66.32 66.67 67.66 67.97 68.46 68.92 68.41 69.03 68.68 70.20 71.84 73.05 73.36 73.94 74.58 75.32 75.57 75.85 75.24 75.29 75.33 75.66 76.38 76.40 75.95 75.58 75.64 75.87 75.68 74.57 73.73 73.61 73.78 74.44 75.15 75.08 75.00 74.91
54.68 52.82 50.91 61.89 62.58 63.67 63.34 58.41 63.11 67.21 65.68 64.96 65.64 66.50 66.80 67.84 68.33 69.39 69.92 69.77 70.52 71.33 72.42 73.61 72.60 73.73 74.83 75.12 75.52 74.91 75.10 75.45 76.53 76.86 77.10 76.11 76.25 75.79 75.27 76.28 74.66 75.18 73.61 73.03 74.24 74.89 74.02 74.40 74.28
52.10 51.49 49.23 57.33 63.91 62.97 62.09 59.19 64.34 67.45 66.75 64.88 65.67 65.81 66.47 67.44 68.93 70.27 70.79 70.26 70.28 71.49 72.37 72.89 73.53 73.29 74.35 75.28 74.93 75.07 75.80 75.79 76.48 77.04 76.76 76.30 76.00 75.92 75.80 75.77 75.07 75.23 73.90 74.27 74.25 74.23 74.45 73.46 73.53
49.74 49.67 49.60 52.88 61.65 62.40 60.74 60.48 63.22 66.22 66.48 65.74 65.96 66.26 66.25 66.86 68.36 70.26 70.93 71.00 70.60 71.21 72.45 72.92 73.00 73.95 74.89 74.79 74.84 74.79 75.21 75.53 76.38 76.30 76.58 76.02 76.97 76.25 76.14 75.40 75.34 74.38 73.80 74.06 74.44 74.38 74.47 74.37 73.59
51.79 51.11 50.30 52.24 57.93 54.78 53.82 54.59 60.34 64.52 65.82 65.11 65.73 65.69 66.20 66.94 69.27 70.78 71.25 71.44 70.94 71.17 71.88 72.39 72.24 73.97 73.99 73.49 72.92 73.14 73.17 74.35 75.14 76.24 76.66 75.68 76.66 76.45 76.61 75.43 75.42 74.38 73.88 74.13 75.01 73.78 73.88 73.63 74.11
51.74 50.61 50.18 51.30 52.33 51.67 51.96 55.58 61.42 63.74 64.76 65.59 65.64 65.86 66.53 67.21 68.35 69.57 70.62 71.13 70.93 71.05 71.29 72.11 72.62 73.79 74.17 74.10 74.30 74.59 74.54 74.51 75.72 76.48 76.76 76.52 76.63 76.27 76.27 76.16 75.46 76.11 74.92 75.02 74.86 74.38 73.12 74.13 73.51
51.26 50.87 49.48 49.69 51.14 58.94 55.22 54.60 58.99 62.20 64.25 66.20 66.53 67.35 67.64 67.57 67.59 68.62 69.41 70.28 70.91 70.81 71.17 71.83 73.00 73.66 74.40 75.02 74.48 74.54 74.65 74.80 74.66 75.32 75.82 76.66 77.13 76.21 76.38 76.63 76.07 76.37 75.52 73.66 74.90 74.35 74.18 72.11 72.86
49.81 52.24 51.16 50.01 49.59 46.76 51.59 46.15 52.78 60.37 62.06 63.93 65.45 66.66 66.99 67.83 68.92 69.18 69.43 69.67 70.48 71.08 71.95 72.54 73.36 73.81 74.41 75.02 74.35 74.53 73.29 72.40 73.72 75.19 75.87 76.68 77.24 76.94 76.60 77.02 76.81 76.42 75.51 74.93 75.40 75.00 74.70 73.77 71.52
51.30 52.78 51.80 50.75 49.31 47.38 46.73 46.86 49.10 58.74 58.71 62.31 64.84 66.40 67.36 68.17 68.90 68.83 69.48 70.00 70.71 71.54 71.56 72.43 73.44 73.82 74.36 74.53 75.40 74.18 74.40 74.21 74.54 75.00 76.47 76.96 77.37 77.35 76.86 77.16 77.02 76.48 76.73 76.38 76.36 74.96 75.50 75.28 73.81
52.65 49.60 47.99 47.59 47.53 43.55 46.64 46.79 46.74 52.94 54.62 56.13 63.68 66.32 66.90 68.01 68.80 69.31 70.15 70.64 70.61 71.60 71.80 72.12 72.89 74.03 74.22 74.36 74.41 74.67 74.87 74.65 73.78 74.45 74.85 75.14 75.98 76.77 77.56 77.07 77.20 77.19 76.81 76.50 76.27 75.92 76.45 76.57 76.07
51.19 48.80 42.23 41.19 41.30 42.39 44.89 45.47 49.76 53.75 55.59 57.83 57.80 64.44 67.38 68.14 68.49 69.01 68.70 69.11 69.96 70.69 71.28 71.75 73.36 73.48 73.64 73.89 74.11 74.01 74.70 75.22 75.09 75.24 74.79 75.40 75.08 75.54 76.98 77.51 77.21 76.76 78.15 77.44 76.65 76.66 76.79 76.82 76.28
49.79 49.21 43.51 38.18 39.16 42.11 44.32 44.26 48.40 54.48 57.50 60.02 62.04 64.30 66.12 67.71 68.80 68.78 69.38 69.18 69.48 70.63 71.25 71.71 72.66 73.56 73.08 73.26 74.73 75.17 75.16 73.89 74.14 75.43 74.75 74.85 74.97 75.66 77.85 77.49 77.69 77.58 77.35 77.50 77.55 75.99 76.50 77.21 76.60
44.65 44.70 46.27 43.10 41.75 43.25 44.72 46.42 51.07 53.61 55.09 57.84 58.85 61.57 62.41 65.00 67.45 68.80 69.58 69.83 69.51 70.60 71.66 72.25 72.97 73.69 73.60 73.19 74.74 74.76 74.32 74.48 74.37 75.81 75.79 74.97 76.37 76.05 77.24 77.28 77.44 77.69 77.32 77.40 77.56 75.63 76.70 76.93 77.04
46.05 45.64 43.48 45.14 39.09 38.93 41.54 43.74 44.79 47.59 50.31 55.32 57.23 59.37 63.07 64.70 65.96 66.55 69.03 69.99 69.93 70.60 71.56 72.04 73.10 73.17 74.14 73.55 73.77 73.53 73.69 74.20 74.60 74.77 75.24 75.77 76.04 76.62 76.57 77.07 77.37 77.49 77.40 77.20 77.31 76.63 77.12 76.50 76.38
44.47 43.66 42.44 45.04 42.85 41.37 39.56 41.93 46.37 47.97 51.24 54.61 57.06 58.85 62.10 64.80 66.08 66.86 67.26 69.62 70.74 70.42 71.13 71.44 71.92 72.37 72.54 73.06 74.35 74.59 73.66 73.39 73.66 73.25 74.41 75.49 76.55 76.88 76.65 77.07 77.19 77.12 77.24 77.65 77.08 76.84 76.74 76.17 76.58
43.49 41.28 41.57 43.58 40.83 41.67 44.76 41.54 49.24 51.34 53.92 55.27 55.75 57.84 60.54 64.31 66.62 67.35 65.86 66.79 70.45 70.76 70.09 70.90 71.46 71.65 72.18 73.72 74.41 73.39 74.05 73.47 72.95 72.95 73.68 74.71 75.29 76.76 76.93 77.02 76.84 76.99 77.10 77.52 77.14 76.48 75.86 75.96 75.94

GFSSGP_sfc_wetblb_090.txt.gz
Wetbulb
74.23 73.65 73.74 70.29 62.96 63.62 58.76 59.71 64.20 61.90 63.59 66.48 66.63 63.25 62.16 63.49 63.26 61.24 71.16 72.51 72.62 73.78 75.00 75.63 77.13 76.45 76.53 76.87 76.55 75.76 76.04 76.92 76.48 75.84 76.05 75.30 74.84 75.30 75.93 76.51 76.73 76.91 77.40 77.23 77.27 77.01 77.11 77.26 76.86
73.73 70.89 72.40 69.66 61.53 57.28 58.37 62.95 61.54 63.42 66.12 67.33 65.96 65.07 64.20 63.78 68.96 68.24 69.33 72.47 73.36 74.42 74.98 75.39 77.03 76.47 76.75 76.47 76.69 76.25 76.19 76.64 76.08 76.51 76.52 75.47 75.94 75.93 75.17 75.97 76.54 76.90 77.12 77.23 76.92 76.86 76.86 77.11 76.98
71.73 72.38 68.22 64.76 58.36 57.56 58.27 61.61 62.29 65.53 66.71 66.67 64.67 68.53 67.12 65.61 68.30 68.44 71.74 73.06 73.86 74.77 75.45 76.89 76.62 76.53 76.76 76.65 76.62 76.38 76.13 76.10 76.03 76.22 76.28 75.90 75.39 76.24 76.00 76.15 75.91 76.57 76.70 76.85 76.64 76.42 76.53 76.77 76.98
71.40 71.28 68.86 61.75 55.92 59.26 60.97 62.11 64.46 64.88 66.21 68.78 67.79 64.84 68.11 70.26 69.04 70.56 72.02 73.51 74.28 75.02 75.91 76.31 76.51 76.63 76.61 77.01 77.05 76.74 76.14 76.52 75.89 75.81 76.19 75.77 75.80 76.14 75.83 75.86 76.05 76.29 76.46 76.16 76.56 76.36 76.45 76.27 76.24
73.21 70.18 61.68 58.97 56.32 59.86 62.15 63.58 65.93 64.77 66.21 67.40 66.20 64.28 65.32 69.25 71.80 71.68 72.05 73.65 74.13 74.69 75.89 76.56 77.26 76.58 76.80 76.91 76.90 76.36 76.19 76.18 75.96 76.12 75.86 75.91 75.86 75.98 75.86 75.66 75.91 76.13 75.97 76.28 76.20 75.89 75.78 76.28 76.66
67.99 68.73 59.90 56.08 57.02 60.81 62.72 64.94 65.20 66.20 67.46 66.91 66.00 66.46 66.31 71.32 70.48 71.14 72.43 73.25 74.29 74.29 75.36 76.28 77.14 76.83 76.78 76.86 76.53 76.30 76.29 76.18 75.99 76.11 75.90 75.82 75.72 76.09 75.95 75.61 76.20 76.14 76.23 76.09 76.09 75.79 76.39 76.74 76.48
65.93 64.64 59.84 58.40 58.79 59.51 61.43 64.92 64.98 65.26 66.91 66.64 69.36 65.48 67.20 68.76 70.63 72.00 72.84 73.57 73.74 74.68 75.52 76.79 76.78 77.23 76.94 76.38 76.65 76.44 76.46 76.34 75.99 75.66 75.78 75.63 75.55 75.70 75.87 75.58 75.95 75.75 75.75 75.84 76.09 76.53 76.69 76.54 76.42
68.56 66.50 59.47 61.18 59.47 59.06 63.79 64.87 67.14 66.78 66.30 70.53 70.70 65.06 64.00 68.74 71.47 72.47 72.79 73.02 73.53 74.89 75.63 76.34 77.16 76.26 76.89 77.01 76.63 76.53 76.41 76.02 75.73 75.85 76.21 75.75 75.80 75.50 75.75 75.79 76.45 75.75 75.64 76.00 76.39 76.34 76.44 76.51 76.80
70.03 63.34 60.36 60.88 59.96 62.84 65.19 64.34 67.33 68.67 67.60 68.30 69.57 69.43 69.11 70.25 71.55 71.35 71.35 72.00 73.54 74.09 75.04 75.60 75.32 76.52 76.52 76.80 77.26 76.88 76.49 76.11 75.96 76.11 76.20 75.98 76.94 75.98 76.09 75.98 75.89 75.64 75.69 75.86 76.03 76.19 76.27 76.70 76.60
64.74 64.58 61.83 64.95 65.83 63.72 64.38 66.74 65.04 65.34 66.88 67.11 68.44 69.47 69.52 69.80 70.08 69.69 69.97 70.56 71.80 72.76 73.80 74.62 76.01 75.47 76.61 76.17 77.38 77.49 76.66 77.05 77.03 77.12 77.16 77.82 76.77 76.63 76.18 76.70 76.00 75.44 75.98 76.03 75.96 75.65 75.87 77.48 75.80
65.45 63.95 64.89 65.09 66.04 66.94 65.95 66.82 66.95 65.49 65.40 68.12 67.34 67.43 67.84 68.60 69.47 69.79 70.40 71.25 71.77 73.17 73.73 74.74 76.13 76.36 75.76 76.57 76.89 76.47 76.62 76.49 76.59 77.29 76.86 76.60 75.97 76.04 76.48 77.26 76.12 75.28 75.96 75.04 75.79 75.67 76.00 76.24 76.26
62.34 65.53 65.27 65.05 65.73 65.32 65.15 67.84 65.40 66.82 67.85 70.92 70.17 68.98 68.06 67.91 68.82 69.50 70.25 71.11 72.06 72.75 73.61 75.08 75.94 76.36 76.92 76.59 75.66 75.95 75.69 76.21 75.36 76.17 76.74 75.86 75.15 75.46 75.57 75.16 75.03 74.95 74.76 75.25 76.32 75.76 76.01 75.85 76.14
62.54 63.60 63.82 63.63 64.74 65.17 67.16 65.22 65.58 66.65 69.55 71.32 70.36 68.45 67.70 68.15 68.90 69.91 70.98 71.74 72.65 72.23 73.53 74.94 75.61 76.14 76.85 77.03 75.50 75.90 76.02 76.19 76.02 76.02 76.18 75.61 74.68 75.13 75.50 75.47 75.17 74.96 75.17 75.02 75.26 75.59 76.06 75.75 75.70
62.58 64.14 63.57 62.66 61.81 64.83 64.86 65.52 66.31 67.20 70.23 69.38 68.78 67.59 67.94 68.16 68.94 69.90 70.60 71.22 72.08 72.33 73.55 74.81 75.18 76.71 77.00 76.71 76.77 76.60 77.16 76.99 76.35 76.06 76.65 77.02 75.53 75.60 75.32 75.44 75.03 75.07 75.80 75.42 75.20 76.03 75.31 75.66 76.14
61.93 58.46 61.20 63.43 61.51 62.87 66.32 63.43 63.48 66.81 69.10 68.08 67.42 67.38 68.00 68.79 69.80 69.97 70.86 71.22 71.88 72.20 73.97 74.46 74.97 75.96 76.47 76.62 76.33 76.25 76.75 76.36 76.47 77.66 77.89 77.41 77.15 76.40 76.45 75.64 75.30 75.20 75.74 75.96 75.76 76.26 76.78 75.65 75.36
60.03 56.98 56.77 62.25 62.97 64.87 65.73 60.42 65.42 66.82 67.64 67.46 67.18 67.29 68.12 69.14 69.73 70.70 71.14 71.54 71.68 72.32 73.73 74.58 74.20 75.02 76.11 76.17 76.30 76.10 76.43 76.73 77.73 77.92 77.80 77.13 77.69 76.87 76.52 75.37 76.24 76.46 74.83 75.24 75.53 76.10 75.20 75.05 74.48
58.77 56.16 56.07 59.56 64.34 64.38 64.86 61.93 66.36 67.90 66.62 66.40 67.45 67.71 68.74 69.37 69.63 70.10 70.35 70.56 71.16 72.51 73.99 73.92 74.12 74.56 75.41 76.68 76.47 76.59 77.38 76.80 77.22 77.90 78.08 78.06 77.97 76.71 76.40 75.52 77.75 77.57 74.59 74.76 75.35 75.16 76.47 73.75 74.04
54.73 55.90 55.95 57.72 62.41 63.17 62.81 62.78 65.87 68.63 66.56 65.58 67.04 68.13 68.31 67.84 67.62 70.22 71.12 71.41 71.48 72.40 73.81 74.29 74.10 75.18 76.05 76.17 76.45 75.92 76.11 76.63 77.33 77.18 77.33 77.73 78.08 77.03 77.91 77.13 76.74 76.52 75.22 74.90 75.57 75.62 75.72 74.90 74.40
56.57 57.42 55.09 58.55 62.24 60.32 61.16 59.56 64.22 67.18 67.99 66.31 66.71 67.46 67.48 67.36 69.36 71.53 72.20 72.24 71.40 72.03 72.89 73.96 74.43 75.73 75.50 74.86 74.27 74.66 74.68 77.52 76.72 77.20 77.82 77.00 76.99 77.03 77.44 76.52 76.66 76.04 75.00 75.60 76.25 75.29 75.13 73.57 75.79
55.88 55.67 55.79 55.89 56.21 55.84 55.68 56.37 60.81 64.60 66.61 68.25 67.91 68.17 67.98 68.48 69.14 71.09 72.23 72.92 72.43 71.73 72.43 73.46 74.22 75.63 76.24 75.61 75.88 75.71 75.79 76.87 76.68 77.43 78.01 78.04 77.15 77.44 77.08 77.70 76.54 76.52 75.41 76.44 76.17 75.89 73.42 74.12 75.54
54.59 54.99 54.39 54.30 54.67 58.08 56.84 56.37 60.39 63.81 66.23 67.55 68.83 69.20 69.87 69.35 68.60 70.61 71.73 72.50 72.99 72.72 72.03 73.10 74.41 75.34 76.40 76.96 76.62 77.04 76.93 77.28 76.24 77.71 76.62 77.56 77.73 77.14 77.93 77.44 77.64 78.05 76.98 74.91 76.28 75.89 75.35 71.92 74.72
51.85 55.86 55.65 53.52 52.99 51.41 56.63 50.42 57.22 62.89 63.74 66.20 68.18 69.20 69.58 69.94 70.28 70.50 71.64 72.29 72.90 73.20 73.04 73.41 74.80 75.49 76.21 77.29 76.66 76.93 74.67 73.56 74.57 76.32 76.83 77.46 78.43 78.10 77.70 77.47 77.34 77.35 76.49 76.48 76.07 75.88 75.81 76.01 71.95
53.36 56.51 54.97 54.98 53.47 51.99 52.61 50.87 55.31 59.79 61.03 64.16 66.88 68.72 69.72 70.56 70.73 70.42 71.49 72.31 73.15 73.81 73.84 73.41 74.75 75.72 76.43 77.11 77.36 76.12 76.03 74.65 75.61 75.87 78.57 79.33 79.15 78.55 77.75 77.47 77.25 76.96 76.23 76.84 77.13 77.45 76.92 75.06 73.97
56.52 54.97 54.39 54.01 53.35 47.27 51.65 50.90 52.32 55.93 56.79 59.28 62.94 68.42 69.92 70.56 71.21 71.64 72.24 72.75 73.06 74.05 74.26 74.25 74.62 75.97 76.49 76.65 77.03 77.01 76.35 75.79 74.44 75.92 75.04 79.30 77.00 77.35 78.49 78.01 77.60 77.26 77.16 76.51 76.48 77.86 77.33 78.16 76.37
55.33 52.25 46.40 45.15 45.25 45.44 52.85 50.60 53.50 56.95 60.26 61.78 60.17 65.34 69.83 71.19 71.07 71.63 71.83 72.08 72.81 73.38 74.09 74.30 74.92 75.55 76.44 76.31 76.59 76.90 77.14 77.08 76.50 77.12 75.26 78.32 77.45 75.87 77.91 78.79 79.08 77.35 77.92 77.64 77.94 78.60 77.50 76.80 75.84
53.61 52.43 47.20 41.89 43.20 46.02 51.51 47.86 52.43 58.85 62.20 63.49 65.41 66.58 68.30 70.35 71.27 71.55 72.22 72.39 72.88 73.27 74.07 74.45 74.79 75.40 76.27 76.24 76.60 77.30 77.64 76.35 75.98 76.09 75.08 75.32 74.87 76.31 78.40 78.49 78.23 78.01 77.35 77.35 78.28 76.93 76.38 76.29 75.83
53.05 50.39 53.29 47.87 49.79 47.34 48.80 52.36 55.62 57.87 60.01 62.56 64.05 65.90 66.33 68.10 70.36 71.35 72.34 72.78 72.86 73.30 74.12 74.79 75.05 75.67 76.14 76.03 76.66 77.10 77.44 77.02 76.21 76.74 76.96 75.61 77.22 76.71 78.22 78.02 78.11 78.05 77.70 77.51 77.92 76.20 76.76 77.19 76.36
51.86 55.15 47.79 48.40 43.57 42.84 46.84 49.06 49.94 53.68 57.61 60.36 61.25 63.50 66.61 68.42 68.55 69.36 71.17 72.66 73.54 73.70 74.24 74.93 75.46 75.59 76.12 76.20 76.30 76.26 76.94 77.23 77.25 76.86 76.63 76.55 76.71 77.36 77.92 78.33 77.94 77.47 78.07 77.92 78.29 77.19 77.09 77.46 76.30
48.44 49.17 50.13 50.64 48.88 45.34 43.75 46.90 52.34 54.24 58.31 58.97 61.09 63.57 65.93 66.16 69.12 69.67 68.81 70.79 73.16 74.15 73.93 74.05 74.76 75.29 75.73 76.10 76.24 76.24 76.30 76.74 77.08 76.39 76.26 76.63 77.28 77.60 77.88 78.39 78.52 78.02 77.67 78.50 78.50 78.05 77.28 76.64 76.58
48.52 49.17 50.39 46.87 46.70 48.71 48.75 44.98 54.49 56.55 59.27 60.27 60.97 63.80 62.24 63.56 64.25 66.70 70.28 70.74 71.01 72.57 73.49 73.41 74.19 74.49 75.38 76.12 76.33 76.27 76.67 76.74 76.24 76.22 76.01 76.55 76.47 77.53 77.90 78.10 78.09 78.28 78.11 78.77 78.55 77.50 76.59 76.54 76.30

GFSSGP_sfc_wetblb_093.txt.gz
Wetbulb
74.45 73.49 74.50 70.56 61.68 63.95 59.70 60.59 65.19 63.10 63.60 67.18 66.19 63.89 64.46 67.92 64.39 60.24 72.12 72.93 74.27 73.84 74.81 76.23 77.30 76.52 76.79 76.37 75.67 76.37 77.22 76.42 76.16 76.16 75.43 74.96 75.64 76.17 76.59 76.95 77.26 77.47 77.59 77.38 77.42 77.40 77.19 77.11 77.02
74.34 71.58 72.21 69.90 61.06 57.56 58.60 63.42 62.23 64.09 66.59 67.83 66.61 65.53 66.44 65.18 69.08 68.83 69.90 73.07 74.45 74.03 74.53 75.45 77.18 76.94 76.94 76.58 76.13 76.44 76.76 76.24 76.64 76.62 75.79 76.24 76.14 75.46 76.18 77.03 77.06 77.25 77.41 77.16 77.27 77.35 77.23 77.17 77.08
75.43 71.65 68.00 65.19 62.37 56.83 58.64 62.42 63.93 65.98 67.24 66.79 66.00 69.14 68.96 66.17 68.73 70.08 72.19 73.68 74.47 73.95 74.71 76.52 76.89 77.02 76.75 76.79 76.60 76.46 76.44 76.19 76.57 76.71 76.06 75.55 76.44 76.16 76.43 76.26 76.68 76.94 77.01 77.01 76.85 76.68 77.05 77.28 76.88
70.60 71.96 69.40 62.13 58.68 62.22 63.01 64.09 66.04 65.77 67.37 68.15 68.72 66.08 69.44 71.38 69.64 71.75 73.17 73.90 73.99 74.32 75.72 76.57 76.75 76.98 76.98 76.93 76.93 76.47 76.73 76.00 76.24 76.45 76.06 75.98 76.26 76.04 76.07 76.37 76.70 76.84 76.65 77.07 76.71 76.21 76.80 76.68 76.59
72.80 70.26 61.63 59.40 56.90 60.49 64.54 65.40 65.76 65.20 67.20 67.41 67.61 66.14 66.60 69.89 71.81 72.62 73.13 73.95 73.67 74.59 75.60 76.31 77.08 76.88 76.89 77.32 76.91 76.41 76.45 76.33 76.09 76.32 76.29 76.13 76.35 76.27 75.96 76.18 76.51 76.52 76.77 76.68 76.49 76.29 76.63 76.78 76.61
67.08 68.94 59.29 56.94 57.38 60.82 65.05 66.85 67.08 65.49 68.42 67.39 67.78 67.02 67.21 71.88 70.86 72.32 73.65 73.63 74.02 74.30 74.82 75.87 76.87 76.85 77.07 77.15 76.56 76.52 76.48 76.30 76.22 75.98 75.87 76.04 76.01 75.93 76.05 76.32 76.24 76.43 76.57 76.43 76.68 76.99 77.20 76.82 76.50
66.90 64.64 59.50 58.23 57.91 59.71 63.35 67.78 66.42 67.03 67.09 65.83 69.61 66.39 68.47 69.60 71.10 72.58 73.80 73.98 74.02 74.61 75.43 76.02 76.67 77.15 76.92 76.42 76.58 76.80 76.67 76.37 76.08 75.89 75.76 75.59 76.40 76.38 76.15 76.13 76.24 76.18 76.35 76.74 76.93 76.68 76.56 76.75 76.65
69.49 67.14 59.60 60.87 58.38 58.06 64.20 65.99 67.00 66.33 67.00 71.35 71.07 65.60 64.81 69.17 71.52 72.50 73.11 73.24 73.59 74.67 74.66 75.84 76.40 77.11 76.37 77.17 76.82 76.52 76.52 76.03 75.87 76.12 75.79 75.93 75.77 76.07 75.74 76.90 76.46 76.10 76.21 76.85 76.80 76.54 76.63 77.06 76.69
71.21 63.68 59.38 60.06 61.42 62.33 65.03 64.55 66.86 69.33 68.82 69.11 70.51 69.12 69.08 70.55 71.82 71.67 71.34 72.04 73.36 73.28 74.22 74.05 75.25 75.94 76.77 76.24 77.00 76.71 76.61 76.12 76.28 76.27 75.93 76.28 75.77 75.86 75.72 76.38 76.07 76.09 76.32 76.57 76.63 76.46 76.96 76.84 76.38
66.59 64.44 60.96 64.12 64.60 65.53 66.19 66.04 65.29 65.79 67.03 67.62 68.82 69.68 69.94 70.73 70.78 70.07 69.82 70.34 71.51 72.48 73.20 74.35 74.61 74.77 76.31 74.93 77.41 76.84 75.92 76.99 76.56 76.61 77.15 78.08 75.54 76.08 75.39 75.96 75.84 75.96 76.21 76.21 76.02 76.63 77.15 77.61 74.97
66.44 62.75 64.40 65.12 67.66 67.07 65.42 65.69 67.42 65.22 65.68 68.04 66.98 67.61 68.91 69.67 70.17 69.75 70.13 70.87 71.75 72.83 72.97 75.20 74.92 76.85 75.91 75.72 76.02 75.01 75.27 75.91 76.41 76.89 77.14 79.36 75.20 76.79 75.24 75.57 75.00 75.41 76.37 74.94 75.43 75.21 74.97 75.65 73.90
63.80 65.27 66.00 65.94 66.48 66.78 66.68 68.42 66.87 67.21 67.44 71.29 70.35 69.31 69.04 68.90 69.15 69.51 69.82 70.86 72.10 72.87 73.39 75.06 75.81 76.60 76.34 75.82 75.47 75.23 75.16 75.49 74.60 75.57 76.40 75.99 74.89 76.69 74.93 74.52 74.20 74.98 75.40 75.53 75.34 75.39 75.95 75.26 74.29
63.73 65.11 65.76 65.99 66.42 67.41 68.90 66.76 67.01 67.24 70.56 72.10 71.12 69.04 68.37 68.71 69.19 70.47 71.02 71.84 72.65 72.54 73.56 74.92 75.99 76.54 77.01 76.78 76.13 74.87 75.36 74.87 75.02 75.43 76.10 75.75 74.75 76.10 76.51 76.19 74.79 74.75 75.16 75.35 77.11 75.54 75.84 76.06 74.33
61.28 65.91 65.00 65.02 65.10 67.66 66.24 66.69 67.86 68.49 71.50 70.67 69.55 67.96 68.40 68.55 68.93 70.22 70.73 71.52 72.18 72.85 73.38 74.69 75.79 76.58 76.61 77.19 78.11 77.42 76.18 76.21 75.79 75.26 75.87 76.20 75.46 75.62 74.53 74.61 75.10 74.57 76.76 75.18 76.63 76.35 75.57 76.70 73.92
62.73 63.25 64.30 63.10 63.63 65.14 67.44 63.97 64.26 69.58 70.38 68.83 68.33 68.13 68.22 68.58 69.13 69.66 70.87 71.54 72.55 72.75 73.84 74.19 75.25 76.06 76.62 76.13 76.49 76.80 76.80 76.16 76.20 75.73 77.56 77.26 77.79 76.85 76.95 74.96 76.37 74.59 76.33 76.60 76.08 76.37 76.51 73.49 73.53
60.59 62.97 58.94 63.10 63.22 65.25 66.27 59.02 66.54 69.18 68.75 67.41 67.58 67.55 67.79 68.23 68.77 70.19 71.39 72.03 72.88 72.94 73.84 74.58 74.22 75.40 75.96 76.22 76.34 75.73 75.84 77.23 76.88 75.53 76.10 76.84 77.40 77.37 77.49 75.46 76.37 75.88 75.64 74.94 75.68 75.33 73.54 73.99 74.33
58.49 57.46 57.65 60.56 64.38 64.67 64.92 60.29 66.85 69.33 68.18 66.21 67.31 67.12 67.87 68.28 69.23 70.21 71.32 71.83 71.89 73.24 74.05 74.05 74.59 74.88 75.39 76.67 76.56 76.34 78.27 77.12 76.92 76.01 75.77 77.42 77.09 77.08 77.50 76.57 76.70 77.65 74.43 74.64 75.87 75.26 73.19 73.32 72.62
54.55 57.32 57.67 58.84 62.81 63.82 62.70 63.56 66.63 68.21 68.36 66.72 66.94 67.27 67.20 67.51 68.90 70.08 70.51 71.35 71.51 73.25 74.49 74.61 74.42 75.91 76.37 76.41 76.88 75.84 75.53 76.50 78.06 78.04 76.21 77.24 77.12 76.85 77.10 76.33 76.96 77.33 74.82 74.48 74.85 76.07 74.92 75.82 73.40
57.18 58.66 57.39 59.69 63.25 61.57 62.01 61.74 66.82 67.92 67.79 67.30 67.20 66.72 66.73 68.28 70.37 69.80 70.01 70.37 71.01 72.34 73.68 74.17 74.44 76.47 75.74 74.81 73.75 74.24 74.23 76.73 78.15 76.85 78.23 77.81 77.64 77.59 78.49 76.57 76.51 76.51 75.83 75.57 76.25 74.81 75.36 74.58 74.65
56.27 57.08 57.22 59.50 62.76 61.63 61.76 62.58 65.36 67.76 67.33 66.22 67.79 67.44 67.62 68.23 68.71 69.36 70.16 70.60 70.53 71.63 73.13 74.20 74.95 76.38 76.20 75.24 76.32 75.68 74.75 76.15 76.21 76.30 77.93 77.69 77.46 77.85 77.32 78.39 76.34 77.33 74.93 76.72 76.13 75.97 74.53 73.69 74.21
56.41 56.52 57.06 58.01 58.34 59.81 58.41 58.64 61.15 64.69 67.05 68.16 69.50 69.46 68.54 67.14 66.79 68.69 70.16 70.76 71.24 71.50 72.46 73.73 75.50 76.44 77.09 78.30 77.31 76.88 77.89 75.42 75.69 77.38 76.54 77.24 77.74 77.36 78.14 78.10 78.61 77.56 77.66 75.10 76.38 76.09 75.77 73.38 73.38
53.42 57.85 58.28 56.86 55.56 53.45 58.80 52.17 59.39 62.35 63.64 66.41 68.78 69.68 67.95 67.55 67.90 69.28 69.99 70.82 71.80 71.85 72.44 73.77 75.21 76.24 76.94 77.75 78.49 77.22 75.28 73.41 74.49 76.38 76.21 76.93 77.79 77.46 77.28 77.90 77.85 77.87 76.48 78.43 76.65 75.86 76.72 72.95 71.95
53.74 56.82 57.08 56.70 54.85 55.60 55.34 53.03 56.09 62.83 61.77 64.68 67.25 68.78 68.49 68.49 69.26 69.11 69.97 71.28 72.03 72.75 71.43 73.12 75.12 76.43 77.94 78.26 78.38 76.44 76.32 73.80 75.80 75.88 76.68 76.65 79.23 78.26 77.46 77.86 77.98 77.73 77.05 78.13 77.55 77.87 77.54 74.68 73.59
58.11 55.96 56.42 56.45 54.96 49.50 53.51 53.38 54.60 57.06 60.80 62.35 66.68 68.46 69.99 69.40 69.86 70.06 71.38 71.63 72.33 73.07 72.98 72.47 74.86 76.84 77.57 77.19 77.43 77.90 76.79 76.58 76.24 75.47 75.73 75.64 76.76 77.13 77.94 77.68 77.91 78.25 77.97 77.21 77.07 77.58 77.52 79.03 77.27
57.14 54.43 48.11 46.71 47.68 47.71 53.76 51.79 55.78 60.08 61.60 62.19 62.71 67.74 69.53 70.67 70.00 70.03 70.18 70.89 72.38 71.52 73.08 73.89 76.19 76.79 77.19 76.65 77.15 77.28 77.54 77.08 76.70 76.68 75.61 75.91 75.18 74.33 78.72 78.57 78.32 77.15 78.33 77.75 78.63 78.88 78.10 77.11 76.05
54.70 54.24 48.87 43.31 44.84 47.73 53.29 50.83 54.69 61.53 63.77 65.24 66.10 67.51 69.39 70.16 70.47 70.47 71.76 71.53 72.19 72.74 73.79 73.99 77.15 77.09 76.66 76.56 78.21 79.23 78.84 76.78 75.71 76.69 76.24 75.09 74.88 74.91 79.58 78.04 77.92 77.98 77.82 77.71 78.47 77.11 76.32 78.33 76.17
54.49 51.97 55.06 50.75 51.23 48.24 52.05 55.07 58.69 61.79 62.95 64.67 65.78 67.67 68.84 68.95 70.94 70.82 70.93 72.52 72.66 72.83 75.01 74.74 77.20 78.55 77.74 77.06 78.79 78.95 79.20 78.74 77.61 78.59 78.22 76.69 77.72 74.80 78.06 77.67 78.10 77.83 77.88 78.07 79.49 77.46 77.41 79.07 77.43
53.47 56.73 50.70 51.01 46.19 44.55 49.46 51.39 52.15 57.86 60.06 62.86 64.80 66.16 65.76 68.34 69.49 69.88 70.02 72.32 73.25 73.79 74.44 75.58 76.31 77.61 77.27 77.56 77.47 77.34 77.68 78.53 78.51 78.16 77.65 78.03 78.16 77.28 74.52 77.65 77.22 77.90 77.81 78.04 78.82 78.03 78.51 77.66 76.70
52.00 51.61 53.47 52.93 50.93 47.36 46.10 49.11 58.33 59.24 60.70 62.22 62.54 64.00 64.87 66.15 66.73 69.33 71.32 71.47 72.89 74.44 74.22 74.82 75.66 76.38 76.59 77.52 78.45 78.64 77.82 77.72 78.28 77.56 77.75 77.85 78.04 79.00 77.59 75.40 78.68 77.77 77.65 78.42 78.69 78.94 78.20 77.27 78.23
52.71 52.53 53.50 49.06 48.64 50.31 49.25 48.36 59.67 61.04 61.42 63.81 61.36 60.08 61.77 63.05 65.29 67.06 68.79 70.58 71.43 71.00 71.61 73.95 74.61 75.24 76.13 77.30 77.97 77.63 77.78 78.13 77.41 77.49 77.65 78.17 78.33 79.10 78.39 78.45 78.33 78.26 78.15 79.61 77.76 76.84 76.12 76.89 76.25

GFSSGP_sfc_wetblb_096.txt.gz
Wetbulb
73.62 72.84 72.96 70.27 60.69 61.31 57.61 59.20 64.58 62.52 63.05 64.97 65.96 65.73 65.41 66.33 63.32 58.84 71.37 73.26 72.95 73.09 74.72 75.53 77.13 76.89 75.97 76.48 76.77 77.26 76.51 76.24 76.57 76.27 75.84 76.11 76.45 77.16 77.93 78.22 78.31 78.36 78.13 77.65 77.47 77.33 77.16 77.31 76.62
73.85 72.12 71.23 69.48 59.65 56.46 57.89 63.00 61.97 63.32 64.29 65.89 65.65 67.15 64.64 62.93 67.49 68.00 69.66 73.26 73.08 73.23 73.80 74.46 77.32 77.51 76.83 76.26 76.83 77.09 76.35 77.00 76.70 76.16 76.69 76.29 75.88 76.46 77.27 77.29 77.36 78.05 78.24 77.70 77.43 77.67 77.36 77.26 76.32
74.82 71.80 67.50 64.12 61.38 56.83 56.33 63.01 63.71 65.33 66.25 65.04 67.46 68.90 65.30 63.76 67.91 68.92 72.31 72.84 72.82 73.22 74.57 75.72 77.79 77.28 76.84 76.49 76.71 76.58 76.39 76.92 76.71 76.67 76.20 76.74 76.21 76.63 76.65 76.70 77.23 77.17 77.91 77.06 77.01 77.39 77.31 76.76 75.99
72.68 69.55 68.95 61.47 57.75 61.73 61.45 64.72 65.38 64.93 65.98 68.70 67.76 64.34 66.92 69.82 68.83 71.05 72.66 72.64 72.16 73.95 74.31 76.77 77.83 77.07 76.99 76.80 76.64 76.61 76.44 76.46 76.61 76.50 76.42 76.40 76.46 76.16 76.48 76.76 77.07 77.07 77.32 76.69 76.79 77.04 76.57 76.37 75.82
72.24 69.32 61.64 59.66 57.95 61.85 64.98 66.50 66.88 65.42 65.29 66.94 67.36 63.10 64.29 69.42 71.12 71.85 72.33 72.10 72.32 73.35 74.09 75.73 77.88 76.96 76.95 77.02 76.66 76.81 76.55 76.35 76.58 76.56 76.57 76.76 76.48 76.54 76.57 76.57 76.77 76.78 76.66 76.80 76.77 77.24 76.76 76.45 75.81
66.59 66.94 58.76 56.13 57.95 61.25 64.80 66.90 66.44 66.15 66.92 67.50 65.47 63.69 64.85 70.45 70.42 71.34 72.41 72.59 74.12 72.88 73.76 74.83 77.43 77.61 77.37 76.76 76.89 76.56 76.61 76.55 76.37 76.39 76.17 76.68 76.18 76.35 76.41 76.30 76.77 76.74 76.69 76.86 77.02 77.14 77.02 76.52 75.51
65.35 63.38 59.53 58.02 57.94 59.67 63.34 67.89 66.26 65.95 65.62 65.63 68.41 63.50 66.09 68.45 70.71 71.85 72.48 73.79 72.95 73.42 73.98 74.74 75.19 76.91 77.14 76.81 76.95 76.67 76.59 76.31 76.17 75.98 76.34 76.70 76.90 76.41 76.71 76.60 76.63 76.75 77.02 77.27 77.10 76.78 76.81 76.56 75.74
68.45 65.77 59.38 59.28 58.66 58.88 64.83 67.02 67.41 66.32 65.77 70.57 69.96 63.38 62.90 68.56 71.24 72.04 72.40 72.65 72.92 73.98 74.34 75.42 76.17 76.25 75.65 76.01 76.95 76.76 76.58 76.15 76.07 76.07 76.02 76.40 77.13 76.41 76.13 77.32 77.10 76.44 77.00 76.86 76.72 76.84 76.91 76.57 75.79
70.33 61.15 57.81 58.74 58.56 60.80 65.73 64.26 66.15 68.43 66.94 67.84 70.59 67.31 67.94 69.90 70.95 71.00 70.87 72.17 72.63 72.69 73.99 73.95 75.15 75.29 76.68 75.96 76.02 76.57 76.26 76.37 76.43 75.80 75.73 76.30 75.76 75.36 75.21 77.15 77.19 76.38 76.80 76.80 76.61 76.60 76.82 76.44 76.07
65.12 60.27 59.99 64.64 64.39 62.71 64.77 63.38 64.71 65.22 66.46 67.54 66.80 67.97 68.74 69.50 69.49 69.03 69.44 69.60 71.38 72.29 71.87 73.64 74.59 74.75 75.60 74.42 76.51 76.49 75.18 76.38 76.77 76.63 75.56 74.59 76.59 75.24 74.44 76.07 76.75 76.72 76.35 76.61 76.52 76.22 76.82 76.21 73.92
65.41 61.00 64.88 65.66 67.19 66.43 64.91 64.04 64.81 64.68 64.08 67.11 64.73 65.70 67.50 68.23 68.70 68.40 69.60 70.59 71.38 72.80 72.08 74.27 74.94 75.07 74.82 75.63 76.62 75.99 75.30 76.19 76.29 76.67 77.83 77.09 76.83 74.81 73.22 74.71 74.82 75.60 76.13 73.75 71.79 74.46 76.51 76.37 74.25
61.39 61.38 63.62 66.91 68.05 66.82 65.38 66.29 65.07 65.98 65.67 69.10 67.90 67.59 67.85 67.58 67.55 68.08 68.55 70.75 71.32 71.59 73.47 74.35 74.61 73.11 74.00 74.45 73.39 76.05 75.41 74.24 74.59 75.66 77.60 73.57 74.42 75.28 71.86 74.68 74.88 75.33 73.12 70.17 64.86 72.96 74.59 74.87 73.62
61.37 60.21 64.47 66.33 67.71 67.38 67.88 65.72 66.21 62.80 66.48 69.59 68.88 67.95 67.64 67.56 68.02 69.04 69.53 71.14 72.49 71.26 73.62 75.32 76.31 78.53 77.55 72.37 77.45 76.06 73.70 73.57 74.50 75.43 75.17 76.40 74.40 73.05 74.87 77.33 75.37 74.19 76.62 75.21 73.25 74.99 74.77 75.84 74.08
64.50 64.20 64.29 64.87 66.69 67.82 65.79 65.40 66.98 65.41 69.18 68.47 67.99 67.22 67.49 67.39 68.03 69.42 70.14 70.60 71.78 72.85 73.53 75.05 75.51 77.00 77.25 75.07 75.67 77.71 72.91 74.86 76.49 76.65 77.65 74.28 77.33 75.13 75.85 75.15 76.00 72.23 73.70 75.92 76.80 77.47 73.95 75.30 73.92
61.99 60.91 64.53 64.15 65.69 66.02 67.49 63.59 64.58 68.97 69.88 68.01 67.09 67.21 67.12 67.45 68.73 69.29 70.51 71.11 72.08 72.53 74.10 75.06 74.68 75.72 77.46 77.78 78.07 77.05 77.35 75.95 74.14 76.00 79.24 79.46 78.16 74.71 73.57 74.42 73.66 75.96 77.84 77.16 77.58 77.43 77.08 73.03 73.39
58.33 61.37 59.23 62.98 63.67 66.38 65.67 59.49 66.02 68.79 68.08 66.46 66.42 66.55 66.69 67.31 68.10 69.60 70.54 71.99 72.41 73.10 73.63 74.53 73.65 75.05 76.87 78.25 78.21 76.99 76.83 73.71 72.91 74.32 77.05 78.81 79.15 78.14 74.61 75.70 73.55 77.39 76.77 76.04 77.01 77.31 75.28 72.56 72.78
56.65 55.55 57.95 59.35 63.55 65.07 64.74 59.54 65.29 68.76 67.40 65.96 65.90 65.88 66.26 66.64 68.11 69.58 70.57 71.85 72.23 73.62 74.40 74.11 75.15 74.69 76.17 77.93 78.09 75.13 78.73 74.74 72.01 72.56 74.05 78.45 78.39 78.98 77.75 75.22 76.64 78.62 77.21 74.41 73.11 71.84 73.82 71.63 73.43
52.71 54.55 58.04 58.41 60.92 63.33 61.68 61.48 64.19 67.25 66.69 66.28 65.93 66.12 66.44 66.12 67.23 69.69 70.24 71.74 71.68 73.59 74.94 75.87 74.96 76.24 78.13 77.14 79.43 77.87 77.39 79.34 73.64 75.31 74.56 77.61 78.03 78.26 77.68 76.78 78.07 79.28 75.81 75.19 76.45 76.70 76.33 74.80 71.19
57.25 56.76 57.75 58.90 60.95 61.28 57.00 56.13 62.09 66.46 66.25 65.62 65.95 65.06 65.75 66.41 68.49 69.40 70.01 71.09 71.10 73.40 73.90 75.54 76.27 77.01 76.60 76.11 75.38 77.26 75.16 76.91 76.57 73.35 76.08 78.10 78.79 78.31 78.71 78.03 77.97 78.81 75.31 75.15 76.63 75.95 75.27 74.79 72.48
55.62 55.12 57.23 59.14 60.89 60.87 57.82 57.04 62.20 66.00 66.43 66.67 65.99 65.52 66.54 66.99 67.61 69.08 69.70 69.97 70.61 72.84 73.84 75.31 76.66 76.73 77.39 76.31 78.25 78.00 74.58 75.82 76.34 73.12 75.83 79.26 77.42 78.67 77.70 78.76 77.57 77.53 76.77 77.88 77.55 76.80 74.27 74.94 71.86
53.00 53.73 57.59 55.46 57.70 62.54 61.22 56.46 53.19 64.98 66.89 67.52 67.59 68.03 67.67 67.61 67.19 67.61 68.57 69.06 70.16 72.20 73.27 74.85 76.69 76.34 77.24 78.50 79.31 73.65 72.93 72.45 75.12 75.94 77.26 77.74 78.36 77.97 78.65 74.77 77.87 76.18 78.68 76.34 77.82 77.41 76.22 73.82 73.01
50.65 56.39 56.91 58.78 56.92 52.53 59.67 52.09 60.11 63.35 62.80 61.77 65.21 67.51 68.08 68.57 69.32 67.99 68.16 68.88 69.66 71.73 73.60 75.00 76.66 76.47 76.83 78.57 78.01 77.34 73.57 71.19 73.66 75.81 77.29 77.50 77.24 78.22 78.53 79.16 78.23 76.52 74.54 75.14 77.67 76.94 76.57 74.77 73.54
53.19 57.43 57.87 58.09 56.56 54.40 54.80 54.16 57.47 60.89 59.30 56.59 61.45 67.46 68.10 68.42 67.41 68.08 68.08 69.50 70.46 71.86 72.15 74.52 75.82 76.82 77.44 78.57 79.00 76.35 76.15 74.24 72.75 75.49 72.59 77.55 79.79 79.70 77.56 79.72 79.12 77.14 73.72 74.73 77.29 77.87 74.31 77.22 74.98
57.31 55.35 55.27 56.80 55.07 49.11 53.87 52.88 55.21 58.17 57.05 59.40 61.14 67.96 67.93 68.67 67.85 68.63 69.92 71.54 71.72 71.61 71.66 73.89 75.13 76.01 77.89 77.59 78.06 77.50 73.15 71.24 73.05 74.79 73.74 75.82 76.93 78.08 78.97 77.61 80.00 78.00 74.21 77.21 77.52 78.29 78.20 77.15 78.22
55.30 53.68 47.60 47.77 47.60 46.71 54.29 53.12 55.74 57.75 58.87 62.84 64.06 67.64 66.15 66.07 67.25 69.38 70.21 70.79 70.71 70.20 70.57 73.26 74.91 75.19 76.90 76.89 77.10 77.86 76.65 76.63 70.90 72.99 72.57 76.13 75.55 74.62 78.90 78.94 79.42 78.49 78.84 78.12 79.36 79.35 78.82 78.32 77.75
53.43 53.48 48.09 43.49 44.60 47.26 53.19 50.66 55.04 62.06 63.55 63.69 66.48 67.37 68.23 64.18 65.33 69.56 70.60 71.73 70.31 72.04 70.98 72.70 74.46 75.36 75.97 76.71 76.98 78.19 78.65 76.81 75.85 74.50 76.99 76.04 76.17 74.72 75.44 78.09 78.54 79.39 79.15 78.78 79.08 77.99 77.55 78.20 77.43
53.54 51.39 55.18 49.73 50.54 47.67 51.55 55.58 59.03 61.79 62.44 64.28 67.24 67.46 66.50 68.87 69.27 65.77 69.51 72.05 71.19 71.52 72.39 72.87 74.50 75.34 76.01 76.24 77.45 78.21 78.24 78.29 77.44 78.39 79.12 76.99 78.05 73.69 74.01 76.80 77.88 78.21 78.03 78.22 77.98 77.13 77.49 77.50 78.12
54.95 56.24 50.04 51.66 44.83 43.94 49.99 51.63 52.70 57.79 61.56 64.62 64.55 65.38 66.41 67.55 68.68 67.71 66.72 67.57 68.16 70.35 71.96 74.78 75.25 75.80 76.29 76.60 77.11 77.36 77.96 78.37 78.77 80.37 78.41 78.14 77.38 73.58 72.26 72.95 76.97 77.54 77.96 77.89 77.68 77.42 77.02 77.00 76.72
52.25 51.31 52.53 52.59 50.99 46.24 45.87 48.76 59.23 60.12 62.46 62.33 62.38 63.03 64.13 65.92 66.82 68.23 66.48 66.21 65.49 71.32 72.67 74.04 75.80 76.79 76.91 77.25 77.42 77.05 77.58 78.20 78.47 78.28 78.53 78.93 78.12 76.69 73.68 73.20 74.34 77.28 77.31 77.88 78.52 77.46 76.04 75.59 76.40
52.56 52.80 52.87 48.54 48.39 50.55 47.76 49.77 57.75 61.23 62.98 62.09 61.57 62.21 63.18 64.19 65.87 66.78 67.63 68.04 69.21 70.39 70.68 70.96 71.32 74.06 76.84 77.23 77.96 77.58 77.81 77.89 77.95 77.80 78.36 78.51 78.46 77.93 75.86 73.96 75.33 76.50 77.93 77.98 77.69 77.15 76.49 75.60 75.74

GFSSGP_sfc_wetblb_102.txt.gz
Wetbulb
74.42 71.96 71.03 66.46 59.50 59.19 55.61 57.83 63.73 60.43 61.12 64.65 64.73 63.13 62.16 64.02 60.87 53.71 69.06 70.86 72.40 73.24 74.67 75.76 77.34 76.63 76.48 76.93 76.19 76.07 75.72 75.86 76.60 77.10 77.38 77.61 77.52 77.70 77.54 77.60 77.45 77.57 77.91 77.34 76.96 76.85 76.98 76.46 76.06
71.48 70.94 67.87 65.54 57.37 53.49 55.06 62.25 58.82 61.00 62.89 64.28 64.52 64.05 62.48 60.48 66.09 66.82 67.83 71.52 73.11 73.95 74.08 74.55 76.72 76.96 77.21 77.08 76.63 76.87 75.98 76.02 75.75 76.32 76.67 77.47 77.55 77.45 77.77 77.52 77.40 77.29 77.50 77.24 76.63 76.61 76.36 75.83 75.61
72.44 71.00 63.41 60.47 58.23 54.01 55.24 62.31 61.24 63.11 64.49 63.42 62.61 65.05 64.06 63.12 67.11 67.53 70.33 72.31 73.32 72.77 73.21 74.03 76.82 77.06 77.17 76.72 76.66 76.58 76.35 76.52 76.92 75.93 76.95 77.15 77.02 77.36 77.03 77.45 77.44 77.46 77.69 77.04 76.55 76.60 76.41 76.08 75.64
70.27 67.12 64.59 59.30 56.94 59.52 60.18 63.28 62.47 61.17 62.96 64.38 64.52 61.63 66.49 69.26 67.63 69.64 71.88 72.85 71.73 72.94 74.16 76.58 76.63 76.66 77.21 76.54 77.02 76.67 76.51 76.23 76.92 76.95 76.56 76.95 77.15 77.37 77.31 77.24 77.18 77.26 77.32 76.58 76.52 76.35 76.19 76.35 76.28
70.41 66.79 59.66 57.94 58.16 60.86 63.52 65.90 63.44 61.83 62.55 62.97 63.87 61.19 62.55 67.77 70.37 70.75 71.18 71.60 71.51 72.83 74.44 75.00 77.71 76.78 76.90 76.46 76.67 76.67 76.63 76.66 76.42 76.64 76.62 76.96 76.98 77.02 77.17 77.13 76.96 77.02 77.08 76.55 76.25 76.05 76.41 76.58 76.83
65.07 65.14 57.87 55.26 57.80 61.09 64.18 66.75 63.71 62.06 63.07 63.30 62.60 62.29 62.28 68.78 68.88 69.74 71.15 71.16 72.65 72.99 74.06 75.06 77.02 76.66 77.01 76.41 76.58 76.44 76.76 76.67 76.62 76.58 76.27 76.73 76.70 77.00 77.17 76.99 76.91 76.97 77.33 76.75 76.33 76.12 76.36 76.28 76.95
63.76 61.52 57.92 58.07 58.08 59.95 63.72 67.17 64.33 62.08 62.10 62.18 64.86 60.51 63.41 66.42 68.79 70.56 71.00 71.78 72.89 74.03 73.76 73.96 74.46 75.56 77.02 76.55 77.01 76.73 76.60 76.58 76.56 76.33 76.50 76.45 76.54 77.00 77.49 76.88 77.05 77.22 77.33 76.94 76.49 75.56 76.07 76.18 76.83
66.69 61.84 58.10 57.94 57.54 58.90 64.59 65.15 66.47 65.13 62.45 66.46 66.35 60.01 60.14 65.73 70.00 70.47 70.79 71.45 71.98 72.92 73.61 73.51 73.63 73.47 73.81 74.11 76.61 76.47 76.27 76.50 76.69 76.58 76.59 76.59 76.62 76.85 76.93 77.35 78.16 77.11 76.95 76.22 76.05 76.14 76.07 76.29 76.31
68.87 59.38 56.40 58.06 58.92 61.26 65.11 63.48 66.22 66.76 64.80 65.05 66.10 64.90 66.11 68.58 69.87 68.91 68.96 69.52 70.53 72.08 72.24 73.47 72.67 72.61 73.02 73.45 74.98 76.27 76.39 76.42 76.56 76.61 76.59 75.86 72.36 73.34 74.00 76.57 77.82 76.81 76.45 76.00 75.97 76.28 76.07 75.75 75.52
63.30 56.63 57.61 62.44 62.85 62.90 64.16 64.09 64.29 63.09 64.39 65.32 63.92 66.06 68.44 69.41 68.15 67.10 67.33 67.29 68.69 69.52 71.17 72.55 72.52 72.25 72.84 74.76 73.07 72.36 73.98 73.09 72.31 72.74 72.75 72.17 71.19 72.21 74.00 75.71 76.92 76.58 76.28 75.92 75.31 75.47 75.36 74.81 72.32
61.67 58.09 60.25 62.52 64.73 66.17 63.67 62.94 65.19 61.80 60.64 62.68 62.20 63.91 67.62 67.66 67.26 67.26 67.74 68.21 68.71 70.18 71.60 71.93 72.00 72.55 72.01 72.93 72.29 72.03 71.97 72.43 72.13 72.01 71.46 71.38 71.00 72.48 72.37 72.85 73.18 73.09 73.91 71.29 71.31 72.10 73.42 73.24 73.00
58.51 61.88 62.44 63.79 65.77 64.46 63.07 64.38 60.98 62.51 63.89 65.79 65.93 66.24 67.21 67.22 67.22 67.56 67.42 68.32 69.20 69.74 71.08 71.38 71.37 72.23 71.89 73.06 72.63 71.93 72.34 72.29 71.27 71.47 71.28 70.56 69.87 69.86 70.95 70.97 71.55 71.04 69.89 68.08 66.06 66.44 70.01 70.99 71.54
60.93 62.88 62.55 65.11 64.62 64.26 64.69 63.71 64.69 63.54 67.40 68.75 66.76 66.35 66.53 66.96 67.65 67.98 68.43 69.39 69.57 69.59 70.52 71.06 70.64 71.65 71.93 71.72 72.15 71.89 72.10 71.79 71.60 72.40 71.78 70.91 68.95 68.96 69.71 70.73 71.32 69.93 67.80 67.63 67.51 65.21 69.49 68.99 67.39
61.35 62.94 63.17 64.35 64.78 64.76 63.39 63.57 63.57 64.55 67.63 67.07 65.38 64.18 65.72 67.32 67.42 67.85 68.20 68.47 69.50 70.57 70.74 70.84 70.49 71.25 71.76 70.90 71.18 71.40 70.94 71.46 71.67 72.05 71.26 70.21 68.94 68.25 69.61 69.72 70.34 70.19 69.98 70.19 70.14 69.26 68.03 68.21 66.81
57.34 58.20 62.51 62.83 64.74 63.81 63.88 59.24 60.93 64.74 66.14 64.72 64.37 63.81 63.68 66.38 68.03 67.61 68.38 68.42 69.97 70.47 70.68 70.53 71.15 71.03 71.22 70.33 71.59 70.59 72.03 71.85 71.25 72.40 71.80 71.51 70.11 71.34 70.43 69.70 69.78 69.94 71.21 70.78 71.00 71.19 69.82 68.76 67.26
50.73 57.14 54.29 61.84 63.95 64.61 63.19 54.98 60.76 64.29 64.91 64.03 64.01 63.90 63.66 66.62 67.71 68.83 69.15 69.52 70.95 71.09 70.81 71.19 72.78 70.85 70.45 71.73 71.11 71.92 71.59 71.10 70.79 71.43 72.58 73.03 71.36 70.35 70.21 70.52 69.04 69.13 70.73 70.26 71.15 70.85 68.93 67.41 66.73
45.78 43.28 53.57 59.26 64.40 63.30 61.45 55.16 61.89 64.86 64.68 63.92 64.29 63.15 63.07 66.21 67.12 68.47 69.44 70.18 70.76 71.34 70.53 69.10 71.39 70.55 70.77 72.02 72.04 71.38 69.60 67.10 69.60 70.82 71.83 72.50 72.81 71.55 72.05 70.69 70.92 70.43 70.06 70.43 68.67 68.35 67.87 68.20 68.23
41.67 44.58 50.47 55.50 60.99 61.13 58.32 57.66 61.34 63.66 64.15 64.77 64.29 62.86 62.01 64.85 66.15 68.02 69.38 70.95 70.99 70.31 70.12 69.94 70.94 70.03 70.35 71.61 72.31 70.10 69.62 67.66 68.62 69.70 71.93 73.33 72.82 73.51 72.30 71.98 71.18 72.28 69.82 70.32 69.47 68.94 69.35 68.61 67.46
46.25 46.18 55.35 58.75 61.61 59.01 57.49 56.45 59.61 62.05 63.43 64.14 62.51 60.94 61.76 64.85 66.28 67.74 69.36 70.71 70.51 69.87 68.77 69.54 70.11 68.78 69.49 70.42 70.22 68.97 68.35 68.61 69.10 70.19 72.23 72.85 72.98 73.31 72.31 72.33 71.70 72.70 70.64 68.58 70.38 69.51 68.81 67.35 68.35
46.30 46.42 54.38 57.79 60.60 58.93 58.60 58.30 61.84 62.64 63.35 63.43 61.93 60.29 61.80 63.67 65.29 66.45 68.01 69.24 68.71 68.35 69.88 69.81 70.30 69.04 69.08 70.68 71.04 70.97 70.77 70.38 70.63 71.35 72.11 72.82 73.04 72.89 72.77 71.89 71.48 71.74 71.15 69.40 69.85 70.03 67.63 68.61 67.45
44.83 43.39 53.65 54.34 57.45 58.73 57.58 55.12 57.96 61.07 63.60 63.41 63.25 61.91 63.26 63.02 64.37 65.44 66.89 68.11 68.50 68.75 69.73 70.23 70.64 69.23 68.85 71.14 70.75 69.17 68.89 70.18 69.92 69.46 70.74 72.77 73.19 73.17 72.78 71.87 71.87 72.10 71.03 69.65 69.81 70.69 70.01 67.83 68.63
39.42 47.84 55.88 56.08 53.67 50.84 56.57 44.94 53.50 57.05 59.94 62.02 63.05 62.48 62.20 62.93 64.95 65.71 66.35 67.30 68.16 69.08 70.66 70.97 70.62 69.96 71.02 70.99 69.38 68.48 66.72 65.52 69.05 69.19 70.86 72.93 73.46 73.34 73.19 72.21 72.82 71.94 71.15 70.41 69.93 71.39 68.90 67.76 66.94
45.38 49.55 54.28 55.98 51.29 51.93 53.16 48.42 49.31 56.79 58.12 60.86 62.95 63.29 64.16 64.30 65.02 65.18 65.96 67.48 68.56 70.25 70.89 70.81 70.43 70.10 71.07 72.49 70.20 68.23 66.76 68.23 70.29 71.72 70.88 71.61 73.04 72.60 73.78 72.88 71.67 70.67 70.37 69.61 71.25 70.91 69.07 70.60 68.86
50.54 54.18 53.37 51.72 48.48 42.98 49.27 49.68 50.84 54.06 58.36 60.82 62.86 63.07 64.85 65.60 65.34 65.58 66.41 68.70 68.63 70.02 71.38 70.86 69.96 69.00 69.56 71.94 71.54 69.66 68.99 69.19 70.02 69.75 69.34 69.91 71.36 72.37 73.32 73.14 72.51 71.76 70.65 69.82 69.98 71.89 71.25 71.25 71.34
47.56 42.75 36.55 39.86 43.59 41.27 50.33 49.04 50.19 57.60 61.17 62.52 63.31 64.45 65.12 65.16 66.19 64.63 64.99 67.39 67.91 68.36 70.08 71.63 69.96 68.78 69.91 71.41 71.54 70.59 69.30 69.27 69.87 69.29 68.04 69.13 70.06 70.89 72.17 72.68 71.76 71.47 71.15 71.60 71.53 71.05 71.70 70.25 70.49
43.33 43.63 38.02 35.64 37.42 40.62 50.26 46.27 51.69 58.87 60.38 62.13 63.52 63.40 64.43 64.88 66.98 65.79 65.90 66.89 67.91 68.47 69.48 71.31 70.78 69.32 70.42 71.69 71.03 71.92 70.09 69.13 69.62 70.14 69.29 69.55 70.29 70.72 72.57 73.05 73.07 72.61 72.17 72.47 72.24 71.82 71.75 71.26 71.06
43.16 41.25 45.50 40.98 39.51 41.74 46.40 49.99 55.07 59.36 58.91 60.32 59.43 63.43 64.40 64.31 65.78 65.90 66.79 68.28 69.01 69.20 68.72 69.81 71.19 70.40 70.31 72.05 71.63 71.92 71.32 69.70 69.75 69.64 69.96 69.61 71.21 72.16 72.50 72.65 73.05 73.29 72.83 72.79 72.16 70.69 70.15 71.32 70.33
46.27 47.91 44.60 40.63 35.52 34.97 43.83 45.74 47.16 53.82 59.78 61.85 59.95 62.15 63.75 62.80 65.29 66.70 66.85 67.35 68.33 68.48 68.91 69.78 71.03 70.49 70.12 71.48 72.25 72.54 72.62 71.12 70.21 69.25 69.05 71.19 71.70 72.53 72.27 70.55 71.51 72.67 73.07 72.70 71.56 70.86 71.00 70.70 70.09
45.72 43.69 43.08 42.01 39.57 37.12 39.70 43.25 57.62 58.39 60.54 60.99 62.86 63.30 62.19 62.28 63.10 64.40 65.87 68.22 68.22 68.61 68.58 69.29 68.31 71.30 70.91 70.76 71.92 72.32 73.01 73.30 72.59 72.32 72.17 71.50 71.37 71.79 71.72 71.44 71.05 72.17 72.43 72.16 71.81 70.52 71.00 71.19 70.29
47.44 44.67 42.61 39.51 37.90 43.84 42.39 47.54 59.56 58.91 59.63 60.70 61.28 61.86 63.35 63.95 64.79 65.98 65.22 65.78 68.24 66.72 67.30 67.75 68.22 69.28 70.34 70.83 71.35 70.71 71.21 73.32 72.56 72.29 73.13 72.77 70.86 70.52 70.40 70.16 70.64 71.50 72.04 72.14 71.59 70.54 72.10 71.33 70.35

GFSSGP_sfc_wetblb_105.txt.gz
Wetbulb
74.21 71.46 70.74 66.19 58.70 58.34 53.97 56.32 62.27 59.73 58.92 63.15 63.17 61.52 60.15 62.16 59.91 51.83 68.11 69.98 72.29 72.83 74.20 74.98 76.74 76.56 76.04 75.82 75.63 75.66 76.76 77.17 76.97 77.35 77.55 77.37 77.14 77.28 77.31 77.48 77.26 77.48 77.47 76.67 76.72 75.98 75.98 75.34 75.48
71.18 70.36 67.88 65.29 55.47 51.97 54.86 60.91 59.82 59.65 61.92 63.41 63.79 63.66 61.86 60.12 65.91 66.55 67.33 71.53 73.15 73.38 73.67 74.50 76.73 76.69 76.60 75.98 75.69 75.46 75.41 76.32 76.48 77.06 77.20 77.31 77.39 77.30 77.13 77.27 77.08 77.43 77.60 76.80 76.56 76.12 75.87 75.60 75.46
70.49 70.19 62.81 60.92 57.27 52.76 54.67 61.04 59.87 62.05 63.82 63.02 62.43 65.11 63.93 62.87 66.31 67.09 69.82 72.46 73.53 72.88 73.18 74.00 76.21 77.01 76.63 76.69 76.55 75.70 76.09 75.65 75.89 76.32 76.93 77.19 77.13 77.29 77.23 77.27 77.30 77.41 77.00 76.58 76.56 76.09 75.87 75.54 75.35
69.68 67.00 63.05 58.53 56.43 58.59 59.83 61.98 61.74 60.94 63.14 64.96 64.32 61.35 65.71 68.44 67.25 69.20 71.73 72.97 72.37 72.25 73.07 75.30 76.59 76.83 76.29 76.48 76.47 76.08 76.11 76.41 75.63 76.35 76.78 76.79 76.78 77.10 77.27 77.18 77.34 76.97 76.64 76.69 76.50 76.20 75.54 75.51 75.82
70.21 66.32 58.78 56.81 57.49 60.44 61.97 65.04 62.68 61.20 62.11 62.97 63.82 60.60 62.15 67.80 70.08 70.82 71.55 71.77 71.34 72.11 73.54 73.86 76.93 76.91 76.14 76.23 76.52 76.08 75.85 76.24 76.00 76.16 76.40 76.09 76.66 76.96 77.08 76.89 77.08 76.34 76.40 76.56 76.25 76.23 75.70 77.09 77.13
64.08 64.93 56.45 54.97 57.51 61.09 63.69 65.61 63.11 61.75 62.48 62.94 62.21 61.54 61.95 68.78 69.12 70.17 70.99 70.98 72.99 72.97 73.62 74.38 76.19 76.54 76.25 76.41 76.19 76.21 76.13 75.75 76.33 75.96 76.04 76.22 76.71 76.92 77.08 76.95 76.67 76.82 76.29 76.18 76.23 75.93 76.66 77.23 77.18
63.23 61.01 57.75 57.94 57.49 59.76 62.11 65.95 62.34 61.44 61.80 61.63 64.37 59.85 63.48 66.16 68.83 70.12 70.39 71.46 72.57 73.54 73.37 73.61 73.68 75.49 76.29 76.26 75.90 75.93 76.12 75.79 76.03 76.03 76.11 76.42 76.48 76.87 76.75 76.94 77.06 76.98 76.40 76.15 76.06 75.68 76.28 77.01 77.64
65.80 61.51 57.17 58.12 57.61 58.57 62.67 64.55 65.97 63.74 61.65 65.94 65.49 59.77 60.74 65.44 69.44 70.07 70.59 71.07 71.83 72.48 72.52 73.13 72.99 73.46 72.88 73.67 75.86 76.07 76.20 76.27 76.18 76.12 75.98 76.24 76.54 76.67 76.61 76.63 77.78 77.12 76.57 76.15 75.68 75.59 75.80 76.21 76.92
67.12 58.17 55.20 57.47 58.69 60.33 63.16 61.57 65.56 67.03 63.81 64.86 65.58 64.38 65.93 68.34 69.57 68.79 69.38 69.47 71.01 72.18 71.73 72.20 72.17 72.53 72.58 72.83 74.54 75.70 76.18 76.29 76.40 75.90 75.73 75.14 72.42 72.95 73.45 76.75 77.17 76.79 76.15 75.76 75.65 75.79 75.65 75.59 76.00
61.76 56.53 56.66 61.36 61.61 62.49 63.01 62.97 63.72 63.04 62.84 62.58 63.34 65.83 67.70 68.35 67.83 66.75 67.10 67.37 69.30 69.96 70.99 71.60 71.21 71.84 72.52 74.56 72.74 72.33 73.34 72.71 72.70 72.52 71.99 71.34 71.39 71.89 73.98 75.79 76.68 76.35 75.93 75.54 75.54 75.54 75.12 74.10 72.21
61.65 57.45 60.43 61.49 63.36 64.54 63.20 62.78 64.21 62.42 61.62 62.16 61.42 63.29 66.55 66.70 66.46 66.15 66.52 67.64 68.60 69.79 71.57 71.58 71.14 72.02 71.94 72.31 71.57 71.67 71.47 71.43 71.04 71.26 70.91 70.74 71.05 72.17 72.46 72.21 72.15 72.13 73.80 70.06 70.76 70.96 72.27 72.34 71.67
57.39 61.34 62.11 62.89 65.06 64.53 62.51 64.15 61.74 63.37 64.37 65.88 64.93 66.28 66.43 65.83 65.71 66.10 66.61 67.46 68.01 69.28 70.89 71.28 71.45 71.91 70.95 72.17 71.42 71.44 71.50 71.57 70.56 70.66 70.48 70.11 69.82 70.20 70.54 70.75 70.73 70.25 69.14 67.63 66.42 66.40 67.33 70.38 71.44
58.89 62.40 63.01 65.64 64.61 64.03 64.32 62.56 61.72 62.65 66.58 66.78 67.03 66.88 65.81 65.78 66.31 67.30 67.95 68.40 68.73 69.00 70.19 70.59 71.22 71.37 71.48 71.61 71.28 71.08 71.33 71.50 70.45 70.59 70.88 70.16 69.23 69.12 69.77 70.25 70.56 69.82 67.56 66.86 67.09 65.65 68.30 66.71 67.62
61.68 62.07 62.67 64.37 64.28 63.66 62.77 62.41 64.04 63.87 67.64 65.72 66.18 65.47 65.83 66.44 66.41 66.88 67.43 68.08 68.63 69.23 69.67 70.37 70.63 71.29 71.39 70.72 70.98 70.78 70.76 70.92 70.99 71.01 70.90 69.48 68.40 68.28 69.25 69.32 69.81 69.47 68.45 69.82 69.38 68.89 67.97 66.43 66.82
56.71 58.84 62.01 62.99 63.54 62.23 63.38 59.51 60.65 65.00 66.04 63.97 64.40 65.33 65.99 66.92 67.03 66.64 67.85 68.10 68.99 69.75 70.15 69.71 69.59 71.14 70.79 70.43 70.74 70.55 70.59 71.23 70.37 71.16 70.75 69.31 68.29 68.45 69.33 69.29 69.49 69.60 69.82 70.05 69.94 69.94 68.90 66.05 65.93
49.66 56.34 55.80 61.41 63.89 62.48 62.12 54.90 61.73 64.62 64.47 63.16 62.98 64.49 65.67 66.61 66.79 67.57 68.56 69.01 69.91 70.00 69.62 69.59 71.36 70.53 70.11 69.77 70.77 70.83 70.99 70.66 70.56 71.63 71.98 71.00 70.51 70.65 69.72 69.29 68.45 68.74 70.39 69.65 70.14 69.14 67.45 66.27 65.32
44.09 43.31 53.55 57.72 63.93 62.37 59.91 55.71 61.66 64.44 64.00 63.16 62.45 62.10 64.42 65.52 66.52 67.86 68.91 69.64 70.07 70.01 69.37 70.05 70.34 69.98 69.80 71.10 70.79 70.70 69.22 69.24 69.62 71.33 71.84 71.77 70.65 70.77 70.44 69.34 69.37 69.82 69.01 69.56 68.37 67.62 67.23 67.26 66.95
40.69 42.36 50.20 56.21 61.03 62.09 58.43 56.90 60.78 63.26 63.37 63.71 63.36 61.30 63.71 64.82 65.84 67.91 68.81 70.11 70.21 70.01 69.88 69.97 69.58 69.11 69.62 71.44 70.25 69.71 66.25 67.41 68.22 70.54 71.41 71.82 71.61 72.39 71.29 70.64 70.04 71.28 69.16 69.47 68.65 68.38 68.68 68.43 66.71
45.22 45.60 55.02 58.41 59.96 57.29 56.46 57.53 59.35 62.17 63.18 63.60 64.21 59.42 63.09 64.27 66.79 68.00 68.86 70.26 70.00 69.67 68.00 69.40 68.99 68.29 70.14 70.05 68.99 68.15 66.12 67.68 68.04 68.75 71.31 72.08 71.72 72.68 71.52 71.30 70.38 71.84 69.76 68.77 69.74 69.03 67.56 66.46 67.19
45.02 50.59 54.19 57.52 60.37 58.86 56.05 56.81 60.03 61.57 62.24 63.39 63.83 59.19 62.85 63.64 65.61 67.43 68.45 69.43 68.90 68.46 68.08 68.71 69.39 67.63 69.34 69.48 69.57 69.73 69.19 69.12 69.41 69.70 71.23 71.91 72.17 71.61 71.93 70.94 70.37 70.84 69.76 68.14 69.37 69.15 66.61 67.81 66.86
41.51 43.28 53.10 54.04 57.28 59.19 57.41 55.22 57.44 60.73 62.72 63.87 65.04 60.77 63.62 63.53 64.30 66.34 67.62 68.63 68.31 67.61 68.15 68.95 68.94 67.85 68.07 70.68 70.00 69.15 69.80 69.69 69.23 69.30 70.13 71.67 72.39 72.26 72.06 71.39 70.78 71.04 69.93 69.09 69.07 69.75 68.85 66.47 67.58
36.95 46.25 55.40 55.34 52.00 47.68 56.88 46.10 53.68 59.02 60.24 62.37 62.94 60.89 62.48 63.57 64.45 66.00 67.14 67.55 67.09 68.13 69.34 69.13 69.36 67.97 68.67 70.47 69.28 68.61 68.24 67.43 68.65 68.79 69.76 71.23 72.63 72.50 72.14 71.21 71.04 70.83 70.66 69.51 69.23 70.55 68.05 67.05 66.75
44.37 48.73 53.55 55.06 51.46 50.80 53.49 47.12 47.62 58.29 57.63 60.02 62.12 61.19 62.44 64.24 64.71 65.16 66.70 67.27 67.30 69.46 69.30 69.90 69.42 68.34 69.78 69.54 69.00 67.82 66.60 66.83 68.89 69.57 69.00 70.67 71.86 72.11 72.77 72.03 71.52 70.53 69.87 68.79 70.10 70.47 69.03 69.59 68.50
50.39 53.41 52.17 49.84 47.60 42.34 50.55 48.73 48.65 53.40 57.10 59.45 61.96 62.68 62.48 64.30 65.09 65.74 67.63 67.87 67.55 70.45 69.58 69.94 69.06 68.11 70.43 70.77 69.01 67.93 66.72 67.74 69.48 69.41 69.10 70.09 71.01 71.58 72.31 72.27 71.43 70.51 69.76 69.13 69.28 70.55 69.51 70.58 70.50
45.52 44.99 38.75 39.96 40.82 40.75 47.12 47.63 48.47 56.23 59.71 61.01 61.58 62.37 63.35 63.82 64.72 65.24 65.96 66.92 67.69 69.27 69.09 69.48 68.57 67.21 68.70 70.74 70.74 69.31 68.14 68.45 69.12 69.38 69.27 69.19 69.75 70.25 71.44 71.85 71.02 70.95 70.33 70.14 69.65 70.43 70.35 69.63 69.47
41.91 43.14 36.98 34.85 37.36 39.62 47.60 43.27 48.64 57.81 60.86 62.38 64.40 64.10 65.14 65.30 64.73 64.94 66.08 67.06 67.54 68.81 69.59 69.33 68.32 67.13 68.21 69.63 70.43 70.25 69.03 68.87 69.07 69.64 68.70 68.51 69.76 70.30 71.74 72.03 71.89 71.28 71.14 71.35 71.14 70.37 70.80 70.80 70.15
41.67 40.07 43.61 38.45 37.13 41.25 44.60 47.81 54.15 58.55 57.83 61.24 61.97 63.57 64.34 64.63 65.37 65.64 65.71 66.66 68.19 68.63 68.33 70.42 69.44 68.05 68.57 69.73 70.18 70.61 69.91 68.60 68.31 69.50 69.27 68.56 69.58 70.85 71.26 72.39 72.32 72.19 71.42 71.50 71.30 70.37 70.10 70.68 69.56
43.93 46.31 40.69 38.14 33.45 33.88 42.72 43.75 46.65 54.79 56.93 57.43 60.71 61.21 62.85 64.70 65.52 66.14 67.36 67.49 67.97 68.75 68.93 68.62 70.15 68.77 69.19 69.86 70.35 70.94 71.09 69.92 69.20 69.37 68.91 69.40 69.67 71.12 71.68 71.60 71.95 71.41 71.50 71.82 70.99 69.94 69.78 69.93 69.88
44.97 42.71 40.89 39.78 37.71 37.86 38.15 43.78 57.16 57.30 60.22 60.36 61.19 61.66 62.71 64.12 64.69 65.82 66.90 67.35 67.61 68.24 68.44 67.90 67.10 69.71 69.33 69.88 70.65 70.86 71.18 71.49 70.25 69.75 69.24 69.23 70.30 70.59 71.03 71.06 69.77 70.88 71.63 71.74 70.99 70.09 69.94 69.59 69.37
43.86 43.10 41.47 38.03 37.26 40.50 41.74 45.59 59.32 60.18 60.97 61.15 61.23 62.03 62.68 62.23 62.61 64.29 65.63 67.41 67.39 66.96 67.73 67.41 67.73 68.40 68.90 69.82 69.63 69.72 69.84 70.20 70.54 70.52 70.84 72.39 70.59 70.71 71.18 70.85 69.81 70.22 71.45 71.48 71.08 70.57 70.70 69.93 69.91

GFSSGP_sfc_wetblb_108.txt.gz
Wetbulb
70.86 71.03 70.14 66.25 57.56 57.87 53.72 55.88 61.81 56.31 55.54 60.70 61.52 59.54 58.81 61.82 59.12 51.18 67.09 69.59 71.71 72.32 73.51 74.63 76.01 76.26 75.81 75.77 76.30 76.76 76.51 76.64 76.96 77.02 76.97 77.05 76.79 76.65 76.74 76.71 76.90 77.34 76.96 76.34 75.50 75.31 75.84 76.00 75.45
71.25 70.20 67.66 65.26 54.96 51.87 53.91 60.40 59.07 59.00 60.65 61.66 63.23 63.10 61.70 60.18 65.60 66.13 66.77 71.32 72.54 73.17 73.29 73.83 76.69 76.11 75.38 75.30 75.26 75.94 76.51 76.70 76.73 76.80 77.24 77.17 76.92 76.68 76.87 76.67 76.91 76.92 76.63 76.72 76.36 76.09 75.84 75.89 76.24
70.20 69.93 62.50 60.60 56.12 52.08 54.43 60.17 59.38 61.45 62.18 61.86 62.36 65.12 63.69 61.92 65.82 66.48 69.68 72.29 72.87 72.89 73.56 74.13 76.43 76.44 75.57 75.99 75.23 74.85 75.34 75.83 76.15 76.63 76.87 76.97 77.08 76.94 77.10 77.06 77.07 76.93 76.09 76.53 76.34 76.08 75.75 75.64 75.59
68.06 66.89 62.40 57.00 54.00 57.97 58.83 60.97 60.99 60.83 63.16 64.68 64.07 60.88 65.26 67.09 66.58 69.10 72.24 72.66 72.35 72.16 72.86 75.45 76.80 76.32 76.30 75.81 75.31 75.74 75.93 75.10 75.62 75.97 76.33 76.45 76.95 76.89 77.03 76.84 76.91 76.55 76.38 76.44 75.72 75.78 75.70 75.84 75.45
69.51 65.15 57.56 56.85 56.88 59.52 61.83 64.38 63.73 60.96 62.17 62.98 63.61 60.14 61.55 67.61 69.66 71.22 71.67 72.12 71.46 71.70 72.62 73.70 76.40 76.23 75.99 76.10 75.77 75.56 75.82 75.38 75.68 76.12 76.40 76.59 76.80 76.80 76.38 77.10 76.61 76.58 76.44 76.22 76.06 75.67 75.78 76.21 76.27
63.22 64.45 55.82 53.82 56.83 60.47 62.43 64.08 62.86 62.20 62.75 62.41 61.47 60.83 63.21 68.59 69.01 70.36 71.36 71.19 72.16 72.36 72.86 73.73 76.18 76.13 75.86 75.90 76.14 75.84 75.91 75.50 75.82 76.01 76.09 76.21 76.67 76.26 76.50 76.94 76.20 76.45 76.28 76.09 75.70 76.09 77.09 76.21 75.93
63.09 60.37 56.63 57.12 57.32 59.33 61.18 64.78 61.65 61.65 61.61 61.30 64.05 59.68 64.44 66.51 69.12 70.20 70.51 71.89 72.66 73.31 73.25 73.34 73.73 75.31 76.00 76.00 76.01 75.93 75.55 75.51 75.48 75.67 76.15 76.34 76.45 76.48 76.48 76.54 76.87 76.23 76.23 76.09 75.50 75.53 76.26 76.73 75.36
65.64 61.77 57.23 58.26 57.05 58.15 62.41 64.42 65.76 62.83 61.10 65.70 65.00 59.29 59.44 65.72 69.05 69.84 70.69 70.92 71.82 72.42 73.09 72.64 73.02 73.20 73.27 73.68 75.79 75.90 75.77 75.77 75.69 75.51 76.17 76.09 76.51 76.35 76.33 76.87 77.62 76.45 76.11 75.61 75.56 75.59 76.16 76.24 75.69
66.58 57.39 54.57 57.50 58.72 59.05 63.29 61.54 65.61 67.04 62.67 64.68 64.95 63.83 65.49 68.30 69.31 68.82 69.48 70.29 71.13 72.04 71.89 72.13 71.76 72.35 72.91 73.24 74.61 74.97 75.76 76.11 75.96 75.48 75.71 74.54 72.63 73.66 74.53 76.60 77.08 76.28 75.87 75.53 75.39 75.17 75.69 75.09 75.74
61.16 56.16 56.87 60.61 61.84 60.57 61.91 62.27 63.58 62.39 61.71 61.63 62.89 65.54 67.60 68.15 67.66 67.02 67.38 67.55 69.46 70.25 71.49 71.57 71.54 72.23 72.57 74.70 73.03 72.66 73.72 73.21 73.10 73.10 72.28 72.42 72.66 73.76 74.76 76.18 76.45 76.26 75.98 75.94 75.50 75.17 75.37 73.81 73.73
61.25 57.04 60.82 62.08 63.61 62.91 62.64 62.78 64.19 61.78 59.42 60.94 61.36 63.94 66.23 66.63 66.45 66.12 67.09 68.10 68.73 69.93 71.76 71.30 71.36 72.35 72.29 72.41 72.01 72.06 72.02 71.58 71.58 71.89 71.70 71.94 72.21 72.53 72.92 73.05 73.35 72.95 72.94 69.98 72.15 71.90 73.21 73.27 72.99
57.73 61.45 61.84 62.47 65.50 64.62 62.21 63.26 61.96 63.54 63.11 64.40 65.02 65.98 65.93 65.44 65.35 65.33 66.09 67.58 68.19 69.57 71.13 71.38 71.31 71.93 71.78 72.01 71.64 71.79 71.80 71.64 70.83 71.18 71.66 71.31 71.33 71.61 71.72 71.54 71.70 70.98 70.36 69.00 69.36 68.78 68.84 71.11 72.96
57.50 61.49 63.35 65.18 65.46 64.41 64.19 61.81 61.82 62.84 65.80 65.24 66.35 65.88 65.12 65.24 65.42 65.57 66.63 67.63 68.26 68.91 70.44 70.97 71.32 71.52 71.42 71.63 71.28 71.70 71.52 71.71 71.06 71.05 71.73 71.15 70.86 71.14 71.09 71.48 71.58 71.24 69.44 70.13 70.50 69.44 69.67 68.92 69.58
59.37 61.37 63.14 64.45 63.89 63.95 61.96 61.65 62.06 63.16 66.71 64.13 65.38 64.70 65.06 65.19 65.52 65.94 66.73 66.88 67.85 69.27 69.90 70.75 71.11 71.48 71.50 71.20 71.05 71.09 71.54 71.96 71.66 71.84 71.62 71.42 70.83 70.53 70.88 71.05 71.23 71.37 71.06 71.87 71.75 71.90 71.05 68.66 69.59
58.44 57.99 61.70 62.74 62.50 62.40 63.33 58.88 60.56 65.20 65.44 63.02 64.30 64.59 65.09 65.51 66.37 66.10 67.16 67.57 68.36 69.02 69.98 70.26 70.92 71.59 70.94 71.07 71.10 71.32 71.97 72.07 71.33 72.02 71.77 70.46 70.15 70.39 71.24 70.57 71.43 71.13 71.65 72.48 72.59 71.72 70.74 69.13 69.46
52.15 56.67 54.61 61.26 62.59 63.08 61.08 54.83 62.22 65.13 64.37 62.66 63.62 64.28 64.86 65.53 66.16 67.03 68.13 68.35 68.66 69.59 69.49 69.85 71.87 71.34 70.89 70.38 71.14 71.42 71.46 71.47 71.57 72.09 71.70 70.79 70.34 69.91 71.00 71.17 70.81 71.32 71.99 72.11 71.36 70.39 69.39 68.74 68.57
43.09 46.14 53.53 57.77 62.74 61.39 59.66 55.54 61.04 64.70 64.17 61.79 62.98 63.70 64.37 65.10 65.91 66.90 68.87 68.89 69.47 69.80 69.41 69.15 69.87 70.53 70.51 70.48 70.86 71.18 71.29 71.20 70.90 72.15 72.79 71.76 71.84 71.82 71.48 70.81 71.11 71.83 71.24 71.87 70.59 70.20 69.97 70.01 69.52
39.32 40.39 52.19 55.67 60.31 61.60 58.54 57.79 60.97 63.28 63.33 62.52 62.47 63.32 64.10 64.46 64.95 66.90 68.85 69.57 69.66 69.73 69.50 69.62 69.95 69.97 70.61 71.09 70.13 68.78 67.58 69.31 70.36 71.99 72.35 72.55 71.79 72.01 72.30 71.83 72.10 72.71 71.59 71.87 71.33 71.93 71.23 70.69 69.07
44.13 52.66 54.45 58.08 59.45 57.98 56.39 56.11 59.30 62.25 62.60 62.32 61.00 61.09 63.01 63.95 66.03 67.66 68.69 69.82 69.59 69.40 69.13 69.48 68.65 69.11 70.45 70.17 69.14 68.82 66.78 68.55 69.37 70.94 72.57 72.78 73.06 73.45 72.43 72.59 71.90 73.15 71.78 71.63 72.20 71.23 70.06 69.37 69.38
48.36 53.08 53.87 57.69 60.11 56.83 56.01 56.21 60.22 61.47 61.95 63.05 63.26 58.70 62.15 63.17 65.06 66.52 68.11 69.10 69.10 68.81 68.67 69.20 68.63 68.87 70.68 70.64 70.33 70.09 69.15 69.74 70.00 70.69 72.51 73.25 73.09 73.33 72.17 72.19 72.07 72.96 71.69 71.68 72.18 71.55 70.33 70.16 69.71
40.69 49.84 53.04 53.24 57.62 57.77 56.34 54.76 57.48 61.16 62.54 63.61 64.61 60.96 63.13 63.57 64.14 65.50 67.02 68.32 68.61 68.32 68.07 68.97 68.82 68.73 70.00 70.96 70.56 70.17 70.60 70.63 69.82 70.42 71.79 72.57 73.45 73.18 73.79 72.47 72.24 72.97 72.20 71.61 71.99 72.04 71.16 69.76 70.04
37.59 47.15 56.26 55.39 50.47 47.46 55.46 46.07 54.95 58.32 59.52 61.60 62.70 60.01 61.96 63.55 65.29 65.86 66.77 67.57 67.81 68.42 69.13 69.39 69.09 68.17 69.27 70.87 70.21 69.94 69.61 68.34 69.58 70.24 71.25 72.20 73.55 73.53 73.38 73.17 72.93 73.03 72.55 72.28 72.09 71.88 71.16 70.87 70.58
43.60 47.77 56.00 54.53 51.02 48.76 52.91 46.66 49.36 58.05 56.97 59.27 61.74 61.33 62.36 63.79 64.97 65.65 66.69 68.01 68.39 68.66 68.56 68.75 69.11 68.08 69.04 70.47 70.51 69.74 69.28 69.34 70.23 70.72 70.90 71.91 73.34 73.50 73.54 73.18 73.33 72.51 72.33 72.40 72.94 73.07 72.76 71.37 71.66
52.56 52.82 51.30 49.47 48.06 42.41 48.58 47.96 48.23 54.25 56.68 58.99 60.91 62.86 62.44 63.78 65.21 66.49 67.64 68.74 68.44 69.09 69.13 69.20 68.59 68.12 69.40 69.81 69.60 69.29 68.44 68.24 69.79 70.23 69.60 71.07 72.69 73.15 73.44 73.43 72.85 72.53 72.09 72.02 72.55 72.90 72.12 72.96 73.37
45.60 44.22 40.54 39.16 40.49 39.86 44.52 47.49 47.26 55.00 59.54 60.43 60.24 61.96 61.87 64.02 64.55 65.45 66.72 67.25 67.39 68.43 68.79 69.22 68.51 67.91 69.72 70.12 69.19 69.07 68.75 68.83 69.66 70.47 70.04 70.55 71.36 72.39 72.81 73.52 72.70 72.28 72.60 72.18 71.96 73.30 73.09 72.71 72.41
42.68 43.75 39.88 35.04 37.17 39.76 46.74 44.16 48.12 57.44 59.41 62.21 62.48 63.58 61.77 63.04 64.28 64.86 66.57 66.88 66.44 68.77 69.03 69.27 68.23 67.67 69.10 70.65 70.73 70.30 69.66 69.17 69.85 70.90 70.57 70.54 71.54 72.12 73.22 73.55 73.25 73.16 72.70 72.67 72.24 72.24 72.88 73.27 72.86
40.51 40.56 43.79 39.02 35.30 40.26 43.40 47.53 53.53 58.15 59.42 61.27 62.12 62.97 62.57 62.72 64.17 65.09 66.24 67.66 67.51 68.64 69.36 68.81 68.00 67.87 68.42 69.68 70.50 70.76 69.72 69.90 69.97 70.89 71.18 70.32 71.28 72.06 72.69 73.47 73.56 73.63 73.19 73.38 73.07 72.87 72.79 73.31 72.77
43.10 44.95 39.01 36.88 32.78 33.20 41.58 43.92 46.27 54.55 56.60 60.45 61.13 62.66 63.19 63.34 63.82 65.01 65.87 67.36 68.84 68.94 69.59 70.56 69.81 68.97 69.19 69.74 70.38 71.06 70.19 70.44 70.04 70.42 70.51 70.26 70.60 71.72 72.68 72.85 73.50 73.38 73.41 73.30 73.13 72.62 72.24 72.49 72.20
43.40 40.54 39.03 39.07 37.54 37.80 37.98 42.55 56.45 56.57 57.18 59.55 61.27 63.08 63.62 63.98 64.53 64.66 65.64 66.96 68.19 68.66 68.35 68.06 68.69 69.83 70.00 70.34 71.07 71.70 72.03 70.95 69.97 70.42 70.35 70.58 70.63 71.63 71.42 72.43 72.28 72.52 72.02 72.82 72.74 72.59 72.35 71.80 71.85
42.55 41.26 40.32 37.71 38.26 39.73 40.72 43.50 59.71 60.17 61.51 60.29 60.85 62.38 63.38 64.30 65.46 66.42 66.42 66.99 67.69 68.01 67.88 67.29 68.08 69.02 68.91 68.96 70.43 70.93 71.32 71.83 72.04 72.04 71.71 71.72 71.45 71.79 71.18 71.98 71.99 71.16 72.27 73.19 72.77 72.55 73.02 71.97 71.73

GFSSGP_sfc_wetblb_111.txt.gz
Wetbulb
72.39 72.31 72.20 69.34 60.74 59.93 55.61 57.83 62.74 56.60 57.69 61.90 62.21 61.03 60.98 63.54 60.61 56.36 69.51 71.73 72.44 73.46 75.09 75.94 76.49 76.57 76.56 76.96 76.61 76.46 76.95 77.14 77.14 77.26 77.14 76.91 76.86 76.86 76.54 76.99 76.75 76.41 77.06 76.10 76.20 76.44 76.10 76.26 76.31
73.27 70.63 70.13 66.11 56.70 53.75 55.67 61.03 58.60 58.28 61.23 63.42 64.06 63.85 63.33 61.91 65.96 66.27 68.69 72.22 73.17 74.04 75.21 75.76 76.92 76.19 75.61 75.68 76.54 76.73 76.84 77.06 76.82 76.99 77.10 77.04 76.49 76.80 76.77 76.98 76.91 76.97 77.58 76.71 75.88 76.18 76.56 76.51 76.23
71.19 70.75 66.21 62.96 56.38 52.98 55.05 60.46 61.93 61.77 62.99 63.76 63.95 66.53 64.84 62.83 65.89 67.69 71.60 72.87 73.79 74.34 75.25 76.37 76.04 76.09 75.61 75.49 75.38 75.97 76.27 76.69 76.41 76.80 77.00 76.86 76.75 77.04 76.78 76.92 76.91 76.67 77.44 76.54 76.43 76.17 76.14 76.15 76.28
69.66 69.51 66.11 59.27 54.90 58.19 59.45 61.15 62.97 60.99 62.97 65.69 65.41 62.22 65.50 67.84 67.44 70.51 72.89 73.22 73.97 74.71 75.45 76.01 76.64 76.18 76.80 75.60 75.60 75.52 75.08 75.78 76.13 76.46 76.64 76.63 77.01 76.80 77.05 77.31 77.05 76.19 76.46 75.94 75.86 75.81 76.15 75.76 75.65
71.88 67.34 58.77 56.93 56.86 59.77 62.34 64.34 63.28 61.61 62.81 64.05 64.77 60.65 62.43 68.61 71.79 72.22 72.72 73.14 73.16 73.86 75.08 76.66 76.81 76.42 76.57 76.15 75.59 76.04 75.83 75.34 76.19 76.21 76.70 76.91 76.36 76.73 76.73 77.09 76.87 76.70 76.34 76.40 76.29 76.32 76.72 76.64 76.51
64.83 64.59 55.86 53.86 56.64 60.54 63.50 64.97 63.66 63.00 64.06 63.30 62.39 61.71 63.89 70.03 70.90 71.72 72.79 72.76 73.56 73.30 73.85 76.24 76.48 76.38 76.27 76.23 75.85 75.98 75.84 75.83 75.96 76.15 76.38 76.58 76.21 76.67 77.56 76.77 76.85 76.60 76.49 76.29 76.57 76.09 76.40 76.30 75.60
63.46 60.66 56.16 56.33 57.12 58.71 61.67 65.34 62.77 63.27 63.27 62.06 64.45 60.79 65.16 67.89 71.06 72.35 72.85 73.52 73.58 73.18 74.60 76.45 75.67 76.77 76.24 76.31 75.88 75.67 76.10 75.74 76.04 76.08 76.10 76.65 75.62 76.55 76.76 77.29 76.74 76.43 76.26 75.90 75.90 75.99 76.04 75.32 75.74
65.90 62.77 57.44 58.87 57.05 58.42 62.65 64.49 65.19 63.40 62.57 66.62 66.32 60.64 61.86 67.17 71.22 72.21 72.78 72.51 72.39 73.53 74.72 75.32 76.54 75.75 76.15 76.28 76.07 75.79 75.63 75.63 75.87 76.29 75.93 76.30 76.17 76.12 76.59 77.28 77.51 76.43 75.99 75.87 75.79 75.85 75.84 75.54 76.05
66.77 59.44 56.33 57.41 58.36 59.90 63.21 61.94 65.45 66.69 63.89 65.05 65.98 65.40 67.35 69.78 70.87 70.59 70.11 70.95 72.56 73.38 73.87 75.15 75.54 75.78 76.02 76.25 75.87 75.54 75.80 76.21 75.91 76.45 76.41 76.14 76.85 76.59 76.84 77.12 77.07 76.38 75.93 75.54 75.29 75.65 75.98 75.92 75.97
63.62 60.06 57.38 61.26 61.89 60.80 61.94 62.58 63.06 62.72 63.29 63.10 64.26 67.16 68.58 69.34 69.43 67.76 67.40 69.07 70.74 71.98 73.39 74.88 75.00 75.07 75.55 75.28 76.47 76.51 76.33 76.52 76.52 76.66 76.89 77.36 77.20 76.40 76.75 77.12 76.63 76.40 75.76 75.85 75.96 75.68 75.40 74.71 75.91
62.60 59.16 61.77 62.64 63.26 63.70 61.93 62.11 64.70 62.30 60.84 63.23 62.83 65.22 67.24 68.18 68.14 66.70 68.00 69.57 70.77 72.41 72.93 74.11 74.95 75.47 75.17 75.73 75.71 75.72 76.13 75.55 75.88 76.33 76.17 76.07 76.32 77.64 77.01 76.37 76.13 75.80 73.88 74.42 74.62 74.81 75.88 74.48 76.13
60.19 62.41 62.80 63.67 64.42 62.49 62.14 63.31 62.93 63.68 63.82 65.80 66.21 67.04 67.35 67.19 66.46 66.47 67.74 69.35 70.80 71.91 72.78 74.16 75.35 75.33 76.03 75.63 74.61 74.87 74.32 74.64 73.95 75.03 75.84 75.40 75.09 75.76 75.74 74.73 74.67 74.55 73.99 73.89 74.43 74.74 74.53 75.05 76.03
60.53 62.11 63.79 65.20 63.97 64.29 64.05 62.02 62.10 62.44 65.57 66.97 67.11 67.01 66.66 66.55 66.32 67.39 68.57 70.25 71.55 71.54 72.70 73.81 74.85 75.56 75.81 75.47 75.49 75.07 74.55 74.40 74.47 74.71 75.21 74.96 74.73 74.82 74.68 75.15 74.71 73.39 75.22 75.64 75.59 74.92 74.33 74.07 74.87
60.67 63.04 64.20 64.73 63.01 63.77 61.35 61.53 62.77 63.43 66.04 65.65 65.73 65.61 66.14 66.09 66.68 67.41 68.28 69.13 70.49 71.74 72.37 73.58 74.01 75.32 75.27 74.91 75.44 75.20 75.65 75.46 75.59 75.23 75.02 75.31 75.00 74.74 74.89 74.73 74.35 74.90 76.35 76.63 76.59 76.10 74.58 74.42 74.72
62.63 60.89 62.72 63.36 63.55 62.52 62.73 59.44 59.88 64.68 64.56 64.38 64.46 65.16 66.18 67.28 68.17 67.32 68.43 68.79 70.47 71.81 73.08 73.03 73.83 74.71 74.93 74.38 75.05 75.27 75.81 75.53 75.64 75.39 75.79 75.04 74.98 74.92 75.61 75.50 75.31 75.71 76.66 76.99 77.07 75.96 74.43 74.34 74.15
59.05 60.53 56.18 62.29 63.65 63.03 62.39 56.33 62.03 64.97 63.72 63.56 64.26 65.33 66.24 67.52 68.45 68.80 69.35 69.93 71.29 72.09 72.91 73.86 73.80 74.68 74.74 74.83 75.09 75.38 75.71 75.54 75.72 76.05 75.64 74.85 74.82 74.59 75.89 75.81 74.89 76.41 76.91 76.98 75.37 74.71 73.62 73.18 73.62
53.29 52.47 55.57 58.85 63.28 62.56 61.00 57.68 62.46 65.17 62.91 64.07 64.88 65.59 66.37 67.24 68.79 69.59 70.31 70.96 71.68 72.82 73.44 73.44 74.49 74.41 74.53 75.11 75.33 75.80 75.87 75.96 76.43 76.63 76.26 75.60 74.96 75.13 76.40 75.33 75.21 76.37 76.49 76.48 75.26 74.71 75.14 75.01 75.05
48.04 50.22 56.75 57.25 60.85 61.52 59.54 57.68 60.66 63.57 62.63 63.86 65.06 65.63 66.31 66.82 68.11 70.02 70.80 71.46 72.14 73.11 73.86 74.10 74.13 74.84 75.17 74.76 75.30 74.88 74.68 75.20 76.24 76.06 76.21 75.76 76.26 75.88 76.99 75.65 76.31 76.88 76.32 76.35 76.06 75.86 75.65 73.99 74.11
50.89 54.47 57.08 58.84 61.05 59.85 57.36 56.61 59.60 62.71 64.03 63.83 64.61 65.26 65.92 67.07 69.33 70.38 71.05 71.80 72.29 73.19 73.30 73.75 73.59 74.53 74.28 73.69 73.15 72.80 72.43 73.65 74.57 76.34 76.17 76.37 75.82 76.43 76.83 76.13 75.96 77.26 75.85 76.10 76.61 75.41 75.10 73.98 74.95
59.10 57.60 56.47 59.12 60.02 58.86 57.51 57.56 60.26 62.09 63.03 64.03 64.35 65.21 66.23 67.42 68.45 69.41 70.44 71.62 71.94 72.63 73.31 73.77 73.64 74.15 74.65 74.42 74.48 74.59 73.36 73.83 74.53 75.32 76.30 76.26 76.24 76.82 76.68 76.87 76.12 76.75 75.51 76.27 76.35 76.24 74.52 74.52 74.84
52.24 54.09 56.44 56.57 58.69 59.59 58.77 56.27 58.80 61.92 63.46 64.47 65.36 65.72 66.60 67.27 67.37 68.86 69.82 71.09 71.98 72.38 72.95 73.34 74.16 74.53 75.05 75.28 74.89 74.39 74.32 74.38 72.62 73.44 74.85 75.74 76.60 76.46 76.93 76.72 76.26 77.33 77.19 75.24 76.37 75.88 75.35 73.05 74.64
47.99 53.08 58.74 56.77 54.99 51.73 57.06 47.62 54.64 59.55 60.71 62.22 63.70 64.93 64.94 66.93 68.52 69.29 69.97 70.62 71.49 72.38 73.35 73.80 74.41 74.35 74.87 75.62 74.88 74.49 75.42 73.84 74.07 73.34 75.05 75.60 76.65 76.40 76.36 76.82 76.82 77.26 76.70 76.60 76.37 75.91 75.98 76.32 73.37
49.31 53.04 59.04 57.30 55.07 54.39 53.49 51.06 53.89 58.76 58.10 60.65 63.20 64.75 65.16 66.66 68.05 68.76 69.84 71.05 71.91 72.79 72.87 73.33 74.18 73.85 74.88 75.47 75.91 76.62 75.83 76.71 74.23 73.93 75.14 75.98 76.54 76.81 76.40 76.74 76.63 76.76 76.31 76.74 77.02 76.96 77.10 76.23 75.05
55.59 57.92 57.31 56.43 54.82 46.45 52.38 52.05 52.12 55.82 57.44 60.62 63.12 64.54 65.99 66.34 67.79 69.08 70.59 71.73 70.95 72.79 72.77 72.96 73.65 73.70 74.47 75.21 75.35 75.45 75.20 74.51 73.58 73.95 75.09 76.91 77.23 77.53 76.87 76.48 77.04 77.02 76.66 76.46 76.63 77.35 76.57 76.96 76.87
54.42 52.50 46.82 46.15 46.56 45.42 52.49 52.19 53.97 59.32 61.23 62.12 62.19 64.27 65.58 66.99 67.23 68.41 69.35 70.31 70.98 71.03 72.15 72.75 73.41 73.60 73.83 73.97 74.65 75.00 74.96 74.53 74.81 75.88 74.13 74.71 74.99 76.32 76.35 77.06 76.55 75.98 76.77 76.68 76.99 77.04 76.84 76.85 76.26
53.88 52.06 46.55 40.52 42.55 46.72 53.08 49.89 53.79 60.66 62.81 64.60 64.63 64.46 65.51 66.54 67.23 68.24 69.57 70.39 69.67 71.00 70.15 72.41 72.81 73.38 73.68 73.59 74.31 74.98 75.28 74.38 74.43 75.38 74.90 73.88 75.32 78.13 76.80 77.76 76.78 76.54 76.74 76.57 76.47 75.56 76.49 77.02 76.67
47.73 46.46 52.89 48.57 48.57 48.42 51.78 53.99 57.85 61.11 61.23 63.54 63.81 64.30 64.63 65.49 67.21 68.03 69.69 69.72 70.41 71.40 71.20 72.40 72.91 73.11 73.42 73.66 74.98 74.91 74.97 74.38 74.07 74.59 75.57 75.04 75.50 76.12 76.51 76.68 76.95 76.81 76.89 77.04 77.04 75.24 76.10 76.79 76.85
50.38 52.18 45.73 47.65 43.63 42.68 48.47 50.60 54.21 57.26 59.02 61.44 62.59 63.19 64.88 66.27 66.98 68.07 69.37 68.92 69.72 70.92 70.48 73.03 73.24 73.32 73.32 74.04 74.80 75.42 75.45 75.33 75.08 74.84 74.91 74.51 75.01 75.34 76.23 76.04 76.54 76.95 76.95 76.91 77.03 76.34 76.45 76.32 76.03
48.47 48.00 48.55 49.62 48.21 45.89 45.54 50.23 58.34 58.76 60.69 61.59 63.46 64.05 65.49 65.66 66.64 68.05 67.81 68.13 69.11 70.52 70.27 71.11 73.04 73.33 73.03 73.41 74.12 74.54 75.01 75.40 75.27 74.83 75.03 74.67 75.10 75.51 75.71 76.07 76.06 76.21 76.59 76.48 76.69 76.73 76.30 75.60 76.02
51.33 50.35 51.31 45.92 46.49 50.47 50.29 51.69 61.05 61.99 62.65 63.24 63.02 64.43 65.15 65.89 66.54 67.44 67.23 69.56 70.05 69.14 69.01 70.56 72.40 72.91 73.85 74.19 74.49 74.48 75.45 75.53 75.02 75.02 75.37 75.54 74.34 75.48 76.08 75.39 75.53 75.85 76.04 76.66 76.32 75.52 75.60 75.49 75.37

GFSSGP_sfc_wetblb_114.txt.gz
Wetbulb
72.85 73.39 74.83 72.20 63.73 62.99 57.96 59.26 62.00 59.78 59.96 63.43 64.30 62.76 64.52 66.00 62.96 59.36 70.15 71.91 74.15 74.86 75.69 76.32 77.18 77.11 77.13 76.74 76.99 77.32 77.43 77.27 77.40 77.26 77.01 76.90 77.01 76.93 77.54 76.99 77.06 77.84 76.84 77.00 76.47 76.54 76.33 76.40 76.50
72.85 72.41 71.81 70.57 61.04 55.92 57.78 62.59 59.09 61.62 63.08 64.65 65.07 65.68 65.12 63.75 67.09 67.35 69.08 72.63 74.69 75.13 75.91 76.42 77.07 76.37 76.85 77.11 77.01 76.96 77.26 77.24 77.38 77.30 76.74 76.92 77.14 76.92 77.39 76.60 77.62 77.23 77.40 76.66 76.90 76.70 76.60 76.35 76.36
72.69 73.14 69.20 65.22 58.26 55.72 57.92 63.15 61.31 63.36 64.20 65.57 65.15 68.53 67.17 64.18 66.89 68.08 71.62 73.36 74.82 75.37 76.63 76.81 76.07 75.66 75.69 76.20 76.85 76.75 76.90 76.99 77.31 77.32 76.57 76.67 77.11 77.23 77.17 77.15 77.10 76.98 77.09 76.74 76.64 76.48 76.57 76.58 76.33
72.22 72.45 69.54 60.65 56.93 59.60 61.44 64.66 64.18 63.21 65.06 67.22 67.25 64.51 67.16 69.53 68.47 70.93 72.85 73.97 74.63 75.22 76.35 76.26 75.99 76.35 75.73 75.20 75.26 75.48 76.18 76.56 76.95 77.14 76.75 77.13 76.89 76.95 77.40 77.00 76.73 76.34 76.32 76.07 76.37 76.26 76.40 76.34 76.09
74.82 67.75 59.51 58.49 58.62 61.98 64.61 65.69 65.02 63.04 64.75 66.12 66.91 64.08 64.21 68.79 72.05 72.38 73.30 73.90 74.09 75.15 75.95 76.88 76.82 76.45 76.38 75.96 76.52 76.08 75.52 76.60 76.61 77.21 76.93 76.80 76.79 76.96 77.23 77.04 77.04 76.77 77.08 76.52 76.80 76.93 76.84 76.50 75.67
65.11 66.87 57.27 54.00 57.59 62.55 65.28 66.37 65.38 64.81 66.02 65.97 64.96 64.47 65.71 71.19 71.14 72.45 73.57 73.87 74.75 74.69 76.06 76.42 76.39 76.84 76.67 76.33 76.37 76.15 75.87 76.19 76.71 76.99 76.31 76.49 77.28 77.32 77.37 77.27 77.05 76.94 77.10 76.82 76.51 76.34 76.12 75.70 75.77
65.41 61.68 58.79 56.68 57.91 60.65 63.80 66.55 64.10 65.48 65.48 65.30 67.01 62.78 66.96 69.28 72.38 73.23 73.53 74.20 74.43 74.43 75.49 75.87 75.95 76.98 76.36 76.54 76.41 76.19 76.00 76.61 76.42 76.66 75.88 76.15 76.85 76.93 76.99 77.02 76.97 76.74 76.46 76.55 76.32 76.13 75.79 76.16 75.80
69.92 66.51 59.15 58.95 57.00 58.80 63.86 64.99 66.30 66.24 64.72 68.30 68.38 62.95 63.87 69.18 72.79 73.43 73.84 73.91 73.60 74.03 75.86 75.81 76.09 76.80 76.36 76.72 76.00 76.23 76.00 76.25 76.49 76.09 75.96 76.18 76.54 77.07 76.94 77.63 77.48 76.66 76.49 76.01 76.01 75.99 75.71 76.31 75.63
69.54 62.44 58.83 58.23 58.65 60.26 64.60 63.19 66.63 68.16 66.43 66.60 67.44 67.36 69.65 71.59 72.55 72.08 72.15 72.22 72.41 72.85 73.96 75.27 74.66 75.74 76.05 76.19 76.22 76.18 76.22 76.30 76.54 76.44 76.14 76.48 76.58 76.92 77.20 77.63 76.85 76.32 75.78 75.47 75.79 76.19 76.21 76.20 76.10
66.10 63.01 59.63 63.32 63.17 61.39 63.25 63.52 64.46 65.00 65.52 65.61 66.27 69.16 70.49 70.94 70.75 69.59 69.14 69.52 70.74 72.18 73.49 74.93 74.56 75.25 75.70 74.78 76.93 77.21 76.49 76.28 76.89 77.18 77.05 76.76 77.06 77.78 77.09 77.06 76.60 76.18 75.81 76.21 75.71 75.74 75.21 76.78 75.07
64.64 61.46 63.68 64.08 64.69 64.18 62.45 63.92 65.89 65.00 63.56 65.73 65.32 67.18 69.10 69.30 69.19 68.04 68.88 70.44 71.41 73.36 73.61 74.33 74.94 75.38 75.48 76.40 75.84 75.62 75.66 75.51 76.29 77.30 77.09 76.98 76.70 76.72 76.45 75.76 75.58 75.29 75.11 76.37 76.86 76.92 76.45 75.75 75.57
62.19 64.64 64.98 63.77 64.90 62.45 61.74 63.77 64.14 64.82 65.57 68.19 68.36 68.94 68.94 68.25 67.61 67.50 69.44 70.83 71.88 72.81 73.47 74.36 74.91 75.79 76.11 75.16 74.75 74.38 73.68 74.24 74.38 75.89 76.96 76.51 75.55 75.35 75.07 74.25 75.10 76.14 76.21 77.16 76.50 75.35 76.04 76.57 76.44
63.50 63.82 65.98 64.98 63.87 64.37 64.11 64.03 63.07 64.62 67.43 68.58 68.55 68.35 67.84 67.84 67.32 68.84 70.22 71.50 72.36 72.41 73.41 74.17 75.07 75.96 76.17 76.29 74.85 74.13 73.66 73.79 74.69 75.66 76.22 75.59 74.73 75.09 75.36 75.93 75.42 76.26 77.84 75.87 76.03 75.36 75.89 75.34 75.39
62.96 64.50 65.51 64.14 63.12 63.48 61.83 61.85 63.53 65.40 67.71 67.31 67.24 66.82 67.56 67.30 67.58 68.79 69.92 70.68 71.68 72.65 72.93 74.37 74.77 75.47 75.82 76.34 76.30 75.29 74.58 75.24 74.90 75.03 75.62 76.75 75.40 75.81 75.71 75.41 75.44 76.37 77.33 76.36 76.07 76.06 75.06 74.73 75.10
63.77 61.45 64.45 63.17 62.75 61.65 62.47 58.50 60.62 65.87 67.02 65.37 65.54 66.91 67.61 68.08 68.73 68.58 70.04 70.54 71.89 72.99 73.67 74.21 74.52 75.19 75.77 76.20 76.20 74.80 74.62 74.88 74.73 75.14 76.73 76.96 76.93 77.08 76.83 75.96 76.14 76.16 77.17 78.70 76.56 75.88 75.48 73.46 73.81
60.93 61.40 58.45 62.37 61.92 62.76 61.16 56.57 62.30 65.89 64.60 64.08 65.56 66.46 67.42 68.26 68.78 69.71 70.29 71.27 72.59 73.65 73.86 74.48 73.45 74.72 75.69 76.12 75.93 74.88 75.51 74.94 74.95 75.20 75.73 76.44 77.04 77.29 77.54 76.03 76.19 77.44 78.44 76.79 75.52 75.37 74.28 74.09 73.92
59.58 55.46 56.97 59.14 63.20 61.60 60.08 57.55 62.01 64.55 63.05 63.90 65.27 66.30 67.78 68.79 69.82 70.14 70.86 71.66 72.80 74.19 74.69 74.63 74.82 74.66 75.69 76.56 77.24 76.33 76.24 76.75 75.36 75.65 75.65 76.96 76.89 77.28 77.08 75.95 76.29 78.22 77.80 76.26 76.66 75.78 76.64 74.33 74.50
54.14 54.55 59.50 57.42 60.71 61.68 61.38 59.07 61.33 63.54 63.96 64.37 65.45 66.88 67.82 68.61 69.62 70.92 71.38 72.49 73.07 74.39 75.25 75.01 75.33 75.91 76.30 76.23 77.46 76.23 75.69 75.82 75.77 75.31 75.72 77.25 77.19 77.28 77.18 76.39 77.20 77.24 76.36 75.99 75.94 77.04 76.07 75.74 75.13
55.84 55.14 58.75 60.61 61.72 60.40 59.83 58.28 61.01 62.83 62.64 63.91 64.30 66.52 67.57 68.42 71.03 71.82 72.02 72.61 73.45 74.24 74.85 75.18 75.27 76.23 75.96 75.65 73.87 74.06 73.53 74.86 75.36 76.18 77.28 77.69 77.14 77.60 78.46 76.11 76.19 76.66 76.44 76.95 78.24 77.00 75.91 73.88 75.99
56.74 55.62 58.95 61.29 63.22 60.84 59.77 59.92 62.93 62.47 61.56 65.47 65.21 65.69 67.29 68.30 68.72 71.37 71.95 72.76 73.34 74.11 74.64 75.14 75.61 76.35 77.22 76.12 76.90 75.76 74.95 75.09 75.55 76.41 77.34 77.54 77.26 77.73 77.21 78.17 76.23 77.08 75.81 77.76 77.66 77.59 74.73 73.98 76.26
58.89 57.20 58.98 58.57 61.44 62.34 60.33 57.99 60.73 61.75 63.09 65.63 66.72 67.81 67.44 67.17 69.06 70.71 71.63 72.36 73.23 73.95 74.74 75.30 76.01 76.45 77.02 76.71 77.75 75.85 77.78 75.85 74.85 75.30 75.66 76.74 77.49 77.30 77.24 77.31 77.38 76.60 76.91 75.55 77.90 76.99 77.08 72.71 75.39
53.40 56.94 59.78 60.15 58.60 53.93 61.86 48.50 59.05 60.27 61.88 64.22 65.49 66.82 67.61 68.19 69.38 70.66 71.57 72.19 72.83 73.92 75.25 75.95 76.21 76.65 76.32 77.58 76.42 76.58 75.52 74.30 74.59 74.58 75.70 75.98 77.15 77.09 76.79 77.63 76.77 76.74 77.23 77.43 77.20 76.97 77.12 77.85 73.15
53.36 57.53 59.31 59.89 58.43 57.51 56.94 50.80 54.82 61.16 58.88 60.40 63.89 65.81 66.83 68.03 68.47 69.61 71.13 72.53 73.30 74.17 74.80 75.54 76.30 76.96 76.90 76.89 76.98 74.91 74.49 74.26 75.05 75.29 76.82 77.14 77.84 77.60 76.75 77.85 76.87 76.83 75.44 78.20 78.14 78.33 77.80 76.96 75.30
55.10 56.87 57.58 57.52 57.13 50.17 55.54 55.52 54.68 58.48 60.59 62.99 64.09 65.03 66.69 67.65 68.13 69.88 71.24 72.11 73.28 74.20 74.70 74.81 75.68 76.49 76.82 77.03 76.52 75.96 75.48 74.79 75.64 76.14 75.77 75.19 75.55 75.91 77.09 77.56 77.92 78.33 77.82 77.76 77.36 78.59 77.68 77.92 77.68
56.24 55.61 49.19 47.91 48.82 49.44 55.15 53.38 56.75 61.58 62.86 63.79 64.18 64.89 67.60 67.68 67.67 68.86 70.28 70.75 73.32 73.45 74.18 74.47 75.52 75.71 76.45 76.27 76.35 76.23 75.64 75.73 75.01 75.64 74.23 74.57 75.84 75.21 77.00 77.54 78.11 77.02 77.96 78.19 78.84 78.15 78.41 77.82 77.37
53.57 54.50 48.73 43.61 47.18 50.10 55.83 51.16 56.03 62.18 64.88 65.86 66.35 65.59 68.21 68.48 68.25 68.95 70.75 71.75 71.15 73.29 74.45 74.54 75.33 75.48 76.03 75.88 76.27 77.01 77.10 75.15 74.86 75.85 77.37 75.27 75.82 75.03 77.00 76.89 76.87 77.94 78.04 77.85 78.31 76.94 76.51 77.79 77.23
52.78 51.73 56.08 51.25 53.19 50.96 53.72 56.41 59.44 62.57 63.46 64.57 65.93 66.30 65.28 67.75 68.20 69.16 70.72 72.01 73.29 73.47 74.50 74.68 75.21 75.97 76.01 75.81 76.31 76.59 76.82 76.63 77.38 76.63 76.39 76.08 77.47 76.01 76.64 76.68 76.64 77.12 77.20 77.99 78.27 76.19 76.80 77.72 77.62
53.01 56.93 51.18 52.30 46.89 45.54 51.54 52.99 55.84 59.44 62.01 64.02 64.52 65.55 64.78 66.91 67.95 69.84 70.89 72.35 73.44 70.84 74.58 74.18 75.88 75.89 75.84 75.89 76.25 75.63 76.28 76.87 77.08 77.91 77.30 77.08 77.63 77.92 77.53 76.92 76.61 77.29 77.25 77.65 77.97 76.92 77.58 77.48 76.66
50.51 50.26 52.31 53.02 51.53 48.20 47.77 51.81 62.88 62.46 63.50 64.41 65.63 65.21 65.67 66.97 67.85 69.70 71.19 72.86 73.71 73.68 72.77 74.37 74.89 75.46 75.09 75.33 75.84 75.44 75.66 75.98 76.90 76.59 77.30 77.73 78.00 78.06 77.66 77.99 77.23 77.08 76.81 77.41 77.33 77.21 76.90 77.05 76.75
52.71 51.13 51.82 48.59 48.97 51.70 52.30 54.55 63.65 64.37 64.97 65.39 66.46 66.57 67.63 68.60 68.79 69.85 71.39 72.15 72.77 72.68 72.11 71.73 73.28 74.59 75.38 75.88 76.21 76.38 76.10 76.46 75.82 76.16 76.93 77.52 77.37 77.86 78.10 77.93 77.89 76.86 76.75 77.51 76.63 76.07 75.92 76.33 75.82

GFSSGP_sfc_wetblb_120.txt.gz
Wetbulb
72.14 72.34 72.59 69.96 61.34 61.11 55.87 57.55 61.12 58.75 59.68 64.96 66.47 65.47 63.32 64.27 61.41 57.16 70.98 72.89 73.07 73.64 75.12 75.64 77.14 77.41 77.12 77.54 77.85 77.51 77.61 77.46 77.41 77.83 77.98 77.61 77.00 77.74 77.41 77.26 76.85 77.96 77.30 76.79 77.14 76.73 76.72 76.94 76.22
70.92 72.57 73.00 67.83 58.48 54.16 56.26 60.29 59.22 61.15 63.41 66.68 67.27 65.27 63.24 61.03 66.14 67.95 69.81 73.19 73.57 73.81 74.69 75.25 77.55 77.74 77.59 77.46 78.15 77.71 77.48 77.13 77.66 77.78 77.81 77.55 77.84 77.97 77.11 77.04 77.16 76.80 76.87 77.10 76.55 76.81 76.78 76.70 75.74
70.42 72.85 66.65 62.24 58.40 54.89 55.52 59.95 61.24 62.89 64.93 66.79 66.01 65.77 64.21 63.23 67.91 69.48 72.10 72.78 73.39 74.49 74.93 76.29 77.72 77.73 77.50 77.86 77.66 77.47 77.50 77.20 77.86 78.04 77.31 77.32 77.69 77.67 77.62 76.97 76.81 76.95 77.31 77.34 76.98 76.71 76.74 76.56 76.05
71.06 70.60 67.52 58.90 56.69 59.67 60.25 61.36 62.07 64.32 66.48 67.19 64.61 61.87 65.95 68.85 68.80 71.80 73.39 74.66 74.58 73.42 73.84 76.07 76.86 76.46 76.76 76.91 77.31 77.20 77.91 77.67 78.06 77.64 77.79 77.63 77.31 76.94 76.60 76.49 76.57 76.99 76.93 77.15 77.12 76.07 76.23 75.65 74.94
71.53 69.54 61.44 57.80 58.38 61.66 64.03 63.23 64.79 63.91 65.70 65.15 64.98 62.20 63.94 68.44 70.93 72.49 72.63 73.22 73.04 72.59 73.15 75.57 77.02 76.91 76.56 75.82 77.10 77.54 77.61 77.87 78.00 77.53 77.44 78.07 77.54 77.10 77.18 77.38 77.00 77.05 77.11 76.63 76.27 75.96 75.85 75.46 74.66
65.97 68.07 59.60 56.88 58.33 61.14 64.00 64.35 66.04 65.49 65.74 65.20 63.61 63.47 64.40 69.42 69.89 71.92 73.09 72.96 73.28 72.61 74.04 75.62 76.83 76.76 77.17 76.59 76.46 77.35 77.13 77.46 78.00 78.02 77.35 77.79 77.90 77.36 77.69 77.74 77.08 76.91 76.80 76.66 76.18 75.79 75.51 74.74 73.95
65.60 63.91 58.25 59.12 59.32 61.03 65.10 67.32 64.00 64.91 64.18 63.73 66.67 61.91 65.12 67.77 71.04 72.43 73.11 73.44 73.56 73.80 74.18 75.34 75.56 76.16 77.25 76.64 76.84 76.94 77.46 77.49 78.08 78.32 78.29 77.67 77.77 77.92 77.29 77.93 77.55 76.94 76.72 76.66 76.70 76.14 75.48 74.08 73.08
67.78 65.56 59.24 58.93 58.44 59.33 65.53 66.39 67.30 65.50 63.38 68.66 68.02 61.73 62.25 67.98 71.89 72.19 72.39 73.50 71.61 72.46 73.22 74.99 75.82 75.54 75.02 75.67 76.78 77.01 76.98 77.28 77.66 77.88 78.15 78.40 78.53 77.25 77.13 76.76 78.12 76.88 76.60 76.44 76.35 76.53 75.76 75.08 73.72
70.25 62.31 58.78 58.56 60.23 61.04 65.62 64.80 67.88 69.27 66.67 66.94 68.04 66.39 67.84 69.94 71.28 70.95 71.29 71.71 72.27 71.93 73.35 74.05 74.41 74.89 75.35 75.68 75.81 76.87 76.73 77.33 77.33 76.88 77.53 77.54 75.57 75.75 76.59 77.12 77.61 76.60 76.57 76.66 76.44 76.49 76.32 75.41 75.30
65.79 62.34 61.05 64.69 64.54 62.69 65.41 65.70 66.43 66.20 66.02 65.74 66.12 67.95 68.75 69.71 70.20 68.78 68.36 69.24 69.07 69.97 72.20 71.04 72.98 74.16 74.34 74.10 76.32 76.38 75.55 75.95 75.90 77.21 76.88 76.85 77.17 76.83 75.48 76.48 76.77 76.28 76.26 76.48 77.39 77.35 76.99 76.18 74.78
65.47 61.66 64.49 65.83 65.96 66.61 65.41 64.80 67.37 65.45 63.56 65.17 64.96 66.29 68.27 68.90 69.36 68.36 68.85 69.15 70.95 71.17 72.73 72.50 74.86 74.77 73.45 75.53 75.62 75.43 75.71 74.84 76.72 77.48 78.40 75.94 75.83 74.93 74.62 75.21 74.93 75.99 76.66 76.03 76.28 76.29 75.97 75.99 74.94
62.93 65.24 66.58 64.85 66.09 64.67 63.45 65.68 64.33 66.23 66.45 68.37 68.39 67.85 68.08 67.77 68.15 68.71 67.54 68.65 70.03 69.84 71.27 73.77 75.48 76.33 76.56 75.10 75.12 73.70 74.58 74.75 75.05 75.08 74.99 77.10 75.35 77.14 72.57 73.94 76.81 75.19 77.39 76.28 75.38 75.20 76.40 74.42 73.94
64.28 65.01 66.80 66.64 65.81 64.62 65.66 64.94 64.11 65.71 68.54 69.16 68.89 67.83 67.31 67.36 67.34 68.11 69.66 70.01 71.89 71.03 71.92 74.19 75.62 76.96 73.92 78.38 76.88 74.53 73.58 72.75 74.72 75.35 75.58 77.52 75.94 77.27 73.20 72.78 74.86 72.33 74.32 74.66 75.04 75.98 75.22 74.41 75.05
64.16 64.95 64.56 64.68 64.00 64.05 63.65 64.18 66.02 65.96 68.22 67.85 67.54 66.44 66.95 66.68 67.04 68.88 69.68 70.31 70.88 71.15 71.34 73.90 73.87 76.87 75.10 78.56 78.05 76.38 71.81 74.29 73.59 73.69 73.30 78.67 74.70 76.97 75.11 74.93 73.21 72.07 74.56 76.61 76.09 76.37 74.12 73.93 74.56
64.35 62.43 63.59 63.36 62.87 62.96 64.33 60.02 62.20 65.95 66.99 66.46 66.07 65.66 66.37 66.48 68.19 68.34 69.78 70.47 70.69 71.66 71.83 73.05 73.83 75.94 77.01 77.57 76.76 73.07 75.28 74.56 75.00 75.69 76.32 76.06 75.52 75.84 74.70 77.05 72.26 75.92 78.46 77.97 77.26 76.38 75.97 73.65 73.62
62.63 62.89 57.81 60.12 61.84 62.33 62.25 55.76 63.56 66.08 65.67 64.98 64.98 65.05 65.78 66.55 67.92 69.36 70.09 71.13 71.89 71.03 71.72 73.15 74.21 74.85 76.01 76.16 77.07 74.80 73.85 73.76 74.53 75.91 77.49 78.51 78.29 75.21 76.72 75.80 77.50 78.57 79.43 77.69 75.32 75.60 74.59 74.03 74.28
60.09 55.67 56.31 57.57 61.92 60.59 60.58 57.09 63.51 65.47 64.75 63.98 63.97 64.48 65.04 66.18 67.70 69.28 70.12 71.43 71.89 72.27 72.30 72.41 74.68 74.30 74.80 77.86 74.69 75.44 78.68 75.11 75.26 75.79 76.10 78.61 78.81 74.09 75.11 74.40 77.24 77.77 77.80 73.28 76.30 74.30 74.54 74.92 73.83
54.80 56.43 58.18 56.42 59.53 60.03 58.45 57.91 61.38 65.28 63.75 63.11 63.57 64.13 65.06 65.59 66.56 69.06 69.99 72.16 72.46 73.35 73.87 73.58 72.97 73.65 75.91 75.68 78.93 77.91 78.16 73.50 76.49 76.72 76.45 77.97 77.86 74.79 74.01 76.61 77.22 77.61 75.09 71.89 76.55 77.27 77.04 74.75 70.54
58.22 57.55 56.52 58.66 60.59 58.09 57.60 57.88 59.12 64.29 63.24 62.39 63.62 64.10 64.58 65.33 67.75 68.97 70.09 72.28 71.98 72.89 73.54 74.72 73.34 75.80 76.24 75.49 71.08 74.94 75.90 77.77 75.42 76.42 77.85 79.29 77.86 77.02 73.88 78.11 77.35 73.21 73.18 77.50 77.75 77.43 76.87 75.83 76.94
57.94 58.60 56.10 58.98 60.58 58.48 57.03 56.78 59.83 62.00 62.54 63.52 63.27 64.23 64.70 65.96 66.30 68.70 70.06 71.48 72.79 73.49 71.42 74.19 75.34 76.54 76.27 75.37 76.59 72.83 77.18 76.11 76.98 77.65 77.86 78.44 78.22 78.14 78.66 77.88 78.37 78.64 77.89 77.50 77.86 78.39 77.17 74.55 76.25
58.06 57.29 57.57 56.58 57.85 58.02 56.73 54.91 57.99 61.22 60.45 63.05 65.12 65.81 65.86 65.87 65.24 68.79 68.80 69.40 71.66 73.59 73.67 74.76 75.70 76.84 76.15 72.12 72.87 74.13 76.32 73.27 76.36 74.60 76.31 77.89 77.88 78.26 76.72 79.34 78.98 77.39 74.38 74.62 78.13 78.61 76.47 75.05 74.94
55.13 61.40 60.63 57.82 55.05 50.60 57.56 49.55 56.14 57.87 58.10 60.41 63.34 65.19 64.18 66.44 66.48 68.37 68.76 69.27 70.81 72.61 75.34 76.16 76.56 76.65 76.38 77.75 75.09 72.36 71.84 71.79 74.16 75.61 76.63 75.19 77.29 78.02 76.98 77.97 78.74 76.82 70.83 73.03 77.74 78.09 78.12 75.13 74.68
57.07 61.18 60.54 58.81 56.12 54.39 54.65 53.03 55.83 58.18 55.81 56.95 60.18 64.28 65.48 65.83 66.83 68.16 69.18 70.65 70.36 72.69 73.11 76.34 76.51 76.21 76.74 78.06 77.48 75.41 77.18 75.01 70.95 76.29 75.22 78.74 79.12 77.33 75.35 77.86 78.99 79.12 75.82 77.44 77.89 78.44 78.70 78.03 76.63
59.36 59.30 58.30 56.16 53.79 46.33 53.80 53.83 55.02 56.84 59.52 59.38 61.18 64.35 65.98 65.37 67.46 67.26 69.23 70.97 71.23 72.77 73.05 74.33 76.01 76.05 77.22 76.29 76.62 77.16 76.44 73.53 75.05 74.11 75.26 75.41 76.86 77.28 78.87 77.47 78.45 79.66 79.25 76.01 78.09 79.09 78.78 79.39 79.03
57.52 54.28 47.79 47.02 46.65 46.31 54.74 53.92 56.03 61.31 62.80 61.57 61.90 64.25 65.62 66.48 67.86 66.78 66.29 70.18 70.69 72.13 73.29 73.71 75.57 75.68 76.22 76.41 76.68 76.49 77.55 74.27 76.09 75.99 76.24 73.89 73.69 74.83 77.67 77.92 78.74 78.41 78.37 78.41 78.74 79.19 78.13 78.32 78.20
56.06 54.73 49.97 45.08 45.69 48.23 55.25 50.56 55.63 64.04 64.45 63.62 63.78 65.34 66.64 67.07 66.02 68.25 67.46 71.01 69.61 72.04 73.66 73.43 75.19 75.40 75.74 76.32 76.66 77.09 76.69 76.26 76.74 77.77 77.29 77.52 73.31 74.80 77.38 78.61 78.52 79.07 79.45 78.86 79.63 79.07 77.99 78.51 78.05
54.66 51.61 56.46 52.89 54.28 50.59 51.93 54.09 62.31 63.68 62.05 61.97 63.17 65.64 65.96 66.51 66.00 67.86 70.76 69.90 68.16 71.92 72.14 74.48 75.22 75.06 75.88 75.86 76.68 77.06 78.59 76.98 73.96 78.12 75.15 78.28 77.20 76.46 77.95 78.34 78.79 78.36 76.79 78.71 79.39 77.94 78.03 78.16 79.02
55.01 56.91 51.38 52.66 46.88 44.65 49.61 52.56 53.58 58.38 59.97 62.56 64.16 65.63 66.56 67.32 68.26 67.79 69.36 70.56 70.10 70.89 71.76 75.06 76.07 75.42 75.86 75.86 76.10 75.95 76.66 77.15 77.47 78.37 78.89 77.68 77.11 80.00 77.47 78.23 77.64 78.21 77.69 79.04 78.97 77.17 77.76 77.57 77.66
51.51 50.92 52.47 54.06 52.59 47.87 45.52 48.94 60.09 57.42 58.39 64.02 65.45 65.91 67.23 66.81 69.04 70.05 70.19 71.26 69.31 70.22 71.25 75.13 75.79 75.63 75.37 76.13 75.77 76.07 75.99 76.49 77.02 77.13 77.78 78.65 78.68 78.10 77.70 77.54 77.43 77.93 77.95 78.29 77.47 77.20 77.06 76.98 76.80
53.25 51.48 52.31 48.69 49.35 51.89 51.34 51.42 58.62 57.48 61.26 62.50 65.59 67.71 66.74 68.31 69.54 70.33 69.34 69.67 69.79 71.70 70.47 74.85 74.61 75.36 75.14 75.16 75.80 76.24 76.63 76.49 75.60 76.38 76.91 78.64 79.60 77.74 77.84 78.58 77.75 77.34 77.54 77.64 77.87 77.33 76.41 76.18 76.14

GFSSGP_sfc_wetblb_123.txt.gz
Wetbulb
71.43 71.62 71.43 69.68 61.15 59.38 54.99 54.70 58.18 60.22 60.69 63.82 64.47 63.38 62.08 64.31 59.28 55.68 69.94 71.67 73.11 73.69 74.89 75.62 77.56 77.57 77.30 77.53 77.65 77.61 77.74 77.10 77.74 77.34 77.65 77.93 77.26 77.10 76.94 77.63 77.09 77.47 77.73 77.06 77.16 77.16 76.54 75.73 75.73
68.88 69.20 70.32 66.44 58.06 53.11 53.97 58.15 57.36 62.12 63.77 63.97 63.53 62.97 61.76 60.82 66.81 67.00 67.97 72.23 73.35 73.71 74.16 75.30 77.44 77.79 77.26 77.38 77.59 78.09 77.06 77.34 77.29 77.26 77.73 77.93 77.22 78.15 77.41 77.12 77.15 77.53 77.76 77.14 77.00 76.85 75.73 75.56 76.01
69.09 69.92 65.38 60.73 57.11 53.45 53.45 58.85 59.74 64.49 64.96 63.05 62.22 64.72 64.24 62.66 67.47 68.00 70.77 72.36 73.09 73.12 74.60 75.34 78.21 78.43 77.42 77.37 77.49 78.16 77.89 77.40 77.36 77.69 77.86 77.27 77.83 77.31 77.10 77.13 77.21 77.10 77.64 77.05 76.99 76.63 76.28 76.08 76.41
67.12 69.27 67.27 57.76 55.84 59.50 59.84 59.49 63.49 61.88 62.88 63.80 63.52 61.27 66.40 69.24 68.34 70.40 72.10 72.81 72.54 73.55 75.16 76.88 77.71 77.50 77.45 77.25 77.47 77.46 77.86 77.43 77.55 77.81 77.82 77.48 77.30 76.89 76.70 76.66 77.00 77.22 77.19 76.42 76.58 75.76 75.40 75.53 75.89
68.73 66.96 58.87 57.28 55.59 58.94 63.15 63.11 64.97 63.02 62.60 62.47 63.33 60.89 63.71 68.84 71.20 72.55 71.83 71.43 70.51 71.69 73.20 74.36 77.44 76.96 76.97 77.35 77.46 77.59 77.66 77.68 77.20 77.62 77.53 78.09 77.28 76.73 77.09 77.26 77.40 77.01 76.67 76.12 76.03 75.56 75.23 74.95 74.95
63.49 64.89 56.50 54.30 55.40 59.22 62.78 65.17 65.29 64.29 63.24 63.26 62.15 62.23 64.21 70.23 70.56 71.28 71.26 70.36 70.98 72.36 73.16 73.76 77.02 77.44 76.83 77.06 77.38 77.30 77.17 77.41 77.69 78.31 77.72 77.77 77.70 77.32 78.17 77.53 76.84 76.76 76.26 75.87 75.43 75.15 74.90 74.10 73.45
64.29 60.63 57.26 56.95 55.71 57.56 63.70 66.09 63.88 62.17 61.85 62.18 64.33 59.65 63.70 68.09 70.44 70.95 70.91 71.10 72.47 73.78 73.64 73.58 74.22 75.91 76.47 77.40 77.23 77.14 77.09 77.39 77.65 77.59 77.73 77.52 77.51 77.46 77.74 78.06 77.04 76.59 76.54 76.20 75.45 74.95 74.40 74.01 73.14
66.36 62.89 58.13 58.04 55.28 57.53 65.47 65.63 66.48 63.34 62.20 66.45 65.57 59.32 61.72 67.90 70.60 71.41 70.89 68.99 71.30 72.86 72.81 72.95 73.19 73.76 73.56 74.66 77.27 77.26 76.98 77.31 77.55 77.58 77.53 77.70 77.42 77.23 77.26 77.99 77.99 76.70 76.56 76.45 75.76 74.90 74.24 74.21 74.84
70.20 58.91 57.22 57.87 58.16 59.60 65.64 64.27 67.69 68.65 64.47 64.82 65.78 64.61 67.38 70.04 70.80 70.12 68.87 69.12 69.44 70.74 72.27 72.57 72.80 72.43 73.16 73.76 75.45 76.65 77.18 77.25 77.89 77.48 77.88 77.66 73.51 73.77 75.10 76.50 77.81 76.67 76.62 76.23 76.40 75.90 75.37 75.15 75.12
64.08 58.43 59.82 62.84 63.87 62.91 65.46 65.95 66.29 64.20 64.41 63.12 63.56 67.14 69.04 69.31 69.53 68.21 67.62 67.23 69.05 69.59 70.50 71.73 72.51 72.41 72.74 74.11 73.65 73.55 74.56 73.88 73.66 73.81 74.72 73.78 73.33 72.66 74.70 75.75 76.54 75.84 76.59 76.40 76.65 76.45 75.64 75.79 73.14
64.61 60.77 64.11 64.74 65.32 66.11 65.19 65.18 67.59 64.19 61.31 63.21 62.10 64.50 68.01 67.52 67.47 68.00 68.22 67.50 67.59 69.57 70.54 70.70 70.92 71.35 71.28 72.40 73.33 72.60 73.04 73.17 73.33 74.01 73.48 72.37 73.06 72.72 73.01 73.04 73.14 72.89 75.21 73.54 76.02 75.94 75.58 74.42 74.45
61.07 64.05 65.52 65.47 65.16 64.25 63.80 65.92 64.13 65.16 64.32 65.75 65.31 65.70 67.62 66.82 65.64 66.68 67.34 67.80 68.92 68.96 70.83 71.73 71.47 71.06 71.53 72.61 72.71 72.17 72.02 72.15 72.78 73.21 73.08 72.65 72.28 71.30 71.21 71.89 71.51 71.85 72.99 72.43 72.62 73.01 73.76 72.91 72.36
62.37 64.72 65.61 65.35 64.26 64.20 65.05 64.32 63.76 64.35 66.91 67.33 66.69 66.80 66.61 67.04 67.08 67.94 68.41 68.02 67.10 68.76 70.13 71.13 71.82 72.14 72.27 72.80 72.44 71.76 70.54 71.61 72.02 72.43 72.19 72.02 73.31 72.32 68.98 71.10 69.46 70.97 72.35 71.32 70.38 70.86 71.62 70.44 70.73
63.69 64.13 63.65 64.60 63.63 63.95 63.72 63.83 65.03 65.33 67.51 66.08 65.68 64.19 65.56 66.52 65.97 67.74 67.75 67.55 68.22 70.15 70.86 72.05 72.75 71.04 70.96 72.78 72.26 70.80 71.04 71.29 70.87 68.87 71.15 71.84 71.48 69.76 70.29 71.05 68.98 70.13 71.77 71.58 70.59 69.88 69.94 69.84 70.52
63.78 60.51 62.04 62.53 62.84 62.62 63.43 60.67 60.88 65.86 66.25 64.80 64.38 63.84 64.15 64.08 67.48 67.84 68.55 68.60 69.35 70.04 71.07 70.58 72.18 72.99 71.90 70.45 69.80 70.01 72.27 72.14 70.85 68.52 71.16 72.91 70.86 72.29 69.59 68.23 70.54 70.12 70.84 71.65 70.45 70.05 70.71 69.53 70.89
61.18 60.56 55.12 60.20 62.09 62.29 61.96 55.61 61.81 65.60 64.65 62.92 63.41 63.98 64.34 65.41 67.14 67.99 69.13 69.05 69.36 70.35 69.93 71.14 73.41 72.49 71.89 71.30 70.67 70.66 71.74 70.87 71.96 71.89 74.38 73.72 73.84 72.30 71.16 70.03 70.42 72.83 73.67 74.96 72.72 70.28 69.88 68.54 68.69
58.68 52.00 55.20 56.38 61.99 60.63 60.81 56.65 62.36 65.31 64.18 62.17 62.12 62.58 63.59 65.36 66.44 67.55 69.34 69.25 69.55 70.45 69.82 70.75 72.55 71.64 71.77 72.68 72.34 71.14 71.02 72.01 71.52 71.85 72.98 73.81 71.55 72.11 70.96 71.72 72.06 72.63 72.57 71.12 71.52 71.79 70.73 68.46 68.48
53.27 53.77 56.34 55.77 58.87 59.88 58.28 57.93 61.05 62.90 63.65 61.72 61.42 62.59 62.68 64.58 64.90 67.83 69.10 70.24 69.55 71.00 70.66 72.25 72.16 71.99 72.02 72.11 72.98 72.00 72.46 70.81 71.82 72.11 72.47 73.16 73.01 71.97 71.08 71.25 67.96 68.20 70.43 71.91 72.98 72.33 71.25 66.94 68.27
57.37 56.04 55.75 57.88 60.34 58.14 57.03 57.43 58.70 61.04 62.62 60.57 60.43 61.80 61.93 62.99 65.05 68.07 69.36 70.11 70.37 70.58 71.43 71.09 70.23 71.76 72.45 70.93 69.02 69.39 69.74 72.44 71.98 72.43 73.09 74.00 71.76 68.23 70.31 71.06 64.56 66.49 67.64 70.27 72.42 73.02 72.39 68.57 66.17
57.13 56.02 55.25 58.20 59.86 58.05 56.83 56.58 59.85 60.99 60.50 62.32 60.60 61.68 62.09 63.24 64.18 66.46 68.76 69.83 69.81 69.53 71.18 71.06 71.46 71.75 71.38 70.77 70.51 71.00 71.98 71.75 73.55 72.67 73.69 73.43 73.20 73.17 74.21 72.42 68.45 67.98 71.89 71.20 72.04 72.60 72.74 70.14 70.23
55.84 55.31 54.97 54.82 57.92 57.89 56.05 53.98 56.28 59.58 60.54 61.68 61.92 63.89 62.54 63.67 63.49 66.00 68.07 68.89 69.29 69.07 70.04 71.70 70.78 70.98 70.90 70.02 71.42 71.00 71.75 70.10 70.69 71.85 70.96 72.80 73.54 73.00 73.88 73.86 72.67 71.00 70.03 70.43 72.80 73.73 72.47 71.70 71.79
51.70 58.73 58.04 56.30 53.07 48.74 56.06 47.35 54.25 57.12 58.02 59.22 60.08 63.34 63.70 63.59 64.69 66.11 67.54 68.70 69.42 69.00 69.89 71.73 71.85 71.52 70.34 69.05 69.49 69.05 68.35 67.25 70.34 71.14 71.60 72.13 73.13 73.25 74.22 72.75 72.87 69.88 66.24 66.36 72.11 74.76 73.91 72.80 71.12
55.31 56.63 58.10 56.78 53.16 52.31 52.27 50.14 53.34 57.07 55.47 57.61 59.12 62.68 63.30 64.34 66.10 65.73 66.72 69.82 70.99 70.39 71.15 72.55 71.77 71.86 72.03 71.14 70.77 69.17 68.97 69.53 71.03 71.63 73.01 73.36 72.37 72.21 73.31 72.13 73.25 71.89 68.97 71.27 72.49 73.54 73.65 74.31 72.14
60.70 57.35 56.37 55.33 51.79 45.80 50.70 50.45 51.33 52.64 56.00 58.33 59.06 61.24 63.65 64.11 65.28 66.79 66.78 69.05 71.06 72.15 72.67 73.18 72.10 71.57 72.17 71.72 71.42 70.21 69.91 70.59 69.52 70.72 72.00 71.41 72.02 71.94 73.97 73.78 72.79 73.41 73.25 71.63 73.03 73.73 72.74 74.03 73.12
58.55 51.82 43.61 41.57 44.27 42.53 50.95 48.99 51.70 57.92 59.38 60.05 58.64 60.19 63.60 65.47 64.82 65.92 65.99 66.53 68.21 71.05 72.44 73.15 72.74 72.13 72.89 71.71 71.52 71.53 70.65 70.24 69.90 70.43 70.25 70.70 71.52 71.22 71.46 73.66 72.67 72.44 72.52 73.51 73.35 72.72 72.39 73.63 73.02
49.94 51.98 45.35 39.42 41.93 46.57 52.41 48.45 51.72 60.79 63.18 62.66 61.02 61.41 64.04 64.60 64.58 65.59 67.11 66.62 68.47 69.28 72.61 72.97 72.13 72.34 72.73 72.81 72.47 72.15 71.43 70.63 70.75 70.83 71.48 72.21 71.89 71.48 73.09 73.63 73.83 73.91 74.36 73.41 73.31 73.36 73.33 72.59 72.63
47.42 47.48 53.74 47.02 49.94 45.46 49.67 53.46 59.35 62.32 61.87 62.30 61.47 61.68 63.17 64.38 64.76 65.73 66.87 67.01 68.18 69.50 70.78 72.34 72.37 71.55 71.94 73.01 72.46 72.03 72.34 71.59 71.63 72.26 72.10 72.98 72.82 73.76 73.91 74.20 73.81 74.08 73.56 73.78 73.68 72.43 72.43 72.22 73.08
48.79 51.35 43.91 43.41 42.13 41.76 47.50 49.99 51.35 57.23 57.45 59.09 59.75 61.00 62.75 63.77 64.23 65.94 66.23 66.23 68.26 70.61 71.09 72.80 72.76 72.17 72.37 72.57 72.56 72.64 72.34 72.14 72.59 72.97 72.36 71.89 72.87 72.98 73.86 73.75 73.53 73.26 73.71 73.81 73.13 72.61 72.77 72.62 72.49
46.68 44.79 45.14 44.47 45.30 41.95 41.81 46.92 58.48 57.62 59.77 58.48 59.98 61.53 62.00 63.79 65.13 65.61 66.65 68.64 68.19 69.74 71.75 72.52 72.09 72.00 71.85 72.44 72.34 72.29 72.76 72.52 72.88 72.88 72.59 72.81 73.21 73.94 73.47 73.71 72.92 73.31 73.61 73.53 72.83 71.79 72.57 71.70 71.62
48.87 46.01 45.64 40.50 40.35 44.55 46.11 46.77 60.99 59.91 57.45 60.40 60.34 61.59 62.90 65.59 65.87 67.09 67.20 67.57 67.99 67.45 71.60 72.18 72.33 71.97 71.90 72.49 72.31 72.21 72.58 73.11 72.02 72.42 72.74 73.36 72.99 73.43 73.90 73.23 73.48 73.28 73.49 73.11 72.93 72.68 72.33 72.02 70.74